<?xml version="1.0" encoding="UTF-8" standalone="no" ?>
<gpx xmlns="http://www.topografix.com/GPX/1/1" xmlns:xsi="http://www.w3.org/2001/XMLSchema-instance" xsi:schemaLocation="http://www.topografix.com/GPX/1/1 http://www.topografix.com/GPX/1/1/gpx.xsd" version="1.1" creator="VisuGPX - https://www.visugpx.com">
  <metadata>
    <name>VTT - Escouissier / Vauplane</name>
    <desc><![CDATA[VTT - Escouissier / Vauplane
Relevé terrain:   1 900 m / 52 km
IL est préférable de monter au col de l\'Escouissier par le GR en portage au lieu de faire le tour par le col de Baratus (Sentier NR ou peu Roulant)]]></desc>
  </metadata>
  <trk>
    <name><![CDATA[2014-10-04T07:15:10Z]]></name>
    <trkseg>
      <trkpt lat="43.84851" lon="6.7307">
        <ele>1029.677</ele>
        <time>2014-10-04T07:15:16Z</time>
      </trkpt>
      <trkpt lat="43.84861" lon="6.73075">
        <ele>1018.722</ele>
        <time>2014-10-04T07:16:43Z</time>
      </trkpt>
      <trkpt lat="43.84871" lon="6.7308">
        <ele>1019.514</ele>
        <time>2014-10-04T07:16:49Z</time>
      </trkpt>
      <trkpt lat="43.84873" lon="6.73083">
        <ele>1019.614</ele>
        <time>2014-10-04T07:16:50Z</time>
      </trkpt>
      <trkpt lat="43.84898" lon="6.73101">
        <ele>1018.067</ele>
        <time>2014-10-04T07:16:56Z</time>
      </trkpt>
      <trkpt lat="43.84899" lon="6.73125">
        <ele>1018.133</ele>
        <time>2014-10-04T07:17:00Z</time>
      </trkpt>
      <trkpt lat="43.84897" lon="6.7313">
        <ele>1019.416</ele>
        <time>2014-10-04T07:17:01Z</time>
      </trkpt>
      <trkpt lat="43.84883" lon="6.7314">
        <ele>1025.911</ele>
        <time>2014-10-04T07:17:05Z</time>
      </trkpt>
      <trkpt lat="43.84859" lon="6.73146">
        <ele>1031.621</ele>
        <time>2014-10-04T07:17:10Z</time>
      </trkpt>
      <trkpt lat="43.84843" lon="6.7315">
        <ele>1032.98</ele>
        <time>2014-10-04T07:17:13Z</time>
      </trkpt>
      <trkpt lat="43.84817" lon="6.73154">
        <ele>1033.091</ele>
        <time>2014-10-04T07:17:18Z</time>
      </trkpt>
      <trkpt lat="43.84807" lon="6.73154">
        <ele>1033.521</ele>
        <time>2014-10-04T07:17:20Z</time>
      </trkpt>
      <trkpt lat="43.84793" lon="6.73152">
        <ele>1032.134</ele>
        <time>2014-10-04T07:17:23Z</time>
      </trkpt>
      <trkpt lat="43.84771" lon="6.73162">
        <ele>1029.866</ele>
        <time>2014-10-04T07:17:28Z</time>
      </trkpt>
      <trkpt lat="43.84762" lon="6.73174">
        <ele>1030.487</ele>
        <time>2014-10-04T07:17:30Z</time>
      </trkpt>
      <trkpt lat="43.84743" lon="6.73206">
        <ele>1027.583</ele>
        <time>2014-10-04T07:17:36Z</time>
      </trkpt>
      <trkpt lat="43.84728" lon="6.7325">
        <ele>1025.68</ele>
        <time>2014-10-04T07:17:44Z</time>
      </trkpt>
      <trkpt lat="43.84718" lon="6.73272">
        <ele>1026.326</ele>
        <time>2014-10-04T07:17:48Z</time>
      </trkpt>
      <trkpt lat="43.84702" lon="6.73309">
        <ele>1026.704</ele>
        <time>2014-10-04T07:17:55Z</time>
      </trkpt>
      <trkpt lat="43.84685" lon="6.73349">
        <ele>1031.082</ele>
        <time>2014-10-04T07:18:02Z</time>
      </trkpt>
      <trkpt lat="43.84672" lon="6.73393">
        <ele>1030.001</ele>
        <time>2014-10-04T07:18:10Z</time>
      </trkpt>
      <trkpt lat="43.84661" lon="6.73435">
        <ele>1030.061</ele>
        <time>2014-10-04T07:18:17Z</time>
      </trkpt>
      <trkpt lat="43.84649" lon="6.73481">
        <ele>1028.931</ele>
        <time>2014-10-04T07:18:25Z</time>
      </trkpt>
      <trkpt lat="43.84645" lon="6.73498">
        <ele>1027.916</ele>
        <time>2014-10-04T07:18:28Z</time>
      </trkpt>
      <trkpt lat="43.84639" lon="6.7352">
        <ele>1028.289</ele>
        <time>2014-10-04T07:18:32Z</time>
      </trkpt>
      <trkpt lat="43.84625" lon="6.7357">
        <ele>1028.535</ele>
        <time>2014-10-04T07:18:41Z</time>
      </trkpt>
      <trkpt lat="43.84612" lon="6.73614">
        <ele>1029.181</ele>
        <time>2014-10-04T07:18:49Z</time>
      </trkpt>
      <trkpt lat="43.84597" lon="6.73639">
        <ele>1030.024</ele>
        <time>2014-10-04T07:18:55Z</time>
      </trkpt>
      <trkpt lat="43.8458" lon="6.73668">
        <ele>1033.636</ele>
        <time>2014-10-04T07:19:01Z</time>
      </trkpt>
      <trkpt lat="43.84572" lon="6.73682">
        <ele>1034.223</ele>
        <time>2014-10-04T07:19:04Z</time>
      </trkpt>
      <trkpt lat="43.84551" lon="6.73705">
        <ele>1034.438</ele>
        <time>2014-10-04T07:19:10Z</time>
      </trkpt>
      <trkpt lat="43.84535" lon="6.73727">
        <ele>1031.752</ele>
        <time>2014-10-04T07:19:15Z</time>
      </trkpt>
      <trkpt lat="43.84517" lon="6.73749">
        <ele>1032.216</ele>
        <time>2014-10-04T07:19:20Z</time>
      </trkpt>
      <trkpt lat="43.84501" lon="6.73771">
        <ele>1031.733</ele>
        <time>2014-10-04T07:19:26Z</time>
      </trkpt>
      <trkpt lat="43.84493" lon="6.73796">
        <ele>1030.873</ele>
        <time>2014-10-04T07:19:31Z</time>
      </trkpt>
      <trkpt lat="43.84485" lon="6.7383">
        <ele>1033.839</ele>
        <time>2014-10-04T07:19:37Z</time>
      </trkpt>
      <trkpt lat="43.84478" lon="6.73864">
        <ele>1036.83</ele>
        <time>2014-10-04T07:19:44Z</time>
      </trkpt>
      <trkpt lat="43.8447" lon="6.73874">
        <ele>1038.871</ele>
        <time>2014-10-04T07:19:48Z</time>
      </trkpt>
      <trkpt lat="43.84459" lon="6.73901">
        <ele>1037.347</ele>
        <time>2014-10-04T07:19:54Z</time>
      </trkpt>
      <trkpt lat="43.84443" lon="6.7394">
        <ele>1037.686</ele>
        <time>2014-10-04T07:20:02Z</time>
      </trkpt>
      <trkpt lat="43.84437" lon="6.73956">
        <ele>1036.183</ele>
        <time>2014-10-04T07:20:05Z</time>
      </trkpt>
      <trkpt lat="43.84427" lon="6.73998">
        <ele>1035.484</ele>
        <time>2014-10-04T07:20:13Z</time>
      </trkpt>
      <trkpt lat="43.84415" lon="6.74047">
        <ele>1036.516</ele>
        <time>2014-10-04T07:20:22Z</time>
      </trkpt>
      <trkpt lat="43.84409" lon="6.7408">
        <ele>1036.726</ele>
        <time>2014-10-04T07:20:28Z</time>
      </trkpt>
      <trkpt lat="43.84403" lon="6.74124">
        <ele>1036.434</ele>
        <time>2014-10-04T07:20:36Z</time>
      </trkpt>
      <trkpt lat="43.84396" lon="6.74164">
        <ele>1038.588</ele>
        <time>2014-10-04T07:20:43Z</time>
      </trkpt>
      <trkpt lat="43.84388" lon="6.74195">
        <ele>1040.401</ele>
        <time>2014-10-04T07:20:49Z</time>
      </trkpt>
      <trkpt lat="43.84377" lon="6.74223">
        <ele>1040.73</ele>
        <time>2014-10-04T07:20:55Z</time>
      </trkpt>
      <trkpt lat="43.8437" lon="6.74232">
        <ele>1040.48</ele>
        <time>2014-10-04T07:20:57Z</time>
      </trkpt>
      <trkpt lat="43.84358" lon="6.74253">
        <ele>1041.042</ele>
        <time>2014-10-04T07:21:02Z</time>
      </trkpt>
      <trkpt lat="43.84331" lon="6.74284">
        <ele>1040.83</ele>
        <time>2014-10-04T07:21:10Z</time>
      </trkpt>
      <trkpt lat="43.84309" lon="6.74307">
        <ele>1042.03</ele>
        <time>2014-10-04T07:21:17Z</time>
      </trkpt>
      <trkpt lat="43.8429" lon="6.74327">
        <ele>1044.132</ele>
        <time>2014-10-04T07:21:23Z</time>
      </trkpt>
      <trkpt lat="43.84273" lon="6.74361">
        <ele>1042.075</ele>
        <time>2014-10-04T07:21:31Z</time>
      </trkpt>
      <trkpt lat="43.84254" lon="6.74379">
        <ele>1044.068</ele>
        <time>2014-10-04T07:21:37Z</time>
      </trkpt>
      <trkpt lat="43.84244" lon="6.74387">
        <ele>1042.835</ele>
        <time>2014-10-04T07:21:40Z</time>
      </trkpt>
      <trkpt lat="43.84223" lon="6.74395">
        <ele>1040.781</ele>
        <time>2014-10-04T07:21:45Z</time>
      </trkpt>
      <trkpt lat="43.84188" lon="6.74408">
        <ele>1039.794</ele>
        <time>2014-10-04T07:21:53Z</time>
      </trkpt>
      <trkpt lat="43.84158" lon="6.74421">
        <ele>1041.078</ele>
        <time>2014-10-04T07:22:00Z</time>
      </trkpt>
      <trkpt lat="43.84134" lon="6.74436">
        <ele>1040.747</ele>
        <time>2014-10-04T07:22:07Z</time>
      </trkpt>
      <trkpt lat="43.84106" lon="6.74454">
        <ele>1040.935</ele>
        <time>2014-10-04T07:22:14Z</time>
      </trkpt>
      <trkpt lat="43.84083" lon="6.74467">
        <ele>1040.914</ele>
        <time>2014-10-04T07:22:20Z</time>
      </trkpt>
      <trkpt lat="43.84054" lon="6.74482">
        <ele>1039.883</ele>
        <time>2014-10-04T07:22:27Z</time>
      </trkpt>
      <trkpt lat="43.84026" lon="6.74496">
        <ele>1038.942</ele>
        <time>2014-10-04T07:22:34Z</time>
      </trkpt>
      <trkpt lat="43.83995" lon="6.74509">
        <ele>1039.887</ele>
        <time>2014-10-04T07:22:42Z</time>
      </trkpt>
      <trkpt lat="43.83966" lon="6.74517">
        <ele>1044.012</ele>
        <time>2014-10-04T07:22:50Z</time>
      </trkpt>
      <trkpt lat="43.8395" lon="6.74519">
        <ele>1046.505</ele>
        <time>2014-10-04T07:22:55Z</time>
      </trkpt>
      <trkpt lat="43.83931" lon="6.74512">
        <ele>1054.416</ele>
        <time>2014-10-04T07:23:01Z</time>
      </trkpt>
      <trkpt lat="43.83918" lon="6.74507">
        <ele>1062.634</ele>
        <time>2014-10-04T07:23:07Z</time>
      </trkpt>
      <trkpt lat="43.83907" lon="6.74503">
        <ele>1067.483</ele>
        <time>2014-10-04T07:23:12Z</time>
      </trkpt>
      <trkpt lat="43.83893" lon="6.74498">
        <ele>1067.803</ele>
        <time>2014-10-04T07:23:17Z</time>
      </trkpt>
      <trkpt lat="43.83867" lon="6.74492">
        <ele>1063.826</ele>
        <time>2014-10-04T07:23:24Z</time>
      </trkpt>
      <trkpt lat="43.83848" lon="6.74487">
        <ele>1060.17</ele>
        <time>2014-10-04T07:23:29Z</time>
      </trkpt>
      <trkpt lat="43.83825" lon="6.74483">
        <ele>1060.422</ele>
        <time>2014-10-04T07:23:35Z</time>
      </trkpt>
      <trkpt lat="43.83805" lon="6.74483">
        <ele>1061.693</ele>
        <time>2014-10-04T07:23:40Z</time>
      </trkpt>
      <trkpt lat="43.83801" lon="6.74483">
        <ele>1061.966</ele>
        <time>2014-10-04T07:23:41Z</time>
      </trkpt>
      <trkpt lat="43.83786" lon="6.74494">
        <ele>1060.995</ele>
        <time>2014-10-04T07:23:45Z</time>
      </trkpt>
      <trkpt lat="43.83794" lon="6.745">
        <ele>1061.087</ele>
        <time>2014-10-04T07:23:49Z</time>
      </trkpt>
      <trkpt lat="43.83817" lon="6.74498">
        <ele>1064.604</ele>
        <time>2014-10-04T07:23:58Z</time>
      </trkpt>
      <trkpt lat="43.83829" lon="6.74501">
        <ele>1067.771</ele>
        <time>2014-10-04T07:24:04Z</time>
      </trkpt>
      <trkpt lat="43.83842" lon="6.74506">
        <ele>1070.191</ele>
        <time>2014-10-04T07:24:10Z</time>
      </trkpt>
      <trkpt lat="43.83856" lon="6.74509">
        <ele>1072.884</ele>
        <time>2014-10-04T07:24:17Z</time>
      </trkpt>
      <trkpt lat="43.83869" lon="6.74515">
        <ele>1075.576</ele>
        <time>2014-10-04T07:24:23Z</time>
      </trkpt>
      <trkpt lat="43.83878" lon="6.74521">
        <ele>1075.852</ele>
        <time>2014-10-04T07:24:27Z</time>
      </trkpt>
      <trkpt lat="43.83888" lon="6.74543">
        <ele>1075.037</ele>
        <time>2014-10-04T07:24:34Z</time>
      </trkpt>
      <trkpt lat="43.83901" lon="6.74562">
        <ele>1073.975</ele>
        <time>2014-10-04T07:24:40Z</time>
      </trkpt>
      <trkpt lat="43.83911" lon="6.74579">
        <ele>1074.694</ele>
        <time>2014-10-04T07:24:46Z</time>
      </trkpt>
      <trkpt lat="43.83915" lon="6.7459">
        <ele>1078.63</ele>
        <time>2014-10-04T07:24:52Z</time>
      </trkpt>
      <trkpt lat="43.83914" lon="6.74594">
        <ele>1078.144</ele>
        <time>2014-10-04T07:24:55Z</time>
      </trkpt>
      <trkpt lat="43.83909" lon="6.74604">
        <ele>1079.799</ele>
        <time>2014-10-04T07:25:01Z</time>
      </trkpt>
      <trkpt lat="43.83916" lon="6.74613">
        <ele>1080.88</ele>
        <time>2014-10-04T07:25:06Z</time>
      </trkpt>
      <trkpt lat="43.83919" lon="6.74621">
        <ele>1084.052</ele>
        <time>2014-10-04T07:25:11Z</time>
      </trkpt>
      <trkpt lat="43.83927" lon="6.74636">
        <ele>1084.859</ele>
        <time>2014-10-04T07:25:18Z</time>
      </trkpt>
      <trkpt lat="43.83926" lon="6.74643">
        <ele>1086.879</ele>
        <time>2014-10-04T07:25:22Z</time>
      </trkpt>
      <trkpt lat="43.83927" lon="6.74657">
        <ele>1091.107</ele>
        <time>2014-10-04T07:25:28Z</time>
      </trkpt>
      <trkpt lat="43.83927" lon="6.74661">
        <ele>1093.669</ele>
        <time>2014-10-04T07:25:30Z</time>
      </trkpt>
      <trkpt lat="43.83936" lon="6.74682">
        <ele>1102.317</ele>
        <time>2014-10-04T07:25:38Z</time>
      </trkpt>
      <trkpt lat="43.83937" lon="6.74698">
        <ele>1107.659</ele>
        <time>2014-10-04T07:25:44Z</time>
      </trkpt>
      <trkpt lat="43.8394" lon="6.7471">
        <ele>1114.828</ele>
        <time>2014-10-04T07:25:49Z</time>
      </trkpt>
      <trkpt lat="43.83941" lon="6.74719">
        <ele>1114.583</ele>
        <time>2014-10-04T07:25:52Z</time>
      </trkpt>
      <trkpt lat="43.83939" lon="6.74739">
        <ele>1120.779</ele>
        <time>2014-10-04T07:25:59Z</time>
      </trkpt>
      <trkpt lat="43.83941" lon="6.7474">
        <ele>1124.119</ele>
        <time>2014-10-04T07:26:09Z</time>
      </trkpt>
      <trkpt lat="43.84009" lon="6.7475">
        <ele>1110.372</ele>
        <time>2014-10-04T07:26:27Z</time>
      </trkpt>
      <trkpt lat="43.84052" lon="6.74757">
        <ele>1106.579</ele>
        <time>2014-10-04T07:26:35Z</time>
      </trkpt>
      <trkpt lat="43.84043" lon="6.7476">
        <ele>1105.895</ele>
        <time>2014-10-04T07:27:02Z</time>
      </trkpt>
      <trkpt lat="43.83955" lon="6.74759">
        <ele>1091.563</ele>
        <time>2014-10-04T07:27:33Z</time>
      </trkpt>
      <trkpt lat="43.83957" lon="6.74753">
        <ele>1092.859</ele>
        <time>2014-10-04T07:27:41Z</time>
      </trkpt>
      <trkpt lat="43.83956" lon="6.74751">
        <ele>1090.435</ele>
        <time>2014-10-04T07:28:05Z</time>
      </trkpt>
      <trkpt lat="43.83956" lon="6.74756">
        <ele>1088.301</ele>
        <time>2014-10-04T07:28:10Z</time>
      </trkpt>
      <trkpt lat="43.83955" lon="6.74758">
        <ele>1088.106</ele>
        <time>2014-10-04T07:28:11Z</time>
      </trkpt>
      <trkpt lat="43.83955" lon="6.74771">
        <ele>1090.218</ele>
        <time>2014-10-04T07:28:17Z</time>
      </trkpt>
      <trkpt lat="43.83968" lon="6.7479">
        <ele>1097.529</ele>
        <time>2014-10-04T07:28:24Z</time>
      </trkpt>
      <trkpt lat="43.83974" lon="6.74803">
        <ele>1099.284</ele>
        <time>2014-10-04T07:28:29Z</time>
      </trkpt>
      <trkpt lat="43.83978" lon="6.74818">
        <ele>1102.172</ele>
        <time>2014-10-04T07:28:35Z</time>
      </trkpt>
      <trkpt lat="43.83981" lon="6.74833">
        <ele>1104.882</ele>
        <time>2014-10-04T07:28:39Z</time>
      </trkpt>
      <trkpt lat="43.83983" lon="6.74845">
        <ele>1104.441</ele>
        <time>2014-10-04T07:28:45Z</time>
      </trkpt>
      <trkpt lat="43.83985" lon="6.74866">
        <ele>1108.926</ele>
        <time>2014-10-04T07:28:52Z</time>
      </trkpt>
      <trkpt lat="43.83997" lon="6.74884">
        <ele>1109.383</ele>
        <time>2014-10-04T07:28:59Z</time>
      </trkpt>
      <trkpt lat="43.84" lon="6.74889">
        <ele>1112.713</ele>
        <time>2014-10-04T07:29:01Z</time>
      </trkpt>
      <trkpt lat="43.84009" lon="6.74906">
        <ele>1117.329</ele>
        <time>2014-10-04T07:29:07Z</time>
      </trkpt>
      <trkpt lat="43.84014" lon="6.74926">
        <ele>1119.116</ele>
        <time>2014-10-04T07:29:14Z</time>
      </trkpt>
      <trkpt lat="43.84014" lon="6.74933">
        <ele>1118.353</ele>
        <time>2014-10-04T07:29:16Z</time>
      </trkpt>
      <trkpt lat="43.84017" lon="6.74949">
        <ele>1116.571</ele>
        <time>2014-10-04T07:29:22Z</time>
      </trkpt>
      <trkpt lat="43.84018" lon="6.74952">
        <ele>1116.433</ele>
        <time>2014-10-04T07:29:23Z</time>
      </trkpt>
      <trkpt lat="43.84025" lon="6.74976">
        <ele>1121.4</ele>
        <time>2014-10-04T07:29:30Z</time>
      </trkpt>
      <trkpt lat="43.84029" lon="6.74987">
        <ele>1119.961</ele>
        <time>2014-10-04T07:29:34Z</time>
      </trkpt>
      <trkpt lat="43.84031" lon="6.75005">
        <ele>1119.484</ele>
        <time>2014-10-04T07:29:39Z</time>
      </trkpt>
      <trkpt lat="43.84025" lon="6.75023">
        <ele>1120.588</ele>
        <time>2014-10-04T07:29:46Z</time>
      </trkpt>
      <trkpt lat="43.84025" lon="6.75035">
        <ele>1122.902</ele>
        <time>2014-10-04T07:29:50Z</time>
      </trkpt>
      <trkpt lat="43.84036" lon="6.75049">
        <ele>1128.833</ele>
        <time>2014-10-04T07:29:54Z</time>
      </trkpt>
      <trkpt lat="43.84044" lon="6.75065">
        <ele>1133.51</ele>
        <time>2014-10-04T07:30:00Z</time>
      </trkpt>
      <trkpt lat="43.84048" lon="6.75074">
        <ele>1133.26</ele>
        <time>2014-10-04T07:30:04Z</time>
      </trkpt>
      <trkpt lat="43.84054" lon="6.75093">
        <ele>1134.237</ele>
        <time>2014-10-04T07:30:11Z</time>
      </trkpt>
      <trkpt lat="43.84048" lon="6.75109">
        <ele>1135.421</ele>
        <time>2014-10-04T07:30:18Z</time>
      </trkpt>
      <trkpt lat="43.84045" lon="6.75127">
        <ele>1142.373</ele>
        <time>2014-10-04T07:30:24Z</time>
      </trkpt>
      <trkpt lat="43.84043" lon="6.75137">
        <ele>1144.295</ele>
        <time>2014-10-04T07:30:28Z</time>
      </trkpt>
      <trkpt lat="43.84048" lon="6.75143">
        <ele>1147.225</ele>
        <time>2014-10-04T07:30:34Z</time>
      </trkpt>
      <trkpt lat="43.84047" lon="6.75151">
        <ele>1147.884</ele>
        <time>2014-10-04T07:30:38Z</time>
      </trkpt>
      <trkpt lat="43.84047" lon="6.75164">
        <ele>1148.629</ele>
        <time>2014-10-04T07:30:43Z</time>
      </trkpt>
      <trkpt lat="43.84044" lon="6.75186">
        <ele>1146.828</ele>
        <time>2014-10-04T07:30:50Z</time>
      </trkpt>
      <trkpt lat="43.84042" lon="6.75191">
        <ele>1138.995</ele>
        <time>2014-10-04T07:30:54Z</time>
      </trkpt>
      <trkpt lat="43.84037" lon="6.75202">
        <ele>1133.911</ele>
        <time>2014-10-04T07:30:59Z</time>
      </trkpt>
      <trkpt lat="43.84038" lon="6.75214">
        <ele>1134.483</ele>
        <time>2014-10-04T07:31:03Z</time>
      </trkpt>
      <trkpt lat="43.84041" lon="6.7523">
        <ele>1133.889</ele>
        <time>2014-10-04T07:31:09Z</time>
      </trkpt>
      <trkpt lat="43.84041" lon="6.75236">
        <ele>1136.451</ele>
        <time>2014-10-04T07:31:12Z</time>
      </trkpt>
      <trkpt lat="43.84038" lon="6.7526">
        <ele>1147.476</ele>
        <time>2014-10-04T07:31:19Z</time>
      </trkpt>
      <trkpt lat="43.84037" lon="6.75273">
        <ele>1155.605</ele>
        <time>2014-10-04T07:31:23Z</time>
      </trkpt>
      <trkpt lat="43.84038" lon="6.75289">
        <ele>1164.449</ele>
        <time>2014-10-04T07:31:29Z</time>
      </trkpt>
      <trkpt lat="43.84036" lon="6.75307">
        <ele>1170.892</ele>
        <time>2014-10-04T07:31:36Z</time>
      </trkpt>
      <trkpt lat="43.84032" lon="6.75324">
        <ele>1173.45</ele>
        <time>2014-10-04T07:31:41Z</time>
      </trkpt>
      <trkpt lat="43.84032" lon="6.75343">
        <ele>1175.624</ele>
        <time>2014-10-04T07:31:48Z</time>
      </trkpt>
      <trkpt lat="43.84028" lon="6.75356">
        <ele>1174.446</ele>
        <time>2014-10-04T07:31:54Z</time>
      </trkpt>
      <trkpt lat="43.84029" lon="6.75373">
        <ele>1168.828</ele>
        <time>2014-10-04T07:32:01Z</time>
      </trkpt>
      <trkpt lat="43.84029" lon="6.75375">
        <ele>1168.669</ele>
        <time>2014-10-04T07:32:02Z</time>
      </trkpt>
      <trkpt lat="43.84024" lon="6.75379">
        <ele>1167.448</ele>
        <time>2014-10-04T07:32:07Z</time>
      </trkpt>
      <trkpt lat="43.84016" lon="6.75377">
        <ele>1162.834</ele>
        <time>2014-10-04T07:32:12Z</time>
      </trkpt>
      <trkpt lat="43.8401" lon="6.75371">
        <ele>1154.918</ele>
        <time>2014-10-04T07:32:18Z</time>
      </trkpt>
      <trkpt lat="43.84009" lon="6.7537">
        <ele>1152.741</ele>
        <time>2014-10-04T07:32:20Z</time>
      </trkpt>
      <trkpt lat="43.84022" lon="6.75372">
        <ele>1146.828</ele>
        <time>2014-10-04T07:32:25Z</time>
      </trkpt>
      <trkpt lat="43.84037" lon="6.75374">
        <ele>1139.127</ele>
        <time>2014-10-04T07:32:32Z</time>
      </trkpt>
      <trkpt lat="43.84015" lon="6.75368">
        <ele>1139.854</ele>
        <time>2014-10-04T07:32:36Z</time>
      </trkpt>
      <trkpt lat="43.84014" lon="6.75367">
        <ele>1130.954</ele>
        <time>2014-10-04T07:33:02Z</time>
      </trkpt>
      <trkpt lat="43.84019" lon="6.75366">
        <ele>1140.914</ele>
        <time>2014-10-04T07:33:08Z</time>
      </trkpt>
      <trkpt lat="43.84025" lon="6.75364">
        <ele>1142.166</ele>
        <time>2014-10-04T07:33:12Z</time>
      </trkpt>
      <trkpt lat="43.8402" lon="6.75366">
        <ele>1135.88</ele>
        <time>2014-10-04T07:33:17Z</time>
      </trkpt>
      <trkpt lat="43.84023" lon="6.75378">
        <ele>1132.545</ele>
        <time>2014-10-04T07:33:22Z</time>
      </trkpt>
      <trkpt lat="43.84015" lon="6.75409">
        <ele>1139.782</ele>
        <time>2014-10-04T07:33:29Z</time>
      </trkpt>
      <trkpt lat="43.84008" lon="6.75423">
        <ele>1151.934</ele>
        <time>2014-10-04T07:33:34Z</time>
      </trkpt>
      <trkpt lat="43.84009" lon="6.75442">
        <ele>1168.378</ele>
        <time>2014-10-04T07:33:40Z</time>
      </trkpt>
      <trkpt lat="43.84003" lon="6.75467">
        <ele>1186.195</ele>
        <time>2014-10-04T07:33:48Z</time>
      </trkpt>
      <trkpt lat="43.84001" lon="6.75476">
        <ele>1192.103</ele>
        <time>2014-10-04T07:33:53Z</time>
      </trkpt>
      <trkpt lat="43.83995" lon="6.75492">
        <ele>1197.46</ele>
        <time>2014-10-04T07:34:00Z</time>
      </trkpt>
      <trkpt lat="43.83992" lon="6.7551">
        <ele>1204.005</ele>
        <time>2014-10-04T07:34:06Z</time>
      </trkpt>
      <trkpt lat="43.83984" lon="6.75522">
        <ele>1204.779</ele>
        <time>2014-10-04T07:34:13Z</time>
      </trkpt>
      <trkpt lat="43.83984" lon="6.75524">
        <ele>1204.223</ele>
        <time>2014-10-04T07:34:15Z</time>
      </trkpt>
      <trkpt lat="43.83979" lon="6.75534">
        <ele>1201.695</ele>
        <time>2014-10-04T07:34:21Z</time>
      </trkpt>
      <trkpt lat="43.83977" lon="6.75548">
        <ele>1203.917</ele>
        <time>2014-10-04T07:34:27Z</time>
      </trkpt>
      <trkpt lat="43.83969" lon="6.75563">
        <ele>1199.479</ele>
        <time>2014-10-04T07:34:33Z</time>
      </trkpt>
      <trkpt lat="43.83968" lon="6.75566">
        <ele>1199.163</ele>
        <time>2014-10-04T07:34:34Z</time>
      </trkpt>
      <trkpt lat="43.83963" lon="6.75584">
        <ele>1194.191</ele>
        <time>2014-10-04T07:34:41Z</time>
      </trkpt>
      <trkpt lat="43.83966" lon="6.75605">
        <ele>1191.447</ele>
        <time>2014-10-04T07:34:47Z</time>
      </trkpt>
      <trkpt lat="43.83963" lon="6.75617">
        <ele>1189.318</ele>
        <time>2014-10-04T07:34:52Z</time>
      </trkpt>
      <trkpt lat="43.83962" lon="6.75635">
        <ele>1187.571</ele>
        <time>2014-10-04T07:34:59Z</time>
      </trkpt>
      <trkpt lat="43.83966" lon="6.75649">
        <ele>1177.423</ele>
        <time>2014-10-04T07:35:05Z</time>
      </trkpt>
      <trkpt lat="43.83969" lon="6.75667">
        <ele>1166.615</ele>
        <time>2014-10-04T07:35:12Z</time>
      </trkpt>
      <trkpt lat="43.83974" lon="6.75685">
        <ele>1156.999</ele>
        <time>2014-10-04T07:35:19Z</time>
      </trkpt>
      <trkpt lat="43.83978" lon="6.757">
        <ele>1144.785</ele>
        <time>2014-10-04T07:35:26Z</time>
      </trkpt>
      <trkpt lat="43.83975" lon="6.75715">
        <ele>1142.602</ele>
        <time>2014-10-04T07:35:32Z</time>
      </trkpt>
      <trkpt lat="43.83976" lon="6.75716">
        <ele>1141.867</ele>
        <time>2014-10-04T07:35:33Z</time>
      </trkpt>
      <trkpt lat="43.83974" lon="6.75722">
        <ele>1143.811</ele>
        <time>2014-10-04T07:35:39Z</time>
      </trkpt>
      <trkpt lat="43.8397" lon="6.75724">
        <ele>1144.253</ele>
        <time>2014-10-04T07:35:49Z</time>
      </trkpt>
      <trkpt lat="43.83971" lon="6.75727">
        <ele>1142.539</ele>
        <time>2014-10-04T07:35:53Z</time>
      </trkpt>
      <trkpt lat="43.83968" lon="6.75746">
        <ele>1140.139</ele>
        <time>2014-10-04T07:36:01Z</time>
      </trkpt>
      <trkpt lat="43.83961" lon="6.75763">
        <ele>1142.978</ele>
        <time>2014-10-04T07:36:08Z</time>
      </trkpt>
      <trkpt lat="43.8396" lon="6.7578">
        <ele>1145.89</ele>
        <time>2014-10-04T07:36:14Z</time>
      </trkpt>
      <trkpt lat="43.8395" lon="6.75802">
        <ele>1157.065</ele>
        <time>2014-10-04T07:36:23Z</time>
      </trkpt>
      <trkpt lat="43.83945" lon="6.7582">
        <ele>1163.005</ele>
        <time>2014-10-04T07:36:30Z</time>
      </trkpt>
      <trkpt lat="43.83942" lon="6.75838">
        <ele>1168.114</ele>
        <time>2014-10-04T07:36:37Z</time>
      </trkpt>
      <trkpt lat="43.83938" lon="6.75851">
        <ele>1177.438</ele>
        <time>2014-10-04T07:36:43Z</time>
      </trkpt>
      <trkpt lat="43.83935" lon="6.75865">
        <ele>1182.898</ele>
        <time>2014-10-04T07:36:50Z</time>
      </trkpt>
      <trkpt lat="43.83933" lon="6.75883">
        <ele>1188.568</ele>
        <time>2014-10-04T07:36:58Z</time>
      </trkpt>
      <trkpt lat="43.83934" lon="6.75894">
        <ele>1189.839</ele>
        <time>2014-10-04T07:37:03Z</time>
      </trkpt>
      <trkpt lat="43.83935" lon="6.75902">
        <ele>1189.65</ele>
        <time>2014-10-04T07:37:06Z</time>
      </trkpt>
      <trkpt lat="43.83939" lon="6.75922">
        <ele>1186.949</ele>
        <time>2014-10-04T07:37:14Z</time>
      </trkpt>
      <trkpt lat="43.83941" lon="6.75933">
        <ele>1184.826</ele>
        <time>2014-10-04T07:37:18Z</time>
      </trkpt>
      <trkpt lat="43.83945" lon="6.7595">
        <ele>1183.404</ele>
        <time>2014-10-04T07:37:24Z</time>
      </trkpt>
      <trkpt lat="43.83948" lon="6.7597">
        <ele>1182.206</ele>
        <time>2014-10-04T07:37:31Z</time>
      </trkpt>
      <trkpt lat="43.8395" lon="6.75992">
        <ele>1182.719</ele>
        <time>2014-10-04T07:37:38Z</time>
      </trkpt>
      <trkpt lat="43.83952" lon="6.7601">
        <ele>1185.211</ele>
        <time>2014-10-04T07:37:44Z</time>
      </trkpt>
      <trkpt lat="43.8395" lon="6.76019">
        <ele>1183.061</ele>
        <time>2014-10-04T07:37:48Z</time>
      </trkpt>
      <trkpt lat="43.83948" lon="6.76041">
        <ele>1182.982</ele>
        <time>2014-10-04T07:37:54Z</time>
      </trkpt>
      <trkpt lat="43.83945" lon="6.76058">
        <ele>1184.025</ele>
        <time>2014-10-04T07:37:59Z</time>
      </trkpt>
      <trkpt lat="43.83941" lon="6.76082">
        <ele>1190.382</ele>
        <time>2014-10-04T07:38:05Z</time>
      </trkpt>
      <trkpt lat="43.83938" lon="6.76105">
        <ele>1194.766</ele>
        <time>2014-10-04T07:38:10Z</time>
      </trkpt>
      <trkpt lat="43.83942" lon="6.76134">
        <ele>1198.821</ele>
        <time>2014-10-04T07:38:15Z</time>
      </trkpt>
      <trkpt lat="43.83944" lon="6.76159">
        <ele>1204.187</ele>
        <time>2014-10-04T07:38:20Z</time>
      </trkpt>
      <trkpt lat="43.83941" lon="6.76177">
        <ele>1208.054</ele>
        <time>2014-10-04T07:38:26Z</time>
      </trkpt>
      <trkpt lat="43.8394" lon="6.76181">
        <ele>1205.101</ele>
        <time>2014-10-04T07:38:28Z</time>
      </trkpt>
      <trkpt lat="43.83938" lon="6.76187">
        <ele>1205.358</ele>
        <time>2014-10-04T07:38:30Z</time>
      </trkpt>
      <trkpt lat="43.83937" lon="6.76202">
        <ele>1210.128</ele>
        <time>2014-10-04T07:38:35Z</time>
      </trkpt>
      <trkpt lat="43.83937" lon="6.76213">
        <ele>1209.477</ele>
        <time>2014-10-04T07:38:39Z</time>
      </trkpt>
      <trkpt lat="43.83933" lon="6.76221">
        <ele>1210.298</ele>
        <time>2014-10-04T07:38:42Z</time>
      </trkpt>
      <trkpt lat="43.83933" lon="6.7624">
        <ele>1217.826</ele>
        <time>2014-10-04T07:38:50Z</time>
      </trkpt>
      <trkpt lat="43.83935" lon="6.76252">
        <ele>1221.206</ele>
        <time>2014-10-04T07:38:56Z</time>
      </trkpt>
      <trkpt lat="43.83934" lon="6.76267">
        <ele>1221</ele>
        <time>2014-10-04T07:39:02Z</time>
      </trkpt>
      <trkpt lat="43.83935" lon="6.76283">
        <ele>1227.13</ele>
        <time>2014-10-04T07:39:09Z</time>
      </trkpt>
      <trkpt lat="43.83937" lon="6.763">
        <ele>1229.75</ele>
        <time>2014-10-04T07:39:15Z</time>
      </trkpt>
      <trkpt lat="43.83935" lon="6.7632">
        <ele>1231.556</ele>
        <time>2014-10-04T07:39:22Z</time>
      </trkpt>
      <trkpt lat="43.83935" lon="6.76329">
        <ele>1228.574</ele>
        <time>2014-10-04T07:39:28Z</time>
      </trkpt>
      <trkpt lat="43.83935" lon="6.76341">
        <ele>1228.039</ele>
        <time>2014-10-04T07:39:33Z</time>
      </trkpt>
      <trkpt lat="43.83936" lon="6.7635">
        <ele>1228.901</ele>
        <time>2014-10-04T07:39:36Z</time>
      </trkpt>
      <trkpt lat="43.83936" lon="6.76355">
        <ele>1230.202</ele>
        <time>2014-10-04T07:39:38Z</time>
      </trkpt>
      <trkpt lat="43.83938" lon="6.76364">
        <ele>1232.033</ele>
        <time>2014-10-04T07:39:42Z</time>
      </trkpt>
      <trkpt lat="43.83941" lon="6.76382">
        <ele>1230.535</ele>
        <time>2014-10-04T07:39:49Z</time>
      </trkpt>
      <trkpt lat="43.83945" lon="6.76392">
        <ele>1228.664</ele>
        <time>2014-10-04T07:39:54Z</time>
      </trkpt>
      <trkpt lat="43.83946" lon="6.76406">
        <ele>1225.369</ele>
        <time>2014-10-04T07:40:00Z</time>
      </trkpt>
      <trkpt lat="43.83952" lon="6.76419">
        <ele>1226.428</ele>
        <time>2014-10-04T07:40:05Z</time>
      </trkpt>
      <trkpt lat="43.83952" lon="6.76428">
        <ele>1220.594</ele>
        <time>2014-10-04T07:40:10Z</time>
      </trkpt>
      <trkpt lat="43.83954" lon="6.76437">
        <ele>1216.195</ele>
        <time>2014-10-04T07:40:16Z</time>
      </trkpt>
      <trkpt lat="43.83956" lon="6.76443">
        <ele>1215.44</ele>
        <time>2014-10-04T07:40:18Z</time>
      </trkpt>
      <trkpt lat="43.83957" lon="6.7645">
        <ele>1212.626</ele>
        <time>2014-10-04T07:40:21Z</time>
      </trkpt>
      <trkpt lat="43.83958" lon="6.76463">
        <ele>1209.933</ele>
        <time>2014-10-04T07:40:26Z</time>
      </trkpt>
      <trkpt lat="43.83963" lon="6.7648">
        <ele>1209.647</ele>
        <time>2014-10-04T07:40:34Z</time>
      </trkpt>
      <trkpt lat="43.83965" lon="6.76495">
        <ele>1213.079</ele>
        <time>2014-10-04T07:40:41Z</time>
      </trkpt>
      <trkpt lat="43.83967" lon="6.76514">
        <ele>1218.921</ele>
        <time>2014-10-04T07:40:48Z</time>
      </trkpt>
      <trkpt lat="43.83967" lon="6.7653">
        <ele>1218.95</ele>
        <time>2014-10-04T07:40:54Z</time>
      </trkpt>
      <trkpt lat="43.83967" lon="6.76543">
        <ele>1220.18</ele>
        <time>2014-10-04T07:41:00Z</time>
      </trkpt>
      <trkpt lat="43.83965" lon="6.7656">
        <ele>1221.434</ele>
        <time>2014-10-04T07:41:07Z</time>
      </trkpt>
      <trkpt lat="43.83966" lon="6.76568">
        <ele>1225.07</ele>
        <time>2014-10-04T07:41:11Z</time>
      </trkpt>
      <trkpt lat="43.83969" lon="6.76579">
        <ele>1224.027</ele>
        <time>2014-10-04T07:41:17Z</time>
      </trkpt>
      <trkpt lat="43.83972" lon="6.76593">
        <ele>1223.058</ele>
        <time>2014-10-04T07:41:23Z</time>
      </trkpt>
      <trkpt lat="43.83972" lon="6.76596">
        <ele>1223.614</ele>
        <time>2014-10-04T07:41:24Z</time>
      </trkpt>
      <trkpt lat="43.83971" lon="6.76619">
        <ele>1224.111</ele>
        <time>2014-10-04T07:41:33Z</time>
      </trkpt>
      <trkpt lat="43.83971" lon="6.76628">
        <ele>1226.09</ele>
        <time>2014-10-04T07:41:37Z</time>
      </trkpt>
      <trkpt lat="43.83973" lon="6.76633">
        <ele>1228.265</ele>
        <time>2014-10-04T07:41:40Z</time>
      </trkpt>
      <trkpt lat="43.83973" lon="6.76647">
        <ele>1231.413</ele>
        <time>2014-10-04T07:41:46Z</time>
      </trkpt>
      <trkpt lat="43.83973" lon="6.7665">
        <ele>1232.025</ele>
        <time>2014-10-04T07:41:47Z</time>
      </trkpt>
      <trkpt lat="43.83975" lon="6.76663">
        <ele>1237.007</ele>
        <time>2014-10-04T07:41:52Z</time>
      </trkpt>
      <trkpt lat="43.83975" lon="6.76679">
        <ele>1236.436</ele>
        <time>2014-10-04T07:41:59Z</time>
      </trkpt>
      <trkpt lat="43.8398" lon="6.76695">
        <ele>1237.135</ele>
        <time>2014-10-04T07:42:06Z</time>
      </trkpt>
      <trkpt lat="43.83982" lon="6.76697">
        <ele>1237.587</ele>
        <time>2014-10-04T07:42:07Z</time>
      </trkpt>
      <trkpt lat="43.83985" lon="6.76708">
        <ele>1237.729</ele>
        <time>2014-10-04T07:42:11Z</time>
      </trkpt>
      <trkpt lat="43.83984" lon="6.76712">
        <ele>1237.155</ele>
        <time>2014-10-04T07:42:13Z</time>
      </trkpt>
      <trkpt lat="43.83983" lon="6.76722">
        <ele>1237.336</ele>
        <time>2014-10-04T07:42:19Z</time>
      </trkpt>
      <trkpt lat="43.83988" lon="6.76742">
        <ele>1239.972</ele>
        <time>2014-10-04T07:42:26Z</time>
      </trkpt>
      <trkpt lat="43.83988" lon="6.76753">
        <ele>1246.204</ele>
        <time>2014-10-04T07:42:32Z</time>
      </trkpt>
      <trkpt lat="43.83996" lon="6.76761">
        <ele>1248.339</ele>
        <time>2014-10-04T07:42:38Z</time>
      </trkpt>
      <trkpt lat="43.83997" lon="6.76783">
        <ele>1250.412</ele>
        <time>2014-10-04T07:42:45Z</time>
      </trkpt>
      <trkpt lat="43.83998" lon="6.76792">
        <ele>1252.422</ele>
        <time>2014-10-04T07:42:50Z</time>
      </trkpt>
      <trkpt lat="43.83999" lon="6.76797">
        <ele>1255.152</ele>
        <time>2014-10-04T07:42:53Z</time>
      </trkpt>
      <trkpt lat="43.84005" lon="6.76814">
        <ele>1263.298</ele>
        <time>2014-10-04T07:43:01Z</time>
      </trkpt>
      <trkpt lat="43.8401" lon="6.76828">
        <ele>1268.845</ele>
        <time>2014-10-04T07:43:08Z</time>
      </trkpt>
      <trkpt lat="43.84009" lon="6.7683">
        <ele>1268.395</ele>
        <time>2014-10-04T07:43:10Z</time>
      </trkpt>
      <trkpt lat="43.84011" lon="6.7684">
        <ele>1270.207</ele>
        <time>2014-10-04T07:43:17Z</time>
      </trkpt>
      <trkpt lat="43.84014" lon="6.76845">
        <ele>1272.706</ele>
        <time>2014-10-04T07:43:19Z</time>
      </trkpt>
      <trkpt lat="43.84019" lon="6.76861">
        <ele>1275.069</ele>
        <time>2014-10-04T07:43:25Z</time>
      </trkpt>
      <trkpt lat="43.8402" lon="6.76877">
        <ele>1278.624</ele>
        <time>2014-10-04T07:43:31Z</time>
      </trkpt>
      <trkpt lat="43.84026" lon="6.76884">
        <ele>1281.011</ele>
        <time>2014-10-04T07:43:35Z</time>
      </trkpt>
      <trkpt lat="43.84031" lon="6.76906">
        <ele>1283.134</ele>
        <time>2014-10-04T07:43:44Z</time>
      </trkpt>
      <trkpt lat="43.84031" lon="6.76929">
        <ele>1286.235</ele>
        <time>2014-10-04T07:43:51Z</time>
      </trkpt>
      <trkpt lat="43.84035" lon="6.7694">
        <ele>1284.702</ele>
        <time>2014-10-04T07:43:56Z</time>
      </trkpt>
      <trkpt lat="43.84037" lon="6.76951">
        <ele>1287.979</ele>
        <time>2014-10-04T07:44:02Z</time>
      </trkpt>
      <trkpt lat="43.84039" lon="6.7697">
        <ele>1291.168</ele>
        <time>2014-10-04T07:44:09Z</time>
      </trkpt>
      <trkpt lat="43.84042" lon="6.76988">
        <ele>1297.068</ele>
        <time>2014-10-04T07:44:16Z</time>
      </trkpt>
      <trkpt lat="43.8404" lon="6.77001">
        <ele>1301.921</ele>
        <time>2014-10-04T07:44:21Z</time>
      </trkpt>
      <trkpt lat="43.8404" lon="6.77014">
        <ele>1306.438</ele>
        <time>2014-10-04T07:44:26Z</time>
      </trkpt>
      <trkpt lat="43.84042" lon="6.77031">
        <ele>1312.92</ele>
        <time>2014-10-04T07:44:32Z</time>
      </trkpt>
      <trkpt lat="43.84043" lon="6.77037">
        <ele>1316.034</ele>
        <time>2014-10-04T07:44:35Z</time>
      </trkpt>
      <trkpt lat="43.84045" lon="6.7705">
        <ele>1325.167</ele>
        <time>2014-10-04T07:44:41Z</time>
      </trkpt>
      <trkpt lat="43.84045" lon="6.77056">
        <ele>1327.234</ele>
        <time>2014-10-04T07:44:43Z</time>
      </trkpt>
      <trkpt lat="43.84054" lon="6.77069">
        <ele>1336.862</ele>
        <time>2014-10-04T07:44:50Z</time>
      </trkpt>
      <trkpt lat="43.8405" lon="6.77091">
        <ele>1341.935</ele>
        <time>2014-10-04T07:44:58Z</time>
      </trkpt>
      <trkpt lat="43.84049" lon="6.77109">
        <ele>1349.494</ele>
        <time>2014-10-04T07:45:05Z</time>
      </trkpt>
      <trkpt lat="43.84045" lon="6.77127">
        <ele>1354.472</ele>
        <time>2014-10-04T07:45:12Z</time>
      </trkpt>
      <trkpt lat="43.84045" lon="6.7713">
        <ele>1355.147</ele>
        <time>2014-10-04T07:45:13Z</time>
      </trkpt>
      <trkpt lat="43.84045" lon="6.77149">
        <ele>1359.524</ele>
        <time>2014-10-04T07:45:20Z</time>
      </trkpt>
      <trkpt lat="43.84043" lon="6.77161">
        <ele>1362.022</ele>
        <time>2014-10-04T07:45:25Z</time>
      </trkpt>
      <trkpt lat="43.84043" lon="6.77164">
        <ele>1362.781</ele>
        <time>2014-10-04T07:45:26Z</time>
      </trkpt>
      <trkpt lat="43.84043" lon="6.77175">
        <ele>1361.044</ele>
        <time>2014-10-04T07:45:33Z</time>
      </trkpt>
      <trkpt lat="43.84043" lon="6.77169">
        <ele>1337.346</ele>
        <time>2014-10-04T07:46:02Z</time>
      </trkpt>
      <trkpt lat="43.84048" lon="6.77166">
        <ele>1332.888</ele>
        <time>2014-10-04T07:46:11Z</time>
      </trkpt>
      <trkpt lat="43.84052" lon="6.77165">
        <ele>1327.989</ele>
        <time>2014-10-04T07:46:18Z</time>
      </trkpt>
      <trkpt lat="43.84054" lon="6.77163">
        <ele>1324.068</ele>
        <time>2014-10-04T07:46:25Z</time>
      </trkpt>
      <trkpt lat="43.84055" lon="6.77146">
        <ele>1320.961</ele>
        <time>2014-10-04T07:46:32Z</time>
      </trkpt>
      <trkpt lat="43.84057" lon="6.77132">
        <ele>1315.968</ele>
        <time>2014-10-04T07:46:38Z</time>
      </trkpt>
      <trkpt lat="43.84068" lon="6.77113">
        <ele>1297.501</ele>
        <time>2014-10-04T07:46:45Z</time>
      </trkpt>
      <trkpt lat="43.84068" lon="6.77102">
        <ele>1286.869</ele>
        <time>2014-10-04T07:46:49Z</time>
      </trkpt>
      <trkpt lat="43.84092" lon="6.77087">
        <ele>1252.53</ele>
        <time>2014-10-04T07:46:56Z</time>
      </trkpt>
      <trkpt lat="43.84087" lon="6.77074">
        <ele>1243.749</ele>
        <time>2014-10-04T07:47:02Z</time>
      </trkpt>
      <trkpt lat="43.84086" lon="6.77068">
        <ele>1243.583</ele>
        <time>2014-10-04T07:47:05Z</time>
      </trkpt>
      <trkpt lat="43.84079" lon="6.77053">
        <ele>1243.658</ele>
        <time>2014-10-04T07:47:13Z</time>
      </trkpt>
      <trkpt lat="43.84074" lon="6.77041">
        <ele>1246.466</ele>
        <time>2014-10-04T07:47:19Z</time>
      </trkpt>
      <trkpt lat="43.84063" lon="6.77027">
        <ele>1247.357</ele>
        <time>2014-10-04T07:47:25Z</time>
      </trkpt>
      <trkpt lat="43.8405" lon="6.77014">
        <ele>1245.011</ele>
        <time>2014-10-04T07:47:31Z</time>
      </trkpt>
      <trkpt lat="43.84043" lon="6.77003">
        <ele>1244.093</ele>
        <time>2014-10-04T07:47:36Z</time>
      </trkpt>
      <trkpt lat="43.8404" lon="6.76999">
        <ele>1242.811</ele>
        <time>2014-10-04T07:47:38Z</time>
      </trkpt>
      <trkpt lat="43.84035" lon="6.76991">
        <ele>1244.276</ele>
        <time>2014-10-04T07:47:42Z</time>
      </trkpt>
      <trkpt lat="43.84023" lon="6.76978">
        <ele>1246.062</ele>
        <time>2014-10-04T07:47:49Z</time>
      </trkpt>
      <trkpt lat="43.84011" lon="6.7697">
        <ele>1247.956</ele>
        <time>2014-10-04T07:47:55Z</time>
      </trkpt>
      <trkpt lat="43.84001" lon="6.7696">
        <ele>1250.432</ele>
        <time>2014-10-04T07:48:02Z</time>
      </trkpt>
      <trkpt lat="43.83995" lon="6.76952">
        <ele>1251.169</ele>
        <time>2014-10-04T07:48:06Z</time>
      </trkpt>
      <trkpt lat="43.83984" lon="6.76942">
        <ele>1250.839</ele>
        <time>2014-10-04T07:48:12Z</time>
      </trkpt>
      <trkpt lat="43.83975" lon="6.76926">
        <ele>1247.535</ele>
        <time>2014-10-04T07:48:18Z</time>
      </trkpt>
      <trkpt lat="43.83972" lon="6.76921">
        <ele>1246.733</ele>
        <time>2014-10-04T07:48:20Z</time>
      </trkpt>
      <trkpt lat="43.83963" lon="6.76907">
        <ele>1246.964</ele>
        <time>2014-10-04T07:48:27Z</time>
      </trkpt>
      <trkpt lat="43.83961" lon="6.76905">
        <ele>1246.806</ele>
        <time>2014-10-04T07:48:28Z</time>
      </trkpt>
      <trkpt lat="43.83952" lon="6.76885">
        <ele>1247.633</ele>
        <time>2014-10-04T07:48:36Z</time>
      </trkpt>
      <trkpt lat="43.83943" lon="6.76888">
        <ele>1250.039</ele>
        <time>2014-10-04T07:48:41Z</time>
      </trkpt>
      <trkpt lat="43.83938" lon="6.76896">
        <ele>1255.068</ele>
        <time>2014-10-04T07:48:44Z</time>
      </trkpt>
      <trkpt lat="43.83939" lon="6.76913">
        <ele>1260.644</ele>
        <time>2014-10-04T07:48:53Z</time>
      </trkpt>
      <trkpt lat="43.83938" lon="6.76915">
        <ele>1261.614</ele>
        <time>2014-10-04T07:48:54Z</time>
      </trkpt>
      <trkpt lat="43.83939" lon="6.76927">
        <ele>1270.692</ele>
        <time>2014-10-04T07:49:01Z</time>
      </trkpt>
      <trkpt lat="43.83941" lon="6.76944">
        <ele>1283.592</ele>
        <time>2014-10-04T07:49:08Z</time>
      </trkpt>
      <trkpt lat="43.83943" lon="6.7696">
        <ele>1288.98</ele>
        <time>2014-10-04T07:49:14Z</time>
      </trkpt>
      <trkpt lat="43.83946" lon="6.76974">
        <ele>1295.131</ele>
        <time>2014-10-04T07:49:20Z</time>
      </trkpt>
      <trkpt lat="43.83947" lon="6.76992">
        <ele>1299.821</ele>
        <time>2014-10-04T07:49:26Z</time>
      </trkpt>
      <trkpt lat="43.83949" lon="6.77002">
        <ele>1301.679</ele>
        <time>2014-10-04T07:49:30Z</time>
      </trkpt>
      <trkpt lat="43.83949" lon="6.77015">
        <ele>1305.15</ele>
        <time>2014-10-04T07:49:34Z</time>
      </trkpt>
      <trkpt lat="43.83955" lon="6.77034">
        <ele>1313.656</ele>
        <time>2014-10-04T07:49:43Z</time>
      </trkpt>
      <trkpt lat="43.83959" lon="6.77056">
        <ele>1324.197</ele>
        <time>2014-10-04T07:49:49Z</time>
      </trkpt>
      <trkpt lat="43.83964" lon="6.77067">
        <ele>1331.881</ele>
        <time>2014-10-04T07:49:54Z</time>
      </trkpt>
      <trkpt lat="43.83971" lon="6.77078">
        <ele>1337.696</ele>
        <time>2014-10-04T07:50:00Z</time>
      </trkpt>
      <trkpt lat="43.83976" lon="6.77097">
        <ele>1348.639</ele>
        <time>2014-10-04T07:50:08Z</time>
      </trkpt>
      <trkpt lat="43.83981" lon="6.77109">
        <ele>1355.464</ele>
        <time>2014-10-04T07:50:13Z</time>
      </trkpt>
      <trkpt lat="43.83983" lon="6.77111">
        <ele>1356.172</ele>
        <time>2014-10-04T07:50:14Z</time>
      </trkpt>
      <trkpt lat="43.83989" lon="6.77128">
        <ele>1365.105</ele>
        <time>2014-10-04T07:50:20Z</time>
      </trkpt>
      <trkpt lat="43.83999" lon="6.77151">
        <ele>1377.693</ele>
        <time>2014-10-04T07:50:29Z</time>
      </trkpt>
      <trkpt lat="43.84004" lon="6.77166">
        <ele>1385.624</ele>
        <time>2014-10-04T07:50:34Z</time>
      </trkpt>
      <trkpt lat="43.8401" lon="6.77187">
        <ele>1396.024</ele>
        <time>2014-10-04T07:50:40Z</time>
      </trkpt>
      <trkpt lat="43.84013" lon="6.77199">
        <ele>1401.733</ele>
        <time>2014-10-04T07:50:45Z</time>
      </trkpt>
      <trkpt lat="43.84014" lon="6.77202">
        <ele>1403.355</ele>
        <time>2014-10-04T07:50:46Z</time>
      </trkpt>
      <trkpt lat="43.84021" lon="6.77226">
        <ele>1410.649</ele>
        <time>2014-10-04T07:50:52Z</time>
      </trkpt>
      <trkpt lat="43.84029" lon="6.77251">
        <ele>1418.874</ele>
        <time>2014-10-04T07:50:59Z</time>
      </trkpt>
      <trkpt lat="43.84035" lon="6.77273">
        <ele>1425.841</ele>
        <time>2014-10-04T07:51:04Z</time>
      </trkpt>
      <trkpt lat="43.84043" lon="6.77299">
        <ele>1435.127</ele>
        <time>2014-10-04T07:51:09Z</time>
      </trkpt>
      <trkpt lat="43.84048" lon="6.77322">
        <ele>1442.358</ele>
        <time>2014-10-04T07:51:14Z</time>
      </trkpt>
      <trkpt lat="43.84051" lon="6.77342">
        <ele>1447.899</ele>
        <time>2014-10-04T07:51:18Z</time>
      </trkpt>
      <trkpt lat="43.84055" lon="6.77369">
        <ele>1448.71</ele>
        <time>2014-10-04T07:51:25Z</time>
      </trkpt>
      <trkpt lat="43.84057" lon="6.77392">
        <ele>1444.265</ele>
        <time>2014-10-04T07:51:32Z</time>
      </trkpt>
      <trkpt lat="43.84059" lon="6.77409">
        <ele>1435.752</ele>
        <time>2014-10-04T07:51:39Z</time>
      </trkpt>
      <trkpt lat="43.84058" lon="6.77418">
        <ele>1425.433</ele>
        <time>2014-10-04T07:51:45Z</time>
      </trkpt>
      <trkpt lat="43.84057" lon="6.77422">
        <ele>1423.309</ele>
        <time>2014-10-04T07:51:47Z</time>
      </trkpt>
      <trkpt lat="43.84054" lon="6.77437">
        <ele>1413.751</ele>
        <time>2014-10-04T07:51:53Z</time>
      </trkpt>
      <trkpt lat="43.84053" lon="6.77441">
        <ele>1410.743</ele>
        <time>2014-10-04T07:51:55Z</time>
      </trkpt>
      <trkpt lat="43.84049" lon="6.77455">
        <ele>1400.131</ele>
        <time>2014-10-04T07:52:02Z</time>
      </trkpt>
      <trkpt lat="43.84049" lon="6.77462">
        <ele>1395.858</ele>
        <time>2014-10-04T07:52:05Z</time>
      </trkpt>
      <trkpt lat="43.84075" lon="6.77464">
        <ele>1341.93</ele>
        <time>2014-10-04T07:52:11Z</time>
      </trkpt>
      <trkpt lat="43.84078" lon="6.77464">
        <ele>1336.289</ele>
        <time>2014-10-04T07:52:12Z</time>
      </trkpt>
      <trkpt lat="43.84099" lon="6.77457">
        <ele>1308.689</ele>
        <time>2014-10-04T07:52:20Z</time>
      </trkpt>
      <trkpt lat="43.84113" lon="6.77455">
        <ele>1299.17</ele>
        <time>2014-10-04T07:52:26Z</time>
      </trkpt>
      <trkpt lat="43.84127" lon="6.77454">
        <ele>1291.662</ele>
        <time>2014-10-04T07:52:33Z</time>
      </trkpt>
      <trkpt lat="43.84132" lon="6.77453">
        <ele>1288.562</ele>
        <time>2014-10-04T07:52:38Z</time>
      </trkpt>
      <trkpt lat="43.84132" lon="6.77453">
        <ele>1285.895</ele>
        <time>2014-10-04T07:52:45Z</time>
      </trkpt>
      <trkpt lat="43.84134" lon="6.77453">
        <ele>1283.578</ele>
        <time>2014-10-04T07:52:52Z</time>
      </trkpt>
      <trkpt lat="43.84141" lon="6.77454">
        <ele>1283.02</ele>
        <time>2014-10-04T07:52:57Z</time>
      </trkpt>
      <trkpt lat="43.84154" lon="6.77455">
        <ele>1280.268</ele>
        <time>2014-10-04T07:53:04Z</time>
      </trkpt>
      <trkpt lat="43.84168" lon="6.77456">
        <ele>1280.931</ele>
        <time>2014-10-04T07:53:13Z</time>
      </trkpt>
      <trkpt lat="43.84179" lon="6.7746">
        <ele>1282.01</ele>
        <time>2014-10-04T07:53:20Z</time>
      </trkpt>
      <trkpt lat="43.84192" lon="6.77463">
        <ele>1282.429</ele>
        <time>2014-10-04T07:53:28Z</time>
      </trkpt>
      <trkpt lat="43.84203" lon="6.77457">
        <ele>1282.208</ele>
        <time>2014-10-04T07:53:35Z</time>
      </trkpt>
      <trkpt lat="43.84217" lon="6.77451">
        <ele>1282.63</ele>
        <time>2014-10-04T07:53:43Z</time>
      </trkpt>
      <trkpt lat="43.84225" lon="6.77452">
        <ele>1283.441</ele>
        <time>2014-10-04T07:53:48Z</time>
      </trkpt>
      <trkpt lat="43.84237" lon="6.77447">
        <ele>1283.149</ele>
        <time>2014-10-04T07:53:54Z</time>
      </trkpt>
      <trkpt lat="43.84247" lon="6.77436">
        <ele>1282.859</ele>
        <time>2014-10-04T07:54:00Z</time>
      </trkpt>
      <trkpt lat="43.84259" lon="6.7743">
        <ele>1282.459</ele>
        <time>2014-10-04T07:54:06Z</time>
      </trkpt>
      <trkpt lat="43.84276" lon="6.77431">
        <ele>1283.029</ele>
        <time>2014-10-04T07:54:13Z</time>
      </trkpt>
      <trkpt lat="43.84287" lon="6.77436">
        <ele>1285.79</ele>
        <time>2014-10-04T07:54:19Z</time>
      </trkpt>
      <trkpt lat="43.84298" lon="6.77446">
        <ele>1290.141</ele>
        <time>2014-10-04T07:54:25Z</time>
      </trkpt>
      <trkpt lat="43.84317" lon="6.77454">
        <ele>1290.02</ele>
        <time>2014-10-04T07:54:32Z</time>
      </trkpt>
      <trkpt lat="43.84337" lon="6.77461">
        <ele>1293.592</ele>
        <time>2014-10-04T07:54:40Z</time>
      </trkpt>
      <trkpt lat="43.84343" lon="6.77476">
        <ele>1299.21</ele>
        <time>2014-10-04T07:54:45Z</time>
      </trkpt>
      <trkpt lat="43.84355" lon="6.77491">
        <ele>1302.211</ele>
        <time>2014-10-04T07:54:51Z</time>
      </trkpt>
      <trkpt lat="43.84359" lon="6.77501">
        <ele>1308.203</ele>
        <time>2014-10-04T07:54:56Z</time>
      </trkpt>
      <trkpt lat="43.84363" lon="6.77504">
        <ele>1313.11</ele>
        <time>2014-10-04T07:55:02Z</time>
      </trkpt>
      <trkpt lat="43.84369" lon="6.77507">
        <ele>1315.639</ele>
        <time>2014-10-04T07:56:54Z</time>
      </trkpt>
      <trkpt lat="43.84373" lon="6.7753">
        <ele>1315.987</ele>
        <time>2014-10-04T07:56:59Z</time>
      </trkpt>
      <trkpt lat="43.84386" lon="6.77569">
        <ele>1313.66</ele>
        <time>2014-10-04T07:57:05Z</time>
      </trkpt>
      <trkpt lat="43.84391" lon="6.77582">
        <ele>1313.352</ele>
        <time>2014-10-04T07:57:07Z</time>
      </trkpt>
      <trkpt lat="43.84408" lon="6.77618">
        <ele>1313.504</ele>
        <time>2014-10-04T07:57:13Z</time>
      </trkpt>
      <trkpt lat="43.84419" lon="6.77637">
        <ele>1311.743</ele>
        <time>2014-10-04T07:57:17Z</time>
      </trkpt>
      <trkpt lat="43.84433" lon="6.7766">
        <ele>1309.659</ele>
        <time>2014-10-04T07:57:21Z</time>
      </trkpt>
      <trkpt lat="43.84446" lon="6.77698">
        <ele>1306.109</ele>
        <time>2014-10-04T07:57:26Z</time>
      </trkpt>
      <trkpt lat="43.84473" lon="6.77727">
        <ele>1292.594</ele>
        <time>2014-10-04T07:57:31Z</time>
      </trkpt>
      <trkpt lat="43.845" lon="6.77737">
        <ele>1281.828</ele>
        <time>2014-10-04T07:57:36Z</time>
      </trkpt>
      <trkpt lat="43.84521" lon="6.77734">
        <ele>1271.52</ele>
        <time>2014-10-04T07:57:40Z</time>
      </trkpt>
      <trkpt lat="43.84535" lon="6.77757">
        <ele>1267.584</ele>
        <time>2014-10-04T07:57:45Z</time>
      </trkpt>
      <trkpt lat="43.84527" lon="6.77765">
        <ele>1263.859</ele>
        <time>2014-10-04T07:57:47Z</time>
      </trkpt>
      <trkpt lat="43.84517" lon="6.77771">
        <ele>1261.401</ele>
        <time>2014-10-04T07:57:49Z</time>
      </trkpt>
      <trkpt lat="43.84495" lon="6.77774">
        <ele>1254.459</ele>
        <time>2014-10-04T07:57:54Z</time>
      </trkpt>
      <trkpt lat="43.84495" lon="6.77787">
        <ele>1251.599</ele>
        <time>2014-10-04T07:57:57Z</time>
      </trkpt>
      <trkpt lat="43.845" lon="6.77788">
        <ele>1250.649</ele>
        <time>2014-10-04T07:57:59Z</time>
      </trkpt>
      <trkpt lat="43.84511" lon="6.77789">
        <ele>1250.816</ele>
        <time>2014-10-04T07:58:05Z</time>
      </trkpt>
      <trkpt lat="43.84512" lon="6.77791">
        <ele>1251.136</ele>
        <time>2014-10-04T07:58:14Z</time>
      </trkpt>
      <trkpt lat="43.84516" lon="6.77797">
        <ele>1253.154</ele>
        <time>2014-10-04T07:58:20Z</time>
      </trkpt>
      <trkpt lat="43.84526" lon="6.77803">
        <ele>1256.211</ele>
        <time>2014-10-04T07:58:26Z</time>
      </trkpt>
      <trkpt lat="43.84541" lon="6.77806">
        <ele>1258.419</ele>
        <time>2014-10-04T07:58:32Z</time>
      </trkpt>
      <trkpt lat="43.84555" lon="6.778">
        <ele>1261.016</ele>
        <time>2014-10-04T07:58:37Z</time>
      </trkpt>
      <trkpt lat="43.84569" lon="6.77781">
        <ele>1261.548</ele>
        <time>2014-10-04T07:58:43Z</time>
      </trkpt>
      <trkpt lat="43.8458" lon="6.77766">
        <ele>1262.513</ele>
        <time>2014-10-04T07:58:49Z</time>
      </trkpt>
      <trkpt lat="43.84591" lon="6.77747">
        <ele>1261.019</ele>
        <time>2014-10-04T07:58:56Z</time>
      </trkpt>
      <trkpt lat="43.84596" lon="6.77728">
        <ele>1261.006</ele>
        <time>2014-10-04T07:59:02Z</time>
      </trkpt>
      <trkpt lat="43.84601" lon="6.77713">
        <ele>1260.2</ele>
        <time>2014-10-04T07:59:07Z</time>
      </trkpt>
      <trkpt lat="43.84608" lon="6.77691">
        <ele>1259.713</ele>
        <time>2014-10-04T07:59:15Z</time>
      </trkpt>
      <trkpt lat="43.84616" lon="6.77677">
        <ele>1261.065</ele>
        <time>2014-10-04T07:59:21Z</time>
      </trkpt>
      <trkpt lat="43.84628" lon="6.77666">
        <ele>1264.784</ele>
        <time>2014-10-04T07:59:28Z</time>
      </trkpt>
      <trkpt lat="43.8464" lon="6.77662">
        <ele>1267.337</ele>
        <time>2014-10-04T07:59:33Z</time>
      </trkpt>
      <trkpt lat="43.84655" lon="6.7766">
        <ele>1268.439</ele>
        <time>2014-10-04T07:59:39Z</time>
      </trkpt>
      <trkpt lat="43.84663" lon="6.77652">
        <ele>1267.791</ele>
        <time>2014-10-04T07:59:43Z</time>
      </trkpt>
      <trkpt lat="43.8467" lon="6.77643">
        <ele>1267.11</ele>
        <time>2014-10-04T07:59:47Z</time>
      </trkpt>
      <trkpt lat="43.84682" lon="6.77627">
        <ele>1265.148</ele>
        <time>2014-10-04T07:59:51Z</time>
      </trkpt>
      <trkpt lat="43.8469" lon="6.77608">
        <ele>1263.514</ele>
        <time>2014-10-04T07:59:56Z</time>
      </trkpt>
      <trkpt lat="43.84691" lon="6.77604">
        <ele>1262.952</ele>
        <time>2014-10-04T07:59:57Z</time>
      </trkpt>
      <trkpt lat="43.84701" lon="6.77579">
        <ele>1259.28</ele>
        <time>2014-10-04T08:00:02Z</time>
      </trkpt>
      <trkpt lat="43.84718" lon="6.77551">
        <ele>1255.165</ele>
        <time>2014-10-04T08:00:08Z</time>
      </trkpt>
      <trkpt lat="43.84725" lon="6.77544">
        <ele>1255.109</ele>
        <time>2014-10-04T08:00:10Z</time>
      </trkpt>
      <trkpt lat="43.84735" lon="6.7753">
        <ele>1254.109</ele>
        <time>2014-10-04T08:00:14Z</time>
      </trkpt>
      <trkpt lat="43.84735" lon="6.77532">
        <ele>1256.028</ele>
        <time>2014-10-04T08:00:18Z</time>
      </trkpt>
      <trkpt lat="43.8473" lon="6.77539">
        <ele>1265.376</ele>
        <time>2014-10-04T08:01:06Z</time>
      </trkpt>
      <trkpt lat="43.84739" lon="6.7753">
        <ele>1264.137</ele>
        <time>2014-10-04T08:01:14Z</time>
      </trkpt>
      <trkpt lat="43.84753" lon="6.7752">
        <ele>1262.079</ele>
        <time>2014-10-04T08:01:20Z</time>
      </trkpt>
      <trkpt lat="43.84766" lon="6.77516">
        <ele>1262.375</ele>
        <time>2014-10-04T08:01:26Z</time>
      </trkpt>
      <trkpt lat="43.84776" lon="6.77512">
        <ele>1260.761</ele>
        <time>2014-10-04T08:01:31Z</time>
      </trkpt>
      <trkpt lat="43.84783" lon="6.77509">
        <ele>1260.613</ele>
        <time>2014-10-04T08:01:35Z</time>
      </trkpt>
      <trkpt lat="43.84785" lon="6.77507">
        <ele>1259.589</ele>
        <time>2014-10-04T08:01:40Z</time>
      </trkpt>
      <trkpt lat="43.84786" lon="6.77507">
        <ele>1259.399</ele>
        <time>2014-10-04T08:01:41Z</time>
      </trkpt>
      <trkpt lat="43.84797" lon="6.77503">
        <ele>1259.812</ele>
        <time>2014-10-04T08:01:47Z</time>
      </trkpt>
      <trkpt lat="43.84808" lon="6.77492">
        <ele>1259.775</ele>
        <time>2014-10-04T08:01:52Z</time>
      </trkpt>
      <trkpt lat="43.84819" lon="6.77477">
        <ele>1259.246</ele>
        <time>2014-10-04T08:01:57Z</time>
      </trkpt>
      <trkpt lat="43.84826" lon="6.77464">
        <ele>1256.319</ele>
        <time>2014-10-04T08:02:02Z</time>
      </trkpt>
      <trkpt lat="43.84837" lon="6.77448">
        <ele>1254.791</ele>
        <time>2014-10-04T08:02:08Z</time>
      </trkpt>
      <trkpt lat="43.8484" lon="6.77444">
        <ele>1254.093</ele>
        <time>2014-10-04T08:02:13Z</time>
      </trkpt>
      <trkpt lat="43.84844" lon="6.77442">
        <ele>1256.102</ele>
        <time>2014-10-04T08:02:18Z</time>
      </trkpt>
      <trkpt lat="43.84845" lon="6.77441">
        <ele>1256.222</ele>
        <time>2014-10-04T08:02:20Z</time>
      </trkpt>
      <trkpt lat="43.84846" lon="6.77432">
        <ele>1253.464</ele>
        <time>2014-10-04T08:02:27Z</time>
      </trkpt>
      <trkpt lat="43.8485" lon="6.77422">
        <ele>1252.465</ele>
        <time>2014-10-04T08:02:34Z</time>
      </trkpt>
      <trkpt lat="43.8485" lon="6.77415">
        <ele>1251.154</ele>
        <time>2014-10-04T08:02:40Z</time>
      </trkpt>
      <trkpt lat="43.8485" lon="6.77408">
        <ele>1249.913</ele>
        <time>2014-10-04T08:02:45Z</time>
      </trkpt>
      <trkpt lat="43.84851" lon="6.77399">
        <ele>1247.574</ele>
        <time>2014-10-04T08:02:50Z</time>
      </trkpt>
      <trkpt lat="43.84852" lon="6.77393">
        <ele>1248.724</ele>
        <time>2014-10-04T08:02:54Z</time>
      </trkpt>
      <trkpt lat="43.84852" lon="6.77389">
        <ele>1248.24</ele>
        <time>2014-10-04T08:02:56Z</time>
      </trkpt>
      <trkpt lat="43.84854" lon="6.7738">
        <ele>1245.937</ele>
        <time>2014-10-04T08:03:02Z</time>
      </trkpt>
      <trkpt lat="43.84855" lon="6.77367">
        <ele>1245.364</ele>
        <time>2014-10-04T08:03:08Z</time>
      </trkpt>
      <trkpt lat="43.84856" lon="6.77364">
        <ele>1246.078</ele>
        <time>2014-10-04T08:03:10Z</time>
      </trkpt>
      <trkpt lat="43.84862" lon="6.77352">
        <ele>1244.329</ele>
        <time>2014-10-04T08:03:16Z</time>
      </trkpt>
      <trkpt lat="43.84865" lon="6.77349">
        <ele>1244.276</ele>
        <time>2014-10-04T08:03:21Z</time>
      </trkpt>
      <trkpt lat="43.84868" lon="6.77347">
        <ele>1245.56</ele>
        <time>2014-10-04T08:03:25Z</time>
      </trkpt>
      <trkpt lat="43.84877" lon="6.77338">
        <ele>1247.028</ele>
        <time>2014-10-04T08:03:31Z</time>
      </trkpt>
      <trkpt lat="43.84886" lon="6.77333">
        <ele>1250.554</ele>
        <time>2014-10-04T08:03:37Z</time>
      </trkpt>
      <trkpt lat="43.84894" lon="6.77328">
        <ele>1251.007</ele>
        <time>2014-10-04T08:03:41Z</time>
      </trkpt>
      <trkpt lat="43.84902" lon="6.77326">
        <ele>1252.994</ele>
        <time>2014-10-04T08:03:46Z</time>
      </trkpt>
      <trkpt lat="43.84904" lon="6.77326">
        <ele>1253.79</ele>
        <time>2014-10-04T08:03:49Z</time>
      </trkpt>
      <trkpt lat="43.84908" lon="6.77325">
        <ele>1255.722</ele>
        <time>2014-10-04T08:03:53Z</time>
      </trkpt>
      <trkpt lat="43.84914" lon="6.77318">
        <ele>1254.67</ele>
        <time>2014-10-04T08:03:59Z</time>
      </trkpt>
      <trkpt lat="43.84919" lon="6.77312">
        <ele>1253.812</ele>
        <time>2014-10-04T08:04:05Z</time>
      </trkpt>
      <trkpt lat="43.84922" lon="6.7731">
        <ele>1253.842</ele>
        <time>2014-10-04T08:04:09Z</time>
      </trkpt>
      <trkpt lat="43.84925" lon="6.77308">
        <ele>1253.163</ele>
        <time>2014-10-04T08:04:15Z</time>
      </trkpt>
      <trkpt lat="43.84926" lon="6.77308">
        <ele>1253.396</ele>
        <time>2014-10-04T08:04:18Z</time>
      </trkpt>
      <trkpt lat="43.84932" lon="6.77303">
        <ele>1251.772</ele>
        <time>2014-10-04T08:04:22Z</time>
      </trkpt>
      <trkpt lat="43.84941" lon="6.77291">
        <ele>1250.529</ele>
        <time>2014-10-04T08:04:28Z</time>
      </trkpt>
      <trkpt lat="43.84947" lon="6.77281">
        <ele>1249.559</ele>
        <time>2014-10-04T08:04:33Z</time>
      </trkpt>
      <trkpt lat="43.84953" lon="6.77274">
        <ele>1250.556</ele>
        <time>2014-10-04T08:04:40Z</time>
      </trkpt>
      <trkpt lat="43.84956" lon="6.77271">
        <ele>1251.664</ele>
        <time>2014-10-04T08:04:44Z</time>
      </trkpt>
      <trkpt lat="43.84962" lon="6.77271">
        <ele>1254.326</ele>
        <time>2014-10-04T08:04:50Z</time>
      </trkpt>
      <trkpt lat="43.8497" lon="6.77266">
        <ele>1254.399</ele>
        <time>2014-10-04T08:04:58Z</time>
      </trkpt>
      <trkpt lat="43.84973" lon="6.77263">
        <ele>1254.872</ele>
        <time>2014-10-04T08:05:01Z</time>
      </trkpt>
      <trkpt lat="43.84979" lon="6.7726">
        <ele>1254.843</ele>
        <time>2014-10-04T08:05:08Z</time>
      </trkpt>
      <trkpt lat="43.84983" lon="6.77251">
        <ele>1254.652</ele>
        <time>2014-10-04T08:05:15Z</time>
      </trkpt>
      <trkpt lat="43.84987" lon="6.77245">
        <ele>1255.763</ele>
        <time>2014-10-04T08:05:20Z</time>
      </trkpt>
      <trkpt lat="43.84993" lon="6.77241">
        <ele>1256.814</ele>
        <time>2014-10-04T08:05:28Z</time>
      </trkpt>
      <trkpt lat="43.84996" lon="6.77241">
        <ele>1259.809</ele>
        <time>2014-10-04T08:05:34Z</time>
      </trkpt>
      <trkpt lat="43.84994" lon="6.77234">
        <ele>1258.891</ele>
        <time>2014-10-04T08:05:40Z</time>
      </trkpt>
      <trkpt lat="43.84994" lon="6.77228">
        <ele>1258.393</ele>
        <time>2014-10-04T08:05:43Z</time>
      </trkpt>
      <trkpt lat="43.84997" lon="6.77219">
        <ele>1258.686</ele>
        <time>2014-10-04T08:05:49Z</time>
      </trkpt>
      <trkpt lat="43.84998" lon="6.77216">
        <ele>1258.509</ele>
        <time>2014-10-04T08:05:52Z</time>
      </trkpt>
      <trkpt lat="43.85002" lon="6.77208">
        <ele>1259.186</ele>
        <time>2014-10-04T08:05:59Z</time>
      </trkpt>
      <trkpt lat="43.85003" lon="6.77201">
        <ele>1257.702</ele>
        <time>2014-10-04T08:06:04Z</time>
      </trkpt>
      <trkpt lat="43.85004" lon="6.77196">
        <ele>1259.595</ele>
        <time>2014-10-04T08:06:10Z</time>
      </trkpt>
      <trkpt lat="43.85004" lon="6.77188">
        <ele>1258.621</ele>
        <time>2014-10-04T08:06:15Z</time>
      </trkpt>
      <trkpt lat="43.85004" lon="6.7718">
        <ele>1256.796</ele>
        <time>2014-10-04T08:06:19Z</time>
      </trkpt>
      <trkpt lat="43.85007" lon="6.77168">
        <ele>1254.736</ele>
        <time>2014-10-04T08:06:25Z</time>
      </trkpt>
      <trkpt lat="43.85009" lon="6.77167">
        <ele>1258.021</ele>
        <time>2014-10-04T08:06:30Z</time>
      </trkpt>
      <trkpt lat="43.85014" lon="6.77163">
        <ele>1261.471</ele>
        <time>2014-10-04T08:06:36Z</time>
      </trkpt>
      <trkpt lat="43.85012" lon="6.77147">
        <ele>1256.759</ele>
        <time>2014-10-04T08:06:48Z</time>
      </trkpt>
      <trkpt lat="43.85015" lon="6.77135">
        <ele>1253.662</ele>
        <time>2014-10-04T08:06:53Z</time>
      </trkpt>
      <trkpt lat="43.85018" lon="6.77129">
        <ele>1253.994</ele>
        <time>2014-10-04T08:06:58Z</time>
      </trkpt>
      <trkpt lat="43.8502" lon="6.77123">
        <ele>1253.862</ele>
        <time>2014-10-04T08:07:02Z</time>
      </trkpt>
      <trkpt lat="43.85022" lon="6.77119">
        <ele>1254.003</ele>
        <time>2014-10-04T08:07:05Z</time>
      </trkpt>
      <trkpt lat="43.85027" lon="6.77109">
        <ele>1254.49</ele>
        <time>2014-10-04T08:07:11Z</time>
      </trkpt>
      <trkpt lat="43.8503" lon="6.77102">
        <ele>1256.458</ele>
        <time>2014-10-04T08:07:17Z</time>
      </trkpt>
      <trkpt lat="43.85029" lon="6.77099">
        <ele>1256.406</ele>
        <time>2014-10-04T08:07:19Z</time>
      </trkpt>
      <trkpt lat="43.85031" lon="6.77092">
        <ele>1256.617</ele>
        <time>2014-10-04T08:07:23Z</time>
      </trkpt>
      <trkpt lat="43.85031" lon="6.77089">
        <ele>1256.724</ele>
        <time>2014-10-04T08:07:25Z</time>
      </trkpt>
      <trkpt lat="43.85031" lon="6.77082">
        <ele>1255.933</ele>
        <time>2014-10-04T08:07:30Z</time>
      </trkpt>
      <trkpt lat="43.85029" lon="6.77075">
        <ele>1257.27</ele>
        <time>2014-10-04T08:07:38Z</time>
      </trkpt>
      <trkpt lat="43.8503" lon="6.77063">
        <ele>1255.018</ele>
        <time>2014-10-04T08:07:43Z</time>
      </trkpt>
      <trkpt lat="43.8503" lon="6.77063">
        <ele>1255.819</ele>
        <time>2014-10-04T08:07:44Z</time>
      </trkpt>
      <trkpt lat="43.85036" lon="6.77049">
        <ele>1257.084</ele>
        <time>2014-10-04T08:07:51Z</time>
      </trkpt>
      <trkpt lat="43.85039" lon="6.77043">
        <ele>1261.479</ele>
        <time>2014-10-04T08:07:59Z</time>
      </trkpt>
      <trkpt lat="43.85042" lon="6.77033">
        <ele>1260.089</ele>
        <time>2014-10-04T08:08:07Z</time>
      </trkpt>
      <trkpt lat="43.85043" lon="6.77028">
        <ele>1260.599</ele>
        <time>2014-10-04T08:08:12Z</time>
      </trkpt>
      <trkpt lat="43.85043" lon="6.77026">
        <ele>1261.68</ele>
        <time>2014-10-04T08:08:15Z</time>
      </trkpt>
      <trkpt lat="43.85048" lon="6.77018">
        <ele>1260.648</ele>
        <time>2014-10-04T08:08:20Z</time>
      </trkpt>
      <trkpt lat="43.85049" lon="6.77011">
        <ele>1262.542</ele>
        <time>2014-10-04T08:08:27Z</time>
      </trkpt>
      <trkpt lat="43.85051" lon="6.77004">
        <ele>1259.965</ele>
        <time>2014-10-04T08:08:31Z</time>
      </trkpt>
      <trkpt lat="43.85053" lon="6.76998">
        <ele>1257.493</ele>
        <time>2014-10-04T08:08:35Z</time>
      </trkpt>
      <trkpt lat="43.85058" lon="6.76984">
        <ele>1253.512</ele>
        <time>2014-10-04T08:08:43Z</time>
      </trkpt>
      <trkpt lat="43.85058" lon="6.7698">
        <ele>1252.723</ele>
        <time>2014-10-04T08:08:48Z</time>
      </trkpt>
      <trkpt lat="43.85062" lon="6.76971">
        <ele>1251.933</ele>
        <time>2014-10-04T08:08:53Z</time>
      </trkpt>
      <trkpt lat="43.85063" lon="6.76968">
        <ele>1255.222</ele>
        <time>2014-10-04T08:08:58Z</time>
      </trkpt>
      <trkpt lat="43.85063" lon="6.76966">
        <ele>1255.07</ele>
        <time>2014-10-04T08:08:59Z</time>
      </trkpt>
      <trkpt lat="43.85065" lon="6.76958">
        <ele>1255.23</ele>
        <time>2014-10-04T08:09:04Z</time>
      </trkpt>
      <trkpt lat="43.85063" lon="6.76952">
        <ele>1256.417</ele>
        <time>2014-10-04T08:09:09Z</time>
      </trkpt>
      <trkpt lat="43.85062" lon="6.76942">
        <ele>1255.934</ele>
        <time>2014-10-04T08:09:16Z</time>
      </trkpt>
      <trkpt lat="43.85066" lon="6.76937">
        <ele>1255.422</ele>
        <time>2014-10-04T08:09:20Z</time>
      </trkpt>
      <trkpt lat="43.85069" lon="6.76927">
        <ele>1255.153</ele>
        <time>2014-10-04T08:09:26Z</time>
      </trkpt>
      <trkpt lat="43.8507" lon="6.76919">
        <ele>1255.623</ele>
        <time>2014-10-04T08:09:34Z</time>
      </trkpt>
      <trkpt lat="43.85067" lon="6.76914">
        <ele>1254.132</ele>
        <time>2014-10-04T08:09:39Z</time>
      </trkpt>
      <trkpt lat="43.85071" lon="6.76905">
        <ele>1254.601</ele>
        <time>2014-10-04T08:09:45Z</time>
      </trkpt>
      <trkpt lat="43.85072" lon="6.76898">
        <ele>1254.425</ele>
        <time>2014-10-04T08:09:50Z</time>
      </trkpt>
      <trkpt lat="43.85071" lon="6.76896">
        <ele>1256.599</ele>
        <time>2014-10-04T08:09:54Z</time>
      </trkpt>
      <trkpt lat="43.85075" lon="6.76892">
        <ele>1260.286</ele>
        <time>2014-10-04T08:10:00Z</time>
      </trkpt>
      <trkpt lat="43.85078" lon="6.76884">
        <ele>1258.84</ele>
        <time>2014-10-04T08:10:06Z</time>
      </trkpt>
      <trkpt lat="43.85082" lon="6.76874">
        <ele>1257.627</ele>
        <time>2014-10-04T08:10:11Z</time>
      </trkpt>
      <trkpt lat="43.85083" lon="6.76863">
        <ele>1257.128</ele>
        <time>2014-10-04T08:10:17Z</time>
      </trkpt>
      <trkpt lat="43.85085" lon="6.76854">
        <ele>1256.807</ele>
        <time>2014-10-04T08:10:23Z</time>
      </trkpt>
      <trkpt lat="43.85087" lon="6.76842">
        <ele>1252.538</ele>
        <time>2014-10-04T08:10:27Z</time>
      </trkpt>
      <trkpt lat="43.85091" lon="6.76831">
        <ele>1250.591</ele>
        <time>2014-10-04T08:10:32Z</time>
      </trkpt>
      <trkpt lat="43.8509" lon="6.76831">
        <ele>1254.538</ele>
        <time>2014-10-04T08:10:38Z</time>
      </trkpt>
      <trkpt lat="43.85095" lon="6.76823">
        <ele>1255.429</ele>
        <time>2014-10-04T08:10:42Z</time>
      </trkpt>
      <trkpt lat="43.85098" lon="6.76819">
        <ele>1257.677</ele>
        <time>2014-10-04T08:10:47Z</time>
      </trkpt>
      <trkpt lat="43.85098" lon="6.76818">
        <ele>1257.665</ele>
        <time>2014-10-04T08:10:48Z</time>
      </trkpt>
      <trkpt lat="43.85101" lon="6.76806">
        <ele>1254.259</ele>
        <time>2014-10-04T08:10:55Z</time>
      </trkpt>
      <trkpt lat="43.85106" lon="6.76793">
        <ele>1253.009</ele>
        <time>2014-10-04T08:11:01Z</time>
      </trkpt>
      <trkpt lat="43.85109" lon="6.76786">
        <ele>1254.937</ele>
        <time>2014-10-04T08:11:07Z</time>
      </trkpt>
      <trkpt lat="43.85109" lon="6.76784">
        <ele>1254.657</ele>
        <time>2014-10-04T08:11:08Z</time>
      </trkpt>
      <trkpt lat="43.85116" lon="6.76772">
        <ele>1255.351</ele>
        <time>2014-10-04T08:11:16Z</time>
      </trkpt>
      <trkpt lat="43.85115" lon="6.76766">
        <ele>1255.478</ele>
        <time>2014-10-04T08:11:20Z</time>
      </trkpt>
      <trkpt lat="43.85117" lon="6.76759">
        <ele>1257.228</ele>
        <time>2014-10-04T08:11:26Z</time>
      </trkpt>
      <trkpt lat="43.8512" lon="6.76757">
        <ele>1260.49</ele>
        <time>2014-10-04T08:11:30Z</time>
      </trkpt>
      <trkpt lat="43.8512" lon="6.76755">
        <ele>1262.725</ele>
        <time>2014-10-04T08:11:35Z</time>
      </trkpt>
      <trkpt lat="43.85125" lon="6.76741">
        <ele>1261.822</ele>
        <time>2014-10-04T08:11:48Z</time>
      </trkpt>
      <trkpt lat="43.85125" lon="6.76737">
        <ele>1261.911</ele>
        <time>2014-10-04T08:11:52Z</time>
      </trkpt>
      <trkpt lat="43.85124" lon="6.76738">
        <ele>1268.532</ele>
        <time>2014-10-04T08:12:00Z</time>
      </trkpt>
      <trkpt lat="43.85124" lon="6.76738">
        <ele>1269.426</ele>
        <time>2014-10-04T08:12:06Z</time>
      </trkpt>
      <trkpt lat="43.85128" lon="6.76734">
        <ele>1270.591</ele>
        <time>2014-10-04T08:12:12Z</time>
      </trkpt>
      <trkpt lat="43.8513" lon="6.76713">
        <ele>1264.555</ele>
        <time>2014-10-04T08:12:30Z</time>
      </trkpt>
      <trkpt lat="43.85128" lon="6.76704">
        <ele>1262.824</ele>
        <time>2014-10-04T08:12:40Z</time>
      </trkpt>
      <trkpt lat="43.85128" lon="6.76694">
        <ele>1264.018</ele>
        <time>2014-10-04T08:12:48Z</time>
      </trkpt>
      <trkpt lat="43.85132" lon="6.7669">
        <ele>1266.592</ele>
        <time>2014-10-04T08:12:53Z</time>
      </trkpt>
      <trkpt lat="43.85132" lon="6.76685">
        <ele>1267.31</ele>
        <time>2014-10-04T08:12:58Z</time>
      </trkpt>
      <trkpt lat="43.85133" lon="6.76682">
        <ele>1267.914</ele>
        <time>2014-10-04T08:13:01Z</time>
      </trkpt>
      <trkpt lat="43.85134" lon="6.76674">
        <ele>1268.176</ele>
        <time>2014-10-04T08:13:07Z</time>
      </trkpt>
      <trkpt lat="43.85134" lon="6.76669">
        <ele>1269.808</ele>
        <time>2014-10-04T08:13:12Z</time>
      </trkpt>
      <trkpt lat="43.85135" lon="6.76668">
        <ele>1270.156</ele>
        <time>2014-10-04T08:13:13Z</time>
      </trkpt>
      <trkpt lat="43.85136" lon="6.76666">
        <ele>1271.414</ele>
        <time>2014-10-04T08:13:21Z</time>
      </trkpt>
      <trkpt lat="43.8514" lon="6.76661">
        <ele>1271.046</ele>
        <time>2014-10-04T08:13:36Z</time>
      </trkpt>
      <trkpt lat="43.85142" lon="6.76656">
        <ele>1271.438</ele>
        <time>2014-10-04T08:13:43Z</time>
      </trkpt>
      <trkpt lat="43.85145" lon="6.76653">
        <ele>1272.17</ele>
        <time>2014-10-04T08:13:52Z</time>
      </trkpt>
      <trkpt lat="43.8515" lon="6.76646">
        <ele>1272.308</ele>
        <time>2014-10-04T08:14:00Z</time>
      </trkpt>
      <trkpt lat="43.85153" lon="6.76638">
        <ele>1270.224</ele>
        <time>2014-10-04T08:14:06Z</time>
      </trkpt>
      <trkpt lat="43.85156" lon="6.76632">
        <ele>1268.874</ele>
        <time>2014-10-04T08:14:11Z</time>
      </trkpt>
      <trkpt lat="43.8516" lon="6.76623">
        <ele>1268.793</ele>
        <time>2014-10-04T08:14:18Z</time>
      </trkpt>
      <trkpt lat="43.85161" lon="6.76619">
        <ele>1268.573</ele>
        <time>2014-10-04T08:14:22Z</time>
      </trkpt>
      <trkpt lat="43.85162" lon="6.76614">
        <ele>1268.479</ele>
        <time>2014-10-04T08:14:31Z</time>
      </trkpt>
      <trkpt lat="43.85162" lon="6.76611">
        <ele>1270.184</ele>
        <time>2014-10-04T08:14:40Z</time>
      </trkpt>
      <trkpt lat="43.85165" lon="6.7661">
        <ele>1272.776</ele>
        <time>2014-10-04T08:14:46Z</time>
      </trkpt>
      <trkpt lat="43.85166" lon="6.76607">
        <ele>1275.816</ele>
        <time>2014-10-04T08:14:55Z</time>
      </trkpt>
      <trkpt lat="43.85166" lon="6.76604">
        <ele>1278.511</ele>
        <time>2014-10-04T08:15:05Z</time>
      </trkpt>
      <trkpt lat="43.85166" lon="6.76602">
        <ele>1280.833</ele>
        <time>2014-10-04T08:15:11Z</time>
      </trkpt>
      <trkpt lat="43.85168" lon="6.76598">
        <ele>1283.759</ele>
        <time>2014-10-04T08:15:20Z</time>
      </trkpt>
      <trkpt lat="43.8517" lon="6.76594">
        <ele>1285.854</ele>
        <time>2014-10-04T08:15:28Z</time>
      </trkpt>
      <trkpt lat="43.85172" lon="6.76591">
        <ele>1286.796</ele>
        <time>2014-10-04T08:15:33Z</time>
      </trkpt>
      <trkpt lat="43.85174" lon="6.76588">
        <ele>1288.074</ele>
        <time>2014-10-04T08:15:39Z</time>
      </trkpt>
      <trkpt lat="43.85175" lon="6.76586">
        <ele>1290.886</ele>
        <time>2014-10-04T08:15:49Z</time>
      </trkpt>
      <trkpt lat="43.85175" lon="6.76583">
        <ele>1292.073</ele>
        <time>2014-10-04T08:15:55Z</time>
      </trkpt>
      <trkpt lat="43.85179" lon="6.76578">
        <ele>1294.559</ele>
        <time>2014-10-04T08:16:07Z</time>
      </trkpt>
      <trkpt lat="43.8518" lon="6.76572">
        <ele>1295.625</ele>
        <time>2014-10-04T08:16:14Z</time>
      </trkpt>
      <trkpt lat="43.85179" lon="6.76572">
        <ele>1296.11</ele>
        <time>2014-10-04T08:16:23Z</time>
      </trkpt>
      <trkpt lat="43.85175" lon="6.7657">
        <ele>1298.695</ele>
        <time>2014-10-04T08:19:23Z</time>
      </trkpt>
      <trkpt lat="43.85174" lon="6.76566">
        <ele>1299.97</ele>
        <time>2014-10-04T08:19:29Z</time>
      </trkpt>
      <trkpt lat="43.85174" lon="6.76564">
        <ele>1300.758</ele>
        <time>2014-10-04T08:19:36Z</time>
      </trkpt>
      <trkpt lat="43.85174" lon="6.76559">
        <ele>1301.603</ele>
        <time>2014-10-04T08:19:41Z</time>
      </trkpt>
      <trkpt lat="43.85174" lon="6.76557">
        <ele>1302.151</ele>
        <time>2014-10-04T08:19:43Z</time>
      </trkpt>
      <trkpt lat="43.85173" lon="6.76551">
        <ele>1304.124</ele>
        <time>2014-10-04T08:19:49Z</time>
      </trkpt>
      <trkpt lat="43.85171" lon="6.7654">
        <ele>1305.74</ele>
        <time>2014-10-04T08:19:57Z</time>
      </trkpt>
      <trkpt lat="43.85171" lon="6.76532">
        <ele>1305.352</ele>
        <time>2014-10-04T08:20:03Z</time>
      </trkpt>
      <trkpt lat="43.8517" lon="6.76524">
        <ele>1306.539</ele>
        <time>2014-10-04T08:20:09Z</time>
      </trkpt>
      <trkpt lat="43.85168" lon="6.76518">
        <ele>1306.889</ele>
        <time>2014-10-04T08:20:14Z</time>
      </trkpt>
      <trkpt lat="43.85169" lon="6.76512">
        <ele>1306.899</ele>
        <time>2014-10-04T08:20:21Z</time>
      </trkpt>
      <trkpt lat="43.85165" lon="6.76504">
        <ele>1307.917</ele>
        <time>2014-10-04T08:20:28Z</time>
      </trkpt>
      <trkpt lat="43.85163" lon="6.76496">
        <ele>1308.702</ele>
        <time>2014-10-04T08:20:35Z</time>
      </trkpt>
      <trkpt lat="43.85162" lon="6.76493">
        <ele>1308.738</ele>
        <time>2014-10-04T08:20:37Z</time>
      </trkpt>
      <trkpt lat="43.85161" lon="6.76487">
        <ele>1308.662</ele>
        <time>2014-10-04T08:20:42Z</time>
      </trkpt>
      <trkpt lat="43.8516" lon="6.7648">
        <ele>1308.251</ele>
        <time>2014-10-04T08:20:47Z</time>
      </trkpt>
      <trkpt lat="43.85159" lon="6.76473">
        <ele>1308.445</ele>
        <time>2014-10-04T08:20:53Z</time>
      </trkpt>
      <trkpt lat="43.85158" lon="6.76466">
        <ele>1310.078</ele>
        <time>2014-10-04T08:20:58Z</time>
      </trkpt>
      <trkpt lat="43.85155" lon="6.76458">
        <ele>1312.084</ele>
        <time>2014-10-04T08:21:05Z</time>
      </trkpt>
      <trkpt lat="43.85154" lon="6.7645">
        <ele>1312.456</ele>
        <time>2014-10-04T08:21:12Z</time>
      </trkpt>
      <trkpt lat="43.85152" lon="6.76445">
        <ele>1311.882</ele>
        <time>2014-10-04T08:21:18Z</time>
      </trkpt>
      <trkpt lat="43.85148" lon="6.76436">
        <ele>1311.644</ele>
        <time>2014-10-04T08:21:24Z</time>
      </trkpt>
      <trkpt lat="43.85147" lon="6.76432">
        <ele>1312.654</ele>
        <time>2014-10-04T08:21:27Z</time>
      </trkpt>
      <trkpt lat="43.85145" lon="6.76427">
        <ele>1313.985</ele>
        <time>2014-10-04T08:21:31Z</time>
      </trkpt>
      <trkpt lat="43.85143" lon="6.76419">
        <ele>1313.42</ele>
        <time>2014-10-04T08:21:38Z</time>
      </trkpt>
      <trkpt lat="43.85143" lon="6.76416">
        <ele>1313.167</ele>
        <time>2014-10-04T08:21:40Z</time>
      </trkpt>
      <trkpt lat="43.85138" lon="6.76411">
        <ele>1313.377</ele>
        <time>2014-10-04T08:21:47Z</time>
      </trkpt>
      <trkpt lat="43.85134" lon="6.76405">
        <ele>1313.538</ele>
        <time>2014-10-04T08:21:54Z</time>
      </trkpt>
      <trkpt lat="43.8513" lon="6.76402">
        <ele>1313.202</ele>
        <time>2014-10-04T08:21:59Z</time>
      </trkpt>
      <trkpt lat="43.85125" lon="6.76398">
        <ele>1314.585</ele>
        <time>2014-10-04T08:22:05Z</time>
      </trkpt>
      <trkpt lat="43.85122" lon="6.76398">
        <ele>1314.69</ele>
        <time>2014-10-04T08:22:08Z</time>
      </trkpt>
      <trkpt lat="43.85115" lon="6.764">
        <ele>1313.848</ele>
        <time>2014-10-04T08:22:14Z</time>
      </trkpt>
      <trkpt lat="43.85108" lon="6.76399">
        <ele>1315.122</ele>
        <time>2014-10-04T08:22:20Z</time>
      </trkpt>
      <trkpt lat="43.85109" lon="6.76399">
        <ele>1310.791</ele>
        <time>2014-10-04T08:22:25Z</time>
      </trkpt>
      <trkpt lat="43.85109" lon="6.76392">
        <ele>1315.838</ele>
        <time>2014-10-04T08:22:32Z</time>
      </trkpt>
      <trkpt lat="43.85108" lon="6.76386">
        <ele>1318.369</ele>
        <time>2014-10-04T08:22:36Z</time>
      </trkpt>
      <trkpt lat="43.8511" lon="6.76374">
        <ele>1315.826</ele>
        <time>2014-10-04T08:22:41Z</time>
      </trkpt>
      <trkpt lat="43.85113" lon="6.76366">
        <ele>1320.515</ele>
        <time>2014-10-04T08:22:45Z</time>
      </trkpt>
      <trkpt lat="43.85116" lon="6.7636">
        <ele>1319.767</ele>
        <time>2014-10-04T08:22:51Z</time>
      </trkpt>
      <trkpt lat="43.85116" lon="6.76358">
        <ele>1318.596</ele>
        <time>2014-10-04T08:22:55Z</time>
      </trkpt>
      <trkpt lat="43.85118" lon="6.76351">
        <ele>1318.872</ele>
        <time>2014-10-04T08:23:03Z</time>
      </trkpt>
      <trkpt lat="43.85121" lon="6.76347">
        <ele>1317.829</ele>
        <time>2014-10-04T08:23:14Z</time>
      </trkpt>
      <trkpt lat="43.85122" lon="6.76344">
        <ele>1316.922</ele>
        <time>2014-10-04T08:23:19Z</time>
      </trkpt>
      <trkpt lat="43.85125" lon="6.76336">
        <ele>1315.732</ele>
        <time>2014-10-04T08:23:25Z</time>
      </trkpt>
      <trkpt lat="43.85126" lon="6.76327">
        <ele>1317.159</ele>
        <time>2014-10-04T08:23:31Z</time>
      </trkpt>
      <trkpt lat="43.85127" lon="6.76323">
        <ele>1314.549</ele>
        <time>2014-10-04T08:23:36Z</time>
      </trkpt>
      <trkpt lat="43.85129" lon="6.76316">
        <ele>1314.131</ele>
        <time>2014-10-04T08:23:40Z</time>
      </trkpt>
      <trkpt lat="43.85129" lon="6.76314">
        <ele>1313.588</ele>
        <time>2014-10-04T08:23:43Z</time>
      </trkpt>
      <trkpt lat="43.85129" lon="6.763">
        <ele>1312.985</ele>
        <time>2014-10-04T08:23:49Z</time>
      </trkpt>
      <trkpt lat="43.85129" lon="6.76278">
        <ele>1312.137</ele>
        <time>2014-10-04T08:23:55Z</time>
      </trkpt>
      <trkpt lat="43.85127" lon="6.76264">
        <ele>1311.308</ele>
        <time>2014-10-04T08:24:00Z</time>
      </trkpt>
      <trkpt lat="43.85124" lon="6.76247">
        <ele>1307.472</ele>
        <time>2014-10-04T08:24:06Z</time>
      </trkpt>
      <trkpt lat="43.85122" lon="6.76237">
        <ele>1306.347</ele>
        <time>2014-10-04T08:24:10Z</time>
      </trkpt>
      <trkpt lat="43.85119" lon="6.76223">
        <ele>1303.714</ele>
        <time>2014-10-04T08:24:16Z</time>
      </trkpt>
      <trkpt lat="43.85118" lon="6.76217">
        <ele>1305.018</ele>
        <time>2014-10-04T08:24:21Z</time>
      </trkpt>
      <trkpt lat="43.85116" lon="6.76211">
        <ele>1303.816</ele>
        <time>2014-10-04T08:24:26Z</time>
      </trkpt>
      <trkpt lat="43.85112" lon="6.76199">
        <ele>1306.585</ele>
        <time>2014-10-04T08:24:32Z</time>
      </trkpt>
      <trkpt lat="43.85109" lon="6.7619">
        <ele>1308.519</ele>
        <time>2014-10-04T08:24:36Z</time>
      </trkpt>
      <trkpt lat="43.85107" lon="6.76169">
        <ele>1310.796</ele>
        <time>2014-10-04T08:24:42Z</time>
      </trkpt>
      <trkpt lat="43.85107" lon="6.76164">
        <ele>1310.701</ele>
        <time>2014-10-04T08:24:47Z</time>
      </trkpt>
      <trkpt lat="43.85106" lon="6.76162">
        <ele>1307.614</ele>
        <time>2014-10-04T08:24:52Z</time>
      </trkpt>
      <trkpt lat="43.85104" lon="6.7615">
        <ele>1310.99</ele>
        <time>2014-10-04T08:24:59Z</time>
      </trkpt>
      <trkpt lat="43.85105" lon="6.76125">
        <ele>1314.373</ele>
        <time>2014-10-04T08:25:06Z</time>
      </trkpt>
      <trkpt lat="43.85105" lon="6.76106">
        <ele>1313.95</ele>
        <time>2014-10-04T08:25:13Z</time>
      </trkpt>
      <trkpt lat="43.85106" lon="6.76099">
        <ele>1314.643</ele>
        <time>2014-10-04T08:25:15Z</time>
      </trkpt>
      <trkpt lat="43.85104" lon="6.76083">
        <ele>1310.995</ele>
        <time>2014-10-04T08:25:20Z</time>
      </trkpt>
      <trkpt lat="43.85108" lon="6.76069">
        <ele>1310.992</ele>
        <time>2014-10-04T08:25:26Z</time>
      </trkpt>
      <trkpt lat="43.85112" lon="6.76062">
        <ele>1309.019</ele>
        <time>2014-10-04T08:25:36Z</time>
      </trkpt>
      <trkpt lat="43.85112" lon="6.76056">
        <ele>1310.007</ele>
        <time>2014-10-04T08:25:41Z</time>
      </trkpt>
      <trkpt lat="43.85113" lon="6.7605">
        <ele>1310.668</ele>
        <time>2014-10-04T08:25:47Z</time>
      </trkpt>
      <trkpt lat="43.85115" lon="6.76047">
        <ele>1312.943</ele>
        <time>2014-10-04T08:25:56Z</time>
      </trkpt>
      <trkpt lat="43.85114" lon="6.76045">
        <ele>1313.062</ele>
        <time>2014-10-04T08:25:58Z</time>
      </trkpt>
      <trkpt lat="43.85119" lon="6.76038">
        <ele>1313.223</ele>
        <time>2014-10-04T08:26:05Z</time>
      </trkpt>
      <trkpt lat="43.8512" lon="6.76034">
        <ele>1313.371</ele>
        <time>2014-10-04T08:26:10Z</time>
      </trkpt>
      <trkpt lat="43.85121" lon="6.7603">
        <ele>1313.153</ele>
        <time>2014-10-04T08:26:15Z</time>
      </trkpt>
      <trkpt lat="43.85123" lon="6.76024">
        <ele>1312.5</ele>
        <time>2014-10-04T08:26:22Z</time>
      </trkpt>
      <trkpt lat="43.85124" lon="6.76023">
        <ele>1312.147</ele>
        <time>2014-10-04T08:26:23Z</time>
      </trkpt>
      <trkpt lat="43.85125" lon="6.76018">
        <ele>1311.148</ele>
        <time>2014-10-04T08:26:28Z</time>
      </trkpt>
      <trkpt lat="43.85127" lon="6.76008">
        <ele>1310.329</ele>
        <time>2014-10-04T08:26:35Z</time>
      </trkpt>
      <trkpt lat="43.85127" lon="6.76007">
        <ele>1310.158</ele>
        <time>2014-10-04T08:26:36Z</time>
      </trkpt>
      <trkpt lat="43.85128" lon="6.76003">
        <ele>1309.736</ele>
        <time>2014-10-04T08:26:39Z</time>
      </trkpt>
      <trkpt lat="43.85129" lon="6.75991">
        <ele>1307.403</ele>
        <time>2014-10-04T08:26:47Z</time>
      </trkpt>
      <trkpt lat="43.8513" lon="6.75985">
        <ele>1306.653</ele>
        <time>2014-10-04T08:26:52Z</time>
      </trkpt>
      <trkpt lat="43.85133" lon="6.75979">
        <ele>1305.744</ele>
        <time>2014-10-04T08:26:58Z</time>
      </trkpt>
      <trkpt lat="43.85133" lon="6.75978">
        <ele>1305.443</ele>
        <time>2014-10-04T08:26:59Z</time>
      </trkpt>
      <trkpt lat="43.85131" lon="6.75971">
        <ele>1305.097</ele>
        <time>2014-10-04T08:27:05Z</time>
      </trkpt>
      <trkpt lat="43.85129" lon="6.75963">
        <ele>1305.966</ele>
        <time>2014-10-04T08:27:12Z</time>
      </trkpt>
      <trkpt lat="43.85129" lon="6.75962">
        <ele>1306.024</ele>
        <time>2014-10-04T08:27:13Z</time>
      </trkpt>
      <trkpt lat="43.85132" lon="6.75956">
        <ele>1305.824</ele>
        <time>2014-10-04T08:27:20Z</time>
      </trkpt>
      <trkpt lat="43.85133" lon="6.75951">
        <ele>1305.433</ele>
        <time>2014-10-04T08:27:25Z</time>
      </trkpt>
      <trkpt lat="43.85134" lon="6.75948">
        <ele>1305.669</ele>
        <time>2014-10-04T08:27:30Z</time>
      </trkpt>
      <trkpt lat="43.85134" lon="6.75944">
        <ele>1306.097</ele>
        <time>2014-10-04T08:27:35Z</time>
      </trkpt>
      <trkpt lat="43.85134" lon="6.75937">
        <ele>1305.394</ele>
        <time>2014-10-04T08:27:43Z</time>
      </trkpt>
      <trkpt lat="43.85134" lon="6.75935">
        <ele>1304.993</ele>
        <time>2014-10-04T08:27:47Z</time>
      </trkpt>
      <trkpt lat="43.85132" lon="6.75929">
        <ele>1303.873</ele>
        <time>2014-10-04T08:27:53Z</time>
      </trkpt>
      <trkpt lat="43.8513" lon="6.75926">
        <ele>1303.334</ele>
        <time>2014-10-04T08:27:57Z</time>
      </trkpt>
      <trkpt lat="43.85127" lon="6.75921">
        <ele>1303.614</ele>
        <time>2014-10-04T08:28:03Z</time>
      </trkpt>
      <trkpt lat="43.85124" lon="6.75918">
        <ele>1300.537</ele>
        <time>2014-10-04T08:28:10Z</time>
      </trkpt>
      <trkpt lat="43.85123" lon="6.7591">
        <ele>1298.343</ele>
        <time>2014-10-04T08:28:17Z</time>
      </trkpt>
      <trkpt lat="43.85121" lon="6.75906">
        <ele>1298.257</ele>
        <time>2014-10-04T08:28:26Z</time>
      </trkpt>
      <trkpt lat="43.8512" lon="6.759">
        <ele>1301.058</ele>
        <time>2014-10-04T08:28:33Z</time>
      </trkpt>
      <trkpt lat="43.85119" lon="6.75895">
        <ele>1301.509</ele>
        <time>2014-10-04T08:28:39Z</time>
      </trkpt>
      <trkpt lat="43.85114" lon="6.75888">
        <ele>1303.171</ele>
        <time>2014-10-04T08:28:46Z</time>
      </trkpt>
      <trkpt lat="43.85114" lon="6.75888">
        <ele>1303.562</ele>
        <time>2014-10-04T08:28:47Z</time>
      </trkpt>
      <trkpt lat="43.85112" lon="6.7588">
        <ele>1303.393</ele>
        <time>2014-10-04T08:28:55Z</time>
      </trkpt>
      <trkpt lat="43.85112" lon="6.75877">
        <ele>1303.281</ele>
        <time>2014-10-04T08:28:57Z</time>
      </trkpt>
      <trkpt lat="43.85112" lon="6.75872">
        <ele>1302.324</ele>
        <time>2014-10-04T08:29:02Z</time>
      </trkpt>
      <trkpt lat="43.85111" lon="6.75865">
        <ele>1301.727</ele>
        <time>2014-10-04T08:29:08Z</time>
      </trkpt>
      <trkpt lat="43.85109" lon="6.75862">
        <ele>1301.207</ele>
        <time>2014-10-04T08:29:14Z</time>
      </trkpt>
      <trkpt lat="43.85107" lon="6.7586">
        <ele>1302.991</ele>
        <time>2014-10-04T08:29:24Z</time>
      </trkpt>
      <trkpt lat="43.85105" lon="6.75858">
        <ele>1302.369</ele>
        <time>2014-10-04T08:29:29Z</time>
      </trkpt>
      <trkpt lat="43.85104" lon="6.75856">
        <ele>1302.251</ele>
        <time>2014-10-04T08:29:35Z</time>
      </trkpt>
      <trkpt lat="43.85101" lon="6.75854">
        <ele>1301.937</ele>
        <time>2014-10-04T08:29:56Z</time>
      </trkpt>
      <trkpt lat="43.85097" lon="6.75852">
        <ele>1300.444</ele>
        <time>2014-10-04T08:30:01Z</time>
      </trkpt>
      <trkpt lat="43.85095" lon="6.75851">
        <ele>1300.074</ele>
        <time>2014-10-04T08:30:03Z</time>
      </trkpt>
      <trkpt lat="43.85089" lon="6.75844">
        <ele>1300.972</ele>
        <time>2014-10-04T08:30:10Z</time>
      </trkpt>
      <trkpt lat="43.85086" lon="6.75839">
        <ele>1300.569</ele>
        <time>2014-10-04T08:30:16Z</time>
      </trkpt>
      <trkpt lat="43.85084" lon="6.75839">
        <ele>1299.934</ele>
        <time>2014-10-04T08:30:19Z</time>
      </trkpt>
      <trkpt lat="43.85081" lon="6.75837">
        <ele>1299.284</ele>
        <time>2014-10-04T08:30:23Z</time>
      </trkpt>
      <trkpt lat="43.85077" lon="6.75835">
        <ele>1299.643</ele>
        <time>2014-10-04T08:30:29Z</time>
      </trkpt>
      <trkpt lat="43.85075" lon="6.75833">
        <ele>1298.504</ele>
        <time>2014-10-04T08:30:34Z</time>
      </trkpt>
      <trkpt lat="43.85072" lon="6.7583">
        <ele>1299.813</ele>
        <time>2014-10-04T08:30:39Z</time>
      </trkpt>
      <trkpt lat="43.85072" lon="6.75829">
        <ele>1300.944</ele>
        <time>2014-10-04T08:30:45Z</time>
      </trkpt>
      <trkpt lat="43.85068" lon="6.75823">
        <ele>1303.685</ele>
        <time>2014-10-04T08:30:58Z</time>
      </trkpt>
      <trkpt lat="43.85066" lon="6.75821">
        <ele>1304.626</ele>
        <time>2014-10-04T08:31:03Z</time>
      </trkpt>
      <trkpt lat="43.85065" lon="6.75819">
        <ele>1305.305</ele>
        <time>2014-10-04T08:31:08Z</time>
      </trkpt>
      <trkpt lat="43.85064" lon="6.75817">
        <ele>1308.732</ele>
        <time>2014-10-04T08:31:17Z</time>
      </trkpt>
      <trkpt lat="43.85061" lon="6.75811">
        <ele>1308.15</ele>
        <time>2014-10-04T08:31:22Z</time>
      </trkpt>
      <trkpt lat="43.85057" lon="6.75807">
        <ele>1307.84</ele>
        <time>2014-10-04T08:31:28Z</time>
      </trkpt>
      <trkpt lat="43.85055" lon="6.75807">
        <ele>1307.458</ele>
        <time>2014-10-04T08:31:31Z</time>
      </trkpt>
      <trkpt lat="43.85053" lon="6.75802">
        <ele>1307.313</ele>
        <time>2014-10-04T08:31:37Z</time>
      </trkpt>
      <trkpt lat="43.85052" lon="6.75801">
        <ele>1306.36</ele>
        <time>2014-10-04T08:31:38Z</time>
      </trkpt>
      <trkpt lat="43.8505" lon="6.75799">
        <ele>1303.263</ele>
        <time>2014-10-04T08:31:44Z</time>
      </trkpt>
      <trkpt lat="43.85048" lon="6.75796">
        <ele>1300.494</ele>
        <time>2014-10-04T08:31:49Z</time>
      </trkpt>
      <trkpt lat="43.85048" lon="6.75796">
        <ele>1299.301</ele>
        <time>2014-10-04T08:31:51Z</time>
      </trkpt>
      <trkpt lat="43.85045" lon="6.75788">
        <ele>1297.018</ele>
        <time>2014-10-04T08:31:56Z</time>
      </trkpt>
      <trkpt lat="43.85039" lon="6.7578">
        <ele>1295.578</ele>
        <time>2014-10-04T08:32:00Z</time>
      </trkpt>
      <trkpt lat="43.85028" lon="6.75774">
        <ele>1292.276</ele>
        <time>2014-10-04T08:32:06Z</time>
      </trkpt>
      <trkpt lat="43.8502" lon="6.75769">
        <ele>1292.58</ele>
        <time>2014-10-04T08:32:12Z</time>
      </trkpt>
      <trkpt lat="43.85006" lon="6.75759">
        <ele>1286.095</ele>
        <time>2014-10-04T08:32:19Z</time>
      </trkpt>
      <trkpt lat="43.85002" lon="6.75756">
        <ele>1285.086</ele>
        <time>2014-10-04T08:32:21Z</time>
      </trkpt>
      <trkpt lat="43.84993" lon="6.75747">
        <ele>1287.956</ele>
        <time>2014-10-04T08:32:27Z</time>
      </trkpt>
      <trkpt lat="43.84985" lon="6.75732">
        <ele>1299.547</ele>
        <time>2014-10-04T08:32:32Z</time>
      </trkpt>
      <trkpt lat="43.84974" lon="6.75716">
        <ele>1310.048</ele>
        <time>2014-10-04T08:32:37Z</time>
      </trkpt>
      <trkpt lat="43.84961" lon="6.75707">
        <ele>1306.43</ele>
        <time>2014-10-04T08:32:41Z</time>
      </trkpt>
      <trkpt lat="43.84947" lon="6.75696">
        <ele>1309.322</ele>
        <time>2014-10-04T08:32:46Z</time>
      </trkpt>
      <trkpt lat="43.84941" lon="6.75691">
        <ele>1308.748</ele>
        <time>2014-10-04T08:32:49Z</time>
      </trkpt>
      <trkpt lat="43.84934" lon="6.75689">
        <ele>1308.053</ele>
        <time>2014-10-04T08:32:54Z</time>
      </trkpt>
      <trkpt lat="43.84945" lon="6.75684">
        <ele>1276.892</ele>
        <time>2014-10-04T08:42:14Z</time>
      </trkpt>
      <trkpt lat="43.84957" lon="6.75683">
        <ele>1270.774</ele>
        <time>2014-10-04T08:42:20Z</time>
      </trkpt>
      <trkpt lat="43.84966" lon="6.75677">
        <ele>1272.577</ele>
        <time>2014-10-04T08:42:25Z</time>
      </trkpt>
      <trkpt lat="43.84975" lon="6.75673">
        <ele>1280.503</ele>
        <time>2014-10-04T08:42:29Z</time>
      </trkpt>
      <trkpt lat="43.84982" lon="6.7568">
        <ele>1290.688</ele>
        <time>2014-10-04T08:42:33Z</time>
      </trkpt>
      <trkpt lat="43.85005" lon="6.75684">
        <ele>1296.534</ele>
        <time>2014-10-04T08:42:39Z</time>
      </trkpt>
      <trkpt lat="43.85011" lon="6.75685">
        <ele>1297.464</ele>
        <time>2014-10-04T08:42:41Z</time>
      </trkpt>
      <trkpt lat="43.85026" lon="6.75694">
        <ele>1299.997</ele>
        <time>2014-10-04T08:42:46Z</time>
      </trkpt>
      <trkpt lat="43.85043" lon="6.75699">
        <ele>1298.108</ele>
        <time>2014-10-04T08:42:50Z</time>
      </trkpt>
      <trkpt lat="43.85048" lon="6.75701">
        <ele>1297.345</ele>
        <time>2014-10-04T08:42:51Z</time>
      </trkpt>
      <trkpt lat="43.85066" lon="6.7571">
        <ele>1293.76</ele>
        <time>2014-10-04T08:42:56Z</time>
      </trkpt>
      <trkpt lat="43.85074" lon="6.75711">
        <ele>1289.671</ele>
        <time>2014-10-04T08:43:01Z</time>
      </trkpt>
      <trkpt lat="43.85085" lon="6.75715">
        <ele>1283.273</ele>
        <time>2014-10-04T08:43:05Z</time>
      </trkpt>
      <trkpt lat="43.85087" lon="6.75717">
        <ele>1281.592</ele>
        <time>2014-10-04T08:43:07Z</time>
      </trkpt>
      <trkpt lat="43.85097" lon="6.75726">
        <ele>1274.833</ele>
        <time>2014-10-04T08:43:13Z</time>
      </trkpt>
      <trkpt lat="43.85108" lon="6.75734">
        <ele>1269.29</ele>
        <time>2014-10-04T08:43:18Z</time>
      </trkpt>
      <trkpt lat="43.85115" lon="6.75737">
        <ele>1268.74</ele>
        <time>2014-10-04T08:43:23Z</time>
      </trkpt>
      <trkpt lat="43.85116" lon="6.75738">
        <ele>1262.763</ele>
        <time>2014-10-04T08:43:29Z</time>
      </trkpt>
      <trkpt lat="43.8512" lon="6.75739">
        <ele>1257.836</ele>
        <time>2014-10-04T08:43:38Z</time>
      </trkpt>
      <trkpt lat="43.85122" lon="6.75739">
        <ele>1255.885</ele>
        <time>2014-10-04T08:43:40Z</time>
      </trkpt>
      <trkpt lat="43.85124" lon="6.75741">
        <ele>1254.35</ele>
        <time>2014-10-04T08:43:46Z</time>
      </trkpt>
      <trkpt lat="43.85124" lon="6.75741">
        <ele>1253.429</ele>
        <time>2014-10-04T08:43:49Z</time>
      </trkpt>
      <trkpt lat="43.85127" lon="6.7574">
        <ele>1251.668</ele>
        <time>2014-10-04T08:43:52Z</time>
      </trkpt>
      <trkpt lat="43.85133" lon="6.7574">
        <ele>1250.139</ele>
        <time>2014-10-04T08:43:56Z</time>
      </trkpt>
      <trkpt lat="43.8514" lon="6.75744">
        <ele>1253.243</ele>
        <time>2014-10-04T08:44:00Z</time>
      </trkpt>
      <trkpt lat="43.85148" lon="6.75753">
        <ele>1251.422</ele>
        <time>2014-10-04T08:44:07Z</time>
      </trkpt>
      <trkpt lat="43.85158" lon="6.75757">
        <ele>1254.509</ele>
        <time>2014-10-04T08:44:13Z</time>
      </trkpt>
      <trkpt lat="43.8517" lon="6.75759">
        <ele>1255.096</ele>
        <time>2014-10-04T08:44:18Z</time>
      </trkpt>
      <trkpt lat="43.85178" lon="6.75763">
        <ele>1254.413</ele>
        <time>2014-10-04T08:44:22Z</time>
      </trkpt>
      <trkpt lat="43.85192" lon="6.75767">
        <ele>1247.516</ele>
        <time>2014-10-04T08:44:27Z</time>
      </trkpt>
      <trkpt lat="43.85203" lon="6.75776">
        <ele>1243.135</ele>
        <time>2014-10-04T08:44:31Z</time>
      </trkpt>
      <trkpt lat="43.85219" lon="6.75792">
        <ele>1234.15</ele>
        <time>2014-10-04T08:44:37Z</time>
      </trkpt>
      <trkpt lat="43.85229" lon="6.75803">
        <ele>1229.105</ele>
        <time>2014-10-04T08:44:41Z</time>
      </trkpt>
      <trkpt lat="43.85235" lon="6.75812">
        <ele>1223.61</ele>
        <time>2014-10-04T08:44:45Z</time>
      </trkpt>
      <trkpt lat="43.85238" lon="6.75816">
        <ele>1219.559</ele>
        <time>2014-10-04T08:44:48Z</time>
      </trkpt>
      <trkpt lat="43.85246" lon="6.75811">
        <ele>1214.963</ele>
        <time>2014-10-04T08:44:53Z</time>
      </trkpt>
      <trkpt lat="43.85256" lon="6.7581">
        <ele>1208.202</ele>
        <time>2014-10-04T08:44:59Z</time>
      </trkpt>
      <trkpt lat="43.85263" lon="6.75808">
        <ele>1204.048</ele>
        <time>2014-10-04T08:45:38Z</time>
      </trkpt>
      <trkpt lat="43.85266" lon="6.75807">
        <ele>1205.539</ele>
        <time>2014-10-04T08:45:44Z</time>
      </trkpt>
      <trkpt lat="43.85269" lon="6.75809">
        <ele>1206.843</ele>
        <time>2014-10-04T08:45:49Z</time>
      </trkpt>
      <trkpt lat="43.85272" lon="6.7581">
        <ele>1207.029</ele>
        <time>2014-10-04T08:45:56Z</time>
      </trkpt>
      <trkpt lat="43.85274" lon="6.75806">
        <ele>1202.955</ele>
        <time>2014-10-04T08:46:01Z</time>
      </trkpt>
      <trkpt lat="43.85275" lon="6.75805">
        <ele>1201.314</ele>
        <time>2014-10-04T08:46:04Z</time>
      </trkpt>
      <trkpt lat="43.85278" lon="6.75805">
        <ele>1200.709</ele>
        <time>2014-10-04T08:46:09Z</time>
      </trkpt>
      <trkpt lat="43.85282" lon="6.75803">
        <ele>1205.238</ele>
        <time>2014-10-04T08:46:15Z</time>
      </trkpt>
      <trkpt lat="43.85283" lon="6.75803">
        <ele>1204.307</ele>
        <time>2014-10-04T08:46:19Z</time>
      </trkpt>
      <trkpt lat="43.85285" lon="6.75803">
        <ele>1201.159</ele>
        <time>2014-10-04T08:46:23Z</time>
      </trkpt>
      <trkpt lat="43.85298" lon="6.75804">
        <ele>1197.587</ele>
        <time>2014-10-04T08:46:28Z</time>
      </trkpt>
      <trkpt lat="43.853" lon="6.75804">
        <ele>1196.045</ele>
        <time>2014-10-04T08:46:29Z</time>
      </trkpt>
      <trkpt lat="43.85303" lon="6.75809">
        <ele>1193.517</ele>
        <time>2014-10-04T08:46:33Z</time>
      </trkpt>
      <trkpt lat="43.85308" lon="6.75815">
        <ele>1192.66</ele>
        <time>2014-10-04T08:46:37Z</time>
      </trkpt>
      <trkpt lat="43.85316" lon="6.7582">
        <ele>1193.845</ele>
        <time>2014-10-04T08:46:43Z</time>
      </trkpt>
      <trkpt lat="43.85318" lon="6.75817">
        <ele>1184.237</ele>
        <time>2014-10-04T08:46:54Z</time>
      </trkpt>
      <trkpt lat="43.85322" lon="6.7581">
        <ele>1181.765</ele>
        <time>2014-10-04T08:46:59Z</time>
      </trkpt>
      <trkpt lat="43.85325" lon="6.75807">
        <ele>1180.221</ele>
        <time>2014-10-04T08:47:06Z</time>
      </trkpt>
      <trkpt lat="43.85325" lon="6.75809">
        <ele>1180.207</ele>
        <time>2014-10-04T08:47:12Z</time>
      </trkpt>
      <trkpt lat="43.85327" lon="6.75809">
        <ele>1182.509</ele>
        <time>2014-10-04T08:47:16Z</time>
      </trkpt>
      <trkpt lat="43.85323" lon="6.75811">
        <ele>1173.491</ele>
        <time>2014-10-04T08:48:39Z</time>
      </trkpt>
      <trkpt lat="43.85328" lon="6.75822">
        <ele>1171.764</ele>
        <time>2014-10-04T08:48:43Z</time>
      </trkpt>
      <trkpt lat="43.85336" lon="6.75836">
        <ele>1173.01</ele>
        <time>2014-10-04T08:48:48Z</time>
      </trkpt>
      <trkpt lat="43.85338" lon="6.75838">
        <ele>1170.691</ele>
        <time>2014-10-04T08:48:52Z</time>
      </trkpt>
      <trkpt lat="43.8534" lon="6.75837">
        <ele>1168.99</ele>
        <time>2014-10-04T08:48:55Z</time>
      </trkpt>
      <trkpt lat="43.85348" lon="6.75848">
        <ele>1167.644</ele>
        <time>2014-10-04T08:49:01Z</time>
      </trkpt>
      <trkpt lat="43.85355" lon="6.75859">
        <ele>1165.092</ele>
        <time>2014-10-04T08:49:06Z</time>
      </trkpt>
      <trkpt lat="43.85357" lon="6.7586">
        <ele>1162.468</ele>
        <time>2014-10-04T08:49:10Z</time>
      </trkpt>
      <trkpt lat="43.85359" lon="6.75856">
        <ele>1160.439</ele>
        <time>2014-10-04T08:49:15Z</time>
      </trkpt>
      <trkpt lat="43.85362" lon="6.75858">
        <ele>1160.874</ele>
        <time>2014-10-04T08:49:19Z</time>
      </trkpt>
      <trkpt lat="43.85366" lon="6.75862">
        <ele>1160.633</ele>
        <time>2014-10-04T08:49:24Z</time>
      </trkpt>
      <trkpt lat="43.85367" lon="6.7585">
        <ele>1157.541</ele>
        <time>2014-10-04T08:49:28Z</time>
      </trkpt>
      <trkpt lat="43.8537" lon="6.75826">
        <ele>1151.241</ele>
        <time>2014-10-04T08:49:35Z</time>
      </trkpt>
      <trkpt lat="43.85374" lon="6.7582">
        <ele>1148.844</ele>
        <time>2014-10-04T08:49:40Z</time>
      </trkpt>
      <trkpt lat="43.85374" lon="6.75821">
        <ele>1148.365</ele>
        <time>2014-10-04T08:49:52Z</time>
      </trkpt>
      <trkpt lat="43.85376" lon="6.75821">
        <ele>1147.422</ele>
        <time>2014-10-04T08:49:57Z</time>
      </trkpt>
      <trkpt lat="43.85374" lon="6.75832">
        <ele>1148.166</ele>
        <time>2014-10-04T08:50:02Z</time>
      </trkpt>
      <trkpt lat="43.85371" lon="6.75833">
        <ele>1145.931</ele>
        <time>2014-10-04T08:50:09Z</time>
      </trkpt>
      <trkpt lat="43.85363" lon="6.75839">
        <ele>1130.677</ele>
        <time>2014-10-04T08:51:02Z</time>
      </trkpt>
      <trkpt lat="43.85369" lon="6.75847">
        <ele>1132.228</ele>
        <time>2014-10-04T08:51:09Z</time>
      </trkpt>
      <trkpt lat="43.85371" lon="6.75853">
        <ele>1134.032</ele>
        <time>2014-10-04T08:51:14Z</time>
      </trkpt>
      <trkpt lat="43.85375" lon="6.75866">
        <ele>1137.299</ele>
        <time>2014-10-04T08:51:19Z</time>
      </trkpt>
      <trkpt lat="43.85382" lon="6.7588">
        <ele>1139.677</ele>
        <time>2014-10-04T08:51:25Z</time>
      </trkpt>
      <trkpt lat="43.85386" lon="6.75891">
        <ele>1138.319</ele>
        <time>2014-10-04T08:51:30Z</time>
      </trkpt>
      <trkpt lat="43.85392" lon="6.75905">
        <ele>1134.818</ele>
        <time>2014-10-04T08:51:35Z</time>
      </trkpt>
      <trkpt lat="43.85397" lon="6.75916">
        <ele>1132.228</ele>
        <time>2014-10-04T08:51:40Z</time>
      </trkpt>
      <trkpt lat="43.85398" lon="6.75914">
        <ele>1131.957</ele>
        <time>2014-10-04T08:51:47Z</time>
      </trkpt>
      <trkpt lat="43.85398" lon="6.75914">
        <ele>1130.015</ele>
        <time>2014-10-04T08:51:50Z</time>
      </trkpt>
      <trkpt lat="43.85399" lon="6.7591">
        <ele>1126.166</ele>
        <time>2014-10-04T08:51:56Z</time>
      </trkpt>
      <trkpt lat="43.854" lon="6.75912">
        <ele>1125.505</ele>
        <time>2014-10-04T08:51:58Z</time>
      </trkpt>
      <trkpt lat="43.85401" lon="6.75917">
        <ele>1123.12</ele>
        <time>2014-10-04T08:52:05Z</time>
      </trkpt>
      <trkpt lat="43.85402" lon="6.75919">
        <ele>1122.293</ele>
        <time>2014-10-04T08:52:11Z</time>
      </trkpt>
      <trkpt lat="43.85403" lon="6.75918">
        <ele>1122.094</ele>
        <time>2014-10-04T08:52:13Z</time>
      </trkpt>
      <trkpt lat="43.85402" lon="6.75912">
        <ele>1116.908</ele>
        <time>2014-10-04T08:52:20Z</time>
      </trkpt>
      <trkpt lat="43.85401" lon="6.75904">
        <ele>1111.664</ele>
        <time>2014-10-04T08:52:27Z</time>
      </trkpt>
      <trkpt lat="43.85402" lon="6.75902">
        <ele>1110.914</ele>
        <time>2014-10-04T08:52:29Z</time>
      </trkpt>
      <trkpt lat="43.85404" lon="6.75894">
        <ele>1107.278</ele>
        <time>2014-10-04T08:52:34Z</time>
      </trkpt>
      <trkpt lat="43.85404" lon="6.75878">
        <ele>1107.008</ele>
        <time>2014-10-04T08:52:38Z</time>
      </trkpt>
      <trkpt lat="43.85404" lon="6.75874">
        <ele>1106.849</ele>
        <time>2014-10-04T08:52:39Z</time>
      </trkpt>
      <trkpt lat="43.85402" lon="6.75852">
        <ele>1105.16</ele>
        <time>2014-10-04T08:52:46Z</time>
      </trkpt>
      <trkpt lat="43.85405" lon="6.75845">
        <ele>1105.802</ele>
        <time>2014-10-04T08:52:51Z</time>
      </trkpt>
      <trkpt lat="43.85408" lon="6.75843">
        <ele>1106.995</ele>
        <time>2014-10-04T08:52:57Z</time>
      </trkpt>
      <trkpt lat="43.85408" lon="6.75842">
        <ele>1106.624</ele>
        <time>2014-10-04T08:53:02Z</time>
      </trkpt>
      <trkpt lat="43.85411" lon="6.7584">
        <ele>1105.471</ele>
        <time>2014-10-04T08:53:07Z</time>
      </trkpt>
      <trkpt lat="43.85412" lon="6.75846">
        <ele>1107.318</ele>
        <time>2014-10-04T08:53:14Z</time>
      </trkpt>
      <trkpt lat="43.85412" lon="6.7586">
        <ele>1107.468</ele>
        <time>2014-10-04T08:53:18Z</time>
      </trkpt>
      <trkpt lat="43.85417" lon="6.75879">
        <ele>1108.77</ele>
        <time>2014-10-04T08:53:24Z</time>
      </trkpt>
      <trkpt lat="43.85422" lon="6.75889">
        <ele>1108.266</ele>
        <time>2014-10-04T08:53:29Z</time>
      </trkpt>
      <trkpt lat="43.85425" lon="6.75887">
        <ele>1105.741</ele>
        <time>2014-10-04T08:53:34Z</time>
      </trkpt>
      <trkpt lat="43.85425" lon="6.75885">
        <ele>1105.06</ele>
        <time>2014-10-04T08:53:35Z</time>
      </trkpt>
      <trkpt lat="43.85425" lon="6.75881">
        <ele>1103.508</ele>
        <time>2014-10-04T08:53:37Z</time>
      </trkpt>
      <trkpt lat="43.85427" lon="6.7588">
        <ele>1100.928</ele>
        <time>2014-10-04T08:53:41Z</time>
      </trkpt>
      <trkpt lat="43.85432" lon="6.7589">
        <ele>1100.421</ele>
        <time>2014-10-04T08:53:46Z</time>
      </trkpt>
      <trkpt lat="43.85444" lon="6.75907">
        <ele>1096.095</ele>
        <time>2014-10-04T08:53:53Z</time>
      </trkpt>
      <trkpt lat="43.8545" lon="6.75919">
        <ele>1092.926</ele>
        <time>2014-10-04T08:53:59Z</time>
      </trkpt>
      <trkpt lat="43.85449" lon="6.75917">
        <ele>1090.917</ele>
        <time>2014-10-04T08:54:03Z</time>
      </trkpt>
      <trkpt lat="43.8545" lon="6.75913">
        <ele>1089.582</ele>
        <time>2014-10-04T08:54:16Z</time>
      </trkpt>
      <trkpt lat="43.85453" lon="6.7591">
        <ele>1089.01</ele>
        <time>2014-10-04T08:54:19Z</time>
      </trkpt>
      <trkpt lat="43.85457" lon="6.75922">
        <ele>1086.718</ele>
        <time>2014-10-04T08:54:24Z</time>
      </trkpt>
      <trkpt lat="43.8546" lon="6.75944">
        <ele>1083.08</ele>
        <time>2014-10-04T08:54:31Z</time>
      </trkpt>
      <trkpt lat="43.8546" lon="6.75947">
        <ele>1082.72</ele>
        <time>2014-10-04T08:54:32Z</time>
      </trkpt>
      <trkpt lat="43.8546" lon="6.75955">
        <ele>1081.693</ele>
        <time>2014-10-04T08:54:39Z</time>
      </trkpt>
      <trkpt lat="43.85461" lon="6.75957">
        <ele>1081.286</ele>
        <time>2014-10-04T08:54:48Z</time>
      </trkpt>
      <trkpt lat="43.85465" lon="6.75967">
        <ele>1070.592</ele>
        <time>2014-10-04T08:55:54Z</time>
      </trkpt>
      <trkpt lat="43.85464" lon="6.7597">
        <ele>1069.333</ele>
        <time>2014-10-04T08:55:59Z</time>
      </trkpt>
      <trkpt lat="43.85464" lon="6.75976">
        <ele>1068.733</ele>
        <time>2014-10-04T08:56:06Z</time>
      </trkpt>
      <trkpt lat="43.85463" lon="6.75977">
        <ele>1068.725</ele>
        <time>2014-10-04T08:56:10Z</time>
      </trkpt>
      <trkpt lat="43.85466" lon="6.75987">
        <ele>1068.556</ele>
        <time>2014-10-04T08:56:14Z</time>
      </trkpt>
      <trkpt lat="43.85472" lon="6.76006">
        <ele>1067.022</ele>
        <time>2014-10-04T08:56:21Z</time>
      </trkpt>
      <trkpt lat="43.85478" lon="6.76023">
        <ele>1064.261</ele>
        <time>2014-10-04T08:56:29Z</time>
      </trkpt>
      <trkpt lat="43.85481" lon="6.76029">
        <ele>1062.801</ele>
        <time>2014-10-04T08:56:34Z</time>
      </trkpt>
      <trkpt lat="43.85489" lon="6.76038">
        <ele>1058.025</ele>
        <time>2014-10-04T08:56:40Z</time>
      </trkpt>
      <trkpt lat="43.85494" lon="6.76048">
        <ele>1054.291</ele>
        <time>2014-10-04T08:56:44Z</time>
      </trkpt>
      <trkpt lat="43.85499" lon="6.76059">
        <ele>1050.683</ele>
        <time>2014-10-04T08:56:49Z</time>
      </trkpt>
      <trkpt lat="43.85503" lon="6.76072">
        <ele>1049.898</ele>
        <time>2014-10-04T08:56:54Z</time>
      </trkpt>
      <trkpt lat="43.85504" lon="6.76082">
        <ele>1046.112</ele>
        <time>2014-10-04T08:56:59Z</time>
      </trkpt>
      <trkpt lat="43.85504" lon="6.76085">
        <ele>1043.468</ele>
        <time>2014-10-04T08:57:07Z</time>
      </trkpt>
      <trkpt lat="43.85505" lon="6.76091">
        <ele>1041.45</ele>
        <time>2014-10-04T08:57:12Z</time>
      </trkpt>
      <trkpt lat="43.85507" lon="6.76101">
        <ele>1038.171</ele>
        <time>2014-10-04T08:57:25Z</time>
      </trkpt>
      <trkpt lat="43.85506" lon="6.76103">
        <ele>1036.303</ele>
        <time>2014-10-04T08:57:29Z</time>
      </trkpt>
      <trkpt lat="43.85507" lon="6.76106">
        <ele>1034.951</ele>
        <time>2014-10-04T08:57:33Z</time>
      </trkpt>
      <trkpt lat="43.85509" lon="6.76103">
        <ele>1031.878</ele>
        <time>2014-10-04T08:57:39Z</time>
      </trkpt>
      <trkpt lat="43.8551" lon="6.76092">
        <ele>1029.998</ele>
        <time>2014-10-04T08:57:43Z</time>
      </trkpt>
      <trkpt lat="43.85512" lon="6.76082">
        <ele>1028.639</ele>
        <time>2014-10-04T08:57:47Z</time>
      </trkpt>
      <trkpt lat="43.85513" lon="6.76075">
        <ele>1027.836</ele>
        <time>2014-10-04T08:57:52Z</time>
      </trkpt>
      <trkpt lat="43.85512" lon="6.76073">
        <ele>1027.786</ele>
        <time>2014-10-04T08:57:55Z</time>
      </trkpt>
      <trkpt lat="43.85513" lon="6.76067">
        <ele>1026.773</ele>
        <time>2014-10-04T08:58:03Z</time>
      </trkpt>
      <trkpt lat="43.85515" lon="6.76063">
        <ele>1024.982</ele>
        <time>2014-10-04T08:58:10Z</time>
      </trkpt>
      <trkpt lat="43.85515" lon="6.76061">
        <ele>1023.501</ele>
        <time>2014-10-04T08:58:16Z</time>
      </trkpt>
      <trkpt lat="43.85515" lon="6.7606">
        <ele>1022.894</ele>
        <time>2014-10-04T08:58:24Z</time>
      </trkpt>
      <trkpt lat="43.85516" lon="6.76057">
        <ele>1022.132</ele>
        <time>2014-10-04T08:58:26Z</time>
      </trkpt>
      <trkpt lat="43.85518" lon="6.76054">
        <ele>1020.483</ele>
        <time>2014-10-04T08:58:31Z</time>
      </trkpt>
      <trkpt lat="43.85518" lon="6.76057">
        <ele>1019.767</ele>
        <time>2014-10-04T08:58:38Z</time>
      </trkpt>
      <trkpt lat="43.8552" lon="6.76057">
        <ele>1018.191</ele>
        <time>2014-10-04T08:58:43Z</time>
      </trkpt>
      <trkpt lat="43.8552" lon="6.76056">
        <ele>1016.653</ele>
        <time>2014-10-04T08:58:53Z</time>
      </trkpt>
      <trkpt lat="43.85522" lon="6.76042">
        <ele>1012.192</ele>
        <time>2014-10-04T08:58:59Z</time>
      </trkpt>
      <trkpt lat="43.85525" lon="6.76033">
        <ele>1009.659</ele>
        <time>2014-10-04T08:59:05Z</time>
      </trkpt>
      <trkpt lat="43.85524" lon="6.7603">
        <ele>1006.398</ele>
        <time>2014-10-04T08:59:14Z</time>
      </trkpt>
      <trkpt lat="43.85525" lon="6.76027">
        <ele>1004.848</ele>
        <time>2014-10-04T08:59:19Z</time>
      </trkpt>
      <trkpt lat="43.85525" lon="6.76022">
        <ele>1003.008</ele>
        <time>2014-10-04T08:59:25Z</time>
      </trkpt>
      <trkpt lat="43.85526" lon="6.7602">
        <ele>1001.707</ele>
        <time>2014-10-04T08:59:29Z</time>
      </trkpt>
      <trkpt lat="43.85526" lon="6.76018">
        <ele>999.5</ele>
        <time>2014-10-04T08:59:36Z</time>
      </trkpt>
      <trkpt lat="43.85526" lon="6.76013">
        <ele>998.712</ele>
        <time>2014-10-04T08:59:40Z</time>
      </trkpt>
      <trkpt lat="43.85528" lon="6.7601">
        <ele>997.479</ele>
        <time>2014-10-04T08:59:45Z</time>
      </trkpt>
      <trkpt lat="43.8553" lon="6.76008">
        <ele>996.788</ele>
        <time>2014-10-04T08:59:50Z</time>
      </trkpt>
      <trkpt lat="43.85532" lon="6.76006">
        <ele>995.97</ele>
        <time>2014-10-04T08:59:56Z</time>
      </trkpt>
      <trkpt lat="43.85533" lon="6.76005">
        <ele>995.068</ele>
        <time>2014-10-04T09:00:00Z</time>
      </trkpt>
      <trkpt lat="43.85534" lon="6.76001">
        <ele>994.815</ele>
        <time>2014-10-04T09:00:06Z</time>
      </trkpt>
      <trkpt lat="43.85536" lon="6.75997">
        <ele>993.522</ele>
        <time>2014-10-04T09:00:12Z</time>
      </trkpt>
      <trkpt lat="43.85538" lon="6.7599">
        <ele>993.762</ele>
        <time>2014-10-04T09:00:21Z</time>
      </trkpt>
      <trkpt lat="43.85538" lon="6.75987">
        <ele>993.042</ele>
        <time>2014-10-04T09:00:25Z</time>
      </trkpt>
      <trkpt lat="43.85542" lon="6.75973">
        <ele>990.523</ele>
        <time>2014-10-04T09:00:30Z</time>
      </trkpt>
      <trkpt lat="43.85544" lon="6.75963">
        <ele>988.442</ele>
        <time>2014-10-04T09:00:34Z</time>
      </trkpt>
      <trkpt lat="43.85546" lon="6.7596">
        <ele>987.5</ele>
        <time>2014-10-04T09:00:36Z</time>
      </trkpt>
      <trkpt lat="43.8555" lon="6.75945">
        <ele>982.777</ele>
        <time>2014-10-04T09:00:41Z</time>
      </trkpt>
      <trkpt lat="43.85552" lon="6.75944">
        <ele>981.89</ele>
        <time>2014-10-04T09:00:44Z</time>
      </trkpt>
      <trkpt lat="43.85556" lon="6.75948">
        <ele>981.675</ele>
        <time>2014-10-04T09:00:49Z</time>
      </trkpt>
      <trkpt lat="43.85557" lon="6.75947">
        <ele>981.738</ele>
        <time>2014-10-04T09:00:51Z</time>
      </trkpt>
      <trkpt lat="43.85558" lon="6.75932">
        <ele>977.733</ele>
        <time>2014-10-04T09:00:56Z</time>
      </trkpt>
      <trkpt lat="43.85555" lon="6.75915">
        <ele>972.903</ele>
        <time>2014-10-04T09:01:02Z</time>
      </trkpt>
      <trkpt lat="43.85554" lon="6.75909">
        <ele>971.305</ele>
        <time>2014-10-04T09:01:06Z</time>
      </trkpt>
      <trkpt lat="43.85556" lon="6.759">
        <ele>969.616</ele>
        <time>2014-10-04T09:01:11Z</time>
      </trkpt>
      <trkpt lat="43.85558" lon="6.75895">
        <ele>969.097</ele>
        <time>2014-10-04T09:01:13Z</time>
      </trkpt>
      <trkpt lat="43.85557" lon="6.75887">
        <ele>967.055</ele>
        <time>2014-10-04T09:01:16Z</time>
      </trkpt>
      <trkpt lat="43.85558" lon="6.75879">
        <ele>964.574</ele>
        <time>2014-10-04T09:01:21Z</time>
      </trkpt>
      <trkpt lat="43.85564" lon="6.75888">
        <ele>964.85</ele>
        <time>2014-10-04T09:01:27Z</time>
      </trkpt>
      <trkpt lat="43.85564" lon="6.75883">
        <ele>962.613</ele>
        <time>2014-10-04T09:01:29Z</time>
      </trkpt>
      <trkpt lat="43.85563" lon="6.75875">
        <ele>961.494</ele>
        <time>2014-10-04T09:01:31Z</time>
      </trkpt>
      <trkpt lat="43.85569" lon="6.75853">
        <ele>961.299</ele>
        <time>2014-10-04T09:01:36Z</time>
      </trkpt>
      <trkpt lat="43.85575" lon="6.75837">
        <ele>961.603</ele>
        <time>2014-10-04T09:01:41Z</time>
      </trkpt>
      <trkpt lat="43.85582" lon="6.75825">
        <ele>959.518</ele>
        <time>2014-10-04T09:01:45Z</time>
      </trkpt>
      <trkpt lat="43.85586" lon="6.75818">
        <ele>957.616</ele>
        <time>2014-10-04T09:01:47Z</time>
      </trkpt>
      <trkpt lat="43.85595" lon="6.75802">
        <ele>952.843</ele>
        <time>2014-10-04T09:01:53Z</time>
      </trkpt>
      <trkpt lat="43.85596" lon="6.758">
        <ele>951.681</ele>
        <time>2014-10-04T09:01:54Z</time>
      </trkpt>
      <trkpt lat="43.85608" lon="6.75792">
        <ele>948.412</ele>
        <time>2014-10-04T09:01:59Z</time>
      </trkpt>
      <trkpt lat="43.85611" lon="6.7579">
        <ele>948.042</ele>
        <time>2014-10-04T09:02:00Z</time>
      </trkpt>
      <trkpt lat="43.85625" lon="6.75775">
        <ele>941.928</ele>
        <time>2014-10-04T09:02:06Z</time>
      </trkpt>
      <trkpt lat="43.85637" lon="6.75764">
        <ele>938.416</ele>
        <time>2014-10-04T09:02:11Z</time>
      </trkpt>
      <trkpt lat="43.85643" lon="6.75758">
        <ele>939.242</ele>
        <time>2014-10-04T09:02:13Z</time>
      </trkpt>
      <trkpt lat="43.85661" lon="6.75736">
        <ele>936.107</ele>
        <time>2014-10-04T09:02:19Z</time>
      </trkpt>
      <trkpt lat="43.85675" lon="6.75729">
        <ele>930.83</ele>
        <time>2014-10-04T09:02:23Z</time>
      </trkpt>
      <trkpt lat="43.85692" lon="6.75721">
        <ele>925.557</ele>
        <time>2014-10-04T09:02:27Z</time>
      </trkpt>
      <trkpt lat="43.85691" lon="6.75719">
        <ele>921.227</ele>
        <time>2014-10-04T09:02:30Z</time>
      </trkpt>
      <trkpt lat="43.85693" lon="6.75723">
        <ele>920.583</ele>
        <time>2014-10-04T09:02:42Z</time>
      </trkpt>
      <trkpt lat="43.85691" lon="6.75723">
        <ele>905.617</ele>
        <time>2014-10-04T09:03:57Z</time>
      </trkpt>
      <trkpt lat="43.85704" lon="6.75706">
        <ele>913.697</ele>
        <time>2014-10-04T09:04:03Z</time>
      </trkpt>
      <trkpt lat="43.85707" lon="6.75701">
        <ele>914.527</ele>
        <time>2014-10-04T09:04:04Z</time>
      </trkpt>
      <trkpt lat="43.85718" lon="6.75662">
        <ele>916.32</ele>
        <time>2014-10-04T09:04:11Z</time>
      </trkpt>
      <trkpt lat="43.85718" lon="6.75637">
        <ele>914.012</ele>
        <time>2014-10-04T09:04:15Z</time>
      </trkpt>
      <trkpt lat="43.85721" lon="6.75604">
        <ele>911.747</ele>
        <time>2014-10-04T09:04:19Z</time>
      </trkpt>
      <trkpt lat="43.85734" lon="6.75586">
        <ele>907.481</ele>
        <time>2014-10-04T09:04:23Z</time>
      </trkpt>
      <trkpt lat="43.85747" lon="6.75578">
        <ele>900.128</ele>
        <time>2014-10-04T09:04:26Z</time>
      </trkpt>
      <trkpt lat="43.85762" lon="6.75565">
        <ele>894.265</ele>
        <time>2014-10-04T09:04:30Z</time>
      </trkpt>
      <trkpt lat="43.85784" lon="6.7555">
        <ele>877.736</ele>
        <time>2014-10-04T09:04:35Z</time>
      </trkpt>
      <trkpt lat="43.85815" lon="6.75532">
        <ele>865.714</ele>
        <time>2014-10-04T09:04:41Z</time>
      </trkpt>
      <trkpt lat="43.85818" lon="6.75525">
        <ele>861.074</ele>
        <time>2014-10-04T09:04:44Z</time>
      </trkpt>
      <trkpt lat="43.85818" lon="6.75526">
        <ele>847.714</ele>
        <time>2014-10-04T09:04:52Z</time>
      </trkpt>
      <trkpt lat="43.85838" lon="6.75516">
        <ele>836.52</ele>
        <time>2014-10-04T09:04:58Z</time>
      </trkpt>
      <trkpt lat="43.85849" lon="6.75528">
        <ele>833.058</ele>
        <time>2014-10-04T09:05:03Z</time>
      </trkpt>
      <trkpt lat="43.85863" lon="6.75536">
        <ele>845.962</ele>
        <time>2014-10-04T09:05:08Z</time>
      </trkpt>
      <trkpt lat="43.85872" lon="6.75544">
        <ele>850.503</ele>
        <time>2014-10-04T09:05:12Z</time>
      </trkpt>
      <trkpt lat="43.85875" lon="6.75547">
        <ele>853.398</ele>
        <time>2014-10-04T09:05:16Z</time>
      </trkpt>
      <trkpt lat="43.85877" lon="6.75546">
        <ele>852.898</ele>
        <time>2014-10-04T09:05:19Z</time>
      </trkpt>
      <trkpt lat="43.85885" lon="6.75541">
        <ele>849.419</ele>
        <time>2014-10-04T09:05:26Z</time>
      </trkpt>
      <trkpt lat="43.85891" lon="6.75532">
        <ele>846.683</ele>
        <time>2014-10-04T09:05:30Z</time>
      </trkpt>
      <trkpt lat="43.8589" lon="6.75534">
        <ele>845.615</ele>
        <time>2014-10-04T09:05:37Z</time>
      </trkpt>
      <trkpt lat="43.85882" lon="6.7554">
        <ele>830.743</ele>
        <time>2014-10-04T09:06:14Z</time>
      </trkpt>
      <trkpt lat="43.85881" lon="6.75539">
        <ele>828.71</ele>
        <time>2014-10-04T09:06:17Z</time>
      </trkpt>
      <trkpt lat="43.85884" lon="6.75533">
        <ele>826.036</ele>
        <time>2014-10-04T09:06:21Z</time>
      </trkpt>
      <trkpt lat="43.85891" lon="6.75529">
        <ele>834.578</ele>
        <time>2014-10-04T09:06:26Z</time>
      </trkpt>
      <trkpt lat="43.85905" lon="6.7552">
        <ele>857.578</ele>
        <time>2014-10-04T09:06:34Z</time>
      </trkpt>
      <trkpt lat="43.85911" lon="6.75516">
        <ele>863.083</ele>
        <time>2014-10-04T09:06:41Z</time>
      </trkpt>
      <trkpt lat="43.85915" lon="6.75514">
        <ele>865.753</ele>
        <time>2014-10-04T09:06:46Z</time>
      </trkpt>
      <trkpt lat="43.85922" lon="6.75513">
        <ele>868.845</ele>
        <time>2014-10-04T09:06:53Z</time>
      </trkpt>
      <trkpt lat="43.85923" lon="6.75513">
        <ele>869.204</ele>
        <time>2014-10-04T09:06:54Z</time>
      </trkpt>
      <trkpt lat="43.85925" lon="6.75506">
        <ele>872.476</ele>
        <time>2014-10-04T09:07:00Z</time>
      </trkpt>
      <trkpt lat="43.85923" lon="6.75498">
        <ele>875.155</ele>
        <time>2014-10-04T09:07:07Z</time>
      </trkpt>
      <trkpt lat="43.85923" lon="6.75497">
        <ele>876.593</ele>
        <time>2014-10-04T09:07:13Z</time>
      </trkpt>
      <trkpt lat="43.85918" lon="6.75485">
        <ele>878.755</ele>
        <time>2014-10-04T09:07:19Z</time>
      </trkpt>
      <trkpt lat="43.85912" lon="6.75467">
        <ele>880.515</ele>
        <time>2014-10-04T09:07:26Z</time>
      </trkpt>
      <trkpt lat="43.85905" lon="6.75449">
        <ele>881.484</ele>
        <time>2014-10-04T09:07:33Z</time>
      </trkpt>
      <trkpt lat="43.859" lon="6.75431">
        <ele>882.455</ele>
        <time>2014-10-04T09:07:40Z</time>
      </trkpt>
      <trkpt lat="43.85896" lon="6.75415">
        <ele>881.722</ele>
        <time>2014-10-04T09:07:46Z</time>
      </trkpt>
      <trkpt lat="43.85889" lon="6.75396">
        <ele>881.841</ele>
        <time>2014-10-04T09:07:54Z</time>
      </trkpt>
      <trkpt lat="43.85887" lon="6.75385">
        <ele>881.332</ele>
        <time>2014-10-04T09:07:59Z</time>
      </trkpt>
      <trkpt lat="43.8589" lon="6.75371">
        <ele>878.766</ele>
        <time>2014-10-04T09:08:06Z</time>
      </trkpt>
      <trkpt lat="43.85898" lon="6.75364">
        <ele>876.674</ele>
        <time>2014-10-04T09:08:11Z</time>
      </trkpt>
      <trkpt lat="43.85909" lon="6.75365">
        <ele>875.592</ele>
        <time>2014-10-04T09:08:17Z</time>
      </trkpt>
      <trkpt lat="43.85916" lon="6.75368">
        <ele>874.572</ele>
        <time>2014-10-04T09:08:22Z</time>
      </trkpt>
      <trkpt lat="43.85922" lon="6.75367">
        <ele>871.786</ele>
        <time>2014-10-04T09:08:26Z</time>
      </trkpt>
      <trkpt lat="43.85928" lon="6.75353">
        <ele>872.154</ele>
        <time>2014-10-04T09:08:33Z</time>
      </trkpt>
      <trkpt lat="43.85929" lon="6.75341">
        <ele>876.754</ele>
        <time>2014-10-04T09:08:38Z</time>
      </trkpt>
      <trkpt lat="43.85924" lon="6.75334">
        <ele>880.226</ele>
        <time>2014-10-04T09:08:42Z</time>
      </trkpt>
      <trkpt lat="43.85914" lon="6.7533">
        <ele>885.222</ele>
        <time>2014-10-04T09:08:48Z</time>
      </trkpt>
      <trkpt lat="43.85902" lon="6.75321">
        <ele>888.931</ele>
        <time>2014-10-04T09:08:55Z</time>
      </trkpt>
      <trkpt lat="43.85894" lon="6.75307">
        <ele>890.945</ele>
        <time>2014-10-04T09:09:01Z</time>
      </trkpt>
      <trkpt lat="43.85892" lon="6.75291">
        <ele>889.342</ele>
        <time>2014-10-04T09:09:07Z</time>
      </trkpt>
      <trkpt lat="43.85893" lon="6.75278">
        <ele>887.388</ele>
        <time>2014-10-04T09:09:12Z</time>
      </trkpt>
      <trkpt lat="43.85892" lon="6.75271">
        <ele>886.618</ele>
        <time>2014-10-04T09:09:15Z</time>
      </trkpt>
      <trkpt lat="43.85887" lon="6.75252">
        <ele>884.426</ele>
        <time>2014-10-04T09:09:22Z</time>
      </trkpt>
      <trkpt lat="43.85883" lon="6.75244">
        <ele>884.136</ele>
        <time>2014-10-04T09:09:25Z</time>
      </trkpt>
      <trkpt lat="43.85875" lon="6.75229">
        <ele>887.475</ele>
        <time>2014-10-04T09:09:32Z</time>
      </trkpt>
      <trkpt lat="43.85869" lon="6.75213">
        <ele>888.483</ele>
        <time>2014-10-04T09:09:39Z</time>
      </trkpt>
      <trkpt lat="43.85862" lon="6.75196">
        <ele>887.99</ele>
        <time>2014-10-04T09:09:46Z</time>
      </trkpt>
      <trkpt lat="43.85854" lon="6.75179">
        <ele>892.737</ele>
        <time>2014-10-04T09:09:54Z</time>
      </trkpt>
      <trkpt lat="43.85849" lon="6.75166">
        <ele>895.878</ele>
        <time>2014-10-04T09:10:00Z</time>
      </trkpt>
      <trkpt lat="43.85846" lon="6.75161">
        <ele>896.247</ele>
        <time>2014-10-04T09:10:03Z</time>
      </trkpt>
      <trkpt lat="43.85845" lon="6.7515">
        <ele>897.419</ele>
        <time>2014-10-04T09:10:07Z</time>
      </trkpt>
      <trkpt lat="43.85849" lon="6.75129">
        <ele>895.212</ele>
        <time>2014-10-04T09:10:15Z</time>
      </trkpt>
      <trkpt lat="43.85852" lon="6.75114">
        <ele>885.397</ele>
        <time>2014-10-04T09:10:22Z</time>
      </trkpt>
      <trkpt lat="43.85853" lon="6.75113">
        <ele>884.167</ele>
        <time>2014-10-04T09:10:23Z</time>
      </trkpt>
      <trkpt lat="43.85862" lon="6.75117">
        <ele>882.217</ele>
        <time>2014-10-04T09:10:29Z</time>
      </trkpt>
      <trkpt lat="43.85863" lon="6.75121">
        <ele>881.126</ele>
        <time>2014-10-04T09:10:31Z</time>
      </trkpt>
      <trkpt lat="43.85866" lon="6.75135">
        <ele>882.043</ele>
        <time>2014-10-04T09:10:37Z</time>
      </trkpt>
      <trkpt lat="43.85872" lon="6.75146">
        <ele>886.43</ele>
        <time>2014-10-04T09:10:43Z</time>
      </trkpt>
      <trkpt lat="43.85883" lon="6.75155">
        <ele>890.211</ele>
        <time>2014-10-04T09:10:50Z</time>
      </trkpt>
      <trkpt lat="43.85892" lon="6.75167">
        <ele>896.131</ele>
        <time>2014-10-04T09:10:58Z</time>
      </trkpt>
      <trkpt lat="43.85902" lon="6.75166">
        <ele>901.674</ele>
        <time>2014-10-04T09:11:04Z</time>
      </trkpt>
      <trkpt lat="43.85911" lon="6.75166">
        <ele>902.501</ele>
        <time>2014-10-04T09:11:09Z</time>
      </trkpt>
      <trkpt lat="43.85919" lon="6.75168">
        <ele>903.79</ele>
        <time>2014-10-04T09:11:14Z</time>
      </trkpt>
      <trkpt lat="43.85931" lon="6.75168">
        <ele>905.475</ele>
        <time>2014-10-04T09:11:20Z</time>
      </trkpt>
      <trkpt lat="43.85943" lon="6.75158">
        <ele>907.262</ele>
        <time>2014-10-04T09:11:26Z</time>
      </trkpt>
      <trkpt lat="43.85946" lon="6.75137">
        <ele>907.581</ele>
        <time>2014-10-04T09:11:33Z</time>
      </trkpt>
      <trkpt lat="43.8595" lon="6.75122">
        <ele>908.622</ele>
        <time>2014-10-04T09:11:39Z</time>
      </trkpt>
      <trkpt lat="43.85954" lon="6.75102">
        <ele>910.605</ele>
        <time>2014-10-04T09:11:47Z</time>
      </trkpt>
      <trkpt lat="43.85962" lon="6.75087">
        <ele>912.656</ele>
        <time>2014-10-04T09:11:54Z</time>
      </trkpt>
      <trkpt lat="43.85975" lon="6.75076">
        <ele>913.585</ele>
        <time>2014-10-04T09:12:02Z</time>
      </trkpt>
      <trkpt lat="43.85983" lon="6.75064">
        <ele>916.375</ele>
        <time>2014-10-04T09:12:08Z</time>
      </trkpt>
      <trkpt lat="43.85989" lon="6.75045">
        <ele>919.388</ele>
        <time>2014-10-04T09:12:16Z</time>
      </trkpt>
      <trkpt lat="43.85993" lon="6.75027">
        <ele>920.615</ele>
        <time>2014-10-04T09:12:23Z</time>
      </trkpt>
      <trkpt lat="43.85995" lon="6.75015">
        <ele>920.593</ele>
        <time>2014-10-04T09:12:27Z</time>
      </trkpt>
      <trkpt lat="43.85989" lon="6.74993">
        <ele>922.407</ele>
        <time>2014-10-04T09:12:35Z</time>
      </trkpt>
      <trkpt lat="43.85985" lon="6.74975">
        <ele>923.075</ele>
        <time>2014-10-04T09:12:42Z</time>
      </trkpt>
      <trkpt lat="43.85985" lon="6.74962">
        <ele>923.705</ele>
        <time>2014-10-04T09:12:47Z</time>
      </trkpt>
      <trkpt lat="43.85988" lon="6.74956">
        <ele>929.394</ele>
        <time>2014-10-04T09:12:53Z</time>
      </trkpt>
      <trkpt lat="43.85997" lon="6.74957">
        <ele>929.325</ele>
        <time>2014-10-04T09:13:00Z</time>
      </trkpt>
      <trkpt lat="43.86002" lon="6.74957">
        <ele>927.659</ele>
        <time>2014-10-04T09:13:02Z</time>
      </trkpt>
      <trkpt lat="43.86012" lon="6.7496">
        <ele>926.448</ele>
        <time>2014-10-04T09:13:09Z</time>
      </trkpt>
      <trkpt lat="43.86023" lon="6.7497">
        <ele>927.271</ele>
        <time>2014-10-04T09:13:15Z</time>
      </trkpt>
      <trkpt lat="43.86037" lon="6.74988">
        <ele>930.295</ele>
        <time>2014-10-04T09:13:23Z</time>
      </trkpt>
      <trkpt lat="43.86044" lon="6.75005">
        <ele>932.487</ele>
        <time>2014-10-04T09:13:30Z</time>
      </trkpt>
      <trkpt lat="43.8605" lon="6.7502">
        <ele>933.447</ele>
        <time>2014-10-04T09:13:36Z</time>
      </trkpt>
      <trkpt lat="43.86055" lon="6.7504">
        <ele>935.537</ele>
        <time>2014-10-04T09:13:44Z</time>
      </trkpt>
      <trkpt lat="43.86064" lon="6.75062">
        <ele>935.763</ele>
        <time>2014-10-04T09:13:52Z</time>
      </trkpt>
      <trkpt lat="43.86069" lon="6.75076">
        <ele>936.133</ele>
        <time>2014-10-04T09:13:58Z</time>
      </trkpt>
      <trkpt lat="43.86075" lon="6.75091">
        <ele>936.752</ele>
        <time>2014-10-04T09:14:04Z</time>
      </trkpt>
      <trkpt lat="43.86086" lon="6.75109">
        <ele>936.036</ele>
        <time>2014-10-04T09:14:12Z</time>
      </trkpt>
      <trkpt lat="43.86095" lon="6.75121">
        <ele>935.618</ele>
        <time>2014-10-04T09:14:18Z</time>
      </trkpt>
      <trkpt lat="43.86106" lon="6.75132">
        <ele>935.429</ele>
        <time>2014-10-04T09:14:24Z</time>
      </trkpt>
      <trkpt lat="43.86117" lon="6.75151">
        <ele>941.813</ele>
        <time>2014-10-04T09:14:31Z</time>
      </trkpt>
      <trkpt lat="43.86127" lon="6.75166">
        <ele>947.689</ele>
        <time>2014-10-04T09:14:37Z</time>
      </trkpt>
      <trkpt lat="43.8614" lon="6.75177">
        <ele>950.156</ele>
        <time>2014-10-04T09:14:43Z</time>
      </trkpt>
      <trkpt lat="43.86142" lon="6.75182">
        <ele>950.773</ele>
        <time>2014-10-04T09:14:45Z</time>
      </trkpt>
      <trkpt lat="43.86141" lon="6.75193">
        <ele>952.302</ele>
        <time>2014-10-04T09:14:52Z</time>
      </trkpt>
      <trkpt lat="43.86144" lon="6.75203">
        <ele>952.988</ele>
        <time>2014-10-04T09:14:58Z</time>
      </trkpt>
      <trkpt lat="43.86141" lon="6.75221">
        <ele>952.598</ele>
        <time>2014-10-04T09:15:03Z</time>
      </trkpt>
      <trkpt lat="43.86142" lon="6.75249">
        <ele>951.466</ele>
        <time>2014-10-04T09:15:13Z</time>
      </trkpt>
      <trkpt lat="43.86143" lon="6.75267">
        <ele>950.354</ele>
        <time>2014-10-04T09:15:19Z</time>
      </trkpt>
      <trkpt lat="43.8615" lon="6.7529">
        <ele>948.63</ele>
        <time>2014-10-04T09:15:27Z</time>
      </trkpt>
      <trkpt lat="43.86156" lon="6.75301">
        <ele>946.915</ele>
        <time>2014-10-04T09:15:32Z</time>
      </trkpt>
      <trkpt lat="43.86161" lon="6.75318">
        <ele>950.075</ele>
        <time>2014-10-04T09:15:38Z</time>
      </trkpt>
      <trkpt lat="43.86171" lon="6.75335">
        <ele>951.445</ele>
        <time>2014-10-04T09:15:45Z</time>
      </trkpt>
      <trkpt lat="43.8618" lon="6.7535">
        <ele>952.837</ele>
        <time>2014-10-04T09:15:51Z</time>
      </trkpt>
      <trkpt lat="43.86187" lon="6.75366">
        <ele>955.951</ele>
        <time>2014-10-04T09:15:57Z</time>
      </trkpt>
      <trkpt lat="43.86199" lon="6.7538">
        <ele>959.902</ele>
        <time>2014-10-04T09:16:05Z</time>
      </trkpt>
      <trkpt lat="43.86206" lon="6.75383">
        <ele>958.073</ele>
        <time>2014-10-04T09:16:09Z</time>
      </trkpt>
      <trkpt lat="43.86218" lon="6.75388">
        <ele>956.108</ele>
        <time>2014-10-04T09:16:15Z</time>
      </trkpt>
      <trkpt lat="43.86233" lon="6.75392">
        <ele>953.664</ele>
        <time>2014-10-04T09:16:21Z</time>
      </trkpt>
      <trkpt lat="43.86246" lon="6.75403">
        <ele>956.714</ele>
        <time>2014-10-04T09:16:28Z</time>
      </trkpt>
      <trkpt lat="43.86256" lon="6.75414">
        <ele>955.429</ele>
        <time>2014-10-04T09:16:34Z</time>
      </trkpt>
      <trkpt lat="43.86262" lon="6.7543">
        <ele>953.785</ele>
        <time>2014-10-04T09:16:40Z</time>
      </trkpt>
      <trkpt lat="43.86265" lon="6.7545">
        <ele>952.915</ele>
        <time>2014-10-04T09:16:47Z</time>
      </trkpt>
      <trkpt lat="43.86261" lon="6.7546">
        <ele>952.678</ele>
        <time>2014-10-04T09:16:52Z</time>
      </trkpt>
      <trkpt lat="43.86251" lon="6.75472">
        <ele>952.719</ele>
        <time>2014-10-04T09:16:59Z</time>
      </trkpt>
      <trkpt lat="43.86239" lon="6.75486">
        <ele>953.762</ele>
        <time>2014-10-04T09:17:07Z</time>
      </trkpt>
      <trkpt lat="43.86222" lon="6.75501">
        <ele>955.434</ele>
        <time>2014-10-04T09:17:16Z</time>
      </trkpt>
      <trkpt lat="43.86217" lon="6.75507">
        <ele>957.18</ele>
        <time>2014-10-04T09:17:20Z</time>
      </trkpt>
      <trkpt lat="43.86221" lon="6.7551">
        <ele>959.991</ele>
        <time>2014-10-04T09:17:25Z</time>
      </trkpt>
      <trkpt lat="43.86226" lon="6.75507">
        <ele>960.177</ele>
        <time>2014-10-04T09:17:28Z</time>
      </trkpt>
      <trkpt lat="43.86241" lon="6.75498">
        <ele>958.357</ele>
        <time>2014-10-04T09:17:36Z</time>
      </trkpt>
      <trkpt lat="43.86254" lon="6.75489">
        <ele>957.028</ele>
        <time>2014-10-04T09:17:44Z</time>
      </trkpt>
      <trkpt lat="43.86267" lon="6.75486">
        <ele>958.931</ele>
        <time>2014-10-04T09:17:51Z</time>
      </trkpt>
      <trkpt lat="43.8628" lon="6.75481">
        <ele>959.783</ele>
        <time>2014-10-04T09:17:58Z</time>
      </trkpt>
      <trkpt lat="43.86293" lon="6.75469">
        <ele>960.057</ele>
        <time>2014-10-04T09:18:07Z</time>
      </trkpt>
      <trkpt lat="43.86299" lon="6.75454">
        <ele>961.621</ele>
        <time>2014-10-04T09:18:14Z</time>
      </trkpt>
      <trkpt lat="43.86301" lon="6.75436">
        <ele>964.995</ele>
        <time>2014-10-04T09:18:22Z</time>
      </trkpt>
      <trkpt lat="43.86304" lon="6.75417">
        <ele>965.702</ele>
        <time>2014-10-04T09:18:30Z</time>
      </trkpt>
      <trkpt lat="43.8631" lon="6.75399">
        <ele>963.338</ele>
        <time>2014-10-04T09:18:39Z</time>
      </trkpt>
      <trkpt lat="43.86316" lon="6.75379">
        <ele>964.193</ele>
        <time>2014-10-04T09:18:48Z</time>
      </trkpt>
      <trkpt lat="43.86319" lon="6.75367">
        <ele>966.894</ele>
        <time>2014-10-04T09:18:53Z</time>
      </trkpt>
      <trkpt lat="43.8631" lon="6.75351">
        <ele>969.478</ele>
        <time>2014-10-04T09:19:00Z</time>
      </trkpt>
      <trkpt lat="43.86299" lon="6.75342">
        <ele>971.967</ele>
        <time>2014-10-04T09:19:07Z</time>
      </trkpt>
      <trkpt lat="43.86291" lon="6.75332">
        <ele>975.461</ele>
        <time>2014-10-04T09:19:13Z</time>
      </trkpt>
      <trkpt lat="43.86294" lon="6.75329">
        <ele>979.512</ele>
        <time>2014-10-04T09:19:18Z</time>
      </trkpt>
      <trkpt lat="43.86296" lon="6.75329">
        <ele>981.004</ele>
        <time>2014-10-04T09:19:19Z</time>
      </trkpt>
      <trkpt lat="43.86306" lon="6.75329">
        <ele>983.573</ele>
        <time>2014-10-04T09:19:24Z</time>
      </trkpt>
      <trkpt lat="43.86319" lon="6.75326">
        <ele>982.191</ele>
        <time>2014-10-04T09:19:30Z</time>
      </trkpt>
      <trkpt lat="43.86328" lon="6.75326">
        <ele>983.002</ele>
        <time>2014-10-04T09:19:34Z</time>
      </trkpt>
      <trkpt lat="43.86345" lon="6.75331">
        <ele>983.062</ele>
        <time>2014-10-04T09:19:42Z</time>
      </trkpt>
      <trkpt lat="43.86356" lon="6.75342">
        <ele>983.423</ele>
        <time>2014-10-04T09:19:49Z</time>
      </trkpt>
      <trkpt lat="43.86367" lon="6.75354">
        <ele>985.055</ele>
        <time>2014-10-04T09:19:56Z</time>
      </trkpt>
      <trkpt lat="43.86371" lon="6.75367">
        <ele>986.457</ele>
        <time>2014-10-04T09:20:02Z</time>
      </trkpt>
      <trkpt lat="43.86373" lon="6.75385">
        <ele>988.378</ele>
        <time>2014-10-04T09:20:09Z</time>
      </trkpt>
      <trkpt lat="43.86374" lon="6.75407">
        <ele>990.486</ele>
        <time>2014-10-04T09:20:17Z</time>
      </trkpt>
      <trkpt lat="43.86376" lon="6.75426">
        <ele>991.765</ele>
        <time>2014-10-04T09:20:24Z</time>
      </trkpt>
      <trkpt lat="43.8638" lon="6.75445">
        <ele>993.396</ele>
        <time>2014-10-04T09:20:32Z</time>
      </trkpt>
      <trkpt lat="43.86386" lon="6.75465">
        <ele>995.217</ele>
        <time>2014-10-04T09:20:40Z</time>
      </trkpt>
      <trkpt lat="43.8639" lon="6.75482">
        <ele>998.053</ele>
        <time>2014-10-04T09:20:47Z</time>
      </trkpt>
      <trkpt lat="43.86397" lon="6.75497">
        <ele>1000.16</ele>
        <time>2014-10-04T09:20:54Z</time>
      </trkpt>
      <trkpt lat="43.8641" lon="6.75521">
        <ele>1001.206</ele>
        <time>2014-10-04T09:21:05Z</time>
      </trkpt>
      <trkpt lat="43.86422" lon="6.75541">
        <ele>999.852</ele>
        <time>2014-10-04T09:21:14Z</time>
      </trkpt>
      <trkpt lat="43.86431" lon="6.75555">
        <ele>999.292</ele>
        <time>2014-10-04T09:21:21Z</time>
      </trkpt>
      <trkpt lat="43.86441" lon="6.75571">
        <ele>998.5</ele>
        <time>2014-10-04T09:21:29Z</time>
      </trkpt>
      <trkpt lat="43.86444" lon="6.7559">
        <ele>997.383</ele>
        <time>2014-10-04T09:21:37Z</time>
      </trkpt>
      <trkpt lat="43.86442" lon="6.75615">
        <ele>996.295</ele>
        <time>2014-10-04T09:21:46Z</time>
      </trkpt>
      <trkpt lat="43.86436" lon="6.75633">
        <ele>998.531</ele>
        <time>2014-10-04T09:21:53Z</time>
      </trkpt>
      <trkpt lat="43.86428" lon="6.75648">
        <ele>999.769</ele>
        <time>2014-10-04T09:21:59Z</time>
      </trkpt>
      <trkpt lat="43.86421" lon="6.75655">
        <ele>1001.911</ele>
        <time>2014-10-04T09:22:04Z</time>
      </trkpt>
      <trkpt lat="43.8641" lon="6.75666">
        <ele>1004.86</ele>
        <time>2014-10-04T09:22:11Z</time>
      </trkpt>
      <trkpt lat="43.86395" lon="6.7567">
        <ele>1009.006</ele>
        <time>2014-10-04T09:22:19Z</time>
      </trkpt>
      <trkpt lat="43.86389" lon="6.75671">
        <ele>1010.966</ele>
        <time>2014-10-04T09:22:23Z</time>
      </trkpt>
      <trkpt lat="43.86389" lon="6.75679">
        <ele>1015.05</ele>
        <time>2014-10-04T09:22:28Z</time>
      </trkpt>
      <trkpt lat="43.86398" lon="6.75682">
        <ele>1021.872</ele>
        <time>2014-10-04T09:22:33Z</time>
      </trkpt>
      <trkpt lat="43.86411" lon="6.75695">
        <ele>1022.763</ele>
        <time>2014-10-04T09:22:40Z</time>
      </trkpt>
      <trkpt lat="43.8642" lon="6.75707">
        <ele>1024.022</ele>
        <time>2014-10-04T09:22:46Z</time>
      </trkpt>
      <trkpt lat="43.86429" lon="6.75719">
        <ele>1021.324</ele>
        <time>2014-10-04T09:22:52Z</time>
      </trkpt>
      <trkpt lat="43.86433" lon="6.75724">
        <ele>1020.151</ele>
        <time>2014-10-04T09:22:56Z</time>
      </trkpt>
      <trkpt lat="43.86439" lon="6.75726">
        <ele>1018.699</ele>
        <time>2014-10-04T09:23:02Z</time>
      </trkpt>
      <trkpt lat="43.86441" lon="6.75723">
        <ele>1020.045</ele>
        <time>2014-10-04T09:28:08Z</time>
      </trkpt>
      <trkpt lat="43.86447" lon="6.75715">
        <ele>1020.412</ele>
        <time>2014-10-04T09:28:14Z</time>
      </trkpt>
      <trkpt lat="43.86454" lon="6.75705">
        <ele>1019.66</ele>
        <time>2014-10-04T09:28:19Z</time>
      </trkpt>
      <trkpt lat="43.86462" lon="6.75681">
        <ele>1017.969</ele>
        <time>2014-10-04T09:28:25Z</time>
      </trkpt>
      <trkpt lat="43.86471" lon="6.75661">
        <ele>1016.569</ele>
        <time>2014-10-04T09:28:30Z</time>
      </trkpt>
      <trkpt lat="43.86484" lon="6.75623">
        <ele>1016.251</ele>
        <time>2014-10-04T09:28:38Z</time>
      </trkpt>
      <trkpt lat="43.86489" lon="6.75602">
        <ele>1016.193</ele>
        <time>2014-10-04T09:28:42Z</time>
      </trkpt>
      <trkpt lat="43.86489" lon="6.75568">
        <ele>1016.363</ele>
        <time>2014-10-04T09:28:48Z</time>
      </trkpt>
      <trkpt lat="43.86488" lon="6.75562">
        <ele>1016.212</ele>
        <time>2014-10-04T09:28:49Z</time>
      </trkpt>
      <trkpt lat="43.86483" lon="6.75536">
        <ele>1015.913</ele>
        <time>2014-10-04T09:28:53Z</time>
      </trkpt>
      <trkpt lat="43.86483" lon="6.75521">
        <ele>1016.647</ele>
        <time>2014-10-04T09:28:55Z</time>
      </trkpt>
      <trkpt lat="43.8648" lon="6.75485">
        <ele>1018.81</ele>
        <time>2014-10-04T09:29:01Z</time>
      </trkpt>
      <trkpt lat="43.8648" lon="6.75446">
        <ele>1020.631</ele>
        <time>2014-10-04T09:29:08Z</time>
      </trkpt>
      <trkpt lat="43.86485" lon="6.75429">
        <ele>1021.47</ele>
        <time>2014-10-04T09:29:13Z</time>
      </trkpt>
      <trkpt lat="43.86489" lon="6.7541">
        <ele>1023.029</ele>
        <time>2014-10-04T09:29:20Z</time>
      </trkpt>
      <trkpt lat="43.86489" lon="6.75387">
        <ele>1024.777</ele>
        <time>2014-10-04T09:29:28Z</time>
      </trkpt>
      <trkpt lat="43.86487" lon="6.75361">
        <ele>1025.883</ele>
        <time>2014-10-04T09:29:36Z</time>
      </trkpt>
      <trkpt lat="43.86484" lon="6.75337">
        <ele>1027.796</ele>
        <time>2014-10-04T09:29:44Z</time>
      </trkpt>
      <trkpt lat="43.86481" lon="6.75314">
        <ele>1029.919</ele>
        <time>2014-10-04T09:29:52Z</time>
      </trkpt>
      <trkpt lat="43.86481" lon="6.75291">
        <ele>1031.358</ele>
        <time>2014-10-04T09:30:00Z</time>
      </trkpt>
      <trkpt lat="43.86481" lon="6.75274">
        <ele>1032.515</ele>
        <time>2014-10-04T09:30:06Z</time>
      </trkpt>
      <trkpt lat="43.8648" lon="6.75253">
        <ele>1033.328</ele>
        <time>2014-10-04T09:30:13Z</time>
      </trkpt>
      <trkpt lat="43.86478" lon="6.75233">
        <ele>1034.298</ele>
        <time>2014-10-04T09:30:20Z</time>
      </trkpt>
      <trkpt lat="43.86478" lon="6.75216">
        <ele>1034.596</ele>
        <time>2014-10-04T09:30:26Z</time>
      </trkpt>
      <trkpt lat="43.86475" lon="6.75198">
        <ele>1036.732</ele>
        <time>2014-10-04T09:30:32Z</time>
      </trkpt>
      <trkpt lat="43.86474" lon="6.7519">
        <ele>1037.261</ele>
        <time>2014-10-04T09:30:35Z</time>
      </trkpt>
      <trkpt lat="43.86467" lon="6.75166">
        <ele>1036.522</ele>
        <time>2014-10-04T09:30:42Z</time>
      </trkpt>
      <trkpt lat="43.86454" lon="6.75146">
        <ele>1036.713</ele>
        <time>2014-10-04T09:30:49Z</time>
      </trkpt>
      <trkpt lat="43.86442" lon="6.75131">
        <ele>1035.066</ele>
        <time>2014-10-04T09:30:55Z</time>
      </trkpt>
      <trkpt lat="43.86429" lon="6.75116">
        <ele>1034.064</ele>
        <time>2014-10-04T09:30:59Z</time>
      </trkpt>
      <trkpt lat="43.8641" lon="6.75097">
        <ele>1032.76</ele>
        <time>2014-10-04T09:31:03Z</time>
      </trkpt>
      <trkpt lat="43.86392" lon="6.75065">
        <ele>1031.353</ele>
        <time>2014-10-04T09:31:08Z</time>
      </trkpt>
      <trkpt lat="43.86383" lon="6.75">
        <ele>1028.033</ele>
        <time>2014-10-04T09:31:16Z</time>
      </trkpt>
      <trkpt lat="43.86383" lon="6.74948">
        <ele>1024.889</ele>
        <time>2014-10-04T09:31:22Z</time>
      </trkpt>
      <trkpt lat="43.86389" lon="6.74897">
        <ele>1021.814</ele>
        <time>2014-10-04T09:31:27Z</time>
      </trkpt>
      <trkpt lat="43.86394" lon="6.74878">
        <ele>1020.244</ele>
        <time>2014-10-04T09:31:29Z</time>
      </trkpt>
      <trkpt lat="43.86391" lon="6.74837">
        <ele>1017.461</ele>
        <time>2014-10-04T09:31:33Z</time>
      </trkpt>
      <trkpt lat="43.86396" lon="6.74799">
        <ele>1014.843</ele>
        <time>2014-10-04T09:31:37Z</time>
      </trkpt>
      <trkpt lat="43.86399" lon="6.74791">
        <ele>1013.901</ele>
        <time>2014-10-04T09:31:38Z</time>
      </trkpt>
      <trkpt lat="43.86405" lon="6.74775">
        <ele>1012.25</ele>
        <time>2014-10-04T09:31:40Z</time>
      </trkpt>
      <trkpt lat="43.86408" lon="6.74744">
        <ele>1009.665</ele>
        <time>2014-10-04T09:31:45Z</time>
      </trkpt>
      <trkpt lat="43.86411" lon="6.74733">
        <ele>1008.978</ele>
        <time>2014-10-04T09:31:47Z</time>
      </trkpt>
      <trkpt lat="43.86429" lon="6.74686">
        <ele>1009.439</ele>
        <time>2014-10-04T09:31:56Z</time>
      </trkpt>
      <trkpt lat="43.8643" lon="6.7468">
        <ele>1009.249</ele>
        <time>2014-10-04T09:31:57Z</time>
      </trkpt>
      <trkpt lat="43.8644" lon="6.74654">
        <ele>1008.368</ele>
        <time>2014-10-04T09:32:02Z</time>
      </trkpt>
      <trkpt lat="43.86447" lon="6.74621">
        <ele>1008.219</ele>
        <time>2014-10-04T09:32:08Z</time>
      </trkpt>
      <trkpt lat="43.86449" lon="6.7458">
        <ele>1008.152</ele>
        <time>2014-10-04T09:32:15Z</time>
      </trkpt>
      <trkpt lat="43.86451" lon="6.74535">
        <ele>1008.509</ele>
        <time>2014-10-04T09:32:22Z</time>
      </trkpt>
      <trkpt lat="43.86453" lon="6.74486">
        <ele>1009.489</ele>
        <time>2014-10-04T09:32:29Z</time>
      </trkpt>
      <trkpt lat="43.86455" lon="6.74479">
        <ele>1009.65</ele>
        <time>2014-10-04T09:32:30Z</time>
      </trkpt>
      <trkpt lat="43.86463" lon="6.7446">
        <ele>1009.02</ele>
        <time>2014-10-04T09:32:33Z</time>
      </trkpt>
      <trkpt lat="43.86475" lon="6.7443">
        <ele>1007.736</ele>
        <time>2014-10-04T09:32:38Z</time>
      </trkpt>
      <trkpt lat="43.86468" lon="6.74412">
        <ele>1007.376</ele>
        <time>2014-10-04T09:32:41Z</time>
      </trkpt>
      <trkpt lat="43.86464" lon="6.74408">
        <ele>1007.336</ele>
        <time>2014-10-04T09:32:42Z</time>
      </trkpt>
      <trkpt lat="43.86428" lon="6.74373">
        <ele>1006.537</ele>
        <time>2014-10-04T09:32:50Z</time>
      </trkpt>
      <trkpt lat="43.86403" lon="6.74342">
        <ele>1006.158</ele>
        <time>2014-10-04T09:32:56Z</time>
      </trkpt>
      <trkpt lat="43.86385" lon="6.74306">
        <ele>1006.628</ele>
        <time>2014-10-04T09:33:02Z</time>
      </trkpt>
      <trkpt lat="43.86379" lon="6.74287">
        <ele>1007.888</ele>
        <time>2014-10-04T09:33:05Z</time>
      </trkpt>
      <trkpt lat="43.86374" lon="6.74275">
        <ele>1007.868</ele>
        <time>2014-10-04T09:33:07Z</time>
      </trkpt>
      <trkpt lat="43.86346" lon="6.7424">
        <ele>1008.288</ele>
        <time>2014-10-04T09:33:14Z</time>
      </trkpt>
      <trkpt lat="43.86317" lon="6.74223">
        <ele>1008.069</ele>
        <time>2014-10-04T09:33:20Z</time>
      </trkpt>
      <trkpt lat="43.86287" lon="6.74195">
        <ele>1007.438</ele>
        <time>2014-10-04T09:33:27Z</time>
      </trkpt>
      <trkpt lat="43.86279" lon="6.74176">
        <ele>1007.467</ele>
        <time>2014-10-04T09:33:31Z</time>
      </trkpt>
      <trkpt lat="43.86275" lon="6.7415">
        <ele>1007.488</ele>
        <time>2014-10-04T09:33:37Z</time>
      </trkpt>
      <trkpt lat="43.86275" lon="6.74125">
        <ele>1007.437</ele>
        <time>2014-10-04T09:33:43Z</time>
      </trkpt>
      <trkpt lat="43.86274" lon="6.74096">
        <ele>1006.818</ele>
        <time>2014-10-04T09:33:51Z</time>
      </trkpt>
      <trkpt lat="43.86273" lon="6.74075">
        <ele>1006.506</ele>
        <time>2014-10-04T09:33:56Z</time>
      </trkpt>
      <trkpt lat="43.86272" lon="6.74054">
        <ele>1006.538</ele>
        <time>2014-10-04T09:34:02Z</time>
      </trkpt>
      <trkpt lat="43.86271" lon="6.74041">
        <ele>1006.037</ele>
        <time>2014-10-04T09:34:06Z</time>
      </trkpt>
      <trkpt lat="43.86269" lon="6.74016">
        <ele>1006.068</ele>
        <time>2014-10-04T09:34:14Z</time>
      </trkpt>
      <trkpt lat="43.86268" lon="6.73999">
        <ele>1006.903</ele>
        <time>2014-10-04T09:34:20Z</time>
      </trkpt>
      <trkpt lat="43.86268" lon="6.73999">
        <ele>1007.01</ele>
        <time>2014-10-04T09:34:25Z</time>
      </trkpt>
      <trkpt lat="43.86269" lon="6.73999">
        <ele>1006.909</ele>
        <time>2014-10-04T09:34:26Z</time>
      </trkpt>
      <trkpt lat="43.8627" lon="6.7398">
        <ele>1006.67</ele>
        <time>2014-10-04T09:34:31Z</time>
      </trkpt>
      <trkpt lat="43.86269" lon="6.73953">
        <ele>1007.22</ele>
        <time>2014-10-04T09:34:36Z</time>
      </trkpt>
      <trkpt lat="43.86271" lon="6.73948">
        <ele>1006.989</ele>
        <time>2014-10-04T09:34:37Z</time>
      </trkpt>
      <trkpt lat="43.86282" lon="6.73931">
        <ele>1006.017</ele>
        <time>2014-10-04T09:34:41Z</time>
      </trkpt>
      <trkpt lat="43.86309" lon="6.73919">
        <ele>1004.645</ele>
        <time>2014-10-04T09:34:47Z</time>
      </trkpt>
      <trkpt lat="43.86314" lon="6.73916">
        <ele>1004.684</ele>
        <time>2014-10-04T09:34:48Z</time>
      </trkpt>
      <trkpt lat="43.86331" lon="6.73887">
        <ele>1004.745</ele>
        <time>2014-10-04T09:34:53Z</time>
      </trkpt>
      <trkpt lat="43.8633" lon="6.73871">
        <ele>1004.475</ele>
        <time>2014-10-04T09:34:55Z</time>
      </trkpt>
      <trkpt lat="43.86318" lon="6.73813">
        <ele>1004.965</ele>
        <time>2014-10-04T09:35:03Z</time>
      </trkpt>
      <trkpt lat="43.86308" lon="6.73769">
        <ele>1007.162</ele>
        <time>2014-10-04T09:35:09Z</time>
      </trkpt>
      <trkpt lat="43.863" lon="6.73728">
        <ele>1008.502</ele>
        <time>2014-10-04T09:35:15Z</time>
      </trkpt>
      <trkpt lat="43.86291" lon="6.73691">
        <ele>1008.301</ele>
        <time>2014-10-04T09:35:20Z</time>
      </trkpt>
      <trkpt lat="43.86294" lon="6.73654">
        <ele>1006.427</ele>
        <time>2014-10-04T09:35:25Z</time>
      </trkpt>
      <trkpt lat="43.86297" lon="6.73648">
        <ele>1006.046</ele>
        <time>2014-10-04T09:35:26Z</time>
      </trkpt>
      <trkpt lat="43.86304" lon="6.73606">
        <ele>1003.653</ele>
        <time>2014-10-04T09:35:32Z</time>
      </trkpt>
      <trkpt lat="43.8629" lon="6.73592">
        <ele>1003.897</ele>
        <time>2014-10-04T09:35:35Z</time>
      </trkpt>
      <trkpt lat="43.86276" lon="6.73587">
        <ele>1004.502</ele>
        <time>2014-10-04T09:35:38Z</time>
      </trkpt>
      <trkpt lat="43.86257" lon="6.73585">
        <ele>1004.622</ele>
        <time>2014-10-04T09:35:42Z</time>
      </trkpt>
      <trkpt lat="43.86238" lon="6.73574">
        <ele>1003.527</ele>
        <time>2014-10-04T09:35:46Z</time>
      </trkpt>
      <trkpt lat="43.86218" lon="6.73572">
        <ele>1003.116</ele>
        <time>2014-10-04T09:35:50Z</time>
      </trkpt>
      <trkpt lat="43.86198" lon="6.73592">
        <ele>1004.621</ele>
        <time>2014-10-04T09:35:55Z</time>
      </trkpt>
      <trkpt lat="43.86174" lon="6.73635">
        <ele>1006.973</ele>
        <time>2014-10-04T09:36:03Z</time>
      </trkpt>
      <trkpt lat="43.86171" lon="6.7364">
        <ele>1006.932</ele>
        <time>2014-10-04T09:36:04Z</time>
      </trkpt>
      <trkpt lat="43.8616" lon="6.73667">
        <ele>1007.049</ele>
        <time>2014-10-04T09:36:09Z</time>
      </trkpt>
      <trkpt lat="43.86147" lon="6.73699">
        <ele>1007.03</ele>
        <time>2014-10-04T09:36:14Z</time>
      </trkpt>
      <trkpt lat="43.86135" lon="6.73733">
        <ele>1006.303</ele>
        <time>2014-10-04T09:36:19Z</time>
      </trkpt>
      <trkpt lat="43.86116" lon="6.73747">
        <ele>1005.813</ele>
        <time>2014-10-04T09:36:23Z</time>
      </trkpt>
      <trkpt lat="43.86109" lon="6.73744">
        <ele>1005.874</ele>
        <time>2014-10-04T09:36:24Z</time>
      </trkpt>
      <trkpt lat="43.86078" lon="6.73729">
        <ele>1004.251</ele>
        <time>2014-10-04T09:36:29Z</time>
      </trkpt>
      <trkpt lat="43.86059" lon="6.73708">
        <ele>1002.75</ele>
        <time>2014-10-04T09:36:33Z</time>
      </trkpt>
      <trkpt lat="43.86056" lon="6.73691">
        <ele>1002.229</ele>
        <time>2014-10-04T09:36:35Z</time>
      </trkpt>
      <trkpt lat="43.86054" lon="6.73675">
        <ele>1001.369</ele>
        <time>2014-10-04T09:36:37Z</time>
      </trkpt>
      <trkpt lat="43.86047" lon="6.73628">
        <ele>1000.029</ele>
        <time>2014-10-04T09:36:43Z</time>
      </trkpt>
      <trkpt lat="43.86045" lon="6.73601">
        <ele>999.339</ele>
        <time>2014-10-04T09:36:46Z</time>
      </trkpt>
      <trkpt lat="43.86042" lon="6.73579">
        <ele>998.098</ele>
        <time>2014-10-04T09:36:48Z</time>
      </trkpt>
      <trkpt lat="43.86048" lon="6.73532">
        <ele>995.909</ele>
        <time>2014-10-04T09:36:53Z</time>
      </trkpt>
      <trkpt lat="43.86061" lon="6.73497">
        <ele>994.74</ele>
        <time>2014-10-04T09:36:57Z</time>
      </trkpt>
      <trkpt lat="43.86065" lon="6.73451">
        <ele>993.266</ele>
        <time>2014-10-04T09:37:02Z</time>
      </trkpt>
      <trkpt lat="43.86063" lon="6.73442">
        <ele>993.296</ele>
        <time>2014-10-04T09:37:03Z</time>
      </trkpt>
      <trkpt lat="43.86058" lon="6.73385">
        <ele>992.055</ele>
        <time>2014-10-04T09:37:09Z</time>
      </trkpt>
      <trkpt lat="43.86054" lon="6.7333">
        <ele>991.435</ele>
        <time>2014-10-04T09:37:15Z</time>
      </trkpt>
      <trkpt lat="43.86049" lon="6.73283">
        <ele>988.841</ele>
        <time>2014-10-04T09:37:20Z</time>
      </trkpt>
      <trkpt lat="43.86048" lon="6.73274">
        <ele>988.751</ele>
        <time>2014-10-04T09:37:21Z</time>
      </trkpt>
      <trkpt lat="43.86039" lon="6.73238">
        <ele>989.125</ele>
        <time>2014-10-04T09:37:25Z</time>
      </trkpt>
      <trkpt lat="43.86034" lon="6.73202">
        <ele>988.085</ele>
        <time>2014-10-04T09:37:29Z</time>
      </trkpt>
      <trkpt lat="43.86036" lon="6.73191">
        <ele>987.775</ele>
        <time>2014-10-04T09:37:30Z</time>
      </trkpt>
      <trkpt lat="43.86062" lon="6.73138">
        <ele>983.394</ele>
        <time>2014-10-04T09:37:36Z</time>
      </trkpt>
      <trkpt lat="43.86068" lon="6.73118">
        <ele>982.522</ele>
        <time>2014-10-04T09:37:38Z</time>
      </trkpt>
      <trkpt lat="43.86075" lon="6.73081">
        <ele>978.883</ele>
        <time>2014-10-04T09:37:42Z</time>
      </trkpt>
      <trkpt lat="43.86076" lon="6.73063">
        <ele>978.297</ele>
        <time>2014-10-04T09:37:44Z</time>
      </trkpt>
      <trkpt lat="43.86083" lon="6.72995">
        <ele>976.516</ele>
        <time>2014-10-04T09:37:51Z</time>
      </trkpt>
      <trkpt lat="43.86096" lon="6.72924">
        <ele>973.444</ele>
        <time>2014-10-04T09:37:59Z</time>
      </trkpt>
      <trkpt lat="43.86101" lon="6.72878">
        <ele>972.775</ele>
        <time>2014-10-04T09:38:04Z</time>
      </trkpt>
      <trkpt lat="43.86103" lon="6.72851">
        <ele>971.865</ele>
        <time>2014-10-04T09:38:07Z</time>
      </trkpt>
      <trkpt lat="43.86095" lon="6.72829">
        <ele>970.746</ele>
        <time>2014-10-04T09:38:11Z</time>
      </trkpt>
      <trkpt lat="43.86095" lon="6.72827">
        <ele>971.52</ele>
        <time>2014-10-04T09:38:12Z</time>
      </trkpt>
      <trkpt lat="43.86096" lon="6.72809">
        <ele>969.744</ele>
        <time>2014-10-04T09:38:18Z</time>
      </trkpt>
      <trkpt lat="43.86099" lon="6.72782">
        <ele>965.047</ele>
        <time>2014-10-04T09:38:24Z</time>
      </trkpt>
      <trkpt lat="43.86103" lon="6.7276">
        <ele>962.738</ele>
        <time>2014-10-04T09:38:29Z</time>
      </trkpt>
      <trkpt lat="43.86106" lon="6.72737">
        <ele>959.919</ele>
        <time>2014-10-04T09:38:34Z</time>
      </trkpt>
      <trkpt lat="43.8611" lon="6.72721">
        <ele>957.528</ele>
        <time>2014-10-04T09:38:38Z</time>
      </trkpt>
      <trkpt lat="43.86119" lon="6.72707">
        <ele>957.529</ele>
        <time>2014-10-04T09:38:41Z</time>
      </trkpt>
      <trkpt lat="43.86128" lon="6.72682">
        <ele>954.826</ele>
        <time>2014-10-04T09:38:45Z</time>
      </trkpt>
      <trkpt lat="43.86128" lon="6.72674">
        <ele>954.287</ele>
        <time>2014-10-04T09:38:46Z</time>
      </trkpt>
      <trkpt lat="43.86114" lon="6.7264">
        <ele>953.335</ele>
        <time>2014-10-04T09:38:52Z</time>
      </trkpt>
      <trkpt lat="43.86091" lon="6.72635">
        <ele>954.863</ele>
        <time>2014-10-04T09:38:57Z</time>
      </trkpt>
      <trkpt lat="43.86064" lon="6.72637">
        <ele>958.593</ele>
        <time>2014-10-04T09:39:04Z</time>
      </trkpt>
      <trkpt lat="43.86054" lon="6.72634">
        <ele>958.399</ele>
        <time>2014-10-04T09:39:06Z</time>
      </trkpt>
      <trkpt lat="43.86043" lon="6.72631">
        <ele>957.945</ele>
        <time>2014-10-04T09:39:08Z</time>
      </trkpt>
      <trkpt lat="43.86016" lon="6.72618">
        <ele>955.611</ele>
        <time>2014-10-04T09:39:13Z</time>
      </trkpt>
      <trkpt lat="43.86002" lon="6.72607">
        <ele>955.344</ele>
        <time>2014-10-04T09:39:16Z</time>
      </trkpt>
      <trkpt lat="43.85982" lon="6.72609">
        <ele>954.841</ele>
        <time>2014-10-04T09:39:20Z</time>
      </trkpt>
      <trkpt lat="43.85964" lon="6.72612">
        <ele>953.126</ele>
        <time>2014-10-04T09:39:23Z</time>
      </trkpt>
      <trkpt lat="43.85922" lon="6.72616">
        <ele>950.365</ele>
        <time>2014-10-04T09:39:29Z</time>
      </trkpt>
      <trkpt lat="43.85914" lon="6.7262">
        <ele>950.004</ele>
        <time>2014-10-04T09:39:30Z</time>
      </trkpt>
      <trkpt lat="43.85885" lon="6.72639">
        <ele>947.739</ele>
        <time>2014-10-04T09:39:34Z</time>
      </trkpt>
      <trkpt lat="43.85843" lon="6.72652">
        <ele>944.558</ele>
        <time>2014-10-04T09:39:39Z</time>
      </trkpt>
      <trkpt lat="43.85818" lon="6.72639">
        <ele>943.109</ele>
        <time>2014-10-04T09:39:42Z</time>
      </trkpt>
      <trkpt lat="43.85814" lon="6.72618">
        <ele>942.349</ele>
        <time>2014-10-04T09:39:44Z</time>
      </trkpt>
      <trkpt lat="43.85808" lon="6.72587">
        <ele>941.121</ele>
        <time>2014-10-04T09:39:47Z</time>
      </trkpt>
      <trkpt lat="43.85806" lon="6.72565">
        <ele>939.636</ele>
        <time>2014-10-04T09:39:50Z</time>
      </trkpt>
      <trkpt lat="43.85805" lon="6.72559">
        <ele>939.052</ele>
        <time>2014-10-04T09:39:51Z</time>
      </trkpt>
      <trkpt lat="43.85803" lon="6.72531">
        <ele>937.471</ele>
        <time>2014-10-04T09:39:55Z</time>
      </trkpt>
      <trkpt lat="43.85797" lon="6.72505">
        <ele>934.749</ele>
        <time>2014-10-04T09:39:59Z</time>
      </trkpt>
      <trkpt lat="43.85789" lon="6.72501">
        <ele>933.256</ele>
        <time>2014-10-04T09:40:01Z</time>
      </trkpt>
      <trkpt lat="43.85782" lon="6.72499">
        <ele>933.031</ele>
        <time>2014-10-04T09:40:03Z</time>
      </trkpt>
      <trkpt lat="43.85756" lon="6.72487">
        <ele>929.176</ele>
        <time>2014-10-04T09:40:08Z</time>
      </trkpt>
      <trkpt lat="43.85746" lon="6.72472">
        <ele>925.866</ele>
        <time>2014-10-04T09:40:12Z</time>
      </trkpt>
      <trkpt lat="43.85746" lon="6.72468">
        <ele>925.255</ele>
        <time>2014-10-04T09:40:13Z</time>
      </trkpt>
      <trkpt lat="43.85761" lon="6.72439">
        <ele>923.291</ele>
        <time>2014-10-04T09:40:18Z</time>
      </trkpt>
      <trkpt lat="43.85775" lon="6.72436">
        <ele>921.236</ele>
        <time>2014-10-04T09:40:20Z</time>
      </trkpt>
      <trkpt lat="43.85821" lon="6.72433">
        <ele>918.76</ele>
        <time>2014-10-04T09:40:26Z</time>
      </trkpt>
      <trkpt lat="43.85845" lon="6.72414">
        <ele>916.085</ele>
        <time>2014-10-04T09:40:30Z</time>
      </trkpt>
      <trkpt lat="43.85838" lon="6.724">
        <ele>914.517</ele>
        <time>2014-10-04T09:40:32Z</time>
      </trkpt>
      <trkpt lat="43.85821" lon="6.72403">
        <ele>913.936</ele>
        <time>2014-10-04T09:40:34Z</time>
      </trkpt>
      <trkpt lat="43.85799" lon="6.72404">
        <ele>912.456</ele>
        <time>2014-10-04T09:40:37Z</time>
      </trkpt>
      <trkpt lat="43.85785" lon="6.72402">
        <ele>911.819</ele>
        <time>2014-10-04T09:40:39Z</time>
      </trkpt>
      <trkpt lat="43.85758" lon="6.72387">
        <ele>906.706</ele>
        <time>2014-10-04T09:40:45Z</time>
      </trkpt>
      <trkpt lat="43.85757" lon="6.72366">
        <ele>905.938</ele>
        <time>2014-10-04T09:40:48Z</time>
      </trkpt>
      <trkpt lat="43.85757" lon="6.72351">
        <ele>905.519</ele>
        <time>2014-10-04T09:40:50Z</time>
      </trkpt>
      <trkpt lat="43.85756" lon="6.72328">
        <ele>905.533</ele>
        <time>2014-10-04T09:40:53Z</time>
      </trkpt>
      <trkpt lat="43.85754" lon="6.723">
        <ele>906.049</ele>
        <time>2014-10-04T09:40:56Z</time>
      </trkpt>
      <trkpt lat="43.85746" lon="6.72251">
        <ele>907.996</ele>
        <time>2014-10-04T09:41:02Z</time>
      </trkpt>
      <trkpt lat="43.85745" lon="6.72245">
        <ele>908.697</ele>
        <time>2014-10-04T09:41:03Z</time>
      </trkpt>
      <trkpt lat="43.85741" lon="6.72224">
        <ele>910.601</ele>
        <time>2014-10-04T09:41:06Z</time>
      </trkpt>
      <trkpt lat="43.8574" lon="6.72201">
        <ele>913.575</ele>
        <time>2014-10-04T09:41:10Z</time>
      </trkpt>
      <trkpt lat="43.85742" lon="6.72177">
        <ele>916.433</ele>
        <time>2014-10-04T09:41:16Z</time>
      </trkpt>
      <trkpt lat="43.85749" lon="6.72158">
        <ele>922.088</ele>
        <time>2014-10-04T09:41:21Z</time>
      </trkpt>
      <trkpt lat="43.85746" lon="6.72141">
        <ele>924.534</ele>
        <time>2014-10-04T09:41:25Z</time>
      </trkpt>
      <trkpt lat="43.85743" lon="6.72119">
        <ele>925.618</ele>
        <time>2014-10-04T09:41:30Z</time>
      </trkpt>
      <trkpt lat="43.85742" lon="6.72104">
        <ele>925.875</ele>
        <time>2014-10-04T09:41:34Z</time>
      </trkpt>
      <trkpt lat="43.85739" lon="6.72092">
        <ele>926.648</ele>
        <time>2014-10-04T09:41:38Z</time>
      </trkpt>
      <trkpt lat="43.85741" lon="6.72077">
        <ele>928.506</ele>
        <time>2014-10-04T09:41:43Z</time>
      </trkpt>
      <trkpt lat="43.8574" lon="6.72066">
        <ele>929.192</ele>
        <time>2014-10-04T09:41:47Z</time>
      </trkpt>
      <trkpt lat="43.85739" lon="6.72058">
        <ele>931.968</ele>
        <time>2014-10-04T09:41:52Z</time>
      </trkpt>
      <trkpt lat="43.85734" lon="6.72045">
        <ele>939.188</ele>
        <time>2014-10-04T09:42:13Z</time>
      </trkpt>
      <trkpt lat="43.85731" lon="6.72028">
        <ele>934.797</ele>
        <time>2014-10-04T09:42:18Z</time>
      </trkpt>
      <trkpt lat="43.85728" lon="6.7201">
        <ele>931.515</ele>
        <time>2014-10-04T09:42:23Z</time>
      </trkpt>
      <trkpt lat="43.85728" lon="6.71995">
        <ele>932.492</ele>
        <time>2014-10-04T09:42:29Z</time>
      </trkpt>
      <trkpt lat="43.85729" lon="6.71992">
        <ele>931.845</ele>
        <time>2014-10-04T09:42:35Z</time>
      </trkpt>
      <trkpt lat="43.85725" lon="6.71992">
        <ele>926.358</ele>
        <time>2014-10-04T09:42:47Z</time>
      </trkpt>
      <trkpt lat="43.8572" lon="6.71988">
        <ele>932.005</ele>
        <time>2014-10-04T09:43:52Z</time>
      </trkpt>
      <trkpt lat="43.8572" lon="6.71986">
        <ele>930.918</ele>
        <time>2014-10-04T09:43:59Z</time>
      </trkpt>
      <trkpt lat="43.85721" lon="6.71984">
        <ele>929.359</ele>
        <time>2014-10-04T09:44:11Z</time>
      </trkpt>
      <trkpt lat="43.85718" lon="6.71983">
        <ele>926.018</ele>
        <time>2014-10-04T09:44:18Z</time>
      </trkpt>
      <trkpt lat="43.85716" lon="6.71982">
        <ele>926.427</ele>
        <time>2014-10-04T09:44:31Z</time>
      </trkpt>
      <trkpt lat="43.85706" lon="6.71996">
        <ele>924.172</ele>
        <time>2014-10-04T09:44:37Z</time>
      </trkpt>
      <trkpt lat="43.85705" lon="6.72001">
        <ele>924.192</ele>
        <time>2014-10-04T09:44:38Z</time>
      </trkpt>
      <trkpt lat="43.8571" lon="6.72029">
        <ele>925.918</ele>
        <time>2014-10-04T09:44:44Z</time>
      </trkpt>
      <trkpt lat="43.8571" lon="6.72061">
        <ele>927.049</ele>
        <time>2014-10-04T09:44:50Z</time>
      </trkpt>
      <trkpt lat="43.85715" lon="6.72091">
        <ele>933.608</ele>
        <time>2014-10-04T09:44:56Z</time>
      </trkpt>
      <trkpt lat="43.8571" lon="6.72118">
        <ele>935.528</ele>
        <time>2014-10-04T09:45:02Z</time>
      </trkpt>
      <trkpt lat="43.85707" lon="6.72144">
        <ele>940.258</ele>
        <time>2014-10-04T09:45:08Z</time>
      </trkpt>
      <trkpt lat="43.85703" lon="6.72172">
        <ele>945.515</ele>
        <time>2014-10-04T09:45:14Z</time>
      </trkpt>
      <trkpt lat="43.85698" lon="6.72196">
        <ele>945.607</ele>
        <time>2014-10-04T09:45:19Z</time>
      </trkpt>
      <trkpt lat="43.85697" lon="6.72223">
        <ele>946.784</ele>
        <time>2014-10-04T09:45:24Z</time>
      </trkpt>
      <trkpt lat="43.85696" lon="6.72231">
        <ele>948.346</ele>
        <time>2014-10-04T09:45:26Z</time>
      </trkpt>
      <trkpt lat="43.85688" lon="6.72219">
        <ele>947.47</ele>
        <time>2014-10-04T09:45:30Z</time>
      </trkpt>
      <trkpt lat="43.8569" lon="6.72211">
        <ele>945.863</ele>
        <time>2014-10-04T09:45:32Z</time>
      </trkpt>
      <trkpt lat="43.85689" lon="6.7219">
        <ele>938.966</ele>
        <time>2014-10-04T09:45:38Z</time>
      </trkpt>
      <trkpt lat="43.85691" lon="6.72182">
        <ele>938.979</ele>
        <time>2014-10-04T09:45:41Z</time>
      </trkpt>
      <trkpt lat="43.8569" lon="6.72159">
        <ele>938.054</ele>
        <time>2014-10-04T09:45:47Z</time>
      </trkpt>
      <trkpt lat="43.8569" lon="6.72155">
        <ele>937.814</ele>
        <time>2014-10-04T09:45:48Z</time>
      </trkpt>
      <trkpt lat="43.85694" lon="6.72135">
        <ele>938.296</ele>
        <time>2014-10-04T09:45:54Z</time>
      </trkpt>
      <trkpt lat="43.85692" lon="6.7211">
        <ele>939.942</ele>
        <time>2014-10-04T09:46:00Z</time>
      </trkpt>
      <trkpt lat="43.85696" lon="6.72084">
        <ele>942.707</ele>
        <time>2014-10-04T09:46:07Z</time>
      </trkpt>
      <trkpt lat="43.85698" lon="6.72066">
        <ele>943.925</ele>
        <time>2014-10-04T09:46:12Z</time>
      </trkpt>
      <trkpt lat="43.85697" lon="6.72044">
        <ele>946.054</ele>
        <time>2014-10-04T09:46:18Z</time>
      </trkpt>
      <trkpt lat="43.8569" lon="6.72038">
        <ele>945.464</ele>
        <time>2014-10-04T09:46:22Z</time>
      </trkpt>
      <trkpt lat="43.8568" lon="6.72046">
        <ele>944.869</ele>
        <time>2014-10-04T09:46:26Z</time>
      </trkpt>
      <trkpt lat="43.85679" lon="6.72057">
        <ele>944.957</ele>
        <time>2014-10-04T09:46:29Z</time>
      </trkpt>
      <trkpt lat="43.85678" lon="6.72079">
        <ele>945.952</ele>
        <time>2014-10-04T09:46:35Z</time>
      </trkpt>
      <trkpt lat="43.8567" lon="6.72109">
        <ele>946.406</ele>
        <time>2014-10-04T09:46:43Z</time>
      </trkpt>
      <trkpt lat="43.85663" lon="6.72129">
        <ele>946.535</ele>
        <time>2014-10-04T09:46:49Z</time>
      </trkpt>
      <trkpt lat="43.85661" lon="6.72147">
        <ele>948.419</ele>
        <time>2014-10-04T09:46:54Z</time>
      </trkpt>
      <trkpt lat="43.85662" lon="6.72169">
        <ele>955.598</ele>
        <time>2014-10-04T09:47:00Z</time>
      </trkpt>
      <trkpt lat="43.85661" lon="6.7219">
        <ele>958.899</ele>
        <time>2014-10-04T09:47:05Z</time>
      </trkpt>
      <trkpt lat="43.85652" lon="6.7221">
        <ele>957.589</ele>
        <time>2014-10-04T09:47:11Z</time>
      </trkpt>
      <trkpt lat="43.85652" lon="6.72229">
        <ele>960.046</ele>
        <time>2014-10-04T09:47:16Z</time>
      </trkpt>
      <trkpt lat="43.85649" lon="6.72252">
        <ele>961.121</ele>
        <time>2014-10-04T09:47:22Z</time>
      </trkpt>
      <trkpt lat="43.85639" lon="6.7225">
        <ele>960.818</ele>
        <time>2014-10-04T09:47:26Z</time>
      </trkpt>
      <trkpt lat="43.85641" lon="6.7224">
        <ele>959.594</ele>
        <time>2014-10-04T09:47:29Z</time>
      </trkpt>
      <trkpt lat="43.85642" lon="6.72236">
        <ele>959.323</ele>
        <time>2014-10-04T09:47:30Z</time>
      </trkpt>
      <trkpt lat="43.8565" lon="6.72207">
        <ele>956.158</ele>
        <time>2014-10-04T09:47:38Z</time>
      </trkpt>
      <trkpt lat="43.85653" lon="6.7218">
        <ele>954.12</ele>
        <time>2014-10-04T09:47:45Z</time>
      </trkpt>
      <trkpt lat="43.85653" lon="6.72176">
        <ele>954.119</ele>
        <time>2014-10-04T09:47:46Z</time>
      </trkpt>
      <trkpt lat="43.85655" lon="6.7215">
        <ele>956.019</ele>
        <time>2014-10-04T09:47:53Z</time>
      </trkpt>
      <trkpt lat="43.85656" lon="6.72134">
        <ele>954.869</ele>
        <time>2014-10-04T09:47:57Z</time>
      </trkpt>
      <trkpt lat="43.85658" lon="6.7209">
        <ele>956.562</ele>
        <time>2014-10-04T09:48:08Z</time>
      </trkpt>
      <trkpt lat="43.85656" lon="6.72066">
        <ele>959.296</ele>
        <time>2014-10-04T09:48:14Z</time>
      </trkpt>
      <trkpt lat="43.85662" lon="6.72038">
        <ele>962.268</ele>
        <time>2014-10-04T09:48:21Z</time>
      </trkpt>
      <trkpt lat="43.85661" lon="6.72022">
        <ele>962.978</ele>
        <time>2014-10-04T09:48:26Z</time>
      </trkpt>
      <trkpt lat="43.85666" lon="6.71997">
        <ele>970.429</ele>
        <time>2014-10-04T09:48:32Z</time>
      </trkpt>
      <trkpt lat="43.85665" lon="6.71975">
        <ele>969.266</ele>
        <time>2014-10-04T09:48:37Z</time>
      </trkpt>
      <trkpt lat="43.85665" lon="6.71953">
        <ele>971.899</ele>
        <time>2014-10-04T09:48:43Z</time>
      </trkpt>
      <trkpt lat="43.85664" lon="6.7195">
        <ele>971.959</ele>
        <time>2014-10-04T09:48:44Z</time>
      </trkpt>
      <trkpt lat="43.85665" lon="6.71946">
        <ele>971.694</ele>
        <time>2014-10-04T09:48:50Z</time>
      </trkpt>
      <trkpt lat="43.8566" lon="6.71942">
        <ele>966.384</ele>
        <time>2014-10-04T09:50:17Z</time>
      </trkpt>
      <trkpt lat="43.8567" lon="6.71938">
        <ele>969.865</ele>
        <time>2014-10-04T09:50:35Z</time>
      </trkpt>
      <trkpt lat="43.85671" lon="6.71921">
        <ele>967.639</ele>
        <time>2014-10-04T09:50:40Z</time>
      </trkpt>
      <trkpt lat="43.85667" lon="6.7189">
        <ele>965.801</ele>
        <time>2014-10-04T09:50:46Z</time>
      </trkpt>
      <trkpt lat="43.85667" lon="6.71874">
        <ele>965.096</ele>
        <time>2014-10-04T09:50:50Z</time>
      </trkpt>
      <trkpt lat="43.85668" lon="6.7185">
        <ele>964.538</ele>
        <time>2014-10-04T09:50:55Z</time>
      </trkpt>
      <trkpt lat="43.85666" lon="6.71845">
        <ele>964.234</ele>
        <time>2014-10-04T09:50:59Z</time>
      </trkpt>
      <trkpt lat="43.85664" lon="6.71835">
        <ele>965.931</ele>
        <time>2014-10-04T09:51:03Z</time>
      </trkpt>
      <trkpt lat="43.85662" lon="6.71823">
        <ele>968.502</ele>
        <time>2014-10-04T09:51:07Z</time>
      </trkpt>
      <trkpt lat="43.85664" lon="6.7181">
        <ele>971.557</ele>
        <time>2014-10-04T09:51:11Z</time>
      </trkpt>
      <trkpt lat="43.85665" lon="6.71804">
        <ele>970.012</ele>
        <time>2014-10-04T09:51:14Z</time>
      </trkpt>
      <trkpt lat="43.85664" lon="6.71794">
        <ele>972.901</ele>
        <time>2014-10-04T09:51:18Z</time>
      </trkpt>
      <trkpt lat="43.85665" lon="6.71776">
        <ele>975.836</ele>
        <time>2014-10-04T09:51:24Z</time>
      </trkpt>
      <trkpt lat="43.85664" lon="6.71758">
        <ele>977.426</ele>
        <time>2014-10-04T09:51:30Z</time>
      </trkpt>
      <trkpt lat="43.85668" lon="6.71739">
        <ele>978.411</ele>
        <time>2014-10-04T09:51:36Z</time>
      </trkpt>
      <trkpt lat="43.85672" lon="6.71725">
        <ele>978.221</ele>
        <time>2014-10-04T09:51:41Z</time>
      </trkpt>
      <trkpt lat="43.85669" lon="6.71705">
        <ele>974.736</ele>
        <time>2014-10-04T09:51:47Z</time>
      </trkpt>
      <trkpt lat="43.8567" lon="6.71685">
        <ele>976.238</ele>
        <time>2014-10-04T09:51:53Z</time>
      </trkpt>
      <trkpt lat="43.85667" lon="6.71666">
        <ele>976.186</ele>
        <time>2014-10-04T09:51:58Z</time>
      </trkpt>
      <trkpt lat="43.85665" lon="6.71637">
        <ele>974.887</ele>
        <time>2014-10-04T09:52:04Z</time>
      </trkpt>
      <trkpt lat="43.85662" lon="6.71609">
        <ele>971.22</ele>
        <time>2014-10-04T09:52:10Z</time>
      </trkpt>
      <trkpt lat="43.8566" lon="6.7159">
        <ele>970.333</ele>
        <time>2014-10-04T09:52:14Z</time>
      </trkpt>
      <trkpt lat="43.85659" lon="6.71576">
        <ele>970.077</ele>
        <time>2014-10-04T09:52:17Z</time>
      </trkpt>
      <trkpt lat="43.85656" lon="6.71554">
        <ele>971.109</ele>
        <time>2014-10-04T09:52:22Z</time>
      </trkpt>
      <trkpt lat="43.85649" lon="6.71526">
        <ele>969.029</ele>
        <time>2014-10-04T09:52:27Z</time>
      </trkpt>
      <trkpt lat="43.85651" lon="6.71506">
        <ele>971.325</ele>
        <time>2014-10-04T09:52:31Z</time>
      </trkpt>
      <trkpt lat="43.8565" lon="6.71502">
        <ele>970.481</ele>
        <time>2014-10-04T09:52:32Z</time>
      </trkpt>
      <trkpt lat="43.85649" lon="6.71492">
        <ele>972.805</ele>
        <time>2014-10-04T09:52:35Z</time>
      </trkpt>
      <trkpt lat="43.85646" lon="6.7147">
        <ele>974.809</ele>
        <time>2014-10-04T09:52:42Z</time>
      </trkpt>
      <trkpt lat="43.85648" lon="6.71459">
        <ele>979.233</ele>
        <time>2014-10-04T09:52:46Z</time>
      </trkpt>
      <trkpt lat="43.85646" lon="6.71445">
        <ele>980.696</ele>
        <time>2014-10-04T09:52:51Z</time>
      </trkpt>
      <trkpt lat="43.85646" lon="6.71428">
        <ele>984.204</ele>
        <time>2014-10-04T09:52:57Z</time>
      </trkpt>
      <trkpt lat="43.85644" lon="6.71409">
        <ele>985.171</ele>
        <time>2014-10-04T09:53:05Z</time>
      </trkpt>
      <trkpt lat="43.85645" lon="6.71401">
        <ele>987.208</ele>
        <time>2014-10-04T09:53:08Z</time>
      </trkpt>
      <trkpt lat="43.85644" lon="6.71381">
        <ele>988.619</ele>
        <time>2014-10-04T09:53:16Z</time>
      </trkpt>
      <trkpt lat="43.85643" lon="6.71368">
        <ele>988.63</ele>
        <time>2014-10-04T09:53:21Z</time>
      </trkpt>
      <trkpt lat="43.85642" lon="6.71346">
        <ele>988.652</ele>
        <time>2014-10-04T09:53:28Z</time>
      </trkpt>
      <trkpt lat="43.8564" lon="6.71332">
        <ele>988.188</ele>
        <time>2014-10-04T09:53:33Z</time>
      </trkpt>
      <trkpt lat="43.85639" lon="6.71315">
        <ele>989.924</ele>
        <time>2014-10-04T09:53:39Z</time>
      </trkpt>
      <trkpt lat="43.85637" lon="6.71301">
        <ele>989.498</ele>
        <time>2014-10-04T09:53:44Z</time>
      </trkpt>
      <trkpt lat="43.85636" lon="6.71279">
        <ele>989.055</ele>
        <time>2014-10-04T09:53:51Z</time>
      </trkpt>
      <trkpt lat="43.85633" lon="6.7126">
        <ele>986.301</ele>
        <time>2014-10-04T09:53:55Z</time>
      </trkpt>
      <trkpt lat="43.85631" lon="6.71224">
        <ele>985.598</ele>
        <time>2014-10-04T09:54:02Z</time>
      </trkpt>
      <trkpt lat="43.85629" lon="6.71202">
        <ele>987.033</ele>
        <time>2014-10-04T09:54:08Z</time>
      </trkpt>
      <trkpt lat="43.85625" lon="6.71171">
        <ele>985.85</ele>
        <time>2014-10-04T09:54:15Z</time>
      </trkpt>
      <trkpt lat="43.85624" lon="6.71142">
        <ele>985.492</ele>
        <time>2014-10-04T09:54:21Z</time>
      </trkpt>
      <trkpt lat="43.85623" lon="6.71116">
        <ele>984.081</ele>
        <time>2014-10-04T09:54:26Z</time>
      </trkpt>
      <trkpt lat="43.85624" lon="6.71101">
        <ele>983.07</ele>
        <time>2014-10-04T09:54:30Z</time>
      </trkpt>
      <trkpt lat="43.85625" lon="6.71079">
        <ele>985.074</ele>
        <time>2014-10-04T09:54:35Z</time>
      </trkpt>
      <trkpt lat="43.85623" lon="6.71057">
        <ele>986.089</ele>
        <time>2014-10-04T09:54:41Z</time>
      </trkpt>
      <trkpt lat="43.85624" lon="6.71043">
        <ele>990.049</ele>
        <time>2014-10-04T09:54:46Z</time>
      </trkpt>
      <trkpt lat="43.85627" lon="6.71025">
        <ele>993.61</ele>
        <time>2014-10-04T09:54:52Z</time>
      </trkpt>
      <trkpt lat="43.85627" lon="6.71006">
        <ele>992.208</ele>
        <time>2014-10-04T09:54:58Z</time>
      </trkpt>
      <trkpt lat="43.8562" lon="6.70988">
        <ele>990.98</ele>
        <time>2014-10-04T09:55:04Z</time>
      </trkpt>
      <trkpt lat="43.85613" lon="6.70975">
        <ele>991.682</ele>
        <time>2014-10-04T09:55:10Z</time>
      </trkpt>
      <trkpt lat="43.85602" lon="6.70967">
        <ele>992.755</ele>
        <time>2014-10-04T09:55:16Z</time>
      </trkpt>
      <trkpt lat="43.85601" lon="6.70966">
        <ele>992.482</ele>
        <time>2014-10-04T09:55:17Z</time>
      </trkpt>
      <trkpt lat="43.85599" lon="6.7096">
        <ele>994.456</ele>
        <time>2014-10-04T09:55:21Z</time>
      </trkpt>
      <trkpt lat="43.85604" lon="6.70954">
        <ele>997.255</ele>
        <time>2014-10-04T09:55:26Z</time>
      </trkpt>
      <trkpt lat="43.85605" lon="6.70946">
        <ele>997.917</ele>
        <time>2014-10-04T09:55:30Z</time>
      </trkpt>
      <trkpt lat="43.85612" lon="6.70935">
        <ele>1001.677</ele>
        <time>2014-10-04T09:55:36Z</time>
      </trkpt>
      <trkpt lat="43.8561" lon="6.70926">
        <ele>1000.772</ele>
        <time>2014-10-04T09:55:40Z</time>
      </trkpt>
      <trkpt lat="43.85605" lon="6.7091">
        <ele>1003.462</ele>
        <time>2014-10-04T09:55:48Z</time>
      </trkpt>
      <trkpt lat="43.85605" lon="6.70907">
        <ele>1003.69</ele>
        <time>2014-10-04T09:55:49Z</time>
      </trkpt>
      <trkpt lat="43.85599" lon="6.7089">
        <ele>1006.059</ele>
        <time>2014-10-04T09:55:58Z</time>
      </trkpt>
      <trkpt lat="43.85592" lon="6.70879">
        <ele>1004.448</ele>
        <time>2014-10-04T09:56:04Z</time>
      </trkpt>
      <trkpt lat="43.85587" lon="6.70864">
        <ele>1004.091</ele>
        <time>2014-10-04T09:56:12Z</time>
      </trkpt>
      <trkpt lat="43.85585" lon="6.7085">
        <ele>1004.329</ele>
        <time>2014-10-04T09:56:20Z</time>
      </trkpt>
      <trkpt lat="43.85584" lon="6.70838">
        <ele>1007.406</ele>
        <time>2014-10-04T09:56:27Z</time>
      </trkpt>
      <trkpt lat="43.8558" lon="6.70828">
        <ele>1007.574</ele>
        <time>2014-10-04T09:56:33Z</time>
      </trkpt>
      <trkpt lat="43.85576" lon="6.7082">
        <ele>1009.822</ele>
        <time>2014-10-04T09:56:40Z</time>
      </trkpt>
      <trkpt lat="43.85571" lon="6.7081">
        <ele>1010.621</ele>
        <time>2014-10-04T09:56:46Z</time>
      </trkpt>
      <trkpt lat="43.85569" lon="6.70802">
        <ele>1014.075</ele>
        <time>2014-10-04T09:56:50Z</time>
      </trkpt>
      <trkpt lat="43.85569" lon="6.70798">
        <ele>1014.517</ele>
        <time>2014-10-04T09:56:56Z</time>
      </trkpt>
      <trkpt lat="43.8557" lon="6.70797">
        <ele>1014.808</ele>
        <time>2014-10-04T09:57:12Z</time>
      </trkpt>
      <trkpt lat="43.85571" lon="6.70792">
        <ele>1017.053</ele>
        <time>2014-10-04T09:57:16Z</time>
      </trkpt>
      <trkpt lat="43.85574" lon="6.70778">
        <ele>1023.586</ele>
        <time>2014-10-04T09:57:23Z</time>
      </trkpt>
      <trkpt lat="43.85567" lon="6.70764">
        <ele>1020.867</ele>
        <time>2014-10-04T09:57:29Z</time>
      </trkpt>
      <trkpt lat="43.85561" lon="6.70749">
        <ele>1021.242</ele>
        <time>2014-10-04T09:57:36Z</time>
      </trkpt>
      <trkpt lat="43.85559" lon="6.70741">
        <ele>1021.421</ele>
        <time>2014-10-04T09:57:41Z</time>
      </trkpt>
      <trkpt lat="43.85559" lon="6.70732">
        <ele>1024.049</ele>
        <time>2014-10-04T09:57:46Z</time>
      </trkpt>
      <trkpt lat="43.85555" lon="6.7072">
        <ele>1024.466</ele>
        <time>2014-10-04T09:57:52Z</time>
      </trkpt>
      <trkpt lat="43.85554" lon="6.70714">
        <ele>1027.245</ele>
        <time>2014-10-04T09:57:56Z</time>
      </trkpt>
      <trkpt lat="43.85554" lon="6.70712">
        <ele>1027.37</ele>
        <time>2014-10-04T09:57:57Z</time>
      </trkpt>
      <trkpt lat="43.85549" lon="6.70699">
        <ele>1028.945</ele>
        <time>2014-10-04T09:58:04Z</time>
      </trkpt>
      <trkpt lat="43.85548" lon="6.70696">
        <ele>1026.152</ele>
        <time>2014-10-04T09:58:11Z</time>
      </trkpt>
      <trkpt lat="43.85548" lon="6.70689">
        <ele>1026.9</ele>
        <time>2014-10-04T09:58:21Z</time>
      </trkpt>
      <trkpt lat="43.85547" lon="6.7068">
        <ele>1027.743</ele>
        <time>2014-10-04T09:58:28Z</time>
      </trkpt>
      <trkpt lat="43.85542" lon="6.70672">
        <ele>1025.092</ele>
        <time>2014-10-04T09:58:36Z</time>
      </trkpt>
      <trkpt lat="43.85542" lon="6.70665">
        <ele>1026.748</ele>
        <time>2014-10-04T09:58:43Z</time>
      </trkpt>
      <trkpt lat="43.8554" lon="6.70656">
        <ele>1028.387</ele>
        <time>2014-10-04T09:58:51Z</time>
      </trkpt>
      <trkpt lat="43.85541" lon="6.70645">
        <ele>1033.32</ele>
        <time>2014-10-04T09:59:01Z</time>
      </trkpt>
      <trkpt lat="43.85541" lon="6.70639">
        <ele>1036.013</ele>
        <time>2014-10-04T09:59:09Z</time>
      </trkpt>
      <trkpt lat="43.85535" lon="6.70633">
        <ele>1034.158</ele>
        <time>2014-10-04T10:00:15Z</time>
      </trkpt>
      <trkpt lat="43.85532" lon="6.70626">
        <ele>1034.352</ele>
        <time>2014-10-04T10:00:27Z</time>
      </trkpt>
      <trkpt lat="43.85527" lon="6.70609">
        <ele>1037.492</ele>
        <time>2014-10-04T10:00:35Z</time>
      </trkpt>
      <trkpt lat="43.85521" lon="6.70598">
        <ele>1037.766</ele>
        <time>2014-10-04T10:00:41Z</time>
      </trkpt>
      <trkpt lat="43.85518" lon="6.70587">
        <ele>1040.554</ele>
        <time>2014-10-04T10:00:47Z</time>
      </trkpt>
      <trkpt lat="43.85518" lon="6.70582">
        <ele>1043.595</ele>
        <time>2014-10-04T10:00:51Z</time>
      </trkpt>
      <trkpt lat="43.85514" lon="6.70568">
        <ele>1045.146</ele>
        <time>2014-10-04T10:00:59Z</time>
      </trkpt>
      <trkpt lat="43.8551" lon="6.70556">
        <ele>1045.638</ele>
        <time>2014-10-04T10:01:07Z</time>
      </trkpt>
      <trkpt lat="43.85504" lon="6.70543">
        <ele>1045.101</ele>
        <time>2014-10-04T10:01:14Z</time>
      </trkpt>
      <trkpt lat="43.85502" lon="6.70538">
        <ele>1045.771</ele>
        <time>2014-10-04T10:01:20Z</time>
      </trkpt>
      <trkpt lat="43.85499" lon="6.70533">
        <ele>1045.339</ele>
        <time>2014-10-04T10:01:25Z</time>
      </trkpt>
      <trkpt lat="43.85495" lon="6.7052">
        <ele>1047.749</ele>
        <time>2014-10-04T10:01:36Z</time>
      </trkpt>
      <trkpt lat="43.85493" lon="6.70512">
        <ele>1049.555</ele>
        <time>2014-10-04T10:01:43Z</time>
      </trkpt>
      <trkpt lat="43.85493" lon="6.70511">
        <ele>1049.59</ele>
        <time>2014-10-04T10:01:44Z</time>
      </trkpt>
      <trkpt lat="43.85486" lon="6.70502">
        <ele>1047.587</ele>
        <time>2014-10-04T10:01:53Z</time>
      </trkpt>
      <trkpt lat="43.85481" lon="6.70491">
        <ele>1046.772</ele>
        <time>2014-10-04T10:02:03Z</time>
      </trkpt>
      <trkpt lat="43.85483" lon="6.70488">
        <ele>1051.286</ele>
        <time>2014-10-04T10:02:11Z</time>
      </trkpt>
      <trkpt lat="43.85484" lon="6.70484">
        <ele>1053.582</ele>
        <time>2014-10-04T10:02:16Z</time>
      </trkpt>
      <trkpt lat="43.85478" lon="6.70474">
        <ele>1053.896</ele>
        <time>2014-10-04T10:02:25Z</time>
      </trkpt>
      <trkpt lat="43.85472" lon="6.70464">
        <ele>1053.605</ele>
        <time>2014-10-04T10:02:35Z</time>
      </trkpt>
      <trkpt lat="43.85464" lon="6.70452">
        <ele>1051.857</ele>
        <time>2014-10-04T10:02:46Z</time>
      </trkpt>
      <trkpt lat="43.8546" lon="6.70445">
        <ele>1052.583</ele>
        <time>2014-10-04T10:02:52Z</time>
      </trkpt>
      <trkpt lat="43.85455" lon="6.70439">
        <ele>1051.749</ele>
        <time>2014-10-04T10:02:57Z</time>
      </trkpt>
      <trkpt lat="43.8545" lon="6.70429">
        <ele>1054.002</ele>
        <time>2014-10-04T10:03:07Z</time>
      </trkpt>
      <trkpt lat="43.85447" lon="6.70422">
        <ele>1056.222</ele>
        <time>2014-10-04T10:03:14Z</time>
      </trkpt>
      <trkpt lat="43.85443" lon="6.70412">
        <ele>1058.512</ele>
        <time>2014-10-04T10:03:22Z</time>
      </trkpt>
      <trkpt lat="43.8544" lon="6.70407">
        <ele>1059.021</ele>
        <time>2014-10-04T10:03:27Z</time>
      </trkpt>
      <trkpt lat="43.85439" lon="6.70402">
        <ele>1059.159</ele>
        <time>2014-10-04T10:03:31Z</time>
      </trkpt>
      <trkpt lat="43.85438" lon="6.70394">
        <ele>1058.779</ele>
        <time>2014-10-04T10:03:36Z</time>
      </trkpt>
      <trkpt lat="43.85436" lon="6.70389">
        <ele>1060.705</ele>
        <time>2014-10-04T10:03:41Z</time>
      </trkpt>
      <trkpt lat="43.85438" lon="6.7038">
        <ele>1065.176</ele>
        <time>2014-10-04T10:03:51Z</time>
      </trkpt>
      <trkpt lat="43.85437" lon="6.70372">
        <ele>1067.013</ele>
        <time>2014-10-04T10:03:58Z</time>
      </trkpt>
      <trkpt lat="43.85433" lon="6.70367">
        <ele>1065.596</ele>
        <time>2014-10-04T10:04:02Z</time>
      </trkpt>
      <trkpt lat="43.85428" lon="6.70358">
        <ele>1063.725</ele>
        <time>2014-10-04T10:04:09Z</time>
      </trkpt>
      <trkpt lat="43.85425" lon="6.70347">
        <ele>1065.563</ele>
        <time>2014-10-04T10:04:18Z</time>
      </trkpt>
      <trkpt lat="43.8542" lon="6.70344">
        <ele>1064.165</ele>
        <time>2014-10-04T10:04:25Z</time>
      </trkpt>
      <trkpt lat="43.85417" lon="6.70334">
        <ele>1066.653</ele>
        <time>2014-10-04T10:04:33Z</time>
      </trkpt>
      <trkpt lat="43.85413" lon="6.7032">
        <ele>1070.01</ele>
        <time>2014-10-04T10:04:40Z</time>
      </trkpt>
      <trkpt lat="43.85408" lon="6.70307">
        <ele>1071.617</ele>
        <time>2014-10-04T10:04:46Z</time>
      </trkpt>
      <trkpt lat="43.85404" lon="6.70295">
        <ele>1072.815</ele>
        <time>2014-10-04T10:04:53Z</time>
      </trkpt>
      <trkpt lat="43.85401" lon="6.70284">
        <ele>1075.085</ele>
        <time>2014-10-04T10:05:00Z</time>
      </trkpt>
      <trkpt lat="43.85394" lon="6.70274">
        <ele>1075.703</ele>
        <time>2014-10-04T10:05:07Z</time>
      </trkpt>
      <trkpt lat="43.85394" lon="6.70269">
        <ele>1077.413</ele>
        <time>2014-10-04T10:05:12Z</time>
      </trkpt>
      <trkpt lat="43.8539" lon="6.70261">
        <ele>1077.018</ele>
        <time>2014-10-04T10:05:20Z</time>
      </trkpt>
      <trkpt lat="43.85384" lon="6.70251">
        <ele>1077.357</ele>
        <time>2014-10-04T10:05:29Z</time>
      </trkpt>
      <trkpt lat="43.85381" lon="6.70245">
        <ele>1078.21</ele>
        <time>2014-10-04T10:05:36Z</time>
      </trkpt>
      <trkpt lat="43.85379" lon="6.70235">
        <ele>1080.898</ele>
        <time>2014-10-04T10:05:46Z</time>
      </trkpt>
      <trkpt lat="43.85377" lon="6.70231">
        <ele>1082.304</ele>
        <time>2014-10-04T10:05:51Z</time>
      </trkpt>
      <trkpt lat="43.85375" lon="6.70222">
        <ele>1083.966</ele>
        <time>2014-10-04T10:05:58Z</time>
      </trkpt>
      <trkpt lat="43.85369" lon="6.7021">
        <ele>1084.169</ele>
        <time>2014-10-04T10:06:08Z</time>
      </trkpt>
      <trkpt lat="43.85367" lon="6.702">
        <ele>1084.92</ele>
        <time>2014-10-04T10:06:17Z</time>
      </trkpt>
      <trkpt lat="43.85365" lon="6.70191">
        <ele>1087.14</ele>
        <time>2014-10-04T10:06:26Z</time>
      </trkpt>
      <trkpt lat="43.85362" lon="6.70178">
        <ele>1089.545</ele>
        <time>2014-10-04T10:06:37Z</time>
      </trkpt>
      <trkpt lat="43.85361" lon="6.70169">
        <ele>1091.722</ele>
        <time>2014-10-04T10:06:45Z</time>
      </trkpt>
      <trkpt lat="43.85357" lon="6.7016">
        <ele>1092.028</ele>
        <time>2014-10-04T10:06:54Z</time>
      </trkpt>
      <trkpt lat="43.85355" lon="6.70155">
        <ele>1092.608</ele>
        <time>2014-10-04T10:06:59Z</time>
      </trkpt>
      <trkpt lat="43.85351" lon="6.70147">
        <ele>1093.508</ele>
        <time>2014-10-04T10:07:05Z</time>
      </trkpt>
      <trkpt lat="43.85349" lon="6.70138">
        <ele>1095.571</ele>
        <time>2014-10-04T10:07:12Z</time>
      </trkpt>
      <trkpt lat="43.85348" lon="6.70133">
        <ele>1097.453</ele>
        <time>2014-10-04T10:07:17Z</time>
      </trkpt>
      <trkpt lat="43.85349" lon="6.70125">
        <ele>1100.485</ele>
        <time>2014-10-04T10:07:24Z</time>
      </trkpt>
      <trkpt lat="43.85349" lon="6.70113">
        <ele>1103.645</ele>
        <time>2014-10-04T10:07:32Z</time>
      </trkpt>
      <trkpt lat="43.85347" lon="6.70105">
        <ele>1104.308</ele>
        <time>2014-10-04T10:07:40Z</time>
      </trkpt>
      <trkpt lat="43.85344" lon="6.70097">
        <ele>1104.051</ele>
        <time>2014-10-04T10:07:48Z</time>
      </trkpt>
      <trkpt lat="43.85343" lon="6.70091">
        <ele>1105.515</ele>
        <time>2014-10-04T10:07:55Z</time>
      </trkpt>
      <trkpt lat="43.85339" lon="6.70085">
        <ele>1108.572</ele>
        <time>2014-10-04T10:08:06Z</time>
      </trkpt>
      <trkpt lat="43.85337" lon="6.7008">
        <ele>1108.66</ele>
        <time>2014-10-04T10:08:13Z</time>
      </trkpt>
      <trkpt lat="43.85335" lon="6.70073">
        <ele>1110.225</ele>
        <time>2014-10-04T10:08:21Z</time>
      </trkpt>
      <trkpt lat="43.85326" lon="6.70065">
        <ele>1106.841</ele>
        <time>2014-10-04T10:08:30Z</time>
      </trkpt>
      <trkpt lat="43.85325" lon="6.70056">
        <ele>1111.456</ele>
        <time>2014-10-04T10:08:38Z</time>
      </trkpt>
      <trkpt lat="43.85324" lon="6.70048">
        <ele>1113.463</ele>
        <time>2014-10-04T10:08:46Z</time>
      </trkpt>
      <trkpt lat="43.85319" lon="6.70037">
        <ele>1112.306</ele>
        <time>2014-10-04T10:08:56Z</time>
      </trkpt>
      <trkpt lat="43.85316" lon="6.70028">
        <ele>1113.2</ele>
        <time>2014-10-04T10:09:04Z</time>
      </trkpt>
      <trkpt lat="43.85312" lon="6.70016">
        <ele>1116.234</ele>
        <time>2014-10-04T10:09:14Z</time>
      </trkpt>
      <trkpt lat="43.8531" lon="6.7001">
        <ele>1116.602</ele>
        <time>2014-10-04T10:09:20Z</time>
      </trkpt>
      <trkpt lat="43.8531" lon="6.70002">
        <ele>1119.746</ele>
        <time>2014-10-04T10:09:26Z</time>
      </trkpt>
      <trkpt lat="43.85308" lon="6.69996">
        <ele>1121.745</ele>
        <time>2014-10-04T10:09:31Z</time>
      </trkpt>
      <trkpt lat="43.85308" lon="6.69995">
        <ele>1121.955</ele>
        <time>2014-10-04T10:09:32Z</time>
      </trkpt>
      <trkpt lat="43.85304" lon="6.69989">
        <ele>1122.59</ele>
        <time>2014-10-04T10:09:39Z</time>
      </trkpt>
      <trkpt lat="43.85301" lon="6.69983">
        <ele>1124.283</ele>
        <time>2014-10-04T10:09:44Z</time>
      </trkpt>
      <trkpt lat="43.85301" lon="6.69981">
        <ele>1125.005</ele>
        <time>2014-10-04T10:09:49Z</time>
      </trkpt>
      <trkpt lat="43.853" lon="6.69977">
        <ele>1126.492</ele>
        <time>2014-10-04T10:09:53Z</time>
      </trkpt>
      <trkpt lat="43.85293" lon="6.69968">
        <ele>1126.788</ele>
        <time>2014-10-04T10:10:00Z</time>
      </trkpt>
      <trkpt lat="43.85289" lon="6.6996">
        <ele>1126.55</ele>
        <time>2014-10-04T10:10:08Z</time>
      </trkpt>
      <trkpt lat="43.85287" lon="6.69953">
        <ele>1127.651</ele>
        <time>2014-10-04T10:10:14Z</time>
      </trkpt>
      <trkpt lat="43.85284" lon="6.69941">
        <ele>1131.163</ele>
        <time>2014-10-04T10:10:22Z</time>
      </trkpt>
      <trkpt lat="43.8528" lon="6.69934">
        <ele>1129.557</ele>
        <time>2014-10-04T10:10:30Z</time>
      </trkpt>
      <trkpt lat="43.85276" lon="6.69924">
        <ele>1130.309</ele>
        <time>2014-10-04T10:10:39Z</time>
      </trkpt>
      <trkpt lat="43.85273" lon="6.69913">
        <ele>1131.419</ele>
        <time>2014-10-04T10:10:49Z</time>
      </trkpt>
      <trkpt lat="43.85269" lon="6.69902">
        <ele>1131.719</ele>
        <time>2014-10-04T10:10:58Z</time>
      </trkpt>
      <trkpt lat="43.85269" lon="6.69901">
        <ele>1133.308</ele>
        <time>2014-10-04T10:11:08Z</time>
      </trkpt>
      <trkpt lat="43.85268" lon="6.69894">
        <ele>1135.099</ele>
        <time>2014-10-04T10:11:19Z</time>
      </trkpt>
      <trkpt lat="43.85266" lon="6.69891">
        <ele>1135.239</ele>
        <time>2014-10-04T10:11:24Z</time>
      </trkpt>
      <trkpt lat="43.85261" lon="6.69886">
        <ele>1131.678</ele>
        <time>2014-10-04T10:13:15Z</time>
      </trkpt>
      <trkpt lat="43.85258" lon="6.69875">
        <ele>1133.901</ele>
        <time>2014-10-04T10:13:22Z</time>
      </trkpt>
      <trkpt lat="43.85256" lon="6.69869">
        <ele>1136.792</ele>
        <time>2014-10-04T10:13:28Z</time>
      </trkpt>
      <trkpt lat="43.85253" lon="6.69863">
        <ele>1138.562</ele>
        <time>2014-10-04T10:13:34Z</time>
      </trkpt>
      <trkpt lat="43.85249" lon="6.69849">
        <ele>1141.984</ele>
        <time>2014-10-04T10:13:41Z</time>
      </trkpt>
      <trkpt lat="43.85247" lon="6.69846">
        <ele>1143.351</ele>
        <time>2014-10-04T10:13:46Z</time>
      </trkpt>
      <trkpt lat="43.85243" lon="6.69835">
        <ele>1144.18</ele>
        <time>2014-10-04T10:13:54Z</time>
      </trkpt>
      <trkpt lat="43.85237" lon="6.69821">
        <ele>1146.163</ele>
        <time>2014-10-04T10:14:02Z</time>
      </trkpt>
      <trkpt lat="43.85232" lon="6.69811">
        <ele>1146.452</ele>
        <time>2014-10-04T10:14:09Z</time>
      </trkpt>
      <trkpt lat="43.85227" lon="6.69799">
        <ele>1147.108</ele>
        <time>2014-10-04T10:14:16Z</time>
      </trkpt>
      <trkpt lat="43.8522" lon="6.69786">
        <ele>1146.249</ele>
        <time>2014-10-04T10:14:24Z</time>
      </trkpt>
      <trkpt lat="43.85216" lon="6.69774">
        <ele>1147.881</ele>
        <time>2014-10-04T10:14:32Z</time>
      </trkpt>
      <trkpt lat="43.85214" lon="6.69768">
        <ele>1148.549</ele>
        <time>2014-10-04T10:14:38Z</time>
      </trkpt>
      <trkpt lat="43.8521" lon="6.69757">
        <ele>1150.72</ele>
        <time>2014-10-04T10:14:46Z</time>
      </trkpt>
      <trkpt lat="43.85207" lon="6.69749">
        <ele>1152.092</ele>
        <time>2014-10-04T10:14:54Z</time>
      </trkpt>
      <trkpt lat="43.85203" lon="6.69743">
        <ele>1152.22</ele>
        <time>2014-10-04T10:15:00Z</time>
      </trkpt>
      <trkpt lat="43.85197" lon="6.6973">
        <ele>1153.949</ele>
        <time>2014-10-04T10:15:12Z</time>
      </trkpt>
      <trkpt lat="43.85192" lon="6.6972">
        <ele>1154.691</ele>
        <time>2014-10-04T10:15:21Z</time>
      </trkpt>
      <trkpt lat="43.85186" lon="6.69706">
        <ele>1156.811</ele>
        <time>2014-10-04T10:15:33Z</time>
      </trkpt>
      <trkpt lat="43.85184" lon="6.69699">
        <ele>1159.512</ele>
        <time>2014-10-04T10:15:41Z</time>
      </trkpt>
      <trkpt lat="43.85178" lon="6.6969">
        <ele>1159.538</ele>
        <time>2014-10-04T10:15:51Z</time>
      </trkpt>
      <trkpt lat="43.8517" lon="6.69682">
        <ele>1160.26</ele>
        <time>2014-10-04T10:16:01Z</time>
      </trkpt>
      <trkpt lat="43.85163" lon="6.69674">
        <ele>1163.451</ele>
        <time>2014-10-04T10:16:11Z</time>
      </trkpt>
      <trkpt lat="43.85156" lon="6.69671">
        <ele>1164.145</ele>
        <time>2014-10-04T10:16:19Z</time>
      </trkpt>
      <trkpt lat="43.85149" lon="6.69664">
        <ele>1168.449</ele>
        <time>2014-10-04T10:16:30Z</time>
      </trkpt>
      <trkpt lat="43.8514" lon="6.69662">
        <ele>1169.656</ele>
        <time>2014-10-04T10:16:39Z</time>
      </trkpt>
      <trkpt lat="43.85134" lon="6.69657">
        <ele>1171.496</ele>
        <time>2014-10-04T10:16:47Z</time>
      </trkpt>
      <trkpt lat="43.85126" lon="6.69656">
        <ele>1171.463</ele>
        <time>2014-10-04T10:16:54Z</time>
      </trkpt>
      <trkpt lat="43.8512" lon="6.69654">
        <ele>1172.661</ele>
        <time>2014-10-04T10:17:02Z</time>
      </trkpt>
      <trkpt lat="43.85123" lon="6.69654">
        <ele>1175.059</ele>
        <time>2014-10-04T10:17:10Z</time>
      </trkpt>
      <trkpt lat="43.85118" lon="6.6966">
        <ele>1174.502</ele>
        <time>2014-10-04T10:17:18Z</time>
      </trkpt>
      <trkpt lat="43.85113" lon="6.69662">
        <ele>1174.887</ele>
        <time>2014-10-04T10:17:26Z</time>
      </trkpt>
      <trkpt lat="43.85108" lon="6.69662">
        <ele>1177.093</ele>
        <time>2014-10-04T10:17:33Z</time>
      </trkpt>
      <trkpt lat="43.85102" lon="6.69665">
        <ele>1178.863</ele>
        <time>2014-10-04T10:17:41Z</time>
      </trkpt>
      <trkpt lat="43.85097" lon="6.69666">
        <ele>1180.783</ele>
        <time>2014-10-04T10:17:49Z</time>
      </trkpt>
      <trkpt lat="43.8509" lon="6.69669">
        <ele>1181.722</ele>
        <time>2014-10-04T10:17:57Z</time>
      </trkpt>
      <trkpt lat="43.85087" lon="6.69671">
        <ele>1182.471</ele>
        <time>2014-10-04T10:18:02Z</time>
      </trkpt>
      <trkpt lat="43.85082" lon="6.69673">
        <ele>1182.511</ele>
        <time>2014-10-04T10:18:08Z</time>
      </trkpt>
      <trkpt lat="43.85076" lon="6.69673">
        <ele>1183.433</ele>
        <time>2014-10-04T10:18:15Z</time>
      </trkpt>
      <trkpt lat="43.85068" lon="6.69675">
        <ele>1184.385</ele>
        <time>2014-10-04T10:18:23Z</time>
      </trkpt>
      <trkpt lat="43.85065" lon="6.69676">
        <ele>1185.856</ele>
        <time>2014-10-04T10:18:28Z</time>
      </trkpt>
      <trkpt lat="43.85061" lon="6.69679">
        <ele>1187.563</ele>
        <time>2014-10-04T10:18:35Z</time>
      </trkpt>
      <trkpt lat="43.85058" lon="6.69681">
        <ele>1189.003</ele>
        <time>2014-10-04T10:18:39Z</time>
      </trkpt>
      <trkpt lat="43.85054" lon="6.69684">
        <ele>1190.612</ele>
        <time>2014-10-04T10:18:45Z</time>
      </trkpt>
      <trkpt lat="43.85047" lon="6.69688">
        <ele>1191.732</ele>
        <time>2014-10-04T10:18:53Z</time>
      </trkpt>
      <trkpt lat="43.85044" lon="6.69691">
        <ele>1191.322</ele>
        <time>2014-10-04T10:19:08Z</time>
      </trkpt>
      <trkpt lat="43.85042" lon="6.69692">
        <ele>1192.423</ele>
        <time>2014-10-04T10:19:11Z</time>
      </trkpt>
      <trkpt lat="43.8504" lon="6.69695">
        <ele>1195.193</ele>
        <time>2014-10-04T10:19:18Z</time>
      </trkpt>
      <trkpt lat="43.85036" lon="6.69698">
        <ele>1196.321</ele>
        <time>2014-10-04T10:19:24Z</time>
      </trkpt>
      <trkpt lat="43.85032" lon="6.697">
        <ele>1197.132</ele>
        <time>2014-10-04T10:19:29Z</time>
      </trkpt>
      <trkpt lat="43.85028" lon="6.69701">
        <ele>1197.63</ele>
        <time>2014-10-04T10:19:34Z</time>
      </trkpt>
      <trkpt lat="43.85025" lon="6.69705">
        <ele>1198.82</ele>
        <time>2014-10-04T10:19:39Z</time>
      </trkpt>
      <trkpt lat="43.85019" lon="6.69712">
        <ele>1198.387</ele>
        <time>2014-10-04T10:19:48Z</time>
      </trkpt>
      <trkpt lat="43.85015" lon="6.69717">
        <ele>1197.476</ele>
        <time>2014-10-04T10:19:54Z</time>
      </trkpt>
      <trkpt lat="43.85014" lon="6.69718">
        <ele>1198.48</ele>
        <time>2014-10-04T10:19:57Z</time>
      </trkpt>
      <trkpt lat="43.8501" lon="6.69719">
        <ele>1199.983</ele>
        <time>2014-10-04T10:20:03Z</time>
      </trkpt>
      <trkpt lat="43.85007" lon="6.69719">
        <ele>1200.963</ele>
        <time>2014-10-04T10:20:08Z</time>
      </trkpt>
      <trkpt lat="43.85005" lon="6.69723">
        <ele>1201.258</ele>
        <time>2014-10-04T10:20:15Z</time>
      </trkpt>
      <trkpt lat="43.85006" lon="6.69728">
        <ele>1204.178</ele>
        <time>2014-10-04T10:20:26Z</time>
      </trkpt>
      <trkpt lat="43.85005" lon="6.69737">
        <ele>1206.992</ele>
        <time>2014-10-04T10:20:34Z</time>
      </trkpt>
      <trkpt lat="43.85005" lon="6.69744">
        <ele>1209.349</ele>
        <time>2014-10-04T10:20:42Z</time>
      </trkpt>
      <trkpt lat="43.85004" lon="6.6975">
        <ele>1210.307</ele>
        <time>2014-10-04T10:20:49Z</time>
      </trkpt>
      <trkpt lat="43.85005" lon="6.69756">
        <ele>1210.87</ele>
        <time>2014-10-04T10:20:56Z</time>
      </trkpt>
      <trkpt lat="43.85005" lon="6.69761">
        <ele>1211.196</ele>
        <time>2014-10-04T10:21:02Z</time>
      </trkpt>
      <trkpt lat="43.85005" lon="6.69764">
        <ele>1212.49</ele>
        <time>2014-10-04T10:21:07Z</time>
      </trkpt>
      <trkpt lat="43.85005" lon="6.69771">
        <ele>1214.491</ele>
        <time>2014-10-04T10:21:15Z</time>
      </trkpt>
      <trkpt lat="43.85007" lon="6.69777">
        <ele>1216.24</ele>
        <time>2014-10-04T10:21:22Z</time>
      </trkpt>
      <trkpt lat="43.85008" lon="6.69785">
        <ele>1216.969</ele>
        <time>2014-10-04T10:21:31Z</time>
      </trkpt>
      <trkpt lat="43.85008" lon="6.69789">
        <ele>1217.589</ele>
        <time>2014-10-04T10:21:37Z</time>
      </trkpt>
      <trkpt lat="43.8501" lon="6.69796">
        <ele>1218.57</ele>
        <time>2014-10-04T10:21:45Z</time>
      </trkpt>
      <trkpt lat="43.85012" lon="6.69802">
        <ele>1219.219</ele>
        <time>2014-10-04T10:21:52Z</time>
      </trkpt>
      <trkpt lat="43.85011" lon="6.69808">
        <ele>1220.48</ele>
        <time>2014-10-04T10:21:59Z</time>
      </trkpt>
      <trkpt lat="43.85014" lon="6.69814">
        <ele>1222.22</ele>
        <time>2014-10-04T10:22:06Z</time>
      </trkpt>
      <trkpt lat="43.85013" lon="6.69817">
        <ele>1223.071</ele>
        <time>2014-10-04T10:22:11Z</time>
      </trkpt>
      <trkpt lat="43.85013" lon="6.69823">
        <ele>1224.172</ele>
        <time>2014-10-04T10:22:18Z</time>
      </trkpt>
      <trkpt lat="43.85013" lon="6.69831">
        <ele>1225.378</ele>
        <time>2014-10-04T10:22:27Z</time>
      </trkpt>
      <trkpt lat="43.85013" lon="6.69839">
        <ele>1226.368</ele>
        <time>2014-10-04T10:22:36Z</time>
      </trkpt>
      <trkpt lat="43.85014" lon="6.69841">
        <ele>1226.455</ele>
        <time>2014-10-04T10:22:38Z</time>
      </trkpt>
      <trkpt lat="43.85015" lon="6.69847">
        <ele>1226.986</ele>
        <time>2014-10-04T10:22:45Z</time>
      </trkpt>
      <trkpt lat="43.85016" lon="6.69854">
        <ele>1227.134</ele>
        <time>2014-10-04T10:22:52Z</time>
      </trkpt>
      <trkpt lat="43.85017" lon="6.69861">
        <ele>1228.347</ele>
        <time>2014-10-04T10:23:00Z</time>
      </trkpt>
      <trkpt lat="43.85016" lon="6.69868">
        <ele>1231.008</ele>
        <time>2014-10-04T10:23:08Z</time>
      </trkpt>
      <trkpt lat="43.85016" lon="6.69875">
        <ele>1234.38</ele>
        <time>2014-10-04T10:23:17Z</time>
      </trkpt>
      <trkpt lat="43.85016" lon="6.69884">
        <ele>1238.94</ele>
        <time>2014-10-04T10:23:26Z</time>
      </trkpt>
      <trkpt lat="43.85017" lon="6.69893">
        <ele>1240.844</ele>
        <time>2014-10-04T10:23:35Z</time>
      </trkpt>
      <trkpt lat="43.85018" lon="6.69901">
        <ele>1241.675</ele>
        <time>2014-10-04T10:23:44Z</time>
      </trkpt>
      <trkpt lat="43.85019" lon="6.6991">
        <ele>1243.278</ele>
        <time>2014-10-04T10:23:53Z</time>
      </trkpt>
      <trkpt lat="43.8502" lon="6.69915">
        <ele>1244.496</ele>
        <time>2014-10-04T10:23:58Z</time>
      </trkpt>
      <trkpt lat="43.8502" lon="6.69922">
        <ele>1245.909</ele>
        <time>2014-10-04T10:24:06Z</time>
      </trkpt>
      <trkpt lat="43.8502" lon="6.69923">
        <ele>1246.069</ele>
        <time>2014-10-04T10:24:07Z</time>
      </trkpt>
      <trkpt lat="43.85023" lon="6.6993">
        <ele>1246.517</ele>
        <time>2014-10-04T10:24:14Z</time>
      </trkpt>
      <trkpt lat="43.85022" lon="6.69937">
        <ele>1247.427</ele>
        <time>2014-10-04T10:24:22Z</time>
      </trkpt>
      <trkpt lat="43.85022" lon="6.69944">
        <ele>1247.124</ele>
        <time>2014-10-04T10:24:28Z</time>
      </trkpt>
      <trkpt lat="43.85021" lon="6.69953">
        <ele>1248.816</ele>
        <time>2014-10-04T10:24:38Z</time>
      </trkpt>
      <trkpt lat="43.85021" lon="6.69955">
        <ele>1248.735</ele>
        <time>2014-10-04T10:24:39Z</time>
      </trkpt>
      <trkpt lat="43.85023" lon="6.69964">
        <ele>1249.038</ele>
        <time>2014-10-04T10:24:49Z</time>
      </trkpt>
      <trkpt lat="43.85024" lon="6.69971">
        <ele>1249.596</ele>
        <time>2014-10-04T10:24:56Z</time>
      </trkpt>
      <trkpt lat="43.85023" lon="6.69978">
        <ele>1251.407</ele>
        <time>2014-10-04T10:25:04Z</time>
      </trkpt>
      <trkpt lat="43.85024" lon="6.69985">
        <ele>1252.358</ele>
        <time>2014-10-04T10:25:12Z</time>
      </trkpt>
      <trkpt lat="43.85023" lon="6.69992">
        <ele>1253.818</ele>
        <time>2014-10-04T10:25:19Z</time>
      </trkpt>
      <trkpt lat="43.85022" lon="6.69996">
        <ele>1255.158</ele>
        <time>2014-10-04T10:25:24Z</time>
      </trkpt>
      <trkpt lat="43.85022" lon="6.70003">
        <ele>1256.665</ele>
        <time>2014-10-04T10:25:31Z</time>
      </trkpt>
      <trkpt lat="43.85023" lon="6.70011">
        <ele>1257.986</ele>
        <time>2014-10-04T10:25:39Z</time>
      </trkpt>
      <trkpt lat="43.85025" lon="6.70021">
        <ele>1258.757</ele>
        <time>2014-10-04T10:25:49Z</time>
      </trkpt>
      <trkpt lat="43.85027" lon="6.70028">
        <ele>1259.537</ele>
        <time>2014-10-04T10:25:56Z</time>
      </trkpt>
      <trkpt lat="43.85028" lon="6.70033">
        <ele>1261.21</ele>
        <time>2014-10-04T10:26:02Z</time>
      </trkpt>
      <trkpt lat="43.8503" lon="6.70039">
        <ele>1261.467</ele>
        <time>2014-10-04T10:26:07Z</time>
      </trkpt>
      <trkpt lat="43.85031" lon="6.70044">
        <ele>1262.298</ele>
        <time>2014-10-04T10:26:12Z</time>
      </trkpt>
      <trkpt lat="43.85034" lon="6.70057">
        <ele>1264.409</ele>
        <time>2014-10-04T10:26:24Z</time>
      </trkpt>
      <trkpt lat="43.85035" lon="6.70065">
        <ele>1265.689</ele>
        <time>2014-10-04T10:26:31Z</time>
      </trkpt>
      <trkpt lat="43.85036" lon="6.70073">
        <ele>1267.421</ele>
        <time>2014-10-04T10:26:39Z</time>
      </trkpt>
      <trkpt lat="43.85036" lon="6.70081">
        <ele>1269.101</ele>
        <time>2014-10-04T10:26:47Z</time>
      </trkpt>
      <trkpt lat="43.85036" lon="6.70094">
        <ele>1271.311</ele>
        <time>2014-10-04T10:26:58Z</time>
      </trkpt>
      <trkpt lat="43.85037" lon="6.70101">
        <ele>1272.77</ele>
        <time>2014-10-04T10:27:05Z</time>
      </trkpt>
      <trkpt lat="43.85038" lon="6.7011">
        <ele>1274.139</ele>
        <time>2014-10-04T10:27:13Z</time>
      </trkpt>
      <trkpt lat="43.8504" lon="6.7012">
        <ele>1275.74</ele>
        <time>2014-10-04T10:27:23Z</time>
      </trkpt>
      <trkpt lat="43.85042" lon="6.70127">
        <ele>1276.988</ele>
        <time>2014-10-04T10:27:31Z</time>
      </trkpt>
      <trkpt lat="43.85043" lon="6.70135">
        <ele>1279.02</ele>
        <time>2014-10-04T10:27:39Z</time>
      </trkpt>
      <trkpt lat="43.85045" lon="6.70144">
        <ele>1280.398</ele>
        <time>2014-10-04T10:27:49Z</time>
      </trkpt>
      <trkpt lat="43.85045" lon="6.70154">
        <ele>1283.348</ele>
        <time>2014-10-04T10:28:00Z</time>
      </trkpt>
      <trkpt lat="43.85046" lon="6.70164">
        <ele>1284.911</ele>
        <time>2014-10-04T10:28:10Z</time>
      </trkpt>
      <trkpt lat="43.85046" lon="6.70173">
        <ele>1287.17</ele>
        <time>2014-10-04T10:28:20Z</time>
      </trkpt>
      <trkpt lat="43.85046" lon="6.70181">
        <ele>1289.389</ele>
        <time>2014-10-04T10:28:28Z</time>
      </trkpt>
      <trkpt lat="43.85047" lon="6.70189">
        <ele>1291.177</ele>
        <time>2014-10-04T10:28:37Z</time>
      </trkpt>
      <trkpt lat="43.85049" lon="6.70197">
        <ele>1292.421</ele>
        <time>2014-10-04T10:28:44Z</time>
      </trkpt>
      <trkpt lat="43.85049" lon="6.70202">
        <ele>1294.061</ele>
        <time>2014-10-04T10:28:50Z</time>
      </trkpt>
      <trkpt lat="43.85049" lon="6.70208">
        <ele>1295.941</ele>
        <time>2014-10-04T10:28:58Z</time>
      </trkpt>
      <trkpt lat="43.85049" lon="6.70211">
        <ele>1294.995</ele>
        <time>2014-10-04T10:29:04Z</time>
      </trkpt>
      <trkpt lat="43.8505" lon="6.70214">
        <ele>1295.966</ele>
        <time>2014-10-04T10:29:23Z</time>
      </trkpt>
      <trkpt lat="43.85051" lon="6.70221">
        <ele>1296.72</ele>
        <time>2014-10-04T10:29:31Z</time>
      </trkpt>
      <trkpt lat="43.85049" lon="6.70235">
        <ele>1296.619</ele>
        <time>2014-10-04T10:29:37Z</time>
      </trkpt>
      <trkpt lat="43.85049" lon="6.70247">
        <ele>1296.641</ele>
        <time>2014-10-04T10:29:42Z</time>
      </trkpt>
      <trkpt lat="43.85052" lon="6.70267">
        <ele>1297.785</ele>
        <time>2014-10-04T10:29:50Z</time>
      </trkpt>
      <trkpt lat="43.85054" lon="6.70277">
        <ele>1298.653</ele>
        <time>2014-10-04T10:29:54Z</time>
      </trkpt>
      <trkpt lat="43.85053" lon="6.70281">
        <ele>1300.061</ele>
        <time>2014-10-04T10:30:00Z</time>
      </trkpt>
      <trkpt lat="43.85042" lon="6.70277">
        <ele>1294.676</ele>
        <time>2014-10-04T10:31:33Z</time>
      </trkpt>
      <trkpt lat="43.85051" lon="6.70281">
        <ele>1302.559</ele>
        <time>2014-10-04T10:33:02Z</time>
      </trkpt>
      <trkpt lat="43.85042" lon="6.70275">
        <ele>1304.229</ele>
        <time>2014-10-04T10:53:21Z</time>
      </trkpt>
      <trkpt lat="43.85045" lon="6.70281">
        <ele>1303.546</ele>
        <time>2014-10-04T10:53:27Z</time>
      </trkpt>
      <trkpt lat="43.85049" lon="6.70286">
        <ele>1299.563</ele>
        <time>2014-10-04T10:53:43Z</time>
      </trkpt>
      <trkpt lat="43.85051" lon="6.7029">
        <ele>1298.528</ele>
        <time>2014-10-04T10:54:04Z</time>
      </trkpt>
      <trkpt lat="43.85048" lon="6.70299">
        <ele>1298.842</ele>
        <time>2014-10-04T10:54:11Z</time>
      </trkpt>
      <trkpt lat="43.85048" lon="6.70315">
        <ele>1300.448</ele>
        <time>2014-10-04T10:54:17Z</time>
      </trkpt>
      <trkpt lat="43.85048" lon="6.7032">
        <ele>1301.267</ele>
        <time>2014-10-04T10:54:19Z</time>
      </trkpt>
      <trkpt lat="43.85045" lon="6.70332">
        <ele>1301.835</ele>
        <time>2014-10-04T10:54:25Z</time>
      </trkpt>
      <trkpt lat="43.85043" lon="6.70342">
        <ele>1301.629</ele>
        <time>2014-10-04T10:54:31Z</time>
      </trkpt>
      <trkpt lat="43.85041" lon="6.7035">
        <ele>1301.507</ele>
        <time>2014-10-04T10:54:37Z</time>
      </trkpt>
      <trkpt lat="43.85039" lon="6.70359">
        <ele>1301.898</ele>
        <time>2014-10-04T10:54:44Z</time>
      </trkpt>
      <trkpt lat="43.85038" lon="6.70362">
        <ele>1303.402</ele>
        <time>2014-10-04T10:54:49Z</time>
      </trkpt>
      <trkpt lat="43.85037" lon="6.70366">
        <ele>1302.897</ele>
        <time>2014-10-04T10:55:08Z</time>
      </trkpt>
      <trkpt lat="43.85037" lon="6.70368">
        <ele>1304.05</ele>
        <time>2014-10-04T10:55:14Z</time>
      </trkpt>
      <trkpt lat="43.85036" lon="6.70372">
        <ele>1304.519</ele>
        <time>2014-10-04T10:55:22Z</time>
      </trkpt>
      <trkpt lat="43.85036" lon="6.70374">
        <ele>1306.841</ele>
        <time>2014-10-04T10:55:29Z</time>
      </trkpt>
      <trkpt lat="43.85032" lon="6.70381">
        <ele>1309.57</ele>
        <time>2014-10-04T10:55:37Z</time>
      </trkpt>
      <trkpt lat="43.85033" lon="6.70395">
        <ele>1311.245</ele>
        <time>2014-10-04T10:55:43Z</time>
      </trkpt>
      <trkpt lat="43.85033" lon="6.70397">
        <ele>1311.755</ele>
        <time>2014-10-04T10:55:44Z</time>
      </trkpt>
      <trkpt lat="43.85034" lon="6.70409">
        <ele>1315.135</ele>
        <time>2014-10-04T10:55:51Z</time>
      </trkpt>
      <trkpt lat="43.85034" lon="6.70421">
        <ele>1316.094</ele>
        <time>2014-10-04T10:55:58Z</time>
      </trkpt>
      <trkpt lat="43.85033" lon="6.70429">
        <ele>1317.985</ele>
        <time>2014-10-04T10:56:03Z</time>
      </trkpt>
      <trkpt lat="43.85032" lon="6.70431">
        <ele>1319.246</ele>
        <time>2014-10-04T10:56:05Z</time>
      </trkpt>
      <trkpt lat="43.8503" lon="6.7044">
        <ele>1318.102</ele>
        <time>2014-10-04T10:56:12Z</time>
      </trkpt>
      <trkpt lat="43.85029" lon="6.7045">
        <ele>1318.724</ele>
        <time>2014-10-04T10:56:18Z</time>
      </trkpt>
      <trkpt lat="43.85027" lon="6.70457">
        <ele>1318.991</ele>
        <time>2014-10-04T10:56:23Z</time>
      </trkpt>
      <trkpt lat="43.85027" lon="6.70459">
        <ele>1315.813</ele>
        <time>2014-10-04T10:56:41Z</time>
      </trkpt>
      <trkpt lat="43.85024" lon="6.70459">
        <ele>1312.967</ele>
        <time>2014-10-04T11:01:42Z</time>
      </trkpt>
      <trkpt lat="43.85019" lon="6.70457">
        <ele>1314.179</ele>
        <time>2014-10-04T11:03:26Z</time>
      </trkpt>
      <trkpt lat="43.85017" lon="6.70445">
        <ele>1313.676</ele>
        <time>2014-10-04T11:03:31Z</time>
      </trkpt>
      <trkpt lat="43.85009" lon="6.70411">
        <ele>1311.376</ele>
        <time>2014-10-04T11:03:37Z</time>
      </trkpt>
      <trkpt lat="43.85003" lon="6.70399">
        <ele>1311.484</ele>
        <time>2014-10-04T11:03:41Z</time>
      </trkpt>
      <trkpt lat="43.85001" lon="6.70386">
        <ele>1311.745</ele>
        <time>2014-10-04T11:03:46Z</time>
      </trkpt>
      <trkpt lat="43.85001" lon="6.70362">
        <ele>1308.478</ele>
        <time>2014-10-04T11:03:53Z</time>
      </trkpt>
      <trkpt lat="43.85001" lon="6.70348">
        <ele>1309.319</ele>
        <time>2014-10-04T11:03:55Z</time>
      </trkpt>
      <trkpt lat="43.84999" lon="6.70332">
        <ele>1307.386</ele>
        <time>2014-10-04T11:03:57Z</time>
      </trkpt>
      <trkpt lat="43.84997" lon="6.70317">
        <ele>1305.874</ele>
        <time>2014-10-04T11:03:59Z</time>
      </trkpt>
      <trkpt lat="43.84997" lon="6.70302">
        <ele>1307.376</ele>
        <time>2014-10-04T11:04:01Z</time>
      </trkpt>
      <trkpt lat="43.8499" lon="6.70263">
        <ele>1302.303</ele>
        <time>2014-10-04T11:04:06Z</time>
      </trkpt>
      <trkpt lat="43.84985" lon="6.7024">
        <ele>1299.831</ele>
        <time>2014-10-04T11:04:09Z</time>
      </trkpt>
      <trkpt lat="43.8498" lon="6.70183">
        <ele>1290.358</ele>
        <time>2014-10-04T11:04:15Z</time>
      </trkpt>
      <trkpt lat="43.84977" lon="6.70145">
        <ele>1285.928</ele>
        <time>2014-10-04T11:04:19Z</time>
      </trkpt>
      <trkpt lat="43.8498" lon="6.70113">
        <ele>1280.936</ele>
        <time>2014-10-04T11:04:23Z</time>
      </trkpt>
      <trkpt lat="43.84982" lon="6.70086">
        <ele>1275.896</ele>
        <time>2014-10-04T11:04:27Z</time>
      </trkpt>
      <trkpt lat="43.84975" lon="6.70056">
        <ele>1270.023</ele>
        <time>2014-10-04T11:04:32Z</time>
      </trkpt>
      <trkpt lat="43.8497" lon="6.7003">
        <ele>1262.807</ele>
        <time>2014-10-04T11:04:37Z</time>
      </trkpt>
      <trkpt lat="43.84962" lon="6.69991">
        <ele>1257.779</ele>
        <time>2014-10-04T11:04:42Z</time>
      </trkpt>
      <trkpt lat="43.84961" lon="6.69983">
        <ele>1256.029</ele>
        <time>2014-10-04T11:04:43Z</time>
      </trkpt>
      <trkpt lat="43.84948" lon="6.69953">
        <ele>1250.369</ele>
        <time>2014-10-04T11:04:47Z</time>
      </trkpt>
      <trkpt lat="43.84944" lon="6.69916">
        <ele>1246.521</ele>
        <time>2014-10-04T11:04:52Z</time>
      </trkpt>
      <trkpt lat="43.84944" lon="6.69907">
        <ele>1245.661</ele>
        <time>2014-10-04T11:04:53Z</time>
      </trkpt>
      <trkpt lat="43.84942" lon="6.6988">
        <ele>1241.277</ele>
        <time>2014-10-04T11:04:56Z</time>
      </trkpt>
      <trkpt lat="43.84943" lon="6.69866">
        <ele>1238.73</ele>
        <time>2014-10-04T11:04:58Z</time>
      </trkpt>
      <trkpt lat="43.84943" lon="6.69843">
        <ele>1234.257</ele>
        <time>2014-10-04T11:05:02Z</time>
      </trkpt>
      <trkpt lat="43.84945" lon="6.69838">
        <ele>1233.148</ele>
        <time>2014-10-04T11:05:03Z</time>
      </trkpt>
      <trkpt lat="43.84946" lon="6.69801">
        <ele>1227.628</ele>
        <time>2014-10-04T11:05:09Z</time>
      </trkpt>
      <trkpt lat="43.84944" lon="6.69792">
        <ele>1226.86</ele>
        <time>2014-10-04T11:05:10Z</time>
      </trkpt>
      <trkpt lat="43.84938" lon="6.69758">
        <ele>1223.516</ele>
        <time>2014-10-04T11:05:15Z</time>
      </trkpt>
      <trkpt lat="43.84943" lon="6.6975">
        <ele>1221.639</ele>
        <time>2014-10-04T11:05:18Z</time>
      </trkpt>
      <trkpt lat="43.84943" lon="6.69729">
        <ele>1218.319</ele>
        <time>2014-10-04T11:05:22Z</time>
      </trkpt>
      <trkpt lat="43.84946" lon="6.69706">
        <ele>1215.844</ele>
        <time>2014-10-04T11:05:25Z</time>
      </trkpt>
      <trkpt lat="43.8494" lon="6.6968">
        <ele>1211.096</ele>
        <time>2014-10-04T11:05:28Z</time>
      </trkpt>
      <trkpt lat="43.84932" lon="6.69639">
        <ele>1205.784</ele>
        <time>2014-10-04T11:05:33Z</time>
      </trkpt>
      <trkpt lat="43.84932" lon="6.69623">
        <ele>1202.235</ele>
        <time>2014-10-04T11:05:36Z</time>
      </trkpt>
      <trkpt lat="43.84935" lon="6.69593">
        <ele>1198.768</ele>
        <time>2014-10-04T11:05:40Z</time>
      </trkpt>
      <trkpt lat="43.84937" lon="6.69554">
        <ele>1194.338</ele>
        <time>2014-10-04T11:05:45Z</time>
      </trkpt>
      <trkpt lat="43.84934" lon="6.6953">
        <ele>1190.186</ele>
        <time>2014-10-04T11:05:48Z</time>
      </trkpt>
      <trkpt lat="43.84932" lon="6.69486">
        <ele>1184.611</ele>
        <time>2014-10-04T11:05:54Z</time>
      </trkpt>
      <trkpt lat="43.84928" lon="6.69472">
        <ele>1183.042</ele>
        <time>2014-10-04T11:05:56Z</time>
      </trkpt>
      <trkpt lat="43.84921" lon="6.69425">
        <ele>1180.857</ele>
        <time>2014-10-04T11:06:02Z</time>
      </trkpt>
      <trkpt lat="43.8492" lon="6.69391">
        <ele>1179.209</ele>
        <time>2014-10-04T11:06:06Z</time>
      </trkpt>
      <trkpt lat="43.84924" lon="6.69362">
        <ele>1177.87</ele>
        <time>2014-10-04T11:06:09Z</time>
      </trkpt>
      <trkpt lat="43.84925" lon="6.69323">
        <ele>1177.766</ele>
        <time>2014-10-04T11:06:13Z</time>
      </trkpt>
      <trkpt lat="43.84925" lon="6.69291">
        <ele>1177.287</ele>
        <time>2014-10-04T11:06:17Z</time>
      </trkpt>
      <trkpt lat="43.84925" lon="6.69283">
        <ele>1176.667</ele>
        <time>2014-10-04T11:06:18Z</time>
      </trkpt>
      <trkpt lat="43.84925" lon="6.69265">
        <ele>1174.333</ele>
        <time>2014-10-04T11:06:20Z</time>
      </trkpt>
      <trkpt lat="43.84924" lon="6.69247">
        <ele>1172.132</ele>
        <time>2014-10-04T11:06:22Z</time>
      </trkpt>
      <trkpt lat="43.84925" lon="6.6922">
        <ele>1170.066</ele>
        <time>2014-10-04T11:06:25Z</time>
      </trkpt>
      <trkpt lat="43.8492" lon="6.69181">
        <ele>1167.869</ele>
        <time>2014-10-04T11:06:29Z</time>
      </trkpt>
      <trkpt lat="43.84914" lon="6.69152">
        <ele>1166.412</ele>
        <time>2014-10-04T11:06:32Z</time>
      </trkpt>
      <trkpt lat="43.84914" lon="6.69133">
        <ele>1164.579</ele>
        <time>2014-10-04T11:06:34Z</time>
      </trkpt>
      <trkpt lat="43.84917" lon="6.69114">
        <ele>1164.234</ele>
        <time>2014-10-04T11:06:36Z</time>
      </trkpt>
      <trkpt lat="43.84919" lon="6.69072">
        <ele>1163.191</ele>
        <time>2014-10-04T11:06:41Z</time>
      </trkpt>
      <trkpt lat="43.84909" lon="6.69038">
        <ele>1158.528</ele>
        <time>2014-10-04T11:06:45Z</time>
      </trkpt>
      <trkpt lat="43.84903" lon="6.6902">
        <ele>1157.68</ele>
        <time>2014-10-04T11:06:47Z</time>
      </trkpt>
      <trkpt lat="43.84897" lon="6.68995">
        <ele>1158.175</ele>
        <time>2014-10-04T11:06:50Z</time>
      </trkpt>
      <trkpt lat="43.84891" lon="6.68956">
        <ele>1157.533</ele>
        <time>2014-10-04T11:06:54Z</time>
      </trkpt>
      <trkpt lat="43.84887" lon="6.68937">
        <ele>1156.582</ele>
        <time>2014-10-04T11:06:56Z</time>
      </trkpt>
      <trkpt lat="43.84884" lon="6.68901">
        <ele>1155.965</ele>
        <time>2014-10-04T11:07:01Z</time>
      </trkpt>
      <trkpt lat="43.84891" lon="6.68887">
        <ele>1155.666</ele>
        <time>2014-10-04T11:07:04Z</time>
      </trkpt>
      <trkpt lat="43.84894" lon="6.68881">
        <ele>1154.512</ele>
        <time>2014-10-04T11:07:05Z</time>
      </trkpt>
      <trkpt lat="43.84899" lon="6.68869">
        <ele>1154.927</ele>
        <time>2014-10-04T11:07:07Z</time>
      </trkpt>
      <trkpt lat="43.84904" lon="6.68847">
        <ele>1155.859</ele>
        <time>2014-10-04T11:07:10Z</time>
      </trkpt>
      <trkpt lat="43.84906" lon="6.68811">
        <ele>1157.052</ele>
        <time>2014-10-04T11:07:15Z</time>
      </trkpt>
      <trkpt lat="43.849" lon="6.6876">
        <ele>1154.377</ele>
        <time>2014-10-04T11:07:21Z</time>
      </trkpt>
      <trkpt lat="43.84902" lon="6.68724">
        <ele>1151.164</ele>
        <time>2014-10-04T11:07:25Z</time>
      </trkpt>
      <trkpt lat="43.84906" lon="6.68695">
        <ele>1151.525</ele>
        <time>2014-10-04T11:07:28Z</time>
      </trkpt>
      <trkpt lat="43.84908" lon="6.68662">
        <ele>1145.255</ele>
        <time>2014-10-04T11:07:31Z</time>
      </trkpt>
      <trkpt lat="43.84917" lon="6.6862">
        <ele>1143.318</ele>
        <time>2014-10-04T11:07:36Z</time>
      </trkpt>
      <trkpt lat="43.84922" lon="6.68585">
        <ele>1142.64</ele>
        <time>2014-10-04T11:07:40Z</time>
      </trkpt>
      <trkpt lat="43.84921" lon="6.6856">
        <ele>1141.85</ele>
        <time>2014-10-04T11:07:43Z</time>
      </trkpt>
      <trkpt lat="43.84918" lon="6.68512">
        <ele>1131.374</ele>
        <time>2014-10-04T11:07:48Z</time>
      </trkpt>
      <trkpt lat="43.8492" lon="6.68485">
        <ele>1132.281</ele>
        <time>2014-10-04T11:07:51Z</time>
      </trkpt>
      <trkpt lat="43.84914" lon="6.68439">
        <ele>1127.68</ele>
        <time>2014-10-04T11:07:56Z</time>
      </trkpt>
      <trkpt lat="43.84913" lon="6.6843">
        <ele>1127.291</ele>
        <time>2014-10-04T11:07:57Z</time>
      </trkpt>
      <trkpt lat="43.84909" lon="6.68385">
        <ele>1126.582</ele>
        <time>2014-10-04T11:08:03Z</time>
      </trkpt>
      <trkpt lat="43.84905" lon="6.68352">
        <ele>1125.665</ele>
        <time>2014-10-04T11:08:07Z</time>
      </trkpt>
      <trkpt lat="43.84908" lon="6.68327">
        <ele>1126.308</ele>
        <time>2014-10-04T11:08:10Z</time>
      </trkpt>
      <trkpt lat="43.84912" lon="6.6831">
        <ele>1125.789</ele>
        <time>2014-10-04T11:08:12Z</time>
      </trkpt>
      <trkpt lat="43.84922" lon="6.6825">
        <ele>1124.448</ele>
        <time>2014-10-04T11:08:19Z</time>
      </trkpt>
      <trkpt lat="43.84925" lon="6.68233">
        <ele>1124.246</ele>
        <time>2014-10-04T11:08:21Z</time>
      </trkpt>
      <trkpt lat="43.84933" lon="6.68198">
        <ele>1124.717</ele>
        <time>2014-10-04T11:08:25Z</time>
      </trkpt>
      <trkpt lat="43.84944" lon="6.68167">
        <ele>1123.034</ele>
        <time>2014-10-04T11:08:29Z</time>
      </trkpt>
      <trkpt lat="43.84953" lon="6.68103">
        <ele>1124.055</ele>
        <time>2014-10-04T11:08:37Z</time>
      </trkpt>
      <trkpt lat="43.84961" lon="6.68056">
        <ele>1125.289</ele>
        <time>2014-10-04T11:08:43Z</time>
      </trkpt>
      <trkpt lat="43.84966" lon="6.68009">
        <ele>1126.171</ele>
        <time>2014-10-04T11:08:49Z</time>
      </trkpt>
      <trkpt lat="43.84973" lon="6.67977">
        <ele>1125.123</ele>
        <time>2014-10-04T11:08:54Z</time>
      </trkpt>
      <trkpt lat="43.84976" lon="6.67925">
        <ele>1123.227</ele>
        <time>2014-10-04T11:09:01Z</time>
      </trkpt>
      <trkpt lat="43.84975" lon="6.67911">
        <ele>1120.134</ele>
        <time>2014-10-04T11:09:03Z</time>
      </trkpt>
      <trkpt lat="43.84969" lon="6.67889">
        <ele>1116.094</ele>
        <time>2014-10-04T11:09:06Z</time>
      </trkpt>
      <trkpt lat="43.8497" lon="6.67857">
        <ele>1115.769</ele>
        <time>2014-10-04T11:09:11Z</time>
      </trkpt>
      <trkpt lat="43.84972" lon="6.67846">
        <ele>1117.062</ele>
        <time>2014-10-04T11:09:13Z</time>
      </trkpt>
      <trkpt lat="43.84976" lon="6.67816">
        <ele>1119.66</ele>
        <time>2014-10-04T11:09:20Z</time>
      </trkpt>
      <trkpt lat="43.84977" lon="6.67803">
        <ele>1123.629</ele>
        <time>2014-10-04T11:09:26Z</time>
      </trkpt>
      <trkpt lat="43.8498" lon="6.67802">
        <ele>1126.334</ele>
        <time>2014-10-04T11:09:32Z</time>
      </trkpt>
      <trkpt lat="43.84988" lon="6.67795">
        <ele>1108.084</ele>
        <time>2014-10-04T11:10:22Z</time>
      </trkpt>
      <trkpt lat="43.84989" lon="6.67778">
        <ele>1111.23</ele>
        <time>2014-10-04T11:10:27Z</time>
      </trkpt>
      <trkpt lat="43.84988" lon="6.67755">
        <ele>1114.404</ele>
        <time>2014-10-04T11:10:33Z</time>
      </trkpt>
      <trkpt lat="43.84987" lon="6.67738">
        <ele>1119.001</ele>
        <time>2014-10-04T11:10:38Z</time>
      </trkpt>
      <trkpt lat="43.84986" lon="6.67727">
        <ele>1122.173</ele>
        <time>2014-10-04T11:10:42Z</time>
      </trkpt>
      <trkpt lat="43.84985" lon="6.67712">
        <ele>1123.98</ele>
        <time>2014-10-04T11:10:49Z</time>
      </trkpt>
      <trkpt lat="43.84986" lon="6.67709">
        <ele>1125.332</ele>
        <time>2014-10-04T11:10:51Z</time>
      </trkpt>
      <trkpt lat="43.84987" lon="6.67693">
        <ele>1127.723</ele>
        <time>2014-10-04T11:10:58Z</time>
      </trkpt>
      <trkpt lat="43.84988" lon="6.67677">
        <ele>1134.558</ele>
        <time>2014-10-04T11:11:05Z</time>
      </trkpt>
      <trkpt lat="43.84986" lon="6.67664">
        <ele>1142.303</ele>
        <time>2014-10-04T11:11:11Z</time>
      </trkpt>
      <trkpt lat="43.84986" lon="6.67649">
        <ele>1143.354</ele>
        <time>2014-10-04T11:11:18Z</time>
      </trkpt>
      <trkpt lat="43.84988" lon="6.67633">
        <ele>1149.748</ele>
        <time>2014-10-04T11:11:25Z</time>
      </trkpt>
      <trkpt lat="43.8499" lon="6.67624">
        <ele>1151.6</ele>
        <time>2014-10-04T11:11:28Z</time>
      </trkpt>
      <trkpt lat="43.84992" lon="6.67603">
        <ele>1148.078</ele>
        <time>2014-10-04T11:11:35Z</time>
      </trkpt>
      <trkpt lat="43.84995" lon="6.67588">
        <ele>1143.309</ele>
        <time>2014-10-04T11:11:39Z</time>
      </trkpt>
      <trkpt lat="43.85001" lon="6.67556">
        <ele>1137.845</ele>
        <time>2014-10-04T11:11:48Z</time>
      </trkpt>
      <trkpt lat="43.85003" lon="6.67543">
        <ele>1138.38</ele>
        <time>2014-10-04T11:11:53Z</time>
      </trkpt>
      <trkpt lat="43.85005" lon="6.67528">
        <ele>1138.714</ele>
        <time>2014-10-04T11:11:59Z</time>
      </trkpt>
      <trkpt lat="43.85006" lon="6.67513">
        <ele>1140.475</ele>
        <time>2014-10-04T11:12:06Z</time>
      </trkpt>
      <trkpt lat="43.85011" lon="6.67486">
        <ele>1145.386</ele>
        <time>2014-10-04T11:12:17Z</time>
      </trkpt>
      <trkpt lat="43.85013" lon="6.67468">
        <ele>1145.433</ele>
        <time>2014-10-04T11:12:25Z</time>
      </trkpt>
      <trkpt lat="43.85016" lon="6.67449">
        <ele>1145.782</ele>
        <time>2014-10-04T11:12:32Z</time>
      </trkpt>
      <trkpt lat="43.85023" lon="6.67428">
        <ele>1147.021</ele>
        <time>2014-10-04T11:12:40Z</time>
      </trkpt>
      <trkpt lat="43.85026" lon="6.67409">
        <ele>1148.634</ele>
        <time>2014-10-04T11:12:47Z</time>
      </trkpt>
      <trkpt lat="43.8503" lon="6.6739">
        <ele>1148.182</ele>
        <time>2014-10-04T11:12:54Z</time>
      </trkpt>
      <trkpt lat="43.85034" lon="6.67372">
        <ele>1147.757</ele>
        <time>2014-10-04T11:13:01Z</time>
      </trkpt>
      <trkpt lat="43.85043" lon="6.6734">
        <ele>1143.779</ele>
        <time>2014-10-04T11:13:11Z</time>
      </trkpt>
      <trkpt lat="43.85048" lon="6.67323">
        <ele>1145.029</ele>
        <time>2014-10-04T11:13:17Z</time>
      </trkpt>
      <trkpt lat="43.85051" lon="6.67306">
        <ele>1147.484</ele>
        <time>2014-10-04T11:13:24Z</time>
      </trkpt>
      <trkpt lat="43.85053" lon="6.67289">
        <ele>1149.009</ele>
        <time>2014-10-04T11:13:31Z</time>
      </trkpt>
      <trkpt lat="43.85056" lon="6.67265">
        <ele>1151.232</ele>
        <time>2014-10-04T11:13:40Z</time>
      </trkpt>
      <trkpt lat="43.85057" lon="6.67249">
        <ele>1146.63</ele>
        <time>2014-10-04T11:13:47Z</time>
      </trkpt>
      <trkpt lat="43.85059" lon="6.67234">
        <ele>1148.004</ele>
        <time>2014-10-04T11:13:54Z</time>
      </trkpt>
      <trkpt lat="43.85059" lon="6.6722">
        <ele>1150.292</ele>
        <time>2014-10-04T11:14:00Z</time>
      </trkpt>
      <trkpt lat="43.85059" lon="6.67211">
        <ele>1151.321</ele>
        <time>2014-10-04T11:14:03Z</time>
      </trkpt>
      <trkpt lat="43.85058" lon="6.67206">
        <ele>1150.198</ele>
        <time>2014-10-04T11:14:07Z</time>
      </trkpt>
      <trkpt lat="43.8506" lon="6.67198">
        <ele>1148.177</ele>
        <time>2014-10-04T11:14:11Z</time>
      </trkpt>
      <trkpt lat="43.85062" lon="6.67183">
        <ele>1148.777</ele>
        <time>2014-10-04T11:14:16Z</time>
      </trkpt>
      <trkpt lat="43.8506" lon="6.67162">
        <ele>1147.125</ele>
        <time>2014-10-04T11:14:23Z</time>
      </trkpt>
      <trkpt lat="43.85055" lon="6.67149">
        <ele>1145.91</ele>
        <time>2014-10-04T11:14:28Z</time>
      </trkpt>
      <trkpt lat="43.85045" lon="6.67133">
        <ele>1145.562</ele>
        <time>2014-10-04T11:14:35Z</time>
      </trkpt>
      <trkpt lat="43.85035" lon="6.67112">
        <ele>1145.373</ele>
        <time>2014-10-04T11:14:42Z</time>
      </trkpt>
      <trkpt lat="43.85024" lon="6.67109">
        <ele>1145.194</ele>
        <time>2014-10-04T11:14:48Z</time>
      </trkpt>
      <trkpt lat="43.85012" lon="6.6711">
        <ele>1143.274</ele>
        <time>2014-10-04T11:14:53Z</time>
      </trkpt>
      <trkpt lat="43.8501" lon="6.67104">
        <ele>1143.049</ele>
        <time>2014-10-04T11:14:56Z</time>
      </trkpt>
      <trkpt lat="43.8501" lon="6.67101">
        <ele>1143.12</ele>
        <time>2014-10-04T11:14:57Z</time>
      </trkpt>
      <trkpt lat="43.85007" lon="6.67081">
        <ele>1145.017</ele>
        <time>2014-10-04T11:15:04Z</time>
      </trkpt>
      <trkpt lat="43.85005" lon="6.67063">
        <ele>1148.253</ele>
        <time>2014-10-04T11:15:11Z</time>
      </trkpt>
      <trkpt lat="43.85009" lon="6.67043">
        <ele>1150.171</ele>
        <time>2014-10-04T11:15:18Z</time>
      </trkpt>
      <trkpt lat="43.85015" lon="6.67021">
        <ele>1152.272</ele>
        <time>2014-10-04T11:15:26Z</time>
      </trkpt>
      <trkpt lat="43.85022" lon="6.67001">
        <ele>1155.182</ele>
        <time>2014-10-04T11:15:34Z</time>
      </trkpt>
      <trkpt lat="43.85031" lon="6.66982">
        <ele>1155.789</ele>
        <time>2014-10-04T11:15:42Z</time>
      </trkpt>
      <trkpt lat="43.85038" lon="6.66959">
        <ele>1157.723</ele>
        <time>2014-10-04T11:15:50Z</time>
      </trkpt>
      <trkpt lat="43.85046" lon="6.66933">
        <ele>1159.844</ele>
        <time>2014-10-04T11:15:58Z</time>
      </trkpt>
      <trkpt lat="43.85055" lon="6.66907">
        <ele>1162.288</ele>
        <time>2014-10-04T11:16:06Z</time>
      </trkpt>
      <trkpt lat="43.85063" lon="6.66892">
        <ele>1162.752</ele>
        <time>2014-10-04T11:16:11Z</time>
      </trkpt>
      <trkpt lat="43.8507" lon="6.66872">
        <ele>1164.879</ele>
        <time>2014-10-04T11:16:18Z</time>
      </trkpt>
      <trkpt lat="43.85076" lon="6.66843">
        <ele>1164.999</ele>
        <time>2014-10-04T11:16:27Z</time>
      </trkpt>
      <trkpt lat="43.85082" lon="6.66808">
        <ele>1166.463</ele>
        <time>2014-10-04T11:16:37Z</time>
      </trkpt>
      <trkpt lat="43.8508" lon="6.66775">
        <ele>1168.714</ele>
        <time>2014-10-04T11:16:45Z</time>
      </trkpt>
      <trkpt lat="43.85082" lon="6.6675">
        <ele>1168.287</ele>
        <time>2014-10-04T11:16:51Z</time>
      </trkpt>
      <trkpt lat="43.85087" lon="6.6673">
        <ele>1169.511</ele>
        <time>2014-10-04T11:16:56Z</time>
      </trkpt>
      <trkpt lat="43.85096" lon="6.66698">
        <ele>1168.41</ele>
        <time>2014-10-04T11:17:04Z</time>
      </trkpt>
      <trkpt lat="43.85108" lon="6.66665">
        <ele>1167.87</ele>
        <time>2014-10-04T11:17:13Z</time>
      </trkpt>
      <trkpt lat="43.85119" lon="6.66634">
        <ele>1171.668</ele>
        <time>2014-10-04T11:17:22Z</time>
      </trkpt>
      <trkpt lat="43.85125" lon="6.66608">
        <ele>1174.911</ele>
        <time>2014-10-04T11:17:29Z</time>
      </trkpt>
      <trkpt lat="43.85134" lon="6.66581">
        <ele>1175.47</ele>
        <time>2014-10-04T11:17:36Z</time>
      </trkpt>
      <trkpt lat="43.85146" lon="6.66548">
        <ele>1174.75</ele>
        <time>2014-10-04T11:17:45Z</time>
      </trkpt>
      <trkpt lat="43.85158" lon="6.6652">
        <ele>1173.558</ele>
        <time>2014-10-04T11:17:53Z</time>
      </trkpt>
      <trkpt lat="43.85169" lon="6.66493">
        <ele>1172.99</ele>
        <time>2014-10-04T11:17:59Z</time>
      </trkpt>
      <trkpt lat="43.85181" lon="6.66455">
        <ele>1168.152</ele>
        <time>2014-10-04T11:18:04Z</time>
      </trkpt>
      <trkpt lat="43.85195" lon="6.66406">
        <ele>1163.375</ele>
        <time>2014-10-04T11:18:10Z</time>
      </trkpt>
      <trkpt lat="43.85208" lon="6.66381">
        <ele>1162.91</ele>
        <time>2014-10-04T11:18:14Z</time>
      </trkpt>
      <trkpt lat="43.85226" lon="6.66349">
        <ele>1161.742</ele>
        <time>2014-10-04T11:18:20Z</time>
      </trkpt>
      <trkpt lat="43.85237" lon="6.66321">
        <ele>1162.156</ele>
        <time>2014-10-04T11:18:26Z</time>
      </trkpt>
      <trkpt lat="43.85247" lon="6.66288">
        <ele>1161.721</ele>
        <time>2014-10-04T11:18:33Z</time>
      </trkpt>
      <trkpt lat="43.85256" lon="6.66258">
        <ele>1161.552</ele>
        <time>2014-10-04T11:18:39Z</time>
      </trkpt>
      <trkpt lat="43.85266" lon="6.6623">
        <ele>1163.136</ele>
        <time>2014-10-04T11:18:45Z</time>
      </trkpt>
      <trkpt lat="43.85276" lon="6.66201">
        <ele>1162.883</ele>
        <time>2014-10-04T11:18:51Z</time>
      </trkpt>
      <trkpt lat="43.85288" lon="6.66168">
        <ele>1160.188</ele>
        <time>2014-10-04T11:18:58Z</time>
      </trkpt>
      <trkpt lat="43.85297" lon="6.66142">
        <ele>1156.434</ele>
        <time>2014-10-04T11:19:04Z</time>
      </trkpt>
      <trkpt lat="43.85304" lon="6.66106">
        <ele>1153.643</ele>
        <time>2014-10-04T11:19:10Z</time>
      </trkpt>
      <trkpt lat="43.85309" lon="6.66079">
        <ele>1152.595</ele>
        <time>2014-10-04T11:19:14Z</time>
      </trkpt>
      <trkpt lat="43.85322" lon="6.66008">
        <ele>1151.08</ele>
        <time>2014-10-04T11:19:24Z</time>
      </trkpt>
      <trkpt lat="43.85331" lon="6.65968">
        <ele>1151.47</ele>
        <time>2014-10-04T11:19:29Z</time>
      </trkpt>
      <trkpt lat="43.85333" lon="6.65959">
        <ele>1151.197</ele>
        <time>2014-10-04T11:19:30Z</time>
      </trkpt>
      <trkpt lat="43.85356" lon="6.6592">
        <ele>1148.33</ele>
        <time>2014-10-04T11:19:35Z</time>
      </trkpt>
      <trkpt lat="43.85369" lon="6.65885">
        <ele>1146.623</ele>
        <time>2014-10-04T11:19:40Z</time>
      </trkpt>
      <trkpt lat="43.85378" lon="6.65865">
        <ele>1145.786</ele>
        <time>2014-10-04T11:19:43Z</time>
      </trkpt>
      <trkpt lat="43.85382" lon="6.6585">
        <ele>1145.871</ele>
        <time>2014-10-04T11:19:45Z</time>
      </trkpt>
      <trkpt lat="43.85399" lon="6.65827">
        <ele>1145.63</ele>
        <time>2014-10-04T11:19:50Z</time>
      </trkpt>
      <trkpt lat="43.85416" lon="6.65808">
        <ele>1144.959</ele>
        <time>2014-10-04T11:19:54Z</time>
      </trkpt>
      <trkpt lat="43.8542" lon="6.65794">
        <ele>1144.589</ele>
        <time>2014-10-04T11:19:56Z</time>
      </trkpt>
      <trkpt lat="43.85432" lon="6.65736">
        <ele>1144.464</ele>
        <time>2014-10-04T11:20:05Z</time>
      </trkpt>
      <trkpt lat="43.85441" lon="6.65711">
        <ele>1146.757</ele>
        <time>2014-10-04T11:20:10Z</time>
      </trkpt>
      <trkpt lat="43.85457" lon="6.65678">
        <ele>1145.791</ele>
        <time>2014-10-04T11:20:17Z</time>
      </trkpt>
      <trkpt lat="43.85468" lon="6.65644">
        <ele>1145.972</ele>
        <time>2014-10-04T11:20:25Z</time>
      </trkpt>
      <trkpt lat="43.85478" lon="6.6561">
        <ele>1147.663</ele>
        <time>2014-10-04T11:20:34Z</time>
      </trkpt>
      <trkpt lat="43.85485" lon="6.65583">
        <ele>1145.455</ele>
        <time>2014-10-04T11:20:40Z</time>
      </trkpt>
      <trkpt lat="43.85496" lon="6.65543">
        <ele>1142.389</ele>
        <time>2014-10-04T11:20:46Z</time>
      </trkpt>
      <trkpt lat="43.85501" lon="6.65528">
        <ele>1141.699</ele>
        <time>2014-10-04T11:20:48Z</time>
      </trkpt>
      <trkpt lat="43.85514" lon="6.65502">
        <ele>1140.453</ele>
        <time>2014-10-04T11:20:52Z</time>
      </trkpt>
      <trkpt lat="43.85533" lon="6.65477">
        <ele>1140.707</ele>
        <time>2014-10-04T11:20:57Z</time>
      </trkpt>
      <trkpt lat="43.8556" lon="6.65426">
        <ele>1142.92</ele>
        <time>2014-10-04T11:21:06Z</time>
      </trkpt>
      <trkpt lat="43.85571" lon="6.65403">
        <ele>1145.251</ele>
        <time>2014-10-04T11:21:11Z</time>
      </trkpt>
      <trkpt lat="43.85592" lon="6.65364">
        <ele>1146.869</ele>
        <time>2014-10-04T11:21:20Z</time>
      </trkpt>
      <trkpt lat="43.85609" lon="6.65326">
        <ele>1145.259</ele>
        <time>2014-10-04T11:21:28Z</time>
      </trkpt>
      <trkpt lat="43.85625" lon="6.65301">
        <ele>1145</ele>
        <time>2014-10-04T11:21:35Z</time>
      </trkpt>
      <trkpt lat="43.8564" lon="6.65288">
        <ele>1145.342</ele>
        <time>2014-10-04T11:21:40Z</time>
      </trkpt>
      <trkpt lat="43.85644" lon="6.65284">
        <ele>1145.381</ele>
        <time>2014-10-04T11:21:41Z</time>
      </trkpt>
      <trkpt lat="43.85666" lon="6.65248">
        <ele>1144.116</ele>
        <time>2014-10-04T11:21:48Z</time>
      </trkpt>
      <trkpt lat="43.85687" lon="6.6521">
        <ele>1143.014</ele>
        <time>2014-10-04T11:21:55Z</time>
      </trkpt>
      <trkpt lat="43.85705" lon="6.65172">
        <ele>1141.76</ele>
        <time>2014-10-04T11:22:01Z</time>
      </trkpt>
      <trkpt lat="43.85712" lon="6.65157">
        <ele>1140.667</ele>
        <time>2014-10-04T11:22:03Z</time>
      </trkpt>
      <trkpt lat="43.85719" lon="6.65143">
        <ele>1139.004</ele>
        <time>2014-10-04T11:22:05Z</time>
      </trkpt>
      <trkpt lat="43.85723" lon="6.65118">
        <ele>1135.14</ele>
        <time>2014-10-04T11:22:09Z</time>
      </trkpt>
      <trkpt lat="43.85722" lon="6.65107">
        <ele>1133.664</ele>
        <time>2014-10-04T11:22:11Z</time>
      </trkpt>
      <trkpt lat="43.85718" lon="6.6509">
        <ele>1132.949</ele>
        <time>2014-10-04T11:22:17Z</time>
      </trkpt>
      <trkpt lat="43.85716" lon="6.65078">
        <ele>1134.839</ele>
        <time>2014-10-04T11:22:23Z</time>
      </trkpt>
      <trkpt lat="43.85715" lon="6.65071">
        <ele>1134.663</ele>
        <time>2014-10-04T11:22:30Z</time>
      </trkpt>
      <trkpt lat="43.85714" lon="6.65071">
        <ele>1131.818</ele>
        <time>2014-10-04T11:22:47Z</time>
      </trkpt>
      <trkpt lat="43.85712" lon="6.65067">
        <ele>1129.206</ele>
        <time>2014-10-04T11:24:41Z</time>
      </trkpt>
      <trkpt lat="43.85709" lon="6.65048">
        <ele>1130.75</ele>
        <time>2014-10-04T11:24:45Z</time>
      </trkpt>
      <trkpt lat="43.85705" lon="6.65017">
        <ele>1130.58</ele>
        <time>2014-10-04T11:24:51Z</time>
      </trkpt>
      <trkpt lat="43.85712" lon="6.65011">
        <ele>1134.52</ele>
        <time>2014-10-04T11:24:55Z</time>
      </trkpt>
      <trkpt lat="43.85724" lon="6.6501">
        <ele>1136.952</ele>
        <time>2014-10-04T11:25:00Z</time>
      </trkpt>
      <trkpt lat="43.85743" lon="6.65007">
        <ele>1144.294</ele>
        <time>2014-10-04T11:25:06Z</time>
      </trkpt>
      <trkpt lat="43.85755" lon="6.65004">
        <ele>1151.695</ele>
        <time>2014-10-04T11:25:11Z</time>
      </trkpt>
      <trkpt lat="43.85772" lon="6.64998">
        <ele>1159.13</ele>
        <time>2014-10-04T11:25:17Z</time>
      </trkpt>
      <trkpt lat="43.85793" lon="6.64989">
        <ele>1167.954</ele>
        <time>2014-10-04T11:25:24Z</time>
      </trkpt>
      <trkpt lat="43.85812" lon="6.64981">
        <ele>1172.76</ele>
        <time>2014-10-04T11:25:31Z</time>
      </trkpt>
      <trkpt lat="43.85835" lon="6.64969">
        <ele>1173.985</ele>
        <time>2014-10-04T11:25:41Z</time>
      </trkpt>
      <trkpt lat="43.85856" lon="6.64954">
        <ele>1173.079</ele>
        <time>2014-10-04T11:25:50Z</time>
      </trkpt>
      <trkpt lat="43.85875" lon="6.64936">
        <ele>1166.376</ele>
        <time>2014-10-04T11:25:58Z</time>
      </trkpt>
      <trkpt lat="43.85897" lon="6.64908">
        <ele>1146.551</ele>
        <time>2014-10-04T11:26:07Z</time>
      </trkpt>
      <trkpt lat="43.85918" lon="6.64888">
        <ele>1147.826</ele>
        <time>2014-10-04T11:26:15Z</time>
      </trkpt>
      <trkpt lat="43.85935" lon="6.64874">
        <ele>1147.695</ele>
        <time>2014-10-04T11:26:21Z</time>
      </trkpt>
      <trkpt lat="43.85959" lon="6.6486">
        <ele>1146.012</ele>
        <time>2014-10-04T11:26:29Z</time>
      </trkpt>
      <trkpt lat="43.85976" lon="6.64851">
        <ele>1145.204</ele>
        <time>2014-10-04T11:26:35Z</time>
      </trkpt>
      <trkpt lat="43.85992" lon="6.64845">
        <ele>1149.373</ele>
        <time>2014-10-04T11:26:41Z</time>
      </trkpt>
      <trkpt lat="43.86013" lon="6.64835">
        <ele>1148.736</ele>
        <time>2014-10-04T11:26:49Z</time>
      </trkpt>
      <trkpt lat="43.86039" lon="6.64821">
        <ele>1148.084</ele>
        <time>2014-10-04T11:26:59Z</time>
      </trkpt>
      <trkpt lat="43.86058" lon="6.64808">
        <ele>1149.028</ele>
        <time>2014-10-04T11:27:07Z</time>
      </trkpt>
      <trkpt lat="43.86077" lon="6.64792">
        <ele>1149.976</ele>
        <time>2014-10-04T11:27:16Z</time>
      </trkpt>
      <trkpt lat="43.86095" lon="6.64779">
        <ele>1152.097</ele>
        <time>2014-10-04T11:27:25Z</time>
      </trkpt>
      <trkpt lat="43.8611" lon="6.64771">
        <ele>1154.779</ele>
        <time>2014-10-04T11:27:32Z</time>
      </trkpt>
      <trkpt lat="43.86122" lon="6.64763">
        <ele>1155.363</ele>
        <time>2014-10-04T11:27:39Z</time>
      </trkpt>
      <trkpt lat="43.86133" lon="6.64758">
        <ele>1156.614</ele>
        <time>2014-10-04T11:27:45Z</time>
      </trkpt>
      <trkpt lat="43.86146" lon="6.64749">
        <ele>1157.644</ele>
        <time>2014-10-04T11:27:54Z</time>
      </trkpt>
      <trkpt lat="43.86155" lon="6.64736">
        <ele>1159.795</ele>
        <time>2014-10-04T11:28:02Z</time>
      </trkpt>
      <trkpt lat="43.86163" lon="6.6472">
        <ele>1161.503</ele>
        <time>2014-10-04T11:28:10Z</time>
      </trkpt>
      <trkpt lat="43.86167" lon="6.64699">
        <ele>1162.713</ele>
        <time>2014-10-04T11:28:19Z</time>
      </trkpt>
      <trkpt lat="43.86171" lon="6.64682">
        <ele>1162.711</ele>
        <time>2014-10-04T11:28:26Z</time>
      </trkpt>
      <trkpt lat="43.86178" lon="6.64658">
        <ele>1163.454</ele>
        <time>2014-10-04T11:28:36Z</time>
      </trkpt>
      <trkpt lat="43.86182" lon="6.6464">
        <ele>1164.122</ele>
        <time>2014-10-04T11:28:43Z</time>
      </trkpt>
      <trkpt lat="43.86187" lon="6.64618">
        <ele>1166.237</ele>
        <time>2014-10-04T11:28:52Z</time>
      </trkpt>
      <trkpt lat="43.86191" lon="6.64599">
        <ele>1168.257</ele>
        <time>2014-10-04T11:29:00Z</time>
      </trkpt>
      <trkpt lat="43.86195" lon="6.64579">
        <ele>1169.526</ele>
        <time>2014-10-04T11:29:08Z</time>
      </trkpt>
      <trkpt lat="43.862" lon="6.64555">
        <ele>1171.834</ele>
        <time>2014-10-04T11:29:18Z</time>
      </trkpt>
      <trkpt lat="43.86204" lon="6.64536">
        <ele>1173.886</ele>
        <time>2014-10-04T11:29:26Z</time>
      </trkpt>
      <trkpt lat="43.86209" lon="6.64511">
        <ele>1176.828</ele>
        <time>2014-10-04T11:29:36Z</time>
      </trkpt>
      <trkpt lat="43.86214" lon="6.64486">
        <ele>1178.267</ele>
        <time>2014-10-04T11:29:46Z</time>
      </trkpt>
      <trkpt lat="43.86218" lon="6.64464">
        <ele>1179.375</ele>
        <time>2014-10-04T11:29:55Z</time>
      </trkpt>
      <trkpt lat="43.86222" lon="6.64442">
        <ele>1180.724</ele>
        <time>2014-10-04T11:30:04Z</time>
      </trkpt>
      <trkpt lat="43.86228" lon="6.64414">
        <ele>1183.377</ele>
        <time>2014-10-04T11:30:15Z</time>
      </trkpt>
      <trkpt lat="43.86229" lon="6.64389">
        <ele>1184.958</ele>
        <time>2014-10-04T11:30:25Z</time>
      </trkpt>
      <trkpt lat="43.86231" lon="6.64368">
        <ele>1190.966</ele>
        <time>2014-10-04T11:30:34Z</time>
      </trkpt>
      <trkpt lat="43.8623" lon="6.64338">
        <ele>1189.806</ele>
        <time>2014-10-04T11:30:45Z</time>
      </trkpt>
      <trkpt lat="43.86229" lon="6.64322">
        <ele>1190.764</ele>
        <time>2014-10-04T11:30:51Z</time>
      </trkpt>
      <trkpt lat="43.86227" lon="6.64296">
        <ele>1190.681</ele>
        <time>2014-10-04T11:31:00Z</time>
      </trkpt>
      <trkpt lat="43.86221" lon="6.64274">
        <ele>1190.12</ele>
        <time>2014-10-04T11:31:08Z</time>
      </trkpt>
      <trkpt lat="43.86226" lon="6.64264">
        <ele>1190.289</ele>
        <time>2014-10-04T11:31:13Z</time>
      </trkpt>
      <trkpt lat="43.86232" lon="6.64268">
        <ele>1190.97</ele>
        <time>2014-10-04T11:31:17Z</time>
      </trkpt>
      <trkpt lat="43.86237" lon="6.64295">
        <ele>1191.48</ele>
        <time>2014-10-04T11:31:28Z</time>
      </trkpt>
      <trkpt lat="43.8624" lon="6.6432">
        <ele>1190.829</ele>
        <time>2014-10-04T11:31:37Z</time>
      </trkpt>
      <trkpt lat="43.86244" lon="6.64344">
        <ele>1185.221</ele>
        <time>2014-10-04T11:31:45Z</time>
      </trkpt>
      <trkpt lat="43.86246" lon="6.64367">
        <ele>1181.51</ele>
        <time>2014-10-04T11:31:53Z</time>
      </trkpt>
      <trkpt lat="43.86249" lon="6.64393">
        <ele>1182.466</ele>
        <time>2014-10-04T11:32:02Z</time>
      </trkpt>
      <trkpt lat="43.86249" lon="6.64417">
        <ele>1182.558</ele>
        <time>2014-10-04T11:32:11Z</time>
      </trkpt>
      <trkpt lat="43.86249" lon="6.64436">
        <ele>1183.809</ele>
        <time>2014-10-04T11:32:18Z</time>
      </trkpt>
      <trkpt lat="43.86252" lon="6.64462">
        <ele>1187.082</ele>
        <time>2014-10-04T11:32:28Z</time>
      </trkpt>
      <trkpt lat="43.86258" lon="6.64477">
        <ele>1190.124</ele>
        <time>2014-10-04T11:32:35Z</time>
      </trkpt>
      <trkpt lat="43.86262" lon="6.64493">
        <ele>1191.761</ele>
        <time>2014-10-04T11:32:42Z</time>
      </trkpt>
      <trkpt lat="43.86262" lon="6.64511">
        <ele>1195.203</ele>
        <time>2014-10-04T11:32:50Z</time>
      </trkpt>
      <trkpt lat="43.86265" lon="6.64532">
        <ele>1196.48</ele>
        <time>2014-10-04T11:33:00Z</time>
      </trkpt>
      <trkpt lat="43.8627" lon="6.64551">
        <ele>1198.354</ele>
        <time>2014-10-04T11:33:09Z</time>
      </trkpt>
      <trkpt lat="43.86278" lon="6.64562">
        <ele>1199.251</ele>
        <time>2014-10-04T11:33:16Z</time>
      </trkpt>
      <trkpt lat="43.86278" lon="6.64565">
        <ele>1199.362</ele>
        <time>2014-10-04T11:33:17Z</time>
      </trkpt>
      <trkpt lat="43.86282" lon="6.64581">
        <ele>1201.043</ele>
        <time>2014-10-04T11:33:25Z</time>
      </trkpt>
      <trkpt lat="43.86289" lon="6.64599">
        <ele>1202.849</ele>
        <time>2014-10-04T11:33:34Z</time>
      </trkpt>
      <trkpt lat="43.86295" lon="6.64616">
        <ele>1203.848</ele>
        <time>2014-10-04T11:33:42Z</time>
      </trkpt>
      <trkpt lat="43.86303" lon="6.64634">
        <ele>1204.618</ele>
        <time>2014-10-04T11:33:51Z</time>
      </trkpt>
      <trkpt lat="43.86311" lon="6.64649">
        <ele>1206.101</ele>
        <time>2014-10-04T11:33:59Z</time>
      </trkpt>
      <trkpt lat="43.86323" lon="6.64662">
        <ele>1207.77</ele>
        <time>2014-10-04T11:34:08Z</time>
      </trkpt>
      <trkpt lat="43.86333" lon="6.64677">
        <ele>1208.455</ele>
        <time>2014-10-04T11:34:16Z</time>
      </trkpt>
      <trkpt lat="43.86343" lon="6.64696">
        <ele>1210.701</ele>
        <time>2014-10-04T11:34:25Z</time>
      </trkpt>
      <trkpt lat="43.86351" lon="6.64714">
        <ele>1212.162</ele>
        <time>2014-10-04T11:34:33Z</time>
      </trkpt>
      <trkpt lat="43.86363" lon="6.64726">
        <ele>1213.291</ele>
        <time>2014-10-04T11:34:41Z</time>
      </trkpt>
      <trkpt lat="43.86365" lon="6.64726">
        <ele>1213.141</ele>
        <time>2014-10-04T11:34:42Z</time>
      </trkpt>
      <trkpt lat="43.8637" lon="6.64711">
        <ele>1215.823</ele>
        <time>2014-10-04T11:34:48Z</time>
      </trkpt>
      <trkpt lat="43.86367" lon="6.64704">
        <ele>1217.826</ele>
        <time>2014-10-04T11:34:51Z</time>
      </trkpt>
      <trkpt lat="43.86357" lon="6.64688">
        <ele>1216.157</ele>
        <time>2014-10-04T11:34:58Z</time>
      </trkpt>
      <trkpt lat="43.86349" lon="6.6467">
        <ele>1217.362</ele>
        <time>2014-10-04T11:35:05Z</time>
      </trkpt>
      <trkpt lat="43.86342" lon="6.64654">
        <ele>1217.161</ele>
        <time>2014-10-04T11:35:12Z</time>
      </trkpt>
      <trkpt lat="43.86334" lon="6.64634">
        <ele>1219.655</ele>
        <time>2014-10-04T11:35:20Z</time>
      </trkpt>
      <trkpt lat="43.86329" lon="6.64613">
        <ele>1217.928</ele>
        <time>2014-10-04T11:35:28Z</time>
      </trkpt>
      <trkpt lat="43.86327" lon="6.64587">
        <ele>1217.243</ele>
        <time>2014-10-04T11:35:38Z</time>
      </trkpt>
      <trkpt lat="43.86324" lon="6.64569">
        <ele>1218.114</ele>
        <time>2014-10-04T11:35:45Z</time>
      </trkpt>
      <trkpt lat="43.86324" lon="6.64546">
        <ele>1219.865</ele>
        <time>2014-10-04T11:35:54Z</time>
      </trkpt>
      <trkpt lat="43.86324" lon="6.64528">
        <ele>1220.902</ele>
        <time>2014-10-04T11:36:01Z</time>
      </trkpt>
      <trkpt lat="43.86326" lon="6.64504">
        <ele>1223.356</ele>
        <time>2014-10-04T11:36:11Z</time>
      </trkpt>
      <trkpt lat="43.86328" lon="6.64479">
        <ele>1225.602</ele>
        <time>2014-10-04T11:36:21Z</time>
      </trkpt>
      <trkpt lat="43.86331" lon="6.64456">
        <ele>1227.191</ele>
        <time>2014-10-04T11:36:30Z</time>
      </trkpt>
      <trkpt lat="43.86333" lon="6.64437">
        <ele>1228.642</ele>
        <time>2014-10-04T11:36:38Z</time>
      </trkpt>
      <trkpt lat="43.86335" lon="6.6441">
        <ele>1230.812</ele>
        <time>2014-10-04T11:36:49Z</time>
      </trkpt>
      <trkpt lat="43.8634" lon="6.64386">
        <ele>1233.279</ele>
        <time>2014-10-04T11:36:59Z</time>
      </trkpt>
      <trkpt lat="43.86343" lon="6.64367">
        <ele>1235.813</ele>
        <time>2014-10-04T11:37:07Z</time>
      </trkpt>
      <trkpt lat="43.86345" lon="6.64349">
        <ele>1237.463</ele>
        <time>2014-10-04T11:37:14Z</time>
      </trkpt>
      <trkpt lat="43.86348" lon="6.64328">
        <ele>1238.17</ele>
        <time>2014-10-04T11:37:22Z</time>
      </trkpt>
      <trkpt lat="43.86356" lon="6.64312">
        <ele>1239.962</ele>
        <time>2014-10-04T11:37:30Z</time>
      </trkpt>
      <trkpt lat="43.86366" lon="6.64302">
        <ele>1241.453</ele>
        <time>2014-10-04T11:37:37Z</time>
      </trkpt>
      <trkpt lat="43.86376" lon="6.64298">
        <ele>1242.032</ele>
        <time>2014-10-04T11:37:43Z</time>
      </trkpt>
      <trkpt lat="43.86387" lon="6.64286">
        <ele>1244.571</ele>
        <time>2014-10-04T11:37:51Z</time>
      </trkpt>
      <trkpt lat="43.86392" lon="6.64272">
        <ele>1247.873</ele>
        <time>2014-10-04T11:37:57Z</time>
      </trkpt>
      <trkpt lat="43.86389" lon="6.64252">
        <ele>1249.263</ele>
        <time>2014-10-04T11:38:05Z</time>
      </trkpt>
      <trkpt lat="43.86387" lon="6.64243">
        <ele>1248.8</ele>
        <time>2014-10-04T11:38:08Z</time>
      </trkpt>
      <trkpt lat="43.86382" lon="6.64215">
        <ele>1249.783</ele>
        <time>2014-10-04T11:38:19Z</time>
      </trkpt>
      <trkpt lat="43.86373" lon="6.64197">
        <ele>1251.522</ele>
        <time>2014-10-04T11:38:26Z</time>
      </trkpt>
      <trkpt lat="43.86364" lon="6.64175">
        <ele>1250.41</ele>
        <time>2014-10-04T11:38:34Z</time>
      </trkpt>
      <trkpt lat="43.86364" lon="6.6415">
        <ele>1250.701</ele>
        <time>2014-10-04T11:38:43Z</time>
      </trkpt>
      <trkpt lat="43.86366" lon="6.64128">
        <ele>1250.163</ele>
        <time>2014-10-04T11:38:52Z</time>
      </trkpt>
      <trkpt lat="43.86367" lon="6.64106">
        <ele>1253.747</ele>
        <time>2014-10-04T11:39:00Z</time>
      </trkpt>
      <trkpt lat="43.86368" lon="6.64101">
        <ele>1254.507</ele>
        <time>2014-10-04T11:39:02Z</time>
      </trkpt>
      <trkpt lat="43.86376" lon="6.64096">
        <ele>1253.802</ele>
        <time>2014-10-04T11:39:07Z</time>
      </trkpt>
      <trkpt lat="43.86377" lon="6.64101">
        <ele>1253.842</ele>
        <time>2014-10-04T11:39:09Z</time>
      </trkpt>
      <trkpt lat="43.86373" lon="6.6413">
        <ele>1253.977</ele>
        <time>2014-10-04T11:39:17Z</time>
      </trkpt>
      <trkpt lat="43.86374" lon="6.64167">
        <ele>1253.806</ele>
        <time>2014-10-04T11:39:27Z</time>
      </trkpt>
      <trkpt lat="43.86382" lon="6.6419">
        <ele>1255.599</ele>
        <time>2014-10-04T11:39:35Z</time>
      </trkpt>
      <trkpt lat="43.86394" lon="6.64208">
        <ele>1256.679</ele>
        <time>2014-10-04T11:39:43Z</time>
      </trkpt>
      <trkpt lat="43.86399" lon="6.64227">
        <ele>1257.91</ele>
        <time>2014-10-04T11:39:50Z</time>
      </trkpt>
      <trkpt lat="43.86404" lon="6.64251">
        <ele>1259.157</ele>
        <time>2014-10-04T11:39:58Z</time>
      </trkpt>
      <trkpt lat="43.86409" lon="6.64277">
        <ele>1259.187</ele>
        <time>2014-10-04T11:40:07Z</time>
      </trkpt>
      <trkpt lat="43.8641" lon="6.64301">
        <ele>1259.907</ele>
        <time>2014-10-04T11:40:15Z</time>
      </trkpt>
      <trkpt lat="43.86405" lon="6.64318">
        <ele>1259.897</ele>
        <time>2014-10-04T11:40:21Z</time>
      </trkpt>
      <trkpt lat="43.86394" lon="6.64343">
        <ele>1259.945</ele>
        <time>2014-10-04T11:40:30Z</time>
      </trkpt>
      <trkpt lat="43.86391" lon="6.64367">
        <ele>1260.137</ele>
        <time>2014-10-04T11:40:38Z</time>
      </trkpt>
      <trkpt lat="43.8639" lon="6.6439">
        <ele>1260.198</ele>
        <time>2014-10-04T11:40:46Z</time>
      </trkpt>
      <trkpt lat="43.8639" lon="6.64421">
        <ele>1262.28</ele>
        <time>2014-10-04T11:40:57Z</time>
      </trkpt>
      <trkpt lat="43.86393" lon="6.64448">
        <ele>1263.598</ele>
        <time>2014-10-04T11:41:07Z</time>
      </trkpt>
      <trkpt lat="43.86399" lon="6.64473">
        <ele>1265.138</ele>
        <time>2014-10-04T11:41:17Z</time>
      </trkpt>
      <trkpt lat="43.86403" lon="6.64487">
        <ele>1266.409</ele>
        <time>2014-10-04T11:41:23Z</time>
      </trkpt>
      <trkpt lat="43.86405" lon="6.64507">
        <ele>1268.831</ele>
        <time>2014-10-04T11:41:31Z</time>
      </trkpt>
      <trkpt lat="43.86409" lon="6.64537">
        <ele>1272.369</ele>
        <time>2014-10-04T11:41:43Z</time>
      </trkpt>
      <trkpt lat="43.86415" lon="6.64572">
        <ele>1272.546</ele>
        <time>2014-10-04T11:41:55Z</time>
      </trkpt>
      <trkpt lat="43.86417" lon="6.64593">
        <ele>1273.238</ele>
        <time>2014-10-04T11:42:03Z</time>
      </trkpt>
      <trkpt lat="43.86428" lon="6.64599">
        <ele>1274.12</ele>
        <time>2014-10-04T11:42:09Z</time>
      </trkpt>
      <trkpt lat="43.86434" lon="6.64588">
        <ele>1275.653</ele>
        <time>2014-10-04T11:42:14Z</time>
      </trkpt>
      <trkpt lat="43.86434" lon="6.64585">
        <ele>1275.963</ele>
        <time>2014-10-04T11:42:15Z</time>
      </trkpt>
      <trkpt lat="43.86429" lon="6.64558">
        <ele>1278.664</ele>
        <time>2014-10-04T11:42:25Z</time>
      </trkpt>
      <trkpt lat="43.86426" lon="6.64529">
        <ele>1281.542</ele>
        <time>2014-10-04T11:42:36Z</time>
      </trkpt>
      <trkpt lat="43.86425" lon="6.6451">
        <ele>1280.608</ele>
        <time>2014-10-04T11:42:44Z</time>
      </trkpt>
      <trkpt lat="43.86423" lon="6.6449">
        <ele>1281.099</ele>
        <time>2014-10-04T11:42:53Z</time>
      </trkpt>
      <trkpt lat="43.86421" lon="6.64462">
        <ele>1282.072</ele>
        <time>2014-10-04T11:43:05Z</time>
      </trkpt>
      <trkpt lat="43.8642" lon="6.64445">
        <ele>1285.572</ele>
        <time>2014-10-04T11:43:13Z</time>
      </trkpt>
      <trkpt lat="43.8642" lon="6.6442">
        <ele>1289.292</ele>
        <time>2014-10-04T11:43:24Z</time>
      </trkpt>
      <trkpt lat="43.86421" lon="6.64403">
        <ele>1289.872</ele>
        <time>2014-10-04T11:43:32Z</time>
      </trkpt>
      <trkpt lat="43.86426" lon="6.64388">
        <ele>1288.688</ele>
        <time>2014-10-04T11:43:39Z</time>
      </trkpt>
      <trkpt lat="43.86435" lon="6.64373">
        <ele>1290.613</ele>
        <time>2014-10-04T11:43:47Z</time>
      </trkpt>
      <trkpt lat="43.86444" lon="6.64361">
        <ele>1292.001</ele>
        <time>2014-10-04T11:43:53Z</time>
      </trkpt>
      <trkpt lat="43.86455" lon="6.64346">
        <ele>1297.545</ele>
        <time>2014-10-04T11:44:01Z</time>
      </trkpt>
      <trkpt lat="43.86468" lon="6.6433">
        <ele>1304.376</ele>
        <time>2014-10-04T11:44:11Z</time>
      </trkpt>
      <trkpt lat="43.86475" lon="6.64313">
        <ele>1306.912</ele>
        <time>2014-10-04T11:44:19Z</time>
      </trkpt>
      <trkpt lat="43.86478" lon="6.64292">
        <ele>1307.159</ele>
        <time>2014-10-04T11:44:28Z</time>
      </trkpt>
      <trkpt lat="43.86478" lon="6.64289">
        <ele>1307.039</ele>
        <time>2014-10-04T11:44:29Z</time>
      </trkpt>
      <trkpt lat="43.86482" lon="6.64274">
        <ele>1307.992</ele>
        <time>2014-10-04T11:44:36Z</time>
      </trkpt>
      <trkpt lat="43.86482" lon="6.64255">
        <ele>1309.18</ele>
        <time>2014-10-04T11:44:44Z</time>
      </trkpt>
      <trkpt lat="43.86479" lon="6.64235">
        <ele>1311.461</ele>
        <time>2014-10-04T11:44:52Z</time>
      </trkpt>
      <trkpt lat="43.86472" lon="6.64212">
        <ele>1308.316</ele>
        <time>2014-10-04T11:45:01Z</time>
      </trkpt>
      <trkpt lat="43.86467" lon="6.64192">
        <ele>1307.779</ele>
        <time>2014-10-04T11:45:08Z</time>
      </trkpt>
      <trkpt lat="43.86467" lon="6.64168">
        <ele>1308.59</ele>
        <time>2014-10-04T11:45:17Z</time>
      </trkpt>
      <trkpt lat="43.86471" lon="6.6415">
        <ele>1314.462</ele>
        <time>2014-10-04T11:45:25Z</time>
      </trkpt>
      <trkpt lat="43.86476" lon="6.64136">
        <ele>1317.301</ele>
        <time>2014-10-04T11:45:32Z</time>
      </trkpt>
      <trkpt lat="43.86484" lon="6.64119">
        <ele>1320.443</ele>
        <time>2014-10-04T11:45:41Z</time>
      </trkpt>
      <trkpt lat="43.86494" lon="6.64103">
        <ele>1321.42</ele>
        <time>2014-10-04T11:45:50Z</time>
      </trkpt>
      <trkpt lat="43.86503" lon="6.64082">
        <ele>1321.558</ele>
        <time>2014-10-04T11:46:00Z</time>
      </trkpt>
      <trkpt lat="43.86507" lon="6.64062">
        <ele>1323.413</ele>
        <time>2014-10-04T11:46:09Z</time>
      </trkpt>
      <trkpt lat="43.86506" lon="6.64044">
        <ele>1325.052</ele>
        <time>2014-10-04T11:46:16Z</time>
      </trkpt>
      <trkpt lat="43.86509" lon="6.64025">
        <ele>1325.272</ele>
        <time>2014-10-04T11:46:24Z</time>
      </trkpt>
      <trkpt lat="43.86511" lon="6.63993">
        <ele>1326.491</ele>
        <time>2014-10-04T11:46:37Z</time>
      </trkpt>
      <trkpt lat="43.8651" lon="6.63974">
        <ele>1329.327</ele>
        <time>2014-10-04T11:46:45Z</time>
      </trkpt>
      <trkpt lat="43.86508" lon="6.63953">
        <ele>1331.194</ele>
        <time>2014-10-04T11:46:54Z</time>
      </trkpt>
      <trkpt lat="43.86507" lon="6.63934">
        <ele>1333.095</ele>
        <time>2014-10-04T11:47:02Z</time>
      </trkpt>
      <trkpt lat="43.86505" lon="6.63914">
        <ele>1332.258</ele>
        <time>2014-10-04T11:47:10Z</time>
      </trkpt>
      <trkpt lat="43.86506" lon="6.63892">
        <ele>1330.858</ele>
        <time>2014-10-04T11:47:20Z</time>
      </trkpt>
      <trkpt lat="43.86508" lon="6.63868">
        <ele>1332.289</ele>
        <time>2014-10-04T11:47:30Z</time>
      </trkpt>
      <trkpt lat="43.86513" lon="6.63845">
        <ele>1332.949</ele>
        <time>2014-10-04T11:47:40Z</time>
      </trkpt>
      <trkpt lat="43.86518" lon="6.63826">
        <ele>1333.458</ele>
        <time>2014-10-04T11:47:49Z</time>
      </trkpt>
      <trkpt lat="43.86525" lon="6.63808">
        <ele>1334.198</ele>
        <time>2014-10-04T11:47:58Z</time>
      </trkpt>
      <trkpt lat="43.86534" lon="6.63788">
        <ele>1336.071</ele>
        <time>2014-10-04T11:48:08Z</time>
      </trkpt>
      <trkpt lat="43.86539" lon="6.63771">
        <ele>1336.338</ele>
        <time>2014-10-04T11:48:16Z</time>
      </trkpt>
      <trkpt lat="43.86546" lon="6.63752">
        <ele>1338.61</ele>
        <time>2014-10-04T11:48:25Z</time>
      </trkpt>
      <trkpt lat="43.86553" lon="6.63733">
        <ele>1340.13</ele>
        <time>2014-10-04T11:48:34Z</time>
      </trkpt>
      <trkpt lat="43.8656" lon="6.63722">
        <ele>1342.003</ele>
        <time>2014-10-04T11:48:39Z</time>
      </trkpt>
      <trkpt lat="43.86567" lon="6.63711">
        <ele>1345.786</ele>
        <time>2014-10-04T11:48:45Z</time>
      </trkpt>
      <trkpt lat="43.86576" lon="6.63694">
        <ele>1349.259</ele>
        <time>2014-10-04T11:48:54Z</time>
      </trkpt>
      <trkpt lat="43.8658" lon="6.63672">
        <ele>1351.111</ele>
        <time>2014-10-04T11:49:03Z</time>
      </trkpt>
      <trkpt lat="43.86581" lon="6.6365">
        <ele>1351.119</ele>
        <time>2014-10-04T11:49:12Z</time>
      </trkpt>
      <trkpt lat="43.86581" lon="6.6363">
        <ele>1352.474</ele>
        <time>2014-10-04T11:49:21Z</time>
      </trkpt>
      <trkpt lat="43.86578" lon="6.63606">
        <ele>1353.825</ele>
        <time>2014-10-04T11:49:31Z</time>
      </trkpt>
      <trkpt lat="43.86577" lon="6.63587">
        <ele>1356.997</ele>
        <time>2014-10-04T11:49:39Z</time>
      </trkpt>
      <trkpt lat="43.86577" lon="6.63567">
        <ele>1356.495</ele>
        <time>2014-10-04T11:49:47Z</time>
      </trkpt>
      <trkpt lat="43.86577" lon="6.6355">
        <ele>1355.609</ele>
        <time>2014-10-04T11:49:53Z</time>
      </trkpt>
      <trkpt lat="43.86577" lon="6.63524">
        <ele>1353.295</ele>
        <time>2014-10-04T11:50:02Z</time>
      </trkpt>
      <trkpt lat="43.86576" lon="6.63498">
        <ele>1349.742</ele>
        <time>2014-10-04T11:50:11Z</time>
      </trkpt>
      <trkpt lat="43.86575" lon="6.63475">
        <ele>1349.526</ele>
        <time>2014-10-04T11:50:19Z</time>
      </trkpt>
      <trkpt lat="43.86572" lon="6.63449">
        <ele>1348.527</ele>
        <time>2014-10-04T11:50:28Z</time>
      </trkpt>
      <trkpt lat="43.86567" lon="6.63422">
        <ele>1344.665</ele>
        <time>2014-10-04T11:50:37Z</time>
      </trkpt>
      <trkpt lat="43.86561" lon="6.63399">
        <ele>1345.11</ele>
        <time>2014-10-04T11:50:44Z</time>
      </trkpt>
      <trkpt lat="43.86557" lon="6.63382">
        <ele>1344.627</ele>
        <time>2014-10-04T11:50:50Z</time>
      </trkpt>
      <trkpt lat="43.86552" lon="6.63363">
        <ele>1344.358</ele>
        <time>2014-10-04T11:50:56Z</time>
      </trkpt>
      <trkpt lat="43.86544" lon="6.63344">
        <ele>1345.598</ele>
        <time>2014-10-04T11:51:02Z</time>
      </trkpt>
      <trkpt lat="43.86532" lon="6.63316">
        <ele>1347.672</ele>
        <time>2014-10-04T11:51:12Z</time>
      </trkpt>
      <trkpt lat="43.86523" lon="6.63292">
        <ele>1348.36</ele>
        <time>2014-10-04T11:51:21Z</time>
      </trkpt>
      <trkpt lat="43.86516" lon="6.63268">
        <ele>1352.609</ele>
        <time>2014-10-04T11:51:31Z</time>
      </trkpt>
      <trkpt lat="43.86513" lon="6.63248">
        <ele>1356.877</ele>
        <time>2014-10-04T11:51:39Z</time>
      </trkpt>
      <trkpt lat="43.86512" lon="6.63226">
        <ele>1357.417</ele>
        <time>2014-10-04T11:51:47Z</time>
      </trkpt>
      <trkpt lat="43.86511" lon="6.63208">
        <ele>1358.689</ele>
        <time>2014-10-04T11:51:55Z</time>
      </trkpt>
      <trkpt lat="43.86513" lon="6.63193">
        <ele>1361.348</ele>
        <time>2014-10-04T11:52:02Z</time>
      </trkpt>
      <trkpt lat="43.86515" lon="6.63189">
        <ele>1362.131</ele>
        <time>2014-10-04T11:52:04Z</time>
      </trkpt>
      <trkpt lat="43.86527" lon="6.63187">
        <ele>1364.019</ele>
        <time>2014-10-04T11:52:11Z</time>
      </trkpt>
      <trkpt lat="43.86532" lon="6.63193">
        <ele>1364.876</ele>
        <time>2014-10-04T11:52:14Z</time>
      </trkpt>
      <trkpt lat="43.86541" lon="6.63209">
        <ele>1366.084</ele>
        <time>2014-10-04T11:52:22Z</time>
      </trkpt>
      <trkpt lat="43.86546" lon="6.63224">
        <ele>1366.744</ele>
        <time>2014-10-04T11:52:29Z</time>
      </trkpt>
      <trkpt lat="43.86546" lon="6.63227">
        <ele>1366.744</ele>
        <time>2014-10-04T11:52:31Z</time>
      </trkpt>
      <trkpt lat="43.86549" lon="6.63235">
        <ele>1367.056</ele>
        <time>2014-10-04T11:52:38Z</time>
      </trkpt>
      <trkpt lat="43.86554" lon="6.6325">
        <ele>1367.094</ele>
        <time>2014-10-04T11:52:47Z</time>
      </trkpt>
      <trkpt lat="43.86558" lon="6.63266">
        <ele>1367.102</ele>
        <time>2014-10-04T11:52:57Z</time>
      </trkpt>
      <trkpt lat="43.86562" lon="6.63274">
        <ele>1367.811</ele>
        <time>2014-10-04T11:53:05Z</time>
      </trkpt>
      <trkpt lat="43.86565" lon="6.63284">
        <ele>1368.274</ele>
        <time>2014-10-04T11:53:11Z</time>
      </trkpt>
      <trkpt lat="43.86573" lon="6.63301">
        <ele>1369.045</ele>
        <time>2014-10-04T11:53:18Z</time>
      </trkpt>
      <trkpt lat="43.86585" lon="6.63327">
        <ele>1370.026</ele>
        <time>2014-10-04T11:53:28Z</time>
      </trkpt>
      <trkpt lat="43.86594" lon="6.63348">
        <ele>1370.706</ele>
        <time>2014-10-04T11:53:36Z</time>
      </trkpt>
      <trkpt lat="43.86603" lon="6.63374">
        <ele>1371.607</ele>
        <time>2014-10-04T11:53:46Z</time>
      </trkpt>
      <trkpt lat="43.86609" lon="6.63399">
        <ele>1371.967</ele>
        <time>2014-10-04T11:53:55Z</time>
      </trkpt>
      <trkpt lat="43.86613" lon="6.63424">
        <ele>1374.458</ele>
        <time>2014-10-04T11:54:05Z</time>
      </trkpt>
      <trkpt lat="43.86617" lon="6.63445">
        <ele>1376.199</ele>
        <time>2014-10-04T11:54:13Z</time>
      </trkpt>
      <trkpt lat="43.8662" lon="6.63466">
        <ele>1377.759</ele>
        <time>2014-10-04T11:54:21Z</time>
      </trkpt>
      <trkpt lat="43.86625" lon="6.63492">
        <ele>1378.499</ele>
        <time>2014-10-04T11:54:30Z</time>
      </trkpt>
      <trkpt lat="43.86629" lon="6.63514">
        <ele>1381.7</ele>
        <time>2014-10-04T11:54:38Z</time>
      </trkpt>
      <trkpt lat="43.86633" lon="6.63544">
        <ele>1385.703</ele>
        <time>2014-10-04T11:54:49Z</time>
      </trkpt>
      <trkpt lat="43.86636" lon="6.63569">
        <ele>1388.474</ele>
        <time>2014-10-04T11:54:58Z</time>
      </trkpt>
      <trkpt lat="43.86641" lon="6.636">
        <ele>1389.791</ele>
        <time>2014-10-04T11:55:09Z</time>
      </trkpt>
      <trkpt lat="43.86645" lon="6.63622">
        <ele>1390.551</ele>
        <time>2014-10-04T11:55:17Z</time>
      </trkpt>
      <trkpt lat="43.86648" lon="6.63644">
        <ele>1390.759</ele>
        <time>2014-10-04T11:55:25Z</time>
      </trkpt>
      <trkpt lat="43.8665" lon="6.63667">
        <ele>1390.801</ele>
        <time>2014-10-04T11:55:33Z</time>
      </trkpt>
      <trkpt lat="43.8665" lon="6.63689">
        <ele>1391.358</ele>
        <time>2014-10-04T11:55:41Z</time>
      </trkpt>
      <trkpt lat="43.8665" lon="6.6371">
        <ele>1392.302</ele>
        <time>2014-10-04T11:55:49Z</time>
      </trkpt>
      <trkpt lat="43.86648" lon="6.63731">
        <ele>1393.068</ele>
        <time>2014-10-04T11:55:57Z</time>
      </trkpt>
      <trkpt lat="43.86648" lon="6.6376">
        <ele>1392.946</ele>
        <time>2014-10-04T11:56:08Z</time>
      </trkpt>
      <trkpt lat="43.86657" lon="6.63772">
        <ele>1394.436</ele>
        <time>2014-10-04T11:56:14Z</time>
      </trkpt>
      <trkpt lat="43.86668" lon="6.63768">
        <ele>1394.937</ele>
        <time>2014-10-04T11:56:19Z</time>
      </trkpt>
      <trkpt lat="43.86677" lon="6.63751">
        <ele>1395.5</ele>
        <time>2014-10-04T11:56:25Z</time>
      </trkpt>
      <trkpt lat="43.8668" lon="6.63731">
        <ele>1395.257</ele>
        <time>2014-10-04T11:56:31Z</time>
      </trkpt>
      <trkpt lat="43.86678" lon="6.63699">
        <ele>1395.141</ele>
        <time>2014-10-04T11:56:40Z</time>
      </trkpt>
      <trkpt lat="43.86677" lon="6.63671">
        <ele>1395.407</ele>
        <time>2014-10-04T11:56:48Z</time>
      </trkpt>
      <trkpt lat="43.86676" lon="6.63639">
        <ele>1398.268</ele>
        <time>2014-10-04T11:56:58Z</time>
      </trkpt>
      <trkpt lat="43.86675" lon="6.6361">
        <ele>1400.362</ele>
        <time>2014-10-04T11:57:07Z</time>
      </trkpt>
      <trkpt lat="43.86675" lon="6.63576">
        <ele>1403.938</ele>
        <time>2014-10-04T11:57:17Z</time>
      </trkpt>
      <trkpt lat="43.86676" lon="6.63548">
        <ele>1404.222</ele>
        <time>2014-10-04T11:57:25Z</time>
      </trkpt>
      <trkpt lat="43.86678" lon="6.63513">
        <ele>1404.873</ele>
        <time>2014-10-04T11:57:35Z</time>
      </trkpt>
      <trkpt lat="43.86679" lon="6.63483">
        <ele>1405.683</ele>
        <time>2014-10-04T11:57:44Z</time>
      </trkpt>
      <trkpt lat="43.86683" lon="6.63454">
        <ele>1406.662</ele>
        <time>2014-10-04T11:57:53Z</time>
      </trkpt>
      <trkpt lat="43.86686" lon="6.63419">
        <ele>1407.893</ele>
        <time>2014-10-04T11:58:04Z</time>
      </trkpt>
      <trkpt lat="43.86686" lon="6.63389">
        <ele>1409.028</ele>
        <time>2014-10-04T11:58:13Z</time>
      </trkpt>
      <trkpt lat="43.86688" lon="6.63363">
        <ele>1410.282</ele>
        <time>2014-10-04T11:58:21Z</time>
      </trkpt>
      <trkpt lat="43.86692" lon="6.63338">
        <ele>1411.662</ele>
        <time>2014-10-04T11:58:29Z</time>
      </trkpt>
      <trkpt lat="43.86696" lon="6.63308">
        <ele>1412.651</ele>
        <time>2014-10-04T11:58:38Z</time>
      </trkpt>
      <trkpt lat="43.86698" lon="6.63283">
        <ele>1414.022</ele>
        <time>2014-10-04T11:58:46Z</time>
      </trkpt>
      <trkpt lat="43.86699" lon="6.63259">
        <ele>1414.159</ele>
        <time>2014-10-04T11:58:54Z</time>
      </trkpt>
      <trkpt lat="43.86701" lon="6.63235">
        <ele>1415.552</ele>
        <time>2014-10-04T11:59:02Z</time>
      </trkpt>
      <trkpt lat="43.86702" lon="6.6321">
        <ele>1418.006</ele>
        <time>2014-10-04T11:59:11Z</time>
      </trkpt>
      <trkpt lat="43.86706" lon="6.63185">
        <ele>1418.731</ele>
        <time>2014-10-04T11:59:20Z</time>
      </trkpt>
      <trkpt lat="43.86709" lon="6.63162">
        <ele>1419.146</ele>
        <time>2014-10-04T11:59:28Z</time>
      </trkpt>
      <trkpt lat="43.86713" lon="6.6314">
        <ele>1419.297</ele>
        <time>2014-10-04T11:59:36Z</time>
      </trkpt>
      <trkpt lat="43.86717" lon="6.63119">
        <ele>1420.287</ele>
        <time>2014-10-04T11:59:44Z</time>
      </trkpt>
      <trkpt lat="43.86722" lon="6.63097">
        <ele>1420.897</ele>
        <time>2014-10-04T11:59:52Z</time>
      </trkpt>
      <trkpt lat="43.86727" lon="6.63076">
        <ele>1421.717</ele>
        <time>2014-10-04T12:00:00Z</time>
      </trkpt>
      <trkpt lat="43.86732" lon="6.63059">
        <ele>1423.91</ele>
        <time>2014-10-04T12:00:07Z</time>
      </trkpt>
      <trkpt lat="43.86737" lon="6.63041">
        <ele>1424.565</ele>
        <time>2014-10-04T12:00:14Z</time>
      </trkpt>
      <trkpt lat="43.86743" lon="6.63019">
        <ele>1425.912</ele>
        <time>2014-10-04T12:00:23Z</time>
      </trkpt>
      <trkpt lat="43.8675" lon="6.63001">
        <ele>1425.969</ele>
        <time>2014-10-04T12:00:31Z</time>
      </trkpt>
      <trkpt lat="43.86758" lon="6.62979">
        <ele>1426.952</ele>
        <time>2014-10-04T12:00:41Z</time>
      </trkpt>
      <trkpt lat="43.86765" lon="6.62961">
        <ele>1430.73</ele>
        <time>2014-10-04T12:00:50Z</time>
      </trkpt>
      <trkpt lat="43.86772" lon="6.62945">
        <ele>1433.437</ele>
        <time>2014-10-04T12:00:58Z</time>
      </trkpt>
      <trkpt lat="43.86778" lon="6.62928">
        <ele>1434.562</ele>
        <time>2014-10-04T12:01:06Z</time>
      </trkpt>
      <trkpt lat="43.86789" lon="6.62905">
        <ele>1438.604</ele>
        <time>2014-10-04T12:01:17Z</time>
      </trkpt>
      <trkpt lat="43.86799" lon="6.62886">
        <ele>1440.168</ele>
        <time>2014-10-04T12:01:27Z</time>
      </trkpt>
      <trkpt lat="43.86809" lon="6.62871">
        <ele>1444.102</ele>
        <time>2014-10-04T12:01:35Z</time>
      </trkpt>
      <trkpt lat="43.86818" lon="6.6286">
        <ele>1447.988</ele>
        <time>2014-10-04T12:01:42Z</time>
      </trkpt>
      <trkpt lat="43.8683" lon="6.62843">
        <ele>1454.094</ele>
        <time>2014-10-04T12:01:52Z</time>
      </trkpt>
      <trkpt lat="43.86844" lon="6.62823">
        <ele>1456.683</ele>
        <time>2014-10-04T12:02:03Z</time>
      </trkpt>
      <trkpt lat="43.86854" lon="6.6281">
        <ele>1457.956</ele>
        <time>2014-10-04T12:02:11Z</time>
      </trkpt>
      <trkpt lat="43.86869" lon="6.62791">
        <ele>1457.471</ele>
        <time>2014-10-04T12:02:22Z</time>
      </trkpt>
      <trkpt lat="43.8688" lon="6.62776">
        <ele>1458.833</ele>
        <time>2014-10-04T12:02:31Z</time>
      </trkpt>
      <trkpt lat="43.86891" lon="6.62763">
        <ele>1459.853</ele>
        <time>2014-10-04T12:02:39Z</time>
      </trkpt>
      <trkpt lat="43.86906" lon="6.62748">
        <ele>1460.835</ele>
        <time>2014-10-04T12:02:49Z</time>
      </trkpt>
      <trkpt lat="43.86923" lon="6.62733">
        <ele>1461.608</ele>
        <time>2014-10-04T12:03:00Z</time>
      </trkpt>
      <trkpt lat="43.86936" lon="6.6272">
        <ele>1462.458</ele>
        <time>2014-10-04T12:03:09Z</time>
      </trkpt>
      <trkpt lat="43.8695" lon="6.62716">
        <ele>1462.898</ele>
        <time>2014-10-04T12:03:17Z</time>
      </trkpt>
      <trkpt lat="43.86965" lon="6.62717">
        <ele>1463.745</ele>
        <time>2014-10-04T12:03:25Z</time>
      </trkpt>
      <trkpt lat="43.86977" lon="6.62719">
        <ele>1464.551</ele>
        <time>2014-10-04T12:03:32Z</time>
      </trkpt>
      <trkpt lat="43.86992" lon="6.62717">
        <ele>1465.092</ele>
        <time>2014-10-04T12:03:40Z</time>
      </trkpt>
      <trkpt lat="43.87005" lon="6.62712">
        <ele>1465.975</ele>
        <time>2014-10-04T12:03:48Z</time>
      </trkpt>
      <trkpt lat="43.87017" lon="6.62701">
        <ele>1467.765</ele>
        <time>2014-10-04T12:03:56Z</time>
      </trkpt>
      <trkpt lat="43.87028" lon="6.62691">
        <ele>1469.97</ele>
        <time>2014-10-04T12:04:04Z</time>
      </trkpt>
      <trkpt lat="43.87039" lon="6.6268">
        <ele>1471.244</ele>
        <time>2014-10-04T12:04:12Z</time>
      </trkpt>
      <trkpt lat="43.87053" lon="6.62667">
        <ele>1472.104</ele>
        <time>2014-10-04T12:04:22Z</time>
      </trkpt>
      <trkpt lat="43.87066" lon="6.62657">
        <ele>1473.741</ele>
        <time>2014-10-04T12:04:31Z</time>
      </trkpt>
      <trkpt lat="43.87075" lon="6.62649">
        <ele>1475.349</ele>
        <time>2014-10-04T12:04:38Z</time>
      </trkpt>
      <trkpt lat="43.87085" lon="6.62636">
        <ele>1476.269</ele>
        <time>2014-10-04T12:04:46Z</time>
      </trkpt>
      <trkpt lat="43.87097" lon="6.6263">
        <ele>1476.965</ele>
        <time>2014-10-04T12:04:54Z</time>
      </trkpt>
      <trkpt lat="43.87111" lon="6.62622">
        <ele>1477.664</ele>
        <time>2014-10-04T12:05:03Z</time>
      </trkpt>
      <trkpt lat="43.87123" lon="6.62612">
        <ele>1479.847</ele>
        <time>2014-10-04T12:05:11Z</time>
      </trkpt>
      <trkpt lat="43.87136" lon="6.626">
        <ele>1482.527</ele>
        <time>2014-10-04T12:05:20Z</time>
      </trkpt>
      <trkpt lat="43.87147" lon="6.62586">
        <ele>1484.215</ele>
        <time>2014-10-04T12:05:29Z</time>
      </trkpt>
      <trkpt lat="43.87159" lon="6.62569">
        <ele>1485.371</ele>
        <time>2014-10-04T12:05:39Z</time>
      </trkpt>
      <trkpt lat="43.87169" lon="6.62553">
        <ele>1487.324</ele>
        <time>2014-10-04T12:05:48Z</time>
      </trkpt>
      <trkpt lat="43.87181" lon="6.6253">
        <ele>1489.492</ele>
        <time>2014-10-04T12:06:00Z</time>
      </trkpt>
      <trkpt lat="43.8719" lon="6.62513">
        <ele>1491.881</ele>
        <time>2014-10-04T12:06:09Z</time>
      </trkpt>
      <trkpt lat="43.87198" lon="6.62501">
        <ele>1489.862</ele>
        <time>2014-10-04T12:06:16Z</time>
      </trkpt>
      <trkpt lat="43.87207" lon="6.6249">
        <ele>1492.928</ele>
        <time>2014-10-04T12:06:23Z</time>
      </trkpt>
      <trkpt lat="43.87216" lon="6.6249">
        <ele>1490.587</ele>
        <time>2014-10-04T12:06:29Z</time>
      </trkpt>
      <trkpt lat="43.8723" lon="6.6249">
        <ele>1490.526</ele>
        <time>2014-10-04T12:06:36Z</time>
      </trkpt>
      <trkpt lat="43.87243" lon="6.62496">
        <ele>1489.894</ele>
        <time>2014-10-04T12:06:44Z</time>
      </trkpt>
      <trkpt lat="43.87249" lon="6.62496">
        <ele>1490.362</ele>
        <time>2014-10-04T12:06:47Z</time>
      </trkpt>
      <trkpt lat="43.87258" lon="6.62501">
        <ele>1490.638</ele>
        <time>2014-10-04T12:06:53Z</time>
      </trkpt>
      <trkpt lat="43.87271" lon="6.625">
        <ele>1494.363</ele>
        <time>2014-10-04T12:07:01Z</time>
      </trkpt>
      <trkpt lat="43.87283" lon="6.62497">
        <ele>1497.135</ele>
        <time>2014-10-04T12:07:08Z</time>
      </trkpt>
      <trkpt lat="43.87295" lon="6.62495">
        <ele>1498.555</ele>
        <time>2014-10-04T12:07:15Z</time>
      </trkpt>
      <trkpt lat="43.8731" lon="6.62492">
        <ele>1498.734</ele>
        <time>2014-10-04T12:07:24Z</time>
      </trkpt>
      <trkpt lat="43.87321" lon="6.62491">
        <ele>1498.791</ele>
        <time>2014-10-04T12:07:30Z</time>
      </trkpt>
      <trkpt lat="43.87338" lon="6.62487">
        <ele>1500.447</ele>
        <time>2014-10-04T12:07:40Z</time>
      </trkpt>
      <trkpt lat="43.87354" lon="6.62483">
        <ele>1501.313</ele>
        <time>2014-10-04T12:07:49Z</time>
      </trkpt>
      <trkpt lat="43.87367" lon="6.62478">
        <ele>1503.104</ele>
        <time>2014-10-04T12:07:57Z</time>
      </trkpt>
      <trkpt lat="43.87378" lon="6.62474">
        <ele>1505.814</ele>
        <time>2014-10-04T12:08:04Z</time>
      </trkpt>
      <trkpt lat="43.87387" lon="6.62466">
        <ele>1507.685</ele>
        <time>2014-10-04T12:08:11Z</time>
      </trkpt>
      <trkpt lat="43.87395" lon="6.62467">
        <ele>1508.024</ele>
        <time>2014-10-04T12:08:16Z</time>
      </trkpt>
      <trkpt lat="43.87405" lon="6.62462">
        <ele>1510.49</ele>
        <time>2014-10-04T12:08:23Z</time>
      </trkpt>
      <trkpt lat="43.87406" lon="6.62462">
        <ele>1510.034</ele>
        <time>2014-10-04T12:08:24Z</time>
      </trkpt>
      <trkpt lat="43.87413" lon="6.62473">
        <ele>1509.383</ele>
        <time>2014-10-04T12:08:30Z</time>
      </trkpt>
      <trkpt lat="43.8741" lon="6.62482">
        <ele>1509.415</ele>
        <time>2014-10-04T12:08:34Z</time>
      </trkpt>
      <trkpt lat="43.87396" lon="6.6249">
        <ele>1508.323</ele>
        <time>2014-10-04T12:08:41Z</time>
      </trkpt>
      <trkpt lat="43.87381" lon="6.62495">
        <ele>1507.893</ele>
        <time>2014-10-04T12:08:49Z</time>
      </trkpt>
      <trkpt lat="43.87365" lon="6.62505">
        <ele>1507.701</ele>
        <time>2014-10-04T12:08:58Z</time>
      </trkpt>
      <trkpt lat="43.8735" lon="6.62514">
        <ele>1508.355</ele>
        <time>2014-10-04T12:09:06Z</time>
      </trkpt>
      <trkpt lat="43.87338" lon="6.62522">
        <ele>1509.024</ele>
        <time>2014-10-04T12:09:13Z</time>
      </trkpt>
      <trkpt lat="43.87324" lon="6.62528">
        <ele>1511.573</ele>
        <time>2014-10-04T12:09:20Z</time>
      </trkpt>
      <trkpt lat="43.87308" lon="6.62537">
        <ele>1513.137</ele>
        <time>2014-10-04T12:09:30Z</time>
      </trkpt>
      <trkpt lat="43.87297" lon="6.62545">
        <ele>1513.592</ele>
        <time>2014-10-04T12:09:37Z</time>
      </trkpt>
      <trkpt lat="43.87285" lon="6.62555">
        <ele>1512.127</ele>
        <time>2014-10-04T12:09:45Z</time>
      </trkpt>
      <trkpt lat="43.87274" lon="6.62561">
        <ele>1510.737</ele>
        <time>2014-10-04T12:09:52Z</time>
      </trkpt>
      <trkpt lat="43.87262" lon="6.62567">
        <ele>1509.57</ele>
        <time>2014-10-04T12:09:59Z</time>
      </trkpt>
      <trkpt lat="43.87249" lon="6.62567">
        <ele>1509.55</ele>
        <time>2014-10-04T12:10:06Z</time>
      </trkpt>
      <trkpt lat="43.8723" lon="6.62568">
        <ele>1511.129</ele>
        <time>2014-10-04T12:10:16Z</time>
      </trkpt>
      <trkpt lat="43.87218" lon="6.62577">
        <ele>1511.71</ele>
        <time>2014-10-04T12:10:23Z</time>
      </trkpt>
      <trkpt lat="43.87216" lon="6.62592">
        <ele>1511.425</ele>
        <time>2014-10-04T12:10:29Z</time>
      </trkpt>
      <trkpt lat="43.87223" lon="6.62605">
        <ele>1513.19</ele>
        <time>2014-10-04T12:10:36Z</time>
      </trkpt>
      <trkpt lat="43.87234" lon="6.62608">
        <ele>1515.041</ele>
        <time>2014-10-04T12:10:42Z</time>
      </trkpt>
      <trkpt lat="43.87248" lon="6.62606">
        <ele>1516.803</ele>
        <time>2014-10-04T12:10:49Z</time>
      </trkpt>
      <trkpt lat="43.87266" lon="6.62602">
        <ele>1519.119</ele>
        <time>2014-10-04T12:10:58Z</time>
      </trkpt>
      <trkpt lat="43.87277" lon="6.626">
        <ele>1520.948</ele>
        <time>2014-10-04T12:11:05Z</time>
      </trkpt>
      <trkpt lat="43.87292" lon="6.62596">
        <ele>1522.145</ele>
        <time>2014-10-04T12:11:13Z</time>
      </trkpt>
      <trkpt lat="43.87307" lon="6.62592">
        <ele>1524.814</ele>
        <time>2014-10-04T12:11:22Z</time>
      </trkpt>
      <trkpt lat="43.87322" lon="6.62586">
        <ele>1526.327</ele>
        <time>2014-10-04T12:11:31Z</time>
      </trkpt>
      <trkpt lat="43.87336" lon="6.62581">
        <ele>1527.675</ele>
        <time>2014-10-04T12:11:39Z</time>
      </trkpt>
      <trkpt lat="43.87349" lon="6.62577">
        <ele>1529.162</ele>
        <time>2014-10-04T12:11:47Z</time>
      </trkpt>
      <trkpt lat="43.87363" lon="6.62572">
        <ele>1532.066</ele>
        <time>2014-10-04T12:11:55Z</time>
      </trkpt>
      <trkpt lat="43.87378" lon="6.62565">
        <ele>1534.363</ele>
        <time>2014-10-04T12:12:04Z</time>
      </trkpt>
      <trkpt lat="43.87392" lon="6.6256">
        <ele>1535.437</ele>
        <time>2014-10-04T12:12:13Z</time>
      </trkpt>
      <trkpt lat="43.87406" lon="6.62554">
        <ele>1536.734</ele>
        <time>2014-10-04T12:12:21Z</time>
      </trkpt>
      <trkpt lat="43.87418" lon="6.6255">
        <ele>1538.042</ele>
        <time>2014-10-04T12:12:28Z</time>
      </trkpt>
      <trkpt lat="43.87431" lon="6.62545">
        <ele>1539.391</ele>
        <time>2014-10-04T12:12:36Z</time>
      </trkpt>
      <trkpt lat="43.87437" lon="6.62544">
        <ele>1539.22</ele>
        <time>2014-10-04T12:12:42Z</time>
      </trkpt>
      <trkpt lat="43.87441" lon="6.62543">
        <ele>1537.374</ele>
        <time>2014-10-04T12:12:53Z</time>
      </trkpt>
      <trkpt lat="43.87449" lon="6.6254">
        <ele>1537.496</ele>
        <time>2014-10-04T12:13:01Z</time>
      </trkpt>
      <trkpt lat="43.87459" lon="6.62531">
        <ele>1542.063</ele>
        <time>2014-10-04T12:13:10Z</time>
      </trkpt>
      <trkpt lat="43.87467" lon="6.62521">
        <ele>1544.786</ele>
        <time>2014-10-04T12:13:18Z</time>
      </trkpt>
      <trkpt lat="43.87474" lon="6.62514">
        <ele>1545.113</ele>
        <time>2014-10-04T12:13:24Z</time>
      </trkpt>
      <trkpt lat="43.87479" lon="6.62506">
        <ele>1547.28</ele>
        <time>2014-10-04T12:13:30Z</time>
      </trkpt>
      <trkpt lat="43.87485" lon="6.62493">
        <ele>1551.663</ele>
        <time>2014-10-04T12:13:38Z</time>
      </trkpt>
      <trkpt lat="43.87485" lon="6.62492">
        <ele>1552.522</ele>
        <time>2014-10-04T12:13:44Z</time>
      </trkpt>
      <trkpt lat="43.8749" lon="6.62488">
        <ele>1551.168</ele>
        <time>2014-10-04T12:13:50Z</time>
      </trkpt>
      <trkpt lat="43.87493" lon="6.62487">
        <ele>1547.901</ele>
        <time>2014-10-04T12:13:55Z</time>
      </trkpt>
      <trkpt lat="43.87504" lon="6.62484">
        <ele>1543.555</ele>
        <time>2014-10-04T12:14:02Z</time>
      </trkpt>
      <trkpt lat="43.87519" lon="6.62477">
        <ele>1547.687</ele>
        <time>2014-10-04T12:14:11Z</time>
      </trkpt>
      <trkpt lat="43.87529" lon="6.62484">
        <ele>1550.776</ele>
        <time>2014-10-04T12:14:18Z</time>
      </trkpt>
      <trkpt lat="43.8754" lon="6.62504">
        <ele>1552.307</ele>
        <time>2014-10-04T12:14:28Z</time>
      </trkpt>
      <trkpt lat="43.87546" lon="6.62518">
        <ele>1553.502</ele>
        <time>2014-10-04T12:14:34Z</time>
      </trkpt>
      <trkpt lat="43.87558" lon="6.62541">
        <ele>1554.868</ele>
        <time>2014-10-04T12:14:44Z</time>
      </trkpt>
      <trkpt lat="43.8757" lon="6.62557">
        <ele>1555.495</ele>
        <time>2014-10-04T12:14:52Z</time>
      </trkpt>
      <trkpt lat="43.87584" lon="6.62574">
        <ele>1556.865</ele>
        <time>2014-10-04T12:15:01Z</time>
      </trkpt>
      <trkpt lat="43.87598" lon="6.62592">
        <ele>1559.077</ele>
        <time>2014-10-04T12:15:11Z</time>
      </trkpt>
      <trkpt lat="43.87605" lon="6.62602">
        <ele>1560.661</ele>
        <time>2014-10-04T12:15:17Z</time>
      </trkpt>
      <trkpt lat="43.87614" lon="6.62613">
        <ele>1561.885</ele>
        <time>2014-10-04T12:15:24Z</time>
      </trkpt>
      <trkpt lat="43.87622" lon="6.62623">
        <ele>1563.303</ele>
        <time>2014-10-04T12:15:30Z</time>
      </trkpt>
      <trkpt lat="43.87632" lon="6.62633">
        <ele>1564.775</ele>
        <time>2014-10-04T12:15:37Z</time>
      </trkpt>
      <trkpt lat="43.8764" lon="6.62646">
        <ele>1566.225</ele>
        <time>2014-10-04T12:15:44Z</time>
      </trkpt>
      <trkpt lat="43.87648" lon="6.62669">
        <ele>1569.266</ele>
        <time>2014-10-04T12:15:55Z</time>
      </trkpt>
      <trkpt lat="43.87656" lon="6.62692">
        <ele>1571.739</ele>
        <time>2014-10-04T12:16:06Z</time>
      </trkpt>
      <trkpt lat="43.87663" lon="6.6271">
        <ele>1573.325</ele>
        <time>2014-10-04T12:16:14Z</time>
      </trkpt>
      <trkpt lat="43.8767" lon="6.6273">
        <ele>1575.229</ele>
        <time>2014-10-04T12:16:23Z</time>
      </trkpt>
      <trkpt lat="43.87676" lon="6.62748">
        <ele>1576.809</ele>
        <time>2014-10-04T12:16:31Z</time>
      </trkpt>
      <trkpt lat="43.87684" lon="6.62771">
        <ele>1579.042</ele>
        <time>2014-10-04T12:16:42Z</time>
      </trkpt>
      <trkpt lat="43.877" lon="6.62791">
        <ele>1578.715</ele>
        <time>2014-10-04T12:16:52Z</time>
      </trkpt>
      <trkpt lat="43.87712" lon="6.62811">
        <ele>1579.172</ele>
        <time>2014-10-04T12:17:01Z</time>
      </trkpt>
      <trkpt lat="43.87724" lon="6.62834">
        <ele>1579.297</ele>
        <time>2014-10-04T12:17:11Z</time>
      </trkpt>
      <trkpt lat="43.8773" lon="6.62848">
        <ele>1578.957</ele>
        <time>2014-10-04T12:17:17Z</time>
      </trkpt>
      <trkpt lat="43.87743" lon="6.62867">
        <ele>1579.064</ele>
        <time>2014-10-04T12:17:26Z</time>
      </trkpt>
      <trkpt lat="43.87756" lon="6.62871">
        <ele>1582.226</ele>
        <time>2014-10-04T12:17:32Z</time>
      </trkpt>
      <trkpt lat="43.87771" lon="6.62866">
        <ele>1582.942</ele>
        <time>2014-10-04T12:17:38Z</time>
      </trkpt>
      <trkpt lat="43.87793" lon="6.62858">
        <ele>1584.14</ele>
        <time>2014-10-04T12:17:46Z</time>
      </trkpt>
      <trkpt lat="43.87818" lon="6.62843">
        <ele>1584.916</ele>
        <time>2014-10-04T12:17:56Z</time>
      </trkpt>
      <trkpt lat="43.87838" lon="6.62827">
        <ele>1584.639</ele>
        <time>2014-10-04T12:18:05Z</time>
      </trkpt>
      <trkpt lat="43.87852" lon="6.62815">
        <ele>1583.53</ele>
        <time>2014-10-04T12:18:11Z</time>
      </trkpt>
      <trkpt lat="43.87868" lon="6.62795">
        <ele>1578.874</ele>
        <time>2014-10-04T12:18:20Z</time>
      </trkpt>
      <trkpt lat="43.87882" lon="6.62777">
        <ele>1581.184</ele>
        <time>2014-10-04T12:18:28Z</time>
      </trkpt>
      <trkpt lat="43.87897" lon="6.62773">
        <ele>1583.43</ele>
        <time>2014-10-04T12:18:35Z</time>
      </trkpt>
      <trkpt lat="43.87918" lon="6.62778">
        <ele>1580.087</ele>
        <time>2014-10-04T12:18:44Z</time>
      </trkpt>
      <trkpt lat="43.87937" lon="6.62781">
        <ele>1580.37</ele>
        <time>2014-10-04T12:18:53Z</time>
      </trkpt>
      <trkpt lat="43.87954" lon="6.62783">
        <ele>1580.394</ele>
        <time>2014-10-04T12:19:02Z</time>
      </trkpt>
      <trkpt lat="43.87965" lon="6.62785">
        <ele>1580.075</ele>
        <time>2014-10-04T12:19:08Z</time>
      </trkpt>
      <trkpt lat="43.87978" lon="6.62788">
        <ele>1581.617</ele>
        <time>2014-10-04T12:19:16Z</time>
      </trkpt>
      <trkpt lat="43.87997" lon="6.62798">
        <ele>1583.023</ele>
        <time>2014-10-04T12:19:28Z</time>
      </trkpt>
      <trkpt lat="43.88015" lon="6.6281">
        <ele>1582.415</ele>
        <time>2014-10-04T12:19:39Z</time>
      </trkpt>
      <trkpt lat="43.88028" lon="6.62822">
        <ele>1582.298</ele>
        <time>2014-10-04T12:19:47Z</time>
      </trkpt>
      <trkpt lat="43.88041" lon="6.62835">
        <ele>1582.18</ele>
        <time>2014-10-04T12:19:55Z</time>
      </trkpt>
      <trkpt lat="43.88058" lon="6.6285">
        <ele>1583.616</ele>
        <time>2014-10-04T12:20:04Z</time>
      </trkpt>
      <trkpt lat="43.88076" lon="6.62867">
        <ele>1584.776</ele>
        <time>2014-10-04T12:20:12Z</time>
      </trkpt>
      <trkpt lat="43.88096" lon="6.62888">
        <ele>1586.144</ele>
        <time>2014-10-04T12:20:21Z</time>
      </trkpt>
      <trkpt lat="43.8812" lon="6.62914">
        <ele>1586.803</ele>
        <time>2014-10-04T12:20:32Z</time>
      </trkpt>
      <trkpt lat="43.88139" lon="6.62934">
        <ele>1588.267</ele>
        <time>2014-10-04T12:20:40Z</time>
      </trkpt>
      <trkpt lat="43.88158" lon="6.62957">
        <ele>1590.116</ele>
        <time>2014-10-04T12:20:49Z</time>
      </trkpt>
      <trkpt lat="43.8818" lon="6.62981">
        <ele>1591.98</ele>
        <time>2014-10-04T12:20:59Z</time>
      </trkpt>
      <trkpt lat="43.882" lon="6.63004">
        <ele>1592.753</ele>
        <time>2014-10-04T12:21:09Z</time>
      </trkpt>
      <trkpt lat="43.88215" lon="6.63022">
        <ele>1593.475</ele>
        <time>2014-10-04T12:21:17Z</time>
      </trkpt>
      <trkpt lat="43.88234" lon="6.63045">
        <ele>1594.636</ele>
        <time>2014-10-04T12:21:28Z</time>
      </trkpt>
      <trkpt lat="43.88254" lon="6.63062">
        <ele>1598.559</ele>
        <time>2014-10-04T12:21:37Z</time>
      </trkpt>
      <trkpt lat="43.88271" lon="6.63069">
        <ele>1600.21</ele>
        <time>2014-10-04T12:21:44Z</time>
      </trkpt>
      <trkpt lat="43.88285" lon="6.63067">
        <ele>1599.634</ele>
        <time>2014-10-04T12:21:50Z</time>
      </trkpt>
      <trkpt lat="43.883" lon="6.63062">
        <ele>1598.923</ele>
        <time>2014-10-04T12:21:57Z</time>
      </trkpt>
      <trkpt lat="43.88323" lon="6.63052">
        <ele>1598.103</ele>
        <time>2014-10-04T12:22:07Z</time>
      </trkpt>
      <trkpt lat="43.88343" lon="6.6305">
        <ele>1598.894</ele>
        <time>2014-10-04T12:22:16Z</time>
      </trkpt>
      <trkpt lat="43.88358" lon="6.63058">
        <ele>1600.215</ele>
        <time>2014-10-04T12:22:23Z</time>
      </trkpt>
      <trkpt lat="43.88374" lon="6.63078">
        <ele>1602.387</ele>
        <time>2014-10-04T12:22:32Z</time>
      </trkpt>
      <trkpt lat="43.88388" lon="6.63096">
        <ele>1603.255</ele>
        <time>2014-10-04T12:22:40Z</time>
      </trkpt>
      <trkpt lat="43.88402" lon="6.63117">
        <ele>1605.125</ele>
        <time>2014-10-04T12:22:49Z</time>
      </trkpt>
      <trkpt lat="43.88418" lon="6.63142">
        <ele>1606.984</ele>
        <time>2014-10-04T12:22:59Z</time>
      </trkpt>
      <trkpt lat="43.88427" lon="6.63171">
        <ele>1608.504</ele>
        <time>2014-10-04T12:23:08Z</time>
      </trkpt>
      <trkpt lat="43.88432" lon="6.63206">
        <ele>1610.516</ele>
        <time>2014-10-04T12:23:18Z</time>
      </trkpt>
      <trkpt lat="43.88438" lon="6.6324">
        <ele>1611.985</ele>
        <time>2014-10-04T12:23:28Z</time>
      </trkpt>
      <trkpt lat="43.88444" lon="6.6327">
        <ele>1613.639</ele>
        <time>2014-10-04T12:23:37Z</time>
      </trkpt>
      <trkpt lat="43.88454" lon="6.63308">
        <ele>1614.925</ele>
        <time>2014-10-04T12:23:48Z</time>
      </trkpt>
      <trkpt lat="43.88465" lon="6.6334">
        <ele>1615.202</ele>
        <time>2014-10-04T12:23:56Z</time>
      </trkpt>
      <trkpt lat="43.8848" lon="6.63369">
        <ele>1616.046</ele>
        <time>2014-10-04T12:24:03Z</time>
      </trkpt>
      <trkpt lat="43.88498" lon="6.63405">
        <ele>1617.056</ele>
        <time>2014-10-04T12:24:12Z</time>
      </trkpt>
      <trkpt lat="43.88502" lon="6.63434">
        <ele>1617.221</ele>
        <time>2014-10-04T12:24:18Z</time>
      </trkpt>
      <trkpt lat="43.88507" lon="6.63476">
        <ele>1617.351</ele>
        <time>2014-10-04T12:24:26Z</time>
      </trkpt>
      <trkpt lat="43.88506" lon="6.635">
        <ele>1617.481</ele>
        <time>2014-10-04T12:24:31Z</time>
      </trkpt>
      <trkpt lat="43.88505" lon="6.63512">
        <ele>1617.842</ele>
        <time>2014-10-04T12:24:35Z</time>
      </trkpt>
      <trkpt lat="43.88504" lon="6.63516">
        <ele>1617.234</ele>
        <time>2014-10-04T12:24:41Z</time>
      </trkpt>
      <trkpt lat="43.88509" lon="6.63525">
        <ele>1613.449</ele>
        <time>2014-10-04T12:34:05Z</time>
      </trkpt>
      <trkpt lat="43.88503" lon="6.63543">
        <ele>1612.676</ele>
        <time>2014-10-04T12:34:11Z</time>
      </trkpt>
      <trkpt lat="43.88494" lon="6.63569">
        <ele>1610.954</ele>
        <time>2014-10-04T12:34:17Z</time>
      </trkpt>
      <trkpt lat="43.88484" lon="6.63595">
        <ele>1608.403</ele>
        <time>2014-10-04T12:34:23Z</time>
      </trkpt>
      <trkpt lat="43.88465" lon="6.63616">
        <ele>1608.305</ele>
        <time>2014-10-04T12:34:30Z</time>
      </trkpt>
      <trkpt lat="43.88454" lon="6.63632">
        <ele>1606.972</ele>
        <time>2014-10-04T12:34:35Z</time>
      </trkpt>
      <trkpt lat="43.88452" lon="6.63635">
        <ele>1606.489</ele>
        <time>2014-10-04T12:34:36Z</time>
      </trkpt>
      <trkpt lat="43.88437" lon="6.63663">
        <ele>1604.982</ele>
        <time>2014-10-04T12:34:42Z</time>
      </trkpt>
      <trkpt lat="43.88424" lon="6.63695">
        <ele>1603.19</ele>
        <time>2014-10-04T12:34:48Z</time>
      </trkpt>
      <trkpt lat="43.88418" lon="6.63705">
        <ele>1602.986</ele>
        <time>2014-10-04T12:34:50Z</time>
      </trkpt>
      <trkpt lat="43.88407" lon="6.63725">
        <ele>1603.635</ele>
        <time>2014-10-04T12:34:55Z</time>
      </trkpt>
      <trkpt lat="43.88398" lon="6.63749">
        <ele>1605</ele>
        <time>2014-10-04T12:35:02Z</time>
      </trkpt>
      <trkpt lat="43.88388" lon="6.63759">
        <ele>1606.043</ele>
        <time>2014-10-04T12:35:06Z</time>
      </trkpt>
      <trkpt lat="43.8838" lon="6.63776">
        <ele>1606.692</ele>
        <time>2014-10-04T12:35:11Z</time>
      </trkpt>
      <trkpt lat="43.88375" lon="6.63812">
        <ele>1607.14</ele>
        <time>2014-10-04T12:35:19Z</time>
      </trkpt>
      <trkpt lat="43.88375" lon="6.63833">
        <ele>1607.293</ele>
        <time>2014-10-04T12:35:24Z</time>
      </trkpt>
      <trkpt lat="43.88372" lon="6.63856">
        <ele>1607.592</ele>
        <time>2014-10-04T12:35:30Z</time>
      </trkpt>
      <trkpt lat="43.88368" lon="6.63883">
        <ele>1608.151</ele>
        <time>2014-10-04T12:35:37Z</time>
      </trkpt>
      <trkpt lat="43.88363" lon="6.63908">
        <ele>1608.33</ele>
        <time>2014-10-04T12:35:45Z</time>
      </trkpt>
      <trkpt lat="43.88359" lon="6.6393">
        <ele>1609.611</ele>
        <time>2014-10-04T12:35:52Z</time>
      </trkpt>
      <trkpt lat="43.88352" lon="6.63947">
        <ele>1611.543</ele>
        <time>2014-10-04T12:35:59Z</time>
      </trkpt>
      <trkpt lat="43.88347" lon="6.63964">
        <ele>1612.183</ele>
        <time>2014-10-04T12:36:04Z</time>
      </trkpt>
      <trkpt lat="43.88348" lon="6.63984">
        <ele>1613.161</ele>
        <time>2014-10-04T12:36:10Z</time>
      </trkpt>
      <trkpt lat="43.88348" lon="6.63999">
        <ele>1613.999</ele>
        <time>2014-10-04T12:36:15Z</time>
      </trkpt>
      <trkpt lat="43.88344" lon="6.64017">
        <ele>1614.109</ele>
        <time>2014-10-04T12:36:21Z</time>
      </trkpt>
      <trkpt lat="43.88338" lon="6.64031">
        <ele>1613.353</ele>
        <time>2014-10-04T12:36:27Z</time>
      </trkpt>
      <trkpt lat="43.88337" lon="6.64032">
        <ele>1612.195</ele>
        <time>2014-10-04T12:36:32Z</time>
      </trkpt>
      <trkpt lat="43.88335" lon="6.64037">
        <ele>1611.647</ele>
        <time>2014-10-04T12:36:38Z</time>
      </trkpt>
      <trkpt lat="43.88332" lon="6.64043">
        <ele>1611.186</ele>
        <time>2014-10-04T12:36:44Z</time>
      </trkpt>
      <trkpt lat="43.88331" lon="6.64045">
        <ele>1609.771</ele>
        <time>2014-10-04T12:36:50Z</time>
      </trkpt>
      <trkpt lat="43.88335" lon="6.64056">
        <ele>1607.818</ele>
        <time>2014-10-04T12:36:55Z</time>
      </trkpt>
      <trkpt lat="43.88339" lon="6.64062">
        <ele>1607.814</ele>
        <time>2014-10-04T12:36:57Z</time>
      </trkpt>
      <trkpt lat="43.88352" lon="6.64072">
        <ele>1609.06</ele>
        <time>2014-10-04T12:37:03Z</time>
      </trkpt>
      <trkpt lat="43.88357" lon="6.64086">
        <ele>1610.213</ele>
        <time>2014-10-04T12:37:08Z</time>
      </trkpt>
      <trkpt lat="43.88361" lon="6.64107">
        <ele>1610.851</ele>
        <time>2014-10-04T12:37:14Z</time>
      </trkpt>
      <trkpt lat="43.88363" lon="6.64131">
        <ele>1609.845</ele>
        <time>2014-10-04T12:37:21Z</time>
      </trkpt>
      <trkpt lat="43.8836" lon="6.64141">
        <ele>1609.324</ele>
        <time>2014-10-04T12:37:24Z</time>
      </trkpt>
      <trkpt lat="43.88366" lon="6.64151">
        <ele>1608.809</ele>
        <time>2014-10-04T12:37:28Z</time>
      </trkpt>
      <trkpt lat="43.88372" lon="6.64156">
        <ele>1608.216</ele>
        <time>2014-10-04T12:37:31Z</time>
      </trkpt>
      <trkpt lat="43.88383" lon="6.64174">
        <ele>1606.764</ele>
        <time>2014-10-04T12:37:37Z</time>
      </trkpt>
      <trkpt lat="43.88384" lon="6.64178">
        <ele>1606.203</ele>
        <time>2014-10-04T12:37:40Z</time>
      </trkpt>
      <trkpt lat="43.88388" lon="6.64188">
        <ele>1604.519</ele>
        <time>2014-10-04T12:37:44Z</time>
      </trkpt>
      <trkpt lat="43.88392" lon="6.64205">
        <ele>1602.846</ele>
        <time>2014-10-04T12:37:48Z</time>
      </trkpt>
      <trkpt lat="43.884" lon="6.64226">
        <ele>1599.572</ele>
        <time>2014-10-04T12:37:52Z</time>
      </trkpt>
      <trkpt lat="43.88415" lon="6.64252">
        <ele>1593.019</ele>
        <time>2014-10-04T12:37:58Z</time>
      </trkpt>
      <trkpt lat="43.8843" lon="6.64282">
        <ele>1587.509</ele>
        <time>2014-10-04T12:38:05Z</time>
      </trkpt>
      <trkpt lat="43.88437" lon="6.64299">
        <ele>1585.578</ele>
        <time>2014-10-04T12:38:08Z</time>
      </trkpt>
      <trkpt lat="43.88447" lon="6.64323">
        <ele>1582.49</ele>
        <time>2014-10-04T12:38:13Z</time>
      </trkpt>
      <trkpt lat="43.88456" lon="6.64346">
        <ele>1578.763</ele>
        <time>2014-10-04T12:38:19Z</time>
      </trkpt>
      <trkpt lat="43.88462" lon="6.64357">
        <ele>1576.262</ele>
        <time>2014-10-04T12:38:23Z</time>
      </trkpt>
      <trkpt lat="43.88474" lon="6.64366">
        <ele>1576.049</ele>
        <time>2014-10-04T12:38:28Z</time>
      </trkpt>
      <trkpt lat="43.88486" lon="6.64375">
        <ele>1576.675</ele>
        <time>2014-10-04T12:38:31Z</time>
      </trkpt>
      <trkpt lat="43.88504" lon="6.64401">
        <ele>1576.777</ele>
        <time>2014-10-04T12:38:37Z</time>
      </trkpt>
      <trkpt lat="43.8852" lon="6.64419">
        <ele>1577.179</ele>
        <time>2014-10-04T12:38:43Z</time>
      </trkpt>
      <trkpt lat="43.88527" lon="6.64433">
        <ele>1577.258</ele>
        <time>2014-10-04T12:38:47Z</time>
      </trkpt>
      <trkpt lat="43.88539" lon="6.64444">
        <ele>1576.626</ele>
        <time>2014-10-04T12:38:51Z</time>
      </trkpt>
      <trkpt lat="43.88543" lon="6.64447">
        <ele>1576.344</ele>
        <time>2014-10-04T12:38:52Z</time>
      </trkpt>
      <trkpt lat="43.88555" lon="6.64462">
        <ele>1575.539</ele>
        <time>2014-10-04T12:38:56Z</time>
      </trkpt>
      <trkpt lat="43.88573" lon="6.64485">
        <ele>1574.464</ele>
        <time>2014-10-04T12:39:01Z</time>
      </trkpt>
      <trkpt lat="43.88581" lon="6.64491">
        <ele>1573.357</ele>
        <time>2014-10-04T12:39:03Z</time>
      </trkpt>
      <trkpt lat="43.88596" lon="6.64505">
        <ele>1572.009</ele>
        <time>2014-10-04T12:39:07Z</time>
      </trkpt>
      <trkpt lat="43.88603" lon="6.64513">
        <ele>1571.289</ele>
        <time>2014-10-04T12:39:09Z</time>
      </trkpt>
      <trkpt lat="43.88633" lon="6.64545">
        <ele>1568.132</ele>
        <time>2014-10-04T12:39:17Z</time>
      </trkpt>
      <trkpt lat="43.88641" lon="6.64553">
        <ele>1567.734</ele>
        <time>2014-10-04T12:39:19Z</time>
      </trkpt>
      <trkpt lat="43.88666" lon="6.64579">
        <ele>1565.873</ele>
        <time>2014-10-04T12:39:26Z</time>
      </trkpt>
      <trkpt lat="43.88683" lon="6.64597">
        <ele>1565.137</ele>
        <time>2014-10-04T12:39:31Z</time>
      </trkpt>
      <trkpt lat="43.887" lon="6.64609">
        <ele>1566.437</ele>
        <time>2014-10-04T12:39:36Z</time>
      </trkpt>
      <trkpt lat="43.8871" lon="6.64626">
        <ele>1567.106</ele>
        <time>2014-10-04T12:39:41Z</time>
      </trkpt>
      <trkpt lat="43.88728" lon="6.64649">
        <ele>1566.933</ele>
        <time>2014-10-04T12:39:48Z</time>
      </trkpt>
      <trkpt lat="43.88743" lon="6.64667">
        <ele>1566.86</ele>
        <time>2014-10-04T12:39:54Z</time>
      </trkpt>
      <trkpt lat="43.88745" lon="6.6467">
        <ele>1567.202</ele>
        <time>2014-10-04T12:39:57Z</time>
      </trkpt>
      <trkpt lat="43.88742" lon="6.64674">
        <ele>1572.905</ele>
        <time>2014-10-04T12:40:41Z</time>
      </trkpt>
      <trkpt lat="43.88744" lon="6.6468">
        <ele>1572.54</ele>
        <time>2014-10-04T12:40:44Z</time>
      </trkpt>
      <trkpt lat="43.88749" lon="6.64693">
        <ele>1570.811</ele>
        <time>2014-10-04T12:40:48Z</time>
      </trkpt>
      <trkpt lat="43.88761" lon="6.6471">
        <ele>1568.348</ele>
        <time>2014-10-04T12:40:53Z</time>
      </trkpt>
      <trkpt lat="43.88771" lon="6.6472">
        <ele>1568.023</ele>
        <time>2014-10-04T12:40:57Z</time>
      </trkpt>
      <trkpt lat="43.88784" lon="6.64736">
        <ele>1565.721</ele>
        <time>2014-10-04T12:41:02Z</time>
      </trkpt>
      <trkpt lat="43.88796" lon="6.64758">
        <ele>1563.563</ele>
        <time>2014-10-04T12:41:07Z</time>
      </trkpt>
      <trkpt lat="43.88807" lon="6.64777">
        <ele>1562.586</ele>
        <time>2014-10-04T12:41:12Z</time>
      </trkpt>
      <trkpt lat="43.88819" lon="6.648">
        <ele>1562.264</ele>
        <time>2014-10-04T12:41:18Z</time>
      </trkpt>
      <trkpt lat="43.8883" lon="6.6482">
        <ele>1558.393</ele>
        <time>2014-10-04T12:41:23Z</time>
      </trkpt>
      <trkpt lat="43.88839" lon="6.64838">
        <ele>1555.861</ele>
        <time>2014-10-04T12:41:27Z</time>
      </trkpt>
      <trkpt lat="43.88856" lon="6.64859">
        <ele>1556.017</ele>
        <time>2014-10-04T12:41:33Z</time>
      </trkpt>
      <trkpt lat="43.88865" lon="6.64872">
        <ele>1553.785</ele>
        <time>2014-10-04T12:41:36Z</time>
      </trkpt>
      <trkpt lat="43.88875" lon="6.64895">
        <ele>1551.17</ele>
        <time>2014-10-04T12:41:41Z</time>
      </trkpt>
      <trkpt lat="43.88885" lon="6.64915">
        <ele>1548.793</ele>
        <time>2014-10-04T12:41:45Z</time>
      </trkpt>
      <trkpt lat="43.88887" lon="6.64919">
        <ele>1547.759</ele>
        <time>2014-10-04T12:41:46Z</time>
      </trkpt>
      <trkpt lat="43.88895" lon="6.64945">
        <ele>1543.864</ele>
        <time>2014-10-04T12:41:51Z</time>
      </trkpt>
      <trkpt lat="43.88905" lon="6.64964">
        <ele>1542.924</ele>
        <time>2014-10-04T12:41:55Z</time>
      </trkpt>
      <trkpt lat="43.88918" lon="6.64999">
        <ele>1540.748</ele>
        <time>2014-10-04T12:42:01Z</time>
      </trkpt>
      <trkpt lat="43.88924" lon="6.65038">
        <ele>1536.108</ele>
        <time>2014-10-04T12:42:06Z</time>
      </trkpt>
      <trkpt lat="43.88933" lon="6.65057">
        <ele>1533.611</ele>
        <time>2014-10-04T12:42:09Z</time>
      </trkpt>
      <trkpt lat="43.88944" lon="6.65088">
        <ele>1530.547</ele>
        <time>2014-10-04T12:42:14Z</time>
      </trkpt>
      <trkpt lat="43.88949" lon="6.651">
        <ele>1529.093</ele>
        <time>2014-10-04T12:42:16Z</time>
      </trkpt>
      <trkpt lat="43.88953" lon="6.65124">
        <ele>1525.45</ele>
        <time>2014-10-04T12:42:20Z</time>
      </trkpt>
      <trkpt lat="43.88958" lon="6.65132">
        <ele>1523.408</ele>
        <time>2014-10-04T12:42:22Z</time>
      </trkpt>
      <trkpt lat="43.8897" lon="6.65157">
        <ele>1519.672</ele>
        <time>2014-10-04T12:42:27Z</time>
      </trkpt>
      <trkpt lat="43.88973" lon="6.65163">
        <ele>1518.711</ele>
        <time>2014-10-04T12:42:28Z</time>
      </trkpt>
      <trkpt lat="43.8898" lon="6.65186">
        <ele>1514.171</ele>
        <time>2014-10-04T12:42:32Z</time>
      </trkpt>
      <trkpt lat="43.88988" lon="6.65217">
        <ele>1508.634</ele>
        <time>2014-10-04T12:42:37Z</time>
      </trkpt>
      <trkpt lat="43.88992" lon="6.65229">
        <ele>1506.363</ele>
        <time>2014-10-04T12:42:39Z</time>
      </trkpt>
      <trkpt lat="43.88996" lon="6.65249">
        <ele>1503.75</ele>
        <time>2014-10-04T12:42:42Z</time>
      </trkpt>
      <trkpt lat="43.88997" lon="6.65261">
        <ele>1501.99</ele>
        <time>2014-10-04T12:42:44Z</time>
      </trkpt>
      <trkpt lat="43.89003" lon="6.65278">
        <ele>1499.499</ele>
        <time>2014-10-04T12:42:47Z</time>
      </trkpt>
      <trkpt lat="43.89011" lon="6.65317">
        <ele>1494.637</ele>
        <time>2014-10-04T12:42:52Z</time>
      </trkpt>
      <trkpt lat="43.89016" lon="6.65337">
        <ele>1491.858</ele>
        <time>2014-10-04T12:42:55Z</time>
      </trkpt>
      <trkpt lat="43.89024" lon="6.65379">
        <ele>1485.323</ele>
        <time>2014-10-04T12:43:01Z</time>
      </trkpt>
      <trkpt lat="43.89025" lon="6.65401">
        <ele>1481.813</ele>
        <time>2014-10-04T12:43:04Z</time>
      </trkpt>
      <trkpt lat="43.89027" lon="6.65423">
        <ele>1478.367</ele>
        <time>2014-10-04T12:43:08Z</time>
      </trkpt>
      <trkpt lat="43.89031" lon="6.65432">
        <ele>1476.75</ele>
        <time>2014-10-04T12:43:10Z</time>
      </trkpt>
      <trkpt lat="43.89038" lon="6.65426">
        <ele>1474.664</ele>
        <time>2014-10-04T12:43:14Z</time>
      </trkpt>
      <trkpt lat="43.89042" lon="6.65434">
        <ele>1473.319</ele>
        <time>2014-10-04T12:43:17Z</time>
      </trkpt>
      <trkpt lat="43.89043" lon="6.65438">
        <ele>1472.647</ele>
        <time>2014-10-04T12:43:18Z</time>
      </trkpt>
      <trkpt lat="43.89046" lon="6.65444">
        <ele>1471.315</ele>
        <time>2014-10-04T12:43:20Z</time>
      </trkpt>
      <trkpt lat="43.89054" lon="6.65438">
        <ele>1469.588</ele>
        <time>2014-10-04T12:43:24Z</time>
      </trkpt>
      <trkpt lat="43.89071" lon="6.65424">
        <ele>1465.785</ele>
        <time>2014-10-04T12:43:29Z</time>
      </trkpt>
      <trkpt lat="43.89085" lon="6.6541">
        <ele>1462.674</ele>
        <time>2014-10-04T12:43:33Z</time>
      </trkpt>
      <trkpt lat="43.89087" lon="6.65417">
        <ele>1461.014</ele>
        <time>2014-10-04T12:43:35Z</time>
      </trkpt>
      <trkpt lat="43.89093" lon="6.65452">
        <ele>1454.094</ele>
        <time>2014-10-04T12:43:41Z</time>
      </trkpt>
      <trkpt lat="43.89092" lon="6.65474">
        <ele>1447.84</ele>
        <time>2014-10-04T12:43:46Z</time>
      </trkpt>
      <trkpt lat="43.89096" lon="6.65498">
        <ele>1441.968</ele>
        <time>2014-10-04T12:43:51Z</time>
      </trkpt>
      <trkpt lat="43.89102" lon="6.65521">
        <ele>1438.511</ele>
        <time>2014-10-04T12:43:56Z</time>
      </trkpt>
      <trkpt lat="43.89103" lon="6.6554">
        <ele>1435.435</ele>
        <time>2014-10-04T12:44:00Z</time>
      </trkpt>
      <trkpt lat="43.8911" lon="6.65564">
        <ele>1431.28</ele>
        <time>2014-10-04T12:44:05Z</time>
      </trkpt>
      <trkpt lat="43.89115" lon="6.6558">
        <ele>1428.755</ele>
        <time>2014-10-04T12:44:09Z</time>
      </trkpt>
      <trkpt lat="43.89119" lon="6.65579">
        <ele>1427.807</ele>
        <time>2014-10-04T12:44:11Z</time>
      </trkpt>
      <trkpt lat="43.89129" lon="6.65554">
        <ele>1422.15</ele>
        <time>2014-10-04T12:44:17Z</time>
      </trkpt>
      <trkpt lat="43.89134" lon="6.65541">
        <ele>1419.641</ele>
        <time>2014-10-04T12:44:20Z</time>
      </trkpt>
      <trkpt lat="43.8914" lon="6.65532">
        <ele>1417.521</ele>
        <time>2014-10-04T12:44:23Z</time>
      </trkpt>
      <trkpt lat="43.89143" lon="6.65525">
        <ele>1416.453</ele>
        <time>2014-10-04T12:44:25Z</time>
      </trkpt>
      <trkpt lat="43.89151" lon="6.655">
        <ele>1411.834</ele>
        <time>2014-10-04T12:44:31Z</time>
      </trkpt>
      <trkpt lat="43.89158" lon="6.65485">
        <ele>1410.46</ele>
        <time>2014-10-04T12:44:35Z</time>
      </trkpt>
      <trkpt lat="43.89166" lon="6.65483">
        <ele>1407.282</ele>
        <time>2014-10-04T12:44:39Z</time>
      </trkpt>
      <trkpt lat="43.89168" lon="6.6549">
        <ele>1405.51</ele>
        <time>2014-10-04T12:44:41Z</time>
      </trkpt>
      <trkpt lat="43.89172" lon="6.65507">
        <ele>1401.22</ele>
        <time>2014-10-04T12:44:46Z</time>
      </trkpt>
      <trkpt lat="43.89173" lon="6.65509">
        <ele>1400.552</ele>
        <time>2014-10-04T12:44:47Z</time>
      </trkpt>
      <trkpt lat="43.89175" lon="6.65514">
        <ele>1400.149</ele>
        <time>2014-10-04T12:44:50Z</time>
      </trkpt>
      <trkpt lat="43.89179" lon="6.65511">
        <ele>1400.542</ele>
        <time>2014-10-04T12:44:56Z</time>
      </trkpt>
      <trkpt lat="43.89179" lon="6.65511">
        <ele>1400.603</ele>
        <time>2014-10-04T12:44:57Z</time>
      </trkpt>
      <trkpt lat="43.8918" lon="6.65513">
        <ele>1400.26</ele>
        <time>2014-10-04T12:45:01Z</time>
      </trkpt>
      <trkpt lat="43.89183" lon="6.6551">
        <ele>1398.195</ele>
        <time>2014-10-04T12:45:07Z</time>
      </trkpt>
      <trkpt lat="43.89187" lon="6.65496">
        <ele>1395.542</ele>
        <time>2014-10-04T12:45:12Z</time>
      </trkpt>
      <trkpt lat="43.89187" lon="6.65489">
        <ele>1393.223</ele>
        <time>2014-10-04T12:45:17Z</time>
      </trkpt>
      <trkpt lat="43.89189" lon="6.65481">
        <ele>1392.565</ele>
        <time>2014-10-04T12:45:20Z</time>
      </trkpt>
      <trkpt lat="43.89189" lon="6.65475">
        <ele>1391.913</ele>
        <time>2014-10-04T12:45:22Z</time>
      </trkpt>
      <trkpt lat="43.89189" lon="6.65471">
        <ele>1390.851</ele>
        <time>2014-10-04T12:45:24Z</time>
      </trkpt>
      <trkpt lat="43.89191" lon="6.65466">
        <ele>1388.857</ele>
        <time>2014-10-04T12:45:28Z</time>
      </trkpt>
      <trkpt lat="43.89193" lon="6.65464">
        <ele>1387.396</ele>
        <time>2014-10-04T12:45:35Z</time>
      </trkpt>
      <trkpt lat="43.89193" lon="6.65464">
        <ele>1388.453</ele>
        <time>2014-10-04T12:45:39Z</time>
      </trkpt>
      <trkpt lat="43.892" lon="6.65471">
        <ele>1394.888</ele>
        <time>2014-10-04T12:45:46Z</time>
      </trkpt>
      <trkpt lat="43.892" lon="6.65471">
        <ele>1395.237</ele>
        <time>2014-10-04T12:45:47Z</time>
      </trkpt>
      <trkpt lat="43.89203" lon="6.65472">
        <ele>1398.94</ele>
        <time>2014-10-04T12:45:52Z</time>
      </trkpt>
      <trkpt lat="43.89204" lon="6.65475">
        <ele>1398.264</ele>
        <time>2014-10-04T12:45:57Z</time>
      </trkpt>
      <trkpt lat="43.89209" lon="6.65483">
        <ele>1398.952</ele>
        <time>2014-10-04T12:46:02Z</time>
      </trkpt>
      <trkpt lat="43.89214" lon="6.65488">
        <ele>1396.845</ele>
        <time>2014-10-04T12:46:06Z</time>
      </trkpt>
      <trkpt lat="43.89215" lon="6.65488">
        <ele>1394.374</ele>
        <time>2014-10-04T12:46:11Z</time>
      </trkpt>
      <trkpt lat="43.89211" lon="6.65484">
        <ele>1388.362</ele>
        <time>2014-10-04T12:46:19Z</time>
      </trkpt>
      <trkpt lat="43.89211" lon="6.65489">
        <ele>1394.817</ele>
        <time>2014-10-04T12:47:33Z</time>
      </trkpt>
      <trkpt lat="43.8922" lon="6.65491">
        <ele>1409.53</ele>
        <time>2014-10-04T12:47:56Z</time>
      </trkpt>
      <trkpt lat="43.89221" lon="6.65485">
        <ele>1416.13</ele>
        <time>2014-10-04T12:48:11Z</time>
      </trkpt>
      <trkpt lat="43.89221" lon="6.65489">
        <ele>1412.271</ele>
        <time>2014-10-04T12:48:26Z</time>
      </trkpt>
      <trkpt lat="43.89221" lon="6.65498">
        <ele>1410.552</ele>
        <time>2014-10-04T12:48:31Z</time>
      </trkpt>
      <trkpt lat="43.89222" lon="6.65507">
        <ele>1408.062</ele>
        <time>2014-10-04T12:48:39Z</time>
      </trkpt>
      <trkpt lat="43.89223" lon="6.6551">
        <ele>1405.225</ele>
        <time>2014-10-04T12:48:44Z</time>
      </trkpt>
      <trkpt lat="43.89224" lon="6.65512">
        <ele>1403.165</ele>
        <time>2014-10-04T12:48:49Z</time>
      </trkpt>
      <trkpt lat="43.89221" lon="6.65515">
        <ele>1398.763</ele>
        <time>2014-10-04T12:48:56Z</time>
      </trkpt>
      <trkpt lat="43.89219" lon="6.65516">
        <ele>1396.57</ele>
        <time>2014-10-04T12:48:59Z</time>
      </trkpt>
      <trkpt lat="43.89221" lon="6.65518">
        <ele>1394.583</ele>
        <time>2014-10-04T12:49:03Z</time>
      </trkpt>
      <trkpt lat="43.89226" lon="6.65519">
        <ele>1394.309</ele>
        <time>2014-10-04T12:49:09Z</time>
      </trkpt>
      <trkpt lat="43.89224" lon="6.6552">
        <ele>1392.131</ele>
        <time>2014-10-04T12:49:15Z</time>
      </trkpt>
      <trkpt lat="43.89223" lon="6.65521">
        <ele>1388.933</ele>
        <time>2014-10-04T12:49:22Z</time>
      </trkpt>
      <trkpt lat="43.89225" lon="6.65527">
        <ele>1387.682</ele>
        <time>2014-10-04T12:49:30Z</time>
      </trkpt>
      <trkpt lat="43.89226" lon="6.65527">
        <ele>1385.682</ele>
        <time>2014-10-04T12:49:44Z</time>
      </trkpt>
      <trkpt lat="43.89229" lon="6.65534">
        <ele>1384.381</ele>
        <time>2014-10-04T12:49:48Z</time>
      </trkpt>
      <trkpt lat="43.89234" lon="6.65548">
        <ele>1385.437</ele>
        <time>2014-10-04T12:49:54Z</time>
      </trkpt>
      <trkpt lat="43.89236" lon="6.65553">
        <ele>1383.339</ele>
        <time>2014-10-04T12:49:58Z</time>
      </trkpt>
      <trkpt lat="43.8924" lon="6.65555">
        <ele>1385.785</ele>
        <time>2014-10-04T12:50:07Z</time>
      </trkpt>
      <trkpt lat="43.8924" lon="6.65561">
        <ele>1392.163</ele>
        <time>2014-10-04T12:50:13Z</time>
      </trkpt>
      <trkpt lat="43.89239" lon="6.65563">
        <ele>1397.437</ele>
        <time>2014-10-04T12:50:16Z</time>
      </trkpt>
      <trkpt lat="43.89239" lon="6.65574">
        <ele>1400.717</ele>
        <time>2014-10-04T12:50:23Z</time>
      </trkpt>
      <trkpt lat="43.89239" lon="6.65578">
        <ele>1400.818</ele>
        <time>2014-10-04T12:50:28Z</time>
      </trkpt>
      <trkpt lat="43.89241" lon="6.65589">
        <ele>1397.481</ele>
        <time>2014-10-04T12:50:32Z</time>
      </trkpt>
      <trkpt lat="43.89243" lon="6.65598">
        <ele>1395.05</ele>
        <time>2014-10-04T12:50:37Z</time>
      </trkpt>
      <trkpt lat="43.89246" lon="6.65603">
        <ele>1395.099</ele>
        <time>2014-10-04T12:50:42Z</time>
      </trkpt>
      <trkpt lat="43.89249" lon="6.6561">
        <ele>1392.853</ele>
        <time>2014-10-04T12:50:48Z</time>
      </trkpt>
      <trkpt lat="43.8925" lon="6.6561">
        <ele>1392.363</ele>
        <time>2014-10-04T12:50:49Z</time>
      </trkpt>
      <trkpt lat="43.8926" lon="6.65623">
        <ele>1394.052</ele>
        <time>2014-10-04T12:50:57Z</time>
      </trkpt>
      <trkpt lat="43.89269" lon="6.65628">
        <ele>1394.753</ele>
        <time>2014-10-04T12:51:02Z</time>
      </trkpt>
      <trkpt lat="43.8927" lon="6.65628">
        <ele>1394.259</ele>
        <time>2014-10-04T12:51:04Z</time>
      </trkpt>
      <trkpt lat="43.89274" lon="6.65635">
        <ele>1393.756</ele>
        <time>2014-10-04T12:51:13Z</time>
      </trkpt>
      <trkpt lat="43.89276" lon="6.65646">
        <ele>1392.934</ele>
        <time>2014-10-04T12:51:21Z</time>
      </trkpt>
      <trkpt lat="43.89277" lon="6.65651">
        <ele>1390.18</ele>
        <time>2014-10-04T12:51:26Z</time>
      </trkpt>
      <trkpt lat="43.89283" lon="6.65657">
        <ele>1389.084</ele>
        <time>2014-10-04T12:51:33Z</time>
      </trkpt>
      <trkpt lat="43.89288" lon="6.65664">
        <ele>1391.942</ele>
        <time>2014-10-04T12:51:42Z</time>
      </trkpt>
      <trkpt lat="43.8929" lon="6.65672">
        <ele>1395.245</ele>
        <time>2014-10-04T12:51:52Z</time>
      </trkpt>
      <trkpt lat="43.89297" lon="6.65687">
        <ele>1395.109</ele>
        <time>2014-10-04T12:51:56Z</time>
      </trkpt>
      <trkpt lat="43.8931" lon="6.65708">
        <ele>1393.929</ele>
        <time>2014-10-04T12:52:01Z</time>
      </trkpt>
      <trkpt lat="43.89328" lon="6.65732">
        <ele>1390.462</ele>
        <time>2014-10-04T12:52:06Z</time>
      </trkpt>
      <trkpt lat="43.89336" lon="6.65739">
        <ele>1389.452</ele>
        <time>2014-10-04T12:52:08Z</time>
      </trkpt>
      <trkpt lat="43.89352" lon="6.65751">
        <ele>1386.69</ele>
        <time>2014-10-04T12:52:12Z</time>
      </trkpt>
      <trkpt lat="43.89369" lon="6.65759">
        <ele>1386.199</ele>
        <time>2014-10-04T12:52:17Z</time>
      </trkpt>
      <trkpt lat="43.89373" lon="6.6576">
        <ele>1388.238</ele>
        <time>2014-10-04T12:52:21Z</time>
      </trkpt>
      <trkpt lat="43.89376" lon="6.6576">
        <ele>1389.42</ele>
        <time>2014-10-04T12:52:24Z</time>
      </trkpt>
      <trkpt lat="43.89388" lon="6.65768">
        <ele>1389.607</ele>
        <time>2014-10-04T12:52:31Z</time>
      </trkpt>
      <trkpt lat="43.89392" lon="6.65771">
        <ele>1390.296</ele>
        <time>2014-10-04T12:52:36Z</time>
      </trkpt>
      <trkpt lat="43.89397" lon="6.65775">
        <ele>1390.178</ele>
        <time>2014-10-04T12:52:46Z</time>
      </trkpt>
      <trkpt lat="43.89403" lon="6.65783">
        <ele>1393.34</ele>
        <time>2014-10-04T12:52:54Z</time>
      </trkpt>
      <trkpt lat="43.89407" lon="6.65788">
        <ele>1393.674</ele>
        <time>2014-10-04T12:52:58Z</time>
      </trkpt>
      <trkpt lat="43.8942" lon="6.65804">
        <ele>1393.718</ele>
        <time>2014-10-04T12:53:05Z</time>
      </trkpt>
      <trkpt lat="43.89432" lon="6.65817">
        <ele>1393.465</ele>
        <time>2014-10-04T12:53:11Z</time>
      </trkpt>
      <trkpt lat="43.89443" lon="6.65828">
        <ele>1393.536</ele>
        <time>2014-10-04T12:53:16Z</time>
      </trkpt>
      <trkpt lat="43.89456" lon="6.65836">
        <ele>1392.521</ele>
        <time>2014-10-04T12:53:21Z</time>
      </trkpt>
      <trkpt lat="43.89462" lon="6.65841">
        <ele>1392.371</ele>
        <time>2014-10-04T12:53:23Z</time>
      </trkpt>
      <trkpt lat="43.89476" lon="6.65866">
        <ele>1390.411</ele>
        <time>2014-10-04T12:53:30Z</time>
      </trkpt>
      <trkpt lat="43.89494" lon="6.65887">
        <ele>1388.085</ele>
        <time>2014-10-04T12:53:35Z</time>
      </trkpt>
      <trkpt lat="43.89498" lon="6.65891">
        <ele>1387.324</ele>
        <time>2014-10-04T12:53:36Z</time>
      </trkpt>
      <trkpt lat="43.8951" lon="6.65905">
        <ele>1385.493</ele>
        <time>2014-10-04T12:53:39Z</time>
      </trkpt>
      <trkpt lat="43.89527" lon="6.65929">
        <ele>1384.599</ele>
        <time>2014-10-04T12:53:44Z</time>
      </trkpt>
      <trkpt lat="43.8953" lon="6.65933">
        <ele>1384.71</ele>
        <time>2014-10-04T12:53:45Z</time>
      </trkpt>
      <trkpt lat="43.89543" lon="6.65956">
        <ele>1387.455</ele>
        <time>2014-10-04T12:53:52Z</time>
      </trkpt>
      <trkpt lat="43.89551" lon="6.65974">
        <ele>1388.225</ele>
        <time>2014-10-04T12:53:58Z</time>
      </trkpt>
      <trkpt lat="43.89559" lon="6.65981">
        <ele>1388.469</ele>
        <time>2014-10-04T12:54:02Z</time>
      </trkpt>
      <trkpt lat="43.89569" lon="6.6599">
        <ele>1389.382</ele>
        <time>2014-10-04T12:54:07Z</time>
      </trkpt>
      <trkpt lat="43.89572" lon="6.66002">
        <ele>1390.311</ele>
        <time>2014-10-04T12:54:11Z</time>
      </trkpt>
      <trkpt lat="43.89572" lon="6.66015">
        <ele>1390.216</ele>
        <time>2014-10-04T12:54:15Z</time>
      </trkpt>
      <trkpt lat="43.89571" lon="6.66016">
        <ele>1390.236</ele>
        <time>2014-10-04T12:54:16Z</time>
      </trkpt>
      <trkpt lat="43.89571" lon="6.66016">
        <ele>1389.602</ele>
        <time>2014-10-04T12:54:23Z</time>
      </trkpt>
      <trkpt lat="43.89573" lon="6.66015">
        <ele>1403.947</ele>
        <time>2014-10-04T12:56:35Z</time>
      </trkpt>
      <trkpt lat="43.89573" lon="6.66014">
        <ele>1403.596</ele>
        <time>2014-10-04T12:56:36Z</time>
      </trkpt>
      <trkpt lat="43.89577" lon="6.66025">
        <ele>1402.991</ele>
        <time>2014-10-04T12:56:41Z</time>
      </trkpt>
      <trkpt lat="43.89583" lon="6.66039">
        <ele>1403.653</ele>
        <time>2014-10-04T12:56:46Z</time>
      </trkpt>
      <trkpt lat="43.89587" lon="6.66055">
        <ele>1404.616</ele>
        <time>2014-10-04T12:56:51Z</time>
      </trkpt>
      <trkpt lat="43.89593" lon="6.66064">
        <ele>1403.795</ele>
        <time>2014-10-04T12:56:57Z</time>
      </trkpt>
      <trkpt lat="43.89594" lon="6.66065">
        <ele>1402.145</ele>
        <time>2014-10-04T12:57:04Z</time>
      </trkpt>
      <trkpt lat="43.89594" lon="6.66067">
        <ele>1394.367</ele>
        <time>2014-10-04T12:58:55Z</time>
      </trkpt>
      <trkpt lat="43.89591" lon="6.66081">
        <ele>1394.272</ele>
        <time>2014-10-04T12:59:00Z</time>
      </trkpt>
      <trkpt lat="43.89589" lon="6.661">
        <ele>1392.112</ele>
        <time>2014-10-04T12:59:04Z</time>
      </trkpt>
      <trkpt lat="43.89593" lon="6.66122">
        <ele>1388.171</ele>
        <time>2014-10-04T12:59:08Z</time>
      </trkpt>
      <trkpt lat="43.89599" lon="6.66137">
        <ele>1384.79</ele>
        <time>2014-10-04T12:59:11Z</time>
      </trkpt>
      <trkpt lat="43.89606" lon="6.66158">
        <ele>1382.089</ele>
        <time>2014-10-04T12:59:15Z</time>
      </trkpt>
      <trkpt lat="43.89619" lon="6.66189">
        <ele>1377.23</ele>
        <time>2014-10-04T12:59:22Z</time>
      </trkpt>
      <trkpt lat="43.89628" lon="6.66212">
        <ele>1374.449</ele>
        <time>2014-10-04T12:59:26Z</time>
      </trkpt>
      <trkpt lat="43.8964" lon="6.66264">
        <ele>1366.952</ele>
        <time>2014-10-04T12:59:33Z</time>
      </trkpt>
      <trkpt lat="43.89656" lon="6.6631">
        <ele>1362.713</ele>
        <time>2014-10-04T12:59:39Z</time>
      </trkpt>
      <trkpt lat="43.89658" lon="6.66317">
        <ele>1361.804</ele>
        <time>2014-10-04T12:59:40Z</time>
      </trkpt>
      <trkpt lat="43.89673" lon="6.6635">
        <ele>1356.156</ele>
        <time>2014-10-04T12:59:45Z</time>
      </trkpt>
      <trkpt lat="43.89699" lon="6.66411">
        <ele>1348.231</ele>
        <time>2014-10-04T12:59:53Z</time>
      </trkpt>
      <trkpt lat="43.89706" lon="6.66435">
        <ele>1345.036</ele>
        <time>2014-10-04T12:59:57Z</time>
      </trkpt>
      <trkpt lat="43.89722" lon="6.6648">
        <ele>1338.783</ele>
        <time>2014-10-04T13:00:03Z</time>
      </trkpt>
      <trkpt lat="43.8974" lon="6.66539">
        <ele>1331.894</ele>
        <time>2014-10-04T13:00:10Z</time>
      </trkpt>
      <trkpt lat="43.89751" lon="6.66576">
        <ele>1327.842</ele>
        <time>2014-10-04T13:00:15Z</time>
      </trkpt>
      <trkpt lat="43.89755" lon="6.66591">
        <ele>1326.2</ele>
        <time>2014-10-04T13:00:17Z</time>
      </trkpt>
      <trkpt lat="43.89761" lon="6.66607">
        <ele>1323.896</ele>
        <time>2014-10-04T13:00:19Z</time>
      </trkpt>
      <trkpt lat="43.89776" lon="6.66657">
        <ele>1319.913</ele>
        <time>2014-10-04T13:00:24Z</time>
      </trkpt>
      <trkpt lat="43.89797" lon="6.66718">
        <ele>1315.205</ele>
        <time>2014-10-04T13:00:30Z</time>
      </trkpt>
      <trkpt lat="43.89822" lon="6.66792">
        <ele>1310.147</ele>
        <time>2014-10-04T13:00:37Z</time>
      </trkpt>
      <trkpt lat="43.89834" lon="6.66837">
        <ele>1305.477</ele>
        <time>2014-10-04T13:00:42Z</time>
      </trkpt>
      <trkpt lat="43.89837" lon="6.66855">
        <ele>1303.124</ele>
        <time>2014-10-04T13:00:44Z</time>
      </trkpt>
      <trkpt lat="43.89844" lon="6.66886">
        <ele>1298.365</ele>
        <time>2014-10-04T13:00:48Z</time>
      </trkpt>
      <trkpt lat="43.89847" lon="6.66903">
        <ele>1296.105</ele>
        <time>2014-10-04T13:00:51Z</time>
      </trkpt>
      <trkpt lat="43.89851" lon="6.66936">
        <ele>1291.629</ele>
        <time>2014-10-04T13:00:57Z</time>
      </trkpt>
      <trkpt lat="43.89851" lon="6.66938">
        <ele>1290.449</ele>
        <time>2014-10-04T13:01:01Z</time>
      </trkpt>
      <trkpt lat="43.8985" lon="6.66941">
        <ele>1290.765</ele>
        <time>2014-10-04T13:01:08Z</time>
      </trkpt>
      <trkpt lat="43.89853" lon="6.6695">
        <ele>1290.366</ele>
        <time>2014-10-04T13:01:12Z</time>
      </trkpt>
      <trkpt lat="43.89853" lon="6.66961">
        <ele>1289.013</ele>
        <time>2014-10-04T13:01:17Z</time>
      </trkpt>
      <trkpt lat="43.89855" lon="6.66966">
        <ele>1290.238</ele>
        <time>2014-10-04T13:01:36Z</time>
      </trkpt>
      <trkpt lat="43.89856" lon="6.66973">
        <ele>1290.345</ele>
        <time>2014-10-04T13:01:42Z</time>
      </trkpt>
      <trkpt lat="43.89858" lon="6.66978">
        <ele>1288.456</ele>
        <time>2014-10-04T13:01:46Z</time>
      </trkpt>
      <trkpt lat="43.8986" lon="6.66983">
        <ele>1287.961</ele>
        <time>2014-10-04T13:01:50Z</time>
      </trkpt>
      <trkpt lat="43.89865" lon="6.67006">
        <ele>1285.773</ele>
        <time>2014-10-04T13:01:55Z</time>
      </trkpt>
      <trkpt lat="43.89869" lon="6.67021">
        <ele>1283.815</ele>
        <time>2014-10-04T13:01:58Z</time>
      </trkpt>
      <trkpt lat="43.89881" lon="6.67048">
        <ele>1278.274</ele>
        <time>2014-10-04T13:02:03Z</time>
      </trkpt>
      <trkpt lat="43.89888" lon="6.67059">
        <ele>1275.612</ele>
        <time>2014-10-04T13:02:05Z</time>
      </trkpt>
      <trkpt lat="43.89915" lon="6.67081">
        <ele>1270.885</ele>
        <time>2014-10-04T13:02:10Z</time>
      </trkpt>
      <trkpt lat="43.89919" lon="6.67085">
        <ele>1270.197</ele>
        <time>2014-10-04T13:02:11Z</time>
      </trkpt>
      <trkpt lat="43.89932" lon="6.67094">
        <ele>1267.608</ele>
        <time>2014-10-04T13:02:15Z</time>
      </trkpt>
      <trkpt lat="43.89931" lon="6.67095">
        <ele>1268.04</ele>
        <time>2014-10-04T13:02:16Z</time>
      </trkpt>
      <trkpt lat="43.89921" lon="6.67093">
        <ele>1266.573</ele>
        <time>2014-10-04T13:02:21Z</time>
      </trkpt>
      <trkpt lat="43.89901" lon="6.67087">
        <ele>1264.206</ele>
        <time>2014-10-04T13:02:27Z</time>
      </trkpt>
      <trkpt lat="43.89884" lon="6.67087">
        <ele>1262.158</ele>
        <time>2014-10-04T13:02:30Z</time>
      </trkpt>
      <trkpt lat="43.89858" lon="6.67079">
        <ele>1260.164</ele>
        <time>2014-10-04T13:02:34Z</time>
      </trkpt>
      <trkpt lat="43.89815" lon="6.67041">
        <ele>1256.352</ele>
        <time>2014-10-04T13:02:41Z</time>
      </trkpt>
      <trkpt lat="43.89792" lon="6.67005">
        <ele>1254.31</ele>
        <time>2014-10-04T13:02:46Z</time>
      </trkpt>
      <trkpt lat="43.8976" lon="6.66945">
        <ele>1252.506</ele>
        <time>2014-10-04T13:02:54Z</time>
      </trkpt>
      <trkpt lat="43.89736" lon="6.66915">
        <ele>1253.171</ele>
        <time>2014-10-04T13:03:00Z</time>
      </trkpt>
      <trkpt lat="43.89723" lon="6.66899">
        <ele>1254.491</ele>
        <time>2014-10-04T13:03:05Z</time>
      </trkpt>
      <trkpt lat="43.89715" lon="6.66895">
        <ele>1255.422</ele>
        <time>2014-10-04T13:03:08Z</time>
      </trkpt>
      <trkpt lat="43.89704" lon="6.66884">
        <ele>1254.588</ele>
        <time>2014-10-04T13:03:13Z</time>
      </trkpt>
      <trkpt lat="43.89691" lon="6.66866">
        <ele>1253.415</ele>
        <time>2014-10-04T13:03:17Z</time>
      </trkpt>
      <trkpt lat="43.89665" lon="6.66821">
        <ele>1250.622</ele>
        <time>2014-10-04T13:03:25Z</time>
      </trkpt>
      <trkpt lat="43.89656" lon="6.66803">
        <ele>1249.421</ele>
        <time>2014-10-04T13:03:28Z</time>
      </trkpt>
      <trkpt lat="43.89644" lon="6.66782">
        <ele>1246.883</ele>
        <time>2014-10-04T13:03:33Z</time>
      </trkpt>
      <trkpt lat="43.89637" lon="6.66786">
        <ele>1244.78</ele>
        <time>2014-10-04T13:03:36Z</time>
      </trkpt>
      <trkpt lat="43.89638" lon="6.66801">
        <ele>1243.201</ele>
        <time>2014-10-04T13:03:39Z</time>
      </trkpt>
      <trkpt lat="43.89655" lon="6.66853">
        <ele>1238.907</ele>
        <time>2014-10-04T13:03:46Z</time>
      </trkpt>
      <trkpt lat="43.89678" lon="6.66911">
        <ele>1234.327</ele>
        <time>2014-10-04T13:03:53Z</time>
      </trkpt>
      <trkpt lat="43.89703" lon="6.66967">
        <ele>1228.74</ele>
        <time>2014-10-04T13:03:59Z</time>
      </trkpt>
      <trkpt lat="43.89717" lon="6.67017">
        <ele>1223.359</ele>
        <time>2014-10-04T13:04:04Z</time>
      </trkpt>
      <trkpt lat="43.89727" lon="6.67065">
        <ele>1216.884</ele>
        <time>2014-10-04T13:04:10Z</time>
      </trkpt>
      <trkpt lat="43.89723" lon="6.67075">
        <ele>1213.814</ele>
        <time>2014-10-04T13:04:13Z</time>
      </trkpt>
      <trkpt lat="43.89716" lon="6.67063">
        <ele>1211.595</ele>
        <time>2014-10-04T13:04:16Z</time>
      </trkpt>
      <trkpt lat="43.89705" lon="6.67054">
        <ele>1210.013</ele>
        <time>2014-10-04T13:04:19Z</time>
      </trkpt>
      <trkpt lat="43.89699" lon="6.67067">
        <ele>1208.513</ele>
        <time>2014-10-04T13:04:22Z</time>
      </trkpt>
      <trkpt lat="43.89694" lon="6.67089">
        <ele>1208.703</ele>
        <time>2014-10-04T13:04:27Z</time>
      </trkpt>
      <trkpt lat="43.8969" lon="6.67103">
        <ele>1208.595</ele>
        <time>2014-10-04T13:04:31Z</time>
      </trkpt>
      <trkpt lat="43.89696" lon="6.6713">
        <ele>1209.583</ele>
        <time>2014-10-04T13:04:36Z</time>
      </trkpt>
      <trkpt lat="43.89696" lon="6.67149">
        <ele>1211.087</ele>
        <time>2014-10-04T13:04:39Z</time>
      </trkpt>
      <trkpt lat="43.89688" lon="6.67181">
        <ele>1213.006</ele>
        <time>2014-10-04T13:04:44Z</time>
      </trkpt>
      <trkpt lat="43.89692" lon="6.67195">
        <ele>1212.432</ele>
        <time>2014-10-04T13:04:47Z</time>
      </trkpt>
      <trkpt lat="43.89694" lon="6.67198">
        <ele>1212.805</ele>
        <time>2014-10-04T13:04:48Z</time>
      </trkpt>
      <trkpt lat="43.89708" lon="6.67207">
        <ele>1215.155</ele>
        <time>2014-10-04T13:04:55Z</time>
      </trkpt>
      <trkpt lat="43.89722" lon="6.67221">
        <ele>1216.992</ele>
        <time>2014-10-04T13:05:03Z</time>
      </trkpt>
      <trkpt lat="43.89733" lon="6.67237">
        <ele>1217.825</ele>
        <time>2014-10-04T13:05:11Z</time>
      </trkpt>
      <trkpt lat="43.89741" lon="6.6725">
        <ele>1217.729</ele>
        <time>2014-10-04T13:05:19Z</time>
      </trkpt>
      <trkpt lat="43.89745" lon="6.67263">
        <ele>1218.789</ele>
        <time>2014-10-04T13:05:25Z</time>
      </trkpt>
      <trkpt lat="43.89743" lon="6.67268">
        <ele>1219.457</ele>
        <time>2014-10-04T13:05:27Z</time>
      </trkpt>
      <trkpt lat="43.89732" lon="6.67269">
        <ele>1220.873</ele>
        <time>2014-10-04T13:05:34Z</time>
      </trkpt>
      <trkpt lat="43.89723" lon="6.67268">
        <ele>1222.878</ele>
        <time>2014-10-04T13:05:42Z</time>
      </trkpt>
      <trkpt lat="43.89717" lon="6.6726">
        <ele>1227.261</ele>
        <time>2014-10-04T13:05:50Z</time>
      </trkpt>
      <trkpt lat="43.8971" lon="6.67253">
        <ele>1230.195</ele>
        <time>2014-10-04T13:05:57Z</time>
      </trkpt>
      <trkpt lat="43.89701" lon="6.67248">
        <ele>1231.457</ele>
        <time>2014-10-04T13:06:05Z</time>
      </trkpt>
      <trkpt lat="43.89688" lon="6.67247">
        <ele>1230.544</ele>
        <time>2014-10-04T13:06:13Z</time>
      </trkpt>
      <trkpt lat="43.89677" lon="6.6725">
        <ele>1230.111</ele>
        <time>2014-10-04T13:06:21Z</time>
      </trkpt>
      <trkpt lat="43.89669" lon="6.67253">
        <ele>1230.899</ele>
        <time>2014-10-04T13:06:28Z</time>
      </trkpt>
      <trkpt lat="43.89661" lon="6.67258">
        <ele>1232.558</ele>
        <time>2014-10-04T13:06:36Z</time>
      </trkpt>
      <trkpt lat="43.8965" lon="6.67262">
        <ele>1233.418</ele>
        <time>2014-10-04T13:06:44Z</time>
      </trkpt>
      <trkpt lat="43.89641" lon="6.67263">
        <ele>1237.635</ele>
        <time>2014-10-04T13:06:53Z</time>
      </trkpt>
      <trkpt lat="43.89632" lon="6.67266">
        <ele>1239.995</ele>
        <time>2014-10-04T13:07:01Z</time>
      </trkpt>
      <trkpt lat="43.89626" lon="6.6727">
        <ele>1240.143</ele>
        <time>2014-10-04T13:07:07Z</time>
      </trkpt>
      <trkpt lat="43.89618" lon="6.67276">
        <ele>1239.23</ele>
        <time>2014-10-04T13:07:14Z</time>
      </trkpt>
      <trkpt lat="43.89606" lon="6.67281">
        <ele>1238.763</ele>
        <time>2014-10-04T13:07:23Z</time>
      </trkpt>
      <trkpt lat="43.89594" lon="6.67283">
        <ele>1238.638</ele>
        <time>2014-10-04T13:07:33Z</time>
      </trkpt>
      <trkpt lat="43.89584" lon="6.67285">
        <ele>1239.404</ele>
        <time>2014-10-04T13:07:42Z</time>
      </trkpt>
      <trkpt lat="43.89571" lon="6.67291">
        <ele>1238.061</ele>
        <time>2014-10-04T13:07:52Z</time>
      </trkpt>
      <trkpt lat="43.89559" lon="6.67293">
        <ele>1238.371</ele>
        <time>2014-10-04T13:08:01Z</time>
      </trkpt>
      <trkpt lat="43.89546" lon="6.67295">
        <ele>1242.909</ele>
        <time>2014-10-04T13:08:12Z</time>
      </trkpt>
      <trkpt lat="43.89536" lon="6.67299">
        <ele>1244.699</ele>
        <time>2014-10-04T13:08:20Z</time>
      </trkpt>
      <trkpt lat="43.89532" lon="6.67298">
        <ele>1248.335</ele>
        <time>2014-10-04T13:08:24Z</time>
      </trkpt>
      <trkpt lat="43.89525" lon="6.67303">
        <ele>1251.767</ele>
        <time>2014-10-04T13:08:30Z</time>
      </trkpt>
      <trkpt lat="43.89523" lon="6.67314">
        <ele>1253.574</ele>
        <time>2014-10-04T13:08:37Z</time>
      </trkpt>
      <trkpt lat="43.89526" lon="6.6732">
        <ele>1255.3</ele>
        <time>2014-10-04T13:08:42Z</time>
      </trkpt>
      <trkpt lat="43.89534" lon="6.67318">
        <ele>1259.789</ele>
        <time>2014-10-04T13:08:50Z</time>
      </trkpt>
      <trkpt lat="43.89541" lon="6.67318">
        <ele>1261.429</ele>
        <time>2014-10-04T13:08:56Z</time>
      </trkpt>
      <trkpt lat="43.89552" lon="6.67318">
        <ele>1261.977</ele>
        <time>2014-10-04T13:09:05Z</time>
      </trkpt>
      <trkpt lat="43.89555" lon="6.67328">
        <ele>1262.02</ele>
        <time>2014-10-04T13:09:11Z</time>
      </trkpt>
      <trkpt lat="43.89549" lon="6.67337">
        <ele>1263.213</ele>
        <time>2014-10-04T13:09:17Z</time>
      </trkpt>
      <trkpt lat="43.8954" lon="6.67347">
        <ele>1263.717</ele>
        <time>2014-10-04T13:09:26Z</time>
      </trkpt>
      <trkpt lat="43.89529" lon="6.67356">
        <ele>1263.92</ele>
        <time>2014-10-04T13:09:34Z</time>
      </trkpt>
      <trkpt lat="43.89514" lon="6.67365">
        <ele>1267.572</ele>
        <time>2014-10-04T13:09:42Z</time>
      </trkpt>
      <trkpt lat="43.89498" lon="6.67375">
        <ele>1271.097</ele>
        <time>2014-10-04T13:09:52Z</time>
      </trkpt>
      <trkpt lat="43.89483" lon="6.67383">
        <ele>1272.005</ele>
        <time>2014-10-04T13:10:00Z</time>
      </trkpt>
      <trkpt lat="43.8947" lon="6.67399">
        <ele>1272.87</ele>
        <time>2014-10-04T13:10:09Z</time>
      </trkpt>
      <trkpt lat="43.89457" lon="6.67417">
        <ele>1274.123</ele>
        <time>2014-10-04T13:10:19Z</time>
      </trkpt>
      <trkpt lat="43.89446" lon="6.67428">
        <ele>1275.441</ele>
        <time>2014-10-04T13:10:27Z</time>
      </trkpt>
      <trkpt lat="43.89437" lon="6.67435">
        <ele>1277.468</ele>
        <time>2014-10-04T13:10:34Z</time>
      </trkpt>
      <trkpt lat="43.89431" lon="6.67446">
        <ele>1277.996</ele>
        <time>2014-10-04T13:10:40Z</time>
      </trkpt>
      <trkpt lat="43.89428" lon="6.67454">
        <ele>1279.309</ele>
        <time>2014-10-04T13:10:45Z</time>
      </trkpt>
      <trkpt lat="43.89426" lon="6.67461">
        <ele>1277.75</ele>
        <time>2014-10-04T13:11:13Z</time>
      </trkpt>
      <trkpt lat="43.89425" lon="6.6747">
        <ele>1274.633</ele>
        <time>2014-10-04T13:12:13Z</time>
      </trkpt>
      <trkpt lat="43.89428" lon="6.67494">
        <ele>1272.346</ele>
        <time>2014-10-04T13:12:18Z</time>
      </trkpt>
      <trkpt lat="43.89433" lon="6.67532">
        <ele>1268.62</ele>
        <time>2014-10-04T13:12:23Z</time>
      </trkpt>
      <trkpt lat="43.89441" lon="6.67578">
        <ele>1265.174</ele>
        <time>2014-10-04T13:12:28Z</time>
      </trkpt>
      <trkpt lat="43.8945" lon="6.67633">
        <ele>1261.152</ele>
        <time>2014-10-04T13:12:34Z</time>
      </trkpt>
      <trkpt lat="43.89443" lon="6.67669">
        <ele>1257.991</ele>
        <time>2014-10-04T13:12:38Z</time>
      </trkpt>
      <trkpt lat="43.89429" lon="6.67705">
        <ele>1255.677</ele>
        <time>2014-10-04T13:12:42Z</time>
      </trkpt>
      <trkpt lat="43.89421" lon="6.6774">
        <ele>1255.524</ele>
        <time>2014-10-04T13:12:46Z</time>
      </trkpt>
      <trkpt lat="43.89406" lon="6.67805">
        <ele>1252.34</ele>
        <time>2014-10-04T13:12:54Z</time>
      </trkpt>
      <trkpt lat="43.89396" lon="6.67858">
        <ele>1252.656</ele>
        <time>2014-10-04T13:13:01Z</time>
      </trkpt>
      <trkpt lat="43.89387" lon="6.67903">
        <ele>1253.587</ele>
        <time>2014-10-04T13:13:08Z</time>
      </trkpt>
      <trkpt lat="43.89379" lon="6.6795">
        <ele>1253.448</ele>
        <time>2014-10-04T13:13:15Z</time>
      </trkpt>
      <trkpt lat="43.89369" lon="6.68">
        <ele>1252.146</ele>
        <time>2014-10-04T13:13:22Z</time>
      </trkpt>
      <trkpt lat="43.89366" lon="6.68013">
        <ele>1251.615</ele>
        <time>2014-10-04T13:13:24Z</time>
      </trkpt>
      <trkpt lat="43.89363" lon="6.68025">
        <ele>1251.157</ele>
        <time>2014-10-04T13:13:26Z</time>
      </trkpt>
      <trkpt lat="43.89353" lon="6.68067">
        <ele>1249.232</ele>
        <time>2014-10-04T13:13:33Z</time>
      </trkpt>
      <trkpt lat="43.89344" lon="6.68085">
        <ele>1248.189</ele>
        <time>2014-10-04T13:13:36Z</time>
      </trkpt>
      <trkpt lat="43.8934" lon="6.6811">
        <ele>1246.401</ele>
        <time>2014-10-04T13:13:41Z</time>
      </trkpt>
      <trkpt lat="43.8934" lon="6.68113">
        <ele>1245.656</ele>
        <time>2014-10-04T13:13:44Z</time>
      </trkpt>
      <trkpt lat="43.8934" lon="6.68112">
        <ele>1245.829</ele>
        <time>2014-10-04T13:13:50Z</time>
      </trkpt>
      <trkpt lat="43.89329" lon="6.68115">
        <ele>1246.862</ele>
        <time>2014-10-04T13:13:56Z</time>
      </trkpt>
      <trkpt lat="43.89314" lon="6.68116">
        <ele>1249.2</ele>
        <time>2014-10-04T13:14:01Z</time>
      </trkpt>
      <trkpt lat="43.89304" lon="6.6812">
        <ele>1249.642</ele>
        <time>2014-10-04T13:14:07Z</time>
      </trkpt>
      <trkpt lat="43.89294" lon="6.68124">
        <ele>1250.803</ele>
        <time>2014-10-04T13:14:13Z</time>
      </trkpt>
      <trkpt lat="43.89286" lon="6.68122">
        <ele>1252.417</ele>
        <time>2014-10-04T13:14:18Z</time>
      </trkpt>
      <trkpt lat="43.89281" lon="6.68118">
        <ele>1253.016</ele>
        <time>2014-10-04T13:14:22Z</time>
      </trkpt>
      <trkpt lat="43.89276" lon="6.68111">
        <ele>1254.708</ele>
        <time>2014-10-04T13:14:27Z</time>
      </trkpt>
      <trkpt lat="43.89275" lon="6.68108">
        <ele>1255.108</ele>
        <time>2014-10-04T13:14:31Z</time>
      </trkpt>
      <trkpt lat="43.89272" lon="6.68109">
        <ele>1256.675</ele>
        <time>2014-10-04T13:14:36Z</time>
      </trkpt>
      <trkpt lat="43.89272" lon="6.68117">
        <ele>1257.744</ele>
        <time>2014-10-04T13:14:41Z</time>
      </trkpt>
      <trkpt lat="43.8927" lon="6.68143">
        <ele>1261.648</ele>
        <time>2014-10-04T13:14:52Z</time>
      </trkpt>
      <trkpt lat="43.89265" lon="6.68154">
        <ele>1264.507</ele>
        <time>2014-10-04T13:14:58Z</time>
      </trkpt>
      <trkpt lat="43.89264" lon="6.68158">
        <ele>1265.603</ele>
        <time>2014-10-04T13:15:00Z</time>
      </trkpt>
      <trkpt lat="43.89263" lon="6.68168">
        <ele>1268.102</ele>
        <time>2014-10-04T13:15:05Z</time>
      </trkpt>
      <trkpt lat="43.89264" lon="6.68177">
        <ele>1267.643</ele>
        <time>2014-10-04T13:15:10Z</time>
      </trkpt>
      <trkpt lat="43.89261" lon="6.6819">
        <ele>1269.434</ele>
        <time>2014-10-04T13:15:17Z</time>
      </trkpt>
      <trkpt lat="43.8926" lon="6.68201">
        <ele>1271.006</ele>
        <time>2014-10-04T13:15:23Z</time>
      </trkpt>
      <trkpt lat="43.89261" lon="6.68216">
        <ele>1270.984</ele>
        <time>2014-10-04T13:15:30Z</time>
      </trkpt>
      <trkpt lat="43.8926" lon="6.68223">
        <ele>1272.647</ele>
        <time>2014-10-04T13:15:33Z</time>
      </trkpt>
      <trkpt lat="43.89261" lon="6.68236">
        <ele>1274.456</ele>
        <time>2014-10-04T13:15:40Z</time>
      </trkpt>
      <trkpt lat="43.8926" lon="6.68241">
        <ele>1275.498</ele>
        <time>2014-10-04T13:15:43Z</time>
      </trkpt>
      <trkpt lat="43.89258" lon="6.68248">
        <ele>1276.666</ele>
        <time>2014-10-04T13:15:47Z</time>
      </trkpt>
      <trkpt lat="43.89256" lon="6.68259">
        <ele>1278.405</ele>
        <time>2014-10-04T13:15:54Z</time>
      </trkpt>
      <trkpt lat="43.89257" lon="6.68262">
        <ele>1280.65</ele>
        <time>2014-10-04T13:15:56Z</time>
      </trkpt>
      <trkpt lat="43.89261" lon="6.68275">
        <ele>1280.997</ele>
        <time>2014-10-04T13:16:04Z</time>
      </trkpt>
      <trkpt lat="43.89267" lon="6.68284">
        <ele>1279.347</ele>
        <time>2014-10-04T13:16:09Z</time>
      </trkpt>
      <trkpt lat="43.89268" lon="6.68286">
        <ele>1279.166</ele>
        <time>2014-10-04T13:16:10Z</time>
      </trkpt>
      <trkpt lat="43.89276" lon="6.68305">
        <ele>1280.72</ele>
        <time>2014-10-04T13:16:18Z</time>
      </trkpt>
      <trkpt lat="43.8928" lon="6.68326">
        <ele>1281.864</ele>
        <time>2014-10-04T13:16:27Z</time>
      </trkpt>
      <trkpt lat="43.89281" lon="6.68341">
        <ele>1283.194</ele>
        <time>2014-10-04T13:16:34Z</time>
      </trkpt>
      <trkpt lat="43.89283" lon="6.68361">
        <ele>1284.284</ele>
        <time>2014-10-04T13:16:42Z</time>
      </trkpt>
      <trkpt lat="43.89283" lon="6.68372">
        <ele>1286.357</ele>
        <time>2014-10-04T13:16:47Z</time>
      </trkpt>
      <trkpt lat="43.89283" lon="6.68377">
        <ele>1287.21</ele>
        <time>2014-10-04T13:16:49Z</time>
      </trkpt>
      <trkpt lat="43.89282" lon="6.68383">
        <ele>1287.522</ele>
        <time>2014-10-04T13:16:52Z</time>
      </trkpt>
      <trkpt lat="43.89283" lon="6.68392">
        <ele>1286.709</ele>
        <time>2014-10-04T13:16:56Z</time>
      </trkpt>
      <trkpt lat="43.89285" lon="6.68407">
        <ele>1287.199</ele>
        <time>2014-10-04T13:17:02Z</time>
      </trkpt>
      <trkpt lat="43.89284" lon="6.68413">
        <ele>1287.119</ele>
        <time>2014-10-04T13:17:04Z</time>
      </trkpt>
      <trkpt lat="43.89281" lon="6.68441">
        <ele>1286.935</ele>
        <time>2014-10-04T13:17:12Z</time>
      </trkpt>
      <trkpt lat="43.89279" lon="6.6845">
        <ele>1288.065</ele>
        <time>2014-10-04T13:17:16Z</time>
      </trkpt>
      <trkpt lat="43.8927" lon="6.68461">
        <ele>1287.458</ele>
        <time>2014-10-04T13:17:23Z</time>
      </trkpt>
      <trkpt lat="43.89263" lon="6.68469">
        <ele>1288.539</ele>
        <time>2014-10-04T13:17:29Z</time>
      </trkpt>
      <trkpt lat="43.8926" lon="6.68475">
        <ele>1291.668</ele>
        <time>2014-10-04T13:17:36Z</time>
      </trkpt>
      <trkpt lat="43.89258" lon="6.68478">
        <ele>1292.26</ele>
        <time>2014-10-04T13:17:38Z</time>
      </trkpt>
      <trkpt lat="43.89247" lon="6.68488">
        <ele>1292.406</ele>
        <time>2014-10-04T13:17:46Z</time>
      </trkpt>
      <trkpt lat="43.89238" lon="6.68499">
        <ele>1291.786</ele>
        <time>2014-10-04T13:17:52Z</time>
      </trkpt>
      <trkpt lat="43.89228" lon="6.68512">
        <ele>1291.244</ele>
        <time>2014-10-04T13:17:58Z</time>
      </trkpt>
      <trkpt lat="43.89216" lon="6.68534">
        <ele>1291.403</ele>
        <time>2014-10-04T13:18:05Z</time>
      </trkpt>
      <trkpt lat="43.89209" lon="6.68551">
        <ele>1291.121</ele>
        <time>2014-10-04T13:18:11Z</time>
      </trkpt>
      <trkpt lat="43.89203" lon="6.6857">
        <ele>1291.112</ele>
        <time>2014-10-04T13:18:18Z</time>
      </trkpt>
      <trkpt lat="43.89201" lon="6.68574">
        <ele>1290.343</ele>
        <time>2014-10-04T13:18:20Z</time>
      </trkpt>
      <trkpt lat="43.89198" lon="6.68579">
        <ele>1288.489</ele>
        <time>2014-10-04T13:18:25Z</time>
      </trkpt>
      <trkpt lat="43.89198" lon="6.68579">
        <ele>1286.164</ele>
        <time>2014-10-04T13:19:46Z</time>
      </trkpt>
      <trkpt lat="43.89196" lon="6.68579">
        <ele>1286.492</ele>
        <time>2014-10-04T13:19:52Z</time>
      </trkpt>
      <trkpt lat="43.89186" lon="6.68575">
        <ele>1289.031</ele>
        <time>2014-10-04T13:19:58Z</time>
      </trkpt>
      <trkpt lat="43.89175" lon="6.68579">
        <ele>1290.245</ele>
        <time>2014-10-04T13:20:04Z</time>
      </trkpt>
      <trkpt lat="43.89164" lon="6.68579">
        <ele>1293.5</ele>
        <time>2014-10-04T13:20:11Z</time>
      </trkpt>
      <trkpt lat="43.89148" lon="6.68577">
        <ele>1295.095</ele>
        <time>2014-10-04T13:20:19Z</time>
      </trkpt>
      <trkpt lat="43.89133" lon="6.68572">
        <ele>1296.097</ele>
        <time>2014-10-04T13:20:27Z</time>
      </trkpt>
      <trkpt lat="43.89118" lon="6.68573">
        <ele>1295.96</ele>
        <time>2014-10-04T13:20:33Z</time>
      </trkpt>
      <trkpt lat="43.89104" lon="6.68575">
        <ele>1295.623</ele>
        <time>2014-10-04T13:20:38Z</time>
      </trkpt>
      <trkpt lat="43.89092" lon="6.68573">
        <ele>1297.28</ele>
        <time>2014-10-04T13:20:44Z</time>
      </trkpt>
      <trkpt lat="43.89082" lon="6.68571">
        <ele>1298.769</ele>
        <time>2014-10-04T13:20:50Z</time>
      </trkpt>
      <trkpt lat="43.89065" lon="6.68569">
        <ele>1300.749</ele>
        <time>2014-10-04T13:21:00Z</time>
      </trkpt>
      <trkpt lat="43.89055" lon="6.6857">
        <ele>1301.928</ele>
        <time>2014-10-04T13:21:06Z</time>
      </trkpt>
      <trkpt lat="43.89043" lon="6.68575">
        <ele>1302.573</ele>
        <time>2014-10-04T13:21:12Z</time>
      </trkpt>
      <trkpt lat="43.89025" lon="6.68577">
        <ele>1302.948</ele>
        <time>2014-10-04T13:21:21Z</time>
      </trkpt>
      <trkpt lat="43.89022" lon="6.68577">
        <ele>1302.595</ele>
        <time>2014-10-04T13:21:22Z</time>
      </trkpt>
      <trkpt lat="43.88997" lon="6.68572">
        <ele>1299.335</ele>
        <time>2014-10-04T13:21:27Z</time>
      </trkpt>
      <trkpt lat="43.88992" lon="6.68568">
        <ele>1298.856</ele>
        <time>2014-10-04T13:21:28Z</time>
      </trkpt>
      <trkpt lat="43.88966" lon="6.68557">
        <ele>1297.714</ele>
        <time>2014-10-04T13:21:34Z</time>
      </trkpt>
      <trkpt lat="43.8896" lon="6.68556">
        <ele>1300.125</ele>
        <time>2014-10-04T13:21:38Z</time>
      </trkpt>
      <trkpt lat="43.88952" lon="6.6856">
        <ele>1301.525</ele>
        <time>2014-10-04T13:21:43Z</time>
      </trkpt>
      <trkpt lat="43.88948" lon="6.68562">
        <ele>1301.593</ele>
        <time>2014-10-04T13:21:46Z</time>
      </trkpt>
      <trkpt lat="43.88941" lon="6.68569">
        <ele>1301.374</ele>
        <time>2014-10-04T13:21:52Z</time>
      </trkpt>
      <trkpt lat="43.88933" lon="6.68576">
        <ele>1303.941</ele>
        <time>2014-10-04T13:21:57Z</time>
      </trkpt>
      <trkpt lat="43.88919" lon="6.68587">
        <ele>1306.611</ele>
        <time>2014-10-04T13:22:05Z</time>
      </trkpt>
      <trkpt lat="43.88905" lon="6.68593">
        <ele>1304.659</ele>
        <time>2014-10-04T13:22:10Z</time>
      </trkpt>
      <trkpt lat="43.88887" lon="6.686">
        <ele>1302.037</ele>
        <time>2014-10-04T13:22:17Z</time>
      </trkpt>
      <trkpt lat="43.88874" lon="6.68608">
        <ele>1302.1</ele>
        <time>2014-10-04T13:22:22Z</time>
      </trkpt>
      <trkpt lat="43.88864" lon="6.68616">
        <ele>1301.445</ele>
        <time>2014-10-04T13:22:27Z</time>
      </trkpt>
      <trkpt lat="43.88856" lon="6.68629">
        <ele>1303.707</ele>
        <time>2014-10-04T13:22:32Z</time>
      </trkpt>
      <trkpt lat="43.88851" lon="6.68634">
        <ele>1304.327</ele>
        <time>2014-10-04T13:22:35Z</time>
      </trkpt>
      <trkpt lat="43.88842" lon="6.68646">
        <ele>1305.478</ele>
        <time>2014-10-04T13:22:40Z</time>
      </trkpt>
      <trkpt lat="43.88834" lon="6.68649">
        <ele>1305.969</ele>
        <time>2014-10-04T13:22:44Z</time>
      </trkpt>
      <trkpt lat="43.88819" lon="6.68655">
        <ele>1304.9</ele>
        <time>2014-10-04T13:22:49Z</time>
      </trkpt>
      <trkpt lat="43.88816" lon="6.68655">
        <ele>1305.153</ele>
        <time>2014-10-04T13:22:50Z</time>
      </trkpt>
      <trkpt lat="43.88803" lon="6.68668">
        <ele>1303.858</ele>
        <time>2014-10-04T13:22:55Z</time>
      </trkpt>
      <trkpt lat="43.88791" lon="6.68684">
        <ele>1302.447</ele>
        <time>2014-10-04T13:23:01Z</time>
      </trkpt>
      <trkpt lat="43.88776" lon="6.68698">
        <ele>1300.723</ele>
        <time>2014-10-04T13:23:05Z</time>
      </trkpt>
      <trkpt lat="43.88735" lon="6.68706">
        <ele>1296.765</ele>
        <time>2014-10-04T13:23:12Z</time>
      </trkpt>
      <trkpt lat="43.88718" lon="6.68702">
        <ele>1296.865</ele>
        <time>2014-10-04T13:23:17Z</time>
      </trkpt>
      <trkpt lat="43.887" lon="6.68695">
        <ele>1296.238</ele>
        <time>2014-10-04T13:23:23Z</time>
      </trkpt>
      <trkpt lat="43.88676" lon="6.68697">
        <ele>1295.33</ele>
        <time>2014-10-04T13:23:30Z</time>
      </trkpt>
      <trkpt lat="43.88649" lon="6.68701">
        <ele>1295.994</ele>
        <time>2014-10-04T13:23:39Z</time>
      </trkpt>
      <trkpt lat="43.88632" lon="6.68703">
        <ele>1297.639</ele>
        <time>2014-10-04T13:23:46Z</time>
      </trkpt>
      <trkpt lat="43.88615" lon="6.68706">
        <ele>1300.366</ele>
        <time>2014-10-04T13:23:57Z</time>
      </trkpt>
      <trkpt lat="43.88604" lon="6.68708">
        <ele>1301.667</ele>
        <time>2014-10-04T13:24:05Z</time>
      </trkpt>
      <trkpt lat="43.88592" lon="6.68709">
        <ele>1303.528</ele>
        <time>2014-10-04T13:24:13Z</time>
      </trkpt>
      <trkpt lat="43.88582" lon="6.68709">
        <ele>1304.676</ele>
        <time>2014-10-04T13:24:20Z</time>
      </trkpt>
      <trkpt lat="43.88578" lon="6.68707">
        <ele>1305.194</ele>
        <time>2014-10-04T13:24:24Z</time>
      </trkpt>
      <trkpt lat="43.88576" lon="6.68707">
        <ele>1305.33</ele>
        <time>2014-10-04T13:24:29Z</time>
      </trkpt>
      <trkpt lat="43.88578" lon="6.68708">
        <ele>1304.504</ele>
        <time>2014-10-04T13:25:27Z</time>
      </trkpt>
      <trkpt lat="43.88571" lon="6.68714">
        <ele>1305.806</ele>
        <time>2014-10-04T13:25:34Z</time>
      </trkpt>
      <trkpt lat="43.88562" lon="6.68722">
        <ele>1306.26</ele>
        <time>2014-10-04T13:25:45Z</time>
      </trkpt>
      <trkpt lat="43.88556" lon="6.68725">
        <ele>1305.691</ele>
        <time>2014-10-04T13:25:53Z</time>
      </trkpt>
      <trkpt lat="43.88552" lon="6.68723">
        <ele>1306.934</ele>
        <time>2014-10-04T13:25:57Z</time>
      </trkpt>
      <trkpt lat="43.88548" lon="6.68719">
        <ele>1308.15</ele>
        <time>2014-10-04T13:26:05Z</time>
      </trkpt>
      <trkpt lat="43.88542" lon="6.6872">
        <ele>1323.639</ele>
        <time>2014-10-04T13:31:25Z</time>
      </trkpt>
      <trkpt lat="43.88539" lon="6.68718">
        <ele>1321.98</ele>
        <time>2014-10-04T13:31:35Z</time>
      </trkpt>
      <trkpt lat="43.88528" lon="6.68708">
        <ele>1318.198</ele>
        <time>2014-10-04T13:31:42Z</time>
      </trkpt>
      <trkpt lat="43.88515" lon="6.68696">
        <ele>1313.24</ele>
        <time>2014-10-04T13:31:46Z</time>
      </trkpt>
      <trkpt lat="43.88495" lon="6.68682">
        <ele>1307.62</ele>
        <time>2014-10-04T13:31:52Z</time>
      </trkpt>
      <trkpt lat="43.88493" lon="6.68681">
        <ele>1307.022</ele>
        <time>2014-10-04T13:31:53Z</time>
      </trkpt>
      <trkpt lat="43.8849" lon="6.68664">
        <ele>1304.293</ele>
        <time>2014-10-04T13:31:57Z</time>
      </trkpt>
      <trkpt lat="43.88492" lon="6.68645">
        <ele>1301.411</ele>
        <time>2014-10-04T13:32:01Z</time>
      </trkpt>
      <trkpt lat="43.8849" lon="6.68633">
        <ele>1298.301</ele>
        <time>2014-10-04T13:32:04Z</time>
      </trkpt>
      <trkpt lat="43.88478" lon="6.6862">
        <ele>1291.845</ele>
        <time>2014-10-04T13:32:10Z</time>
      </trkpt>
      <trkpt lat="43.88469" lon="6.68618">
        <ele>1288.468</ele>
        <time>2014-10-04T13:32:14Z</time>
      </trkpt>
      <trkpt lat="43.88473" lon="6.68608">
        <ele>1284.806</ele>
        <time>2014-10-04T13:32:18Z</time>
      </trkpt>
      <trkpt lat="43.88469" lon="6.68601">
        <ele>1282.258</ele>
        <time>2014-10-04T13:32:21Z</time>
      </trkpt>
      <trkpt lat="43.88466" lon="6.686">
        <ele>1281.477</ele>
        <time>2014-10-04T13:32:22Z</time>
      </trkpt>
      <trkpt lat="43.88461" lon="6.68599">
        <ele>1280.021</ele>
        <time>2014-10-04T13:32:24Z</time>
      </trkpt>
      <trkpt lat="43.88449" lon="6.68593">
        <ele>1276.199</ele>
        <time>2014-10-04T13:32:29Z</time>
      </trkpt>
      <trkpt lat="43.88432" lon="6.68591">
        <ele>1271.449</ele>
        <time>2014-10-04T13:32:34Z</time>
      </trkpt>
      <trkpt lat="43.88427" lon="6.68593">
        <ele>1269.72</ele>
        <time>2014-10-04T13:32:36Z</time>
      </trkpt>
      <trkpt lat="43.88423" lon="6.68586">
        <ele>1267.154</ele>
        <time>2014-10-04T13:32:40Z</time>
      </trkpt>
      <trkpt lat="43.88424" lon="6.6858">
        <ele>1265.894</ele>
        <time>2014-10-04T13:32:42Z</time>
      </trkpt>
      <trkpt lat="43.88418" lon="6.6858">
        <ele>1263.252</ele>
        <time>2014-10-04T13:32:46Z</time>
      </trkpt>
      <trkpt lat="43.88416" lon="6.68582">
        <ele>1262.484</ele>
        <time>2014-10-04T13:32:47Z</time>
      </trkpt>
      <trkpt lat="43.88401" lon="6.68581">
        <ele>1259.162</ele>
        <time>2014-10-04T13:32:52Z</time>
      </trkpt>
      <trkpt lat="43.88387" lon="6.68583">
        <ele>1255.347</ele>
        <time>2014-10-04T13:32:56Z</time>
      </trkpt>
      <trkpt lat="43.88384" lon="6.68583">
        <ele>1254.458</ele>
        <time>2014-10-04T13:32:57Z</time>
      </trkpt>
      <trkpt lat="43.88364" lon="6.68575">
        <ele>1249.641</ele>
        <time>2014-10-04T13:33:03Z</time>
      </trkpt>
      <trkpt lat="43.88349" lon="6.68574">
        <ele>1246.482</ele>
        <time>2014-10-04T13:33:07Z</time>
      </trkpt>
      <trkpt lat="43.88336" lon="6.68578">
        <ele>1242.6</ele>
        <time>2014-10-04T13:33:11Z</time>
      </trkpt>
      <trkpt lat="43.88322" lon="6.68578">
        <ele>1238.9</ele>
        <time>2014-10-04T13:33:15Z</time>
      </trkpt>
      <trkpt lat="43.88316" lon="6.68575">
        <ele>1237.08</ele>
        <time>2014-10-04T13:33:17Z</time>
      </trkpt>
      <trkpt lat="43.883" lon="6.68581">
        <ele>1231.046</ele>
        <time>2014-10-04T13:33:23Z</time>
      </trkpt>
      <trkpt lat="43.88298" lon="6.68583">
        <ele>1230.046</ele>
        <time>2014-10-04T13:33:24Z</time>
      </trkpt>
      <trkpt lat="43.88287" lon="6.68584">
        <ele>1226.911</ele>
        <time>2014-10-04T13:33:28Z</time>
      </trkpt>
      <trkpt lat="43.88282" lon="6.68586">
        <ele>1225.753</ele>
        <time>2014-10-04T13:33:32Z</time>
      </trkpt>
      <trkpt lat="43.88283" lon="6.68586">
        <ele>1226.603</ele>
        <time>2014-10-04T13:33:46Z</time>
      </trkpt>
      <trkpt lat="43.8828" lon="6.68582">
        <ele>1226.567</ele>
        <time>2014-10-04T13:33:55Z</time>
      </trkpt>
      <trkpt lat="43.88281" lon="6.68584">
        <ele>1227.578</ele>
        <time>2014-10-04T13:34:10Z</time>
      </trkpt>
      <trkpt lat="43.88286" lon="6.68588">
        <ele>1227.65</ele>
        <time>2014-10-04T13:34:17Z</time>
      </trkpt>
      <trkpt lat="43.88288" lon="6.68589">
        <ele>1227.367</ele>
        <time>2014-10-04T13:34:21Z</time>
      </trkpt>
      <trkpt lat="43.88289" lon="6.68597">
        <ele>1226.41</ele>
        <time>2014-10-04T13:34:25Z</time>
      </trkpt>
      <trkpt lat="43.88285" lon="6.68602">
        <ele>1226.167</ele>
        <time>2014-10-04T13:34:27Z</time>
      </trkpt>
      <trkpt lat="43.8828" lon="6.68609">
        <ele>1226.119</ele>
        <time>2014-10-04T13:34:33Z</time>
      </trkpt>
      <trkpt lat="43.88279" lon="6.68611">
        <ele>1225.588</ele>
        <time>2014-10-04T13:34:45Z</time>
      </trkpt>
      <trkpt lat="43.88279" lon="6.68613">
        <ele>1225.279</ele>
        <time>2014-10-04T13:34:52Z</time>
      </trkpt>
      <trkpt lat="43.88272" lon="6.68616">
        <ele>1225.177</ele>
        <time>2014-10-04T13:39:49Z</time>
      </trkpt>
      <trkpt lat="43.88267" lon="6.68629">
        <ele>1223.124</ele>
        <time>2014-10-04T13:39:56Z</time>
      </trkpt>
      <trkpt lat="43.88257" lon="6.68651">
        <ele>1221.081</ele>
        <time>2014-10-04T13:40:02Z</time>
      </trkpt>
      <trkpt lat="43.88252" lon="6.68664">
        <ele>1219.646</ele>
        <time>2014-10-04T13:40:05Z</time>
      </trkpt>
      <trkpt lat="43.88248" lon="6.68675">
        <ele>1218.082</ele>
        <time>2014-10-04T13:40:07Z</time>
      </trkpt>
      <trkpt lat="43.88245" lon="6.68709">
        <ele>1216.751</ele>
        <time>2014-10-04T13:40:12Z</time>
      </trkpt>
      <trkpt lat="43.88243" lon="6.68745">
        <ele>1217.95</ele>
        <time>2014-10-04T13:40:19Z</time>
      </trkpt>
      <trkpt lat="43.88243" lon="6.6877">
        <ele>1218.88</ele>
        <time>2014-10-04T13:40:25Z</time>
      </trkpt>
      <trkpt lat="43.88233" lon="6.68777">
        <ele>1217.81</ele>
        <time>2014-10-04T13:40:28Z</time>
      </trkpt>
      <trkpt lat="43.88219" lon="6.68788">
        <ele>1215.922</ele>
        <time>2014-10-04T13:40:31Z</time>
      </trkpt>
      <trkpt lat="43.88209" lon="6.68794">
        <ele>1214.036</ele>
        <time>2014-10-04T13:40:33Z</time>
      </trkpt>
      <trkpt lat="43.88199" lon="6.68807">
        <ele>1211.728</ele>
        <time>2014-10-04T13:40:36Z</time>
      </trkpt>
      <trkpt lat="43.88191" lon="6.68834">
        <ele>1208.285</ele>
        <time>2014-10-04T13:40:40Z</time>
      </trkpt>
      <trkpt lat="43.88172" lon="6.6884">
        <ele>1204.254</ele>
        <time>2014-10-04T13:40:44Z</time>
      </trkpt>
      <trkpt lat="43.88166" lon="6.68837">
        <ele>1203.133</ele>
        <time>2014-10-04T13:40:45Z</time>
      </trkpt>
      <trkpt lat="43.88136" lon="6.68834">
        <ele>1198.963</ele>
        <time>2014-10-04T13:40:50Z</time>
      </trkpt>
      <trkpt lat="43.88116" lon="6.68842">
        <ele>1194.174</ele>
        <time>2014-10-04T13:40:54Z</time>
      </trkpt>
      <trkpt lat="43.88105" lon="6.68843">
        <ele>1191.351</ele>
        <time>2014-10-04T13:40:57Z</time>
      </trkpt>
      <trkpt lat="43.88097" lon="6.68845">
        <ele>1189.713</ele>
        <time>2014-10-04T13:41:01Z</time>
      </trkpt>
      <trkpt lat="43.88096" lon="6.68845">
        <ele>1190.184</ele>
        <time>2014-10-04T13:41:05Z</time>
      </trkpt>
      <trkpt lat="43.88096" lon="6.68846">
        <ele>1190.175</ele>
        <time>2014-10-04T13:41:06Z</time>
      </trkpt>
      <trkpt lat="43.88096" lon="6.68853">
        <ele>1190.758</ele>
        <time>2014-10-04T13:41:11Z</time>
      </trkpt>
      <trkpt lat="43.88095" lon="6.68863">
        <ele>1191.088</ele>
        <time>2014-10-04T13:41:14Z</time>
      </trkpt>
      <trkpt lat="43.881" lon="6.6889">
        <ele>1190.766</ele>
        <time>2014-10-04T13:41:21Z</time>
      </trkpt>
      <trkpt lat="43.8811" lon="6.68905">
        <ele>1188.811</ele>
        <time>2014-10-04T13:41:25Z</time>
      </trkpt>
      <trkpt lat="43.8812" lon="6.68929">
        <ele>1187.765</ele>
        <time>2014-10-04T13:41:30Z</time>
      </trkpt>
      <trkpt lat="43.88125" lon="6.68954">
        <ele>1186.016</ele>
        <time>2014-10-04T13:41:35Z</time>
      </trkpt>
      <trkpt lat="43.88124" lon="6.68966">
        <ele>1185.966</ele>
        <time>2014-10-04T13:41:39Z</time>
      </trkpt>
      <trkpt lat="43.88124" lon="6.68967">
        <ele>1187.57</ele>
        <time>2014-10-04T13:41:45Z</time>
      </trkpt>
      <trkpt lat="43.88123" lon="6.68966">
        <ele>1189.584</ele>
        <time>2014-10-04T13:41:49Z</time>
      </trkpt>
      <trkpt lat="43.88118" lon="6.68974">
        <ele>1192.812</ele>
        <time>2014-10-04T13:41:55Z</time>
      </trkpt>
      <trkpt lat="43.88111" lon="6.68987">
        <ele>1194.458</ele>
        <time>2014-10-04T13:42:00Z</time>
      </trkpt>
      <trkpt lat="43.88103" lon="6.69002">
        <ele>1195.847</ele>
        <time>2014-10-04T13:42:06Z</time>
      </trkpt>
      <trkpt lat="43.88098" lon="6.69007">
        <ele>1197.007</ele>
        <time>2014-10-04T13:42:09Z</time>
      </trkpt>
      <trkpt lat="43.88096" lon="6.6902">
        <ele>1194.288</ele>
        <time>2014-10-04T13:42:15Z</time>
      </trkpt>
      <trkpt lat="43.88089" lon="6.69032">
        <ele>1193.706</ele>
        <time>2014-10-04T13:42:20Z</time>
      </trkpt>
      <trkpt lat="43.8808" lon="6.69036">
        <ele>1195.47</ele>
        <time>2014-10-04T13:42:24Z</time>
      </trkpt>
      <trkpt lat="43.88081" lon="6.69035">
        <ele>1194.749</ele>
        <time>2014-10-04T13:42:28Z</time>
      </trkpt>
      <trkpt lat="43.88083" lon="6.69038">
        <ele>1196.24</ele>
        <time>2014-10-04T13:42:33Z</time>
      </trkpt>
      <trkpt lat="43.88081" lon="6.6903">
        <ele>1201.229</ele>
        <time>2014-10-04T13:46:18Z</time>
      </trkpt>
      <trkpt lat="43.8809" lon="6.69022">
        <ele>1204.354</ele>
        <time>2014-10-04T13:46:24Z</time>
      </trkpt>
      <trkpt lat="43.88104" lon="6.69003">
        <ele>1204.041</ele>
        <time>2014-10-04T13:46:32Z</time>
      </trkpt>
      <trkpt lat="43.88117" lon="6.68986">
        <ele>1198.594</ele>
        <time>2014-10-04T13:46:38Z</time>
      </trkpt>
      <trkpt lat="43.88125" lon="6.68974">
        <ele>1194.958</ele>
        <time>2014-10-04T13:46:43Z</time>
      </trkpt>
      <trkpt lat="43.88124" lon="6.68958">
        <ele>1193.214</ele>
        <time>2014-10-04T13:46:47Z</time>
      </trkpt>
      <trkpt lat="43.88114" lon="6.68944">
        <ele>1189.613</ele>
        <time>2014-10-04T13:46:51Z</time>
      </trkpt>
      <trkpt lat="43.88098" lon="6.68936">
        <ele>1185.724</ele>
        <time>2014-10-04T13:46:56Z</time>
      </trkpt>
      <trkpt lat="43.88095" lon="6.68935">
        <ele>1184.002</ele>
        <time>2014-10-04T13:47:00Z</time>
      </trkpt>
      <trkpt lat="43.88092" lon="6.68934">
        <ele>1181.857</ele>
        <time>2014-10-04T13:47:09Z</time>
      </trkpt>
      <trkpt lat="43.88085" lon="6.68936">
        <ele>1180.102</ele>
        <time>2014-10-04T13:47:13Z</time>
      </trkpt>
      <trkpt lat="43.88069" lon="6.68935">
        <ele>1176.618</ele>
        <time>2014-10-04T13:47:18Z</time>
      </trkpt>
      <trkpt lat="43.88053" lon="6.68936">
        <ele>1171.924</ele>
        <time>2014-10-04T13:47:23Z</time>
      </trkpt>
      <trkpt lat="43.88042" lon="6.68933">
        <ele>1170.235</ele>
        <time>2014-10-04T13:47:27Z</time>
      </trkpt>
      <trkpt lat="43.88038" lon="6.68933">
        <ele>1169.449</ele>
        <time>2014-10-04T13:47:31Z</time>
      </trkpt>
      <trkpt lat="43.88037" lon="6.68933">
        <ele>1169.139</ele>
        <time>2014-10-04T13:47:32Z</time>
      </trkpt>
      <trkpt lat="43.88021" lon="6.68924">
        <ele>1166.919</ele>
        <time>2014-10-04T13:47:38Z</time>
      </trkpt>
      <trkpt lat="43.88002" lon="6.68913">
        <ele>1163.909</ele>
        <time>2014-10-04T13:47:43Z</time>
      </trkpt>
      <trkpt lat="43.8798" lon="6.68908">
        <ele>1160.536</ele>
        <time>2014-10-04T13:47:48Z</time>
      </trkpt>
      <trkpt lat="43.87969" lon="6.68905">
        <ele>1159.412</ele>
        <time>2014-10-04T13:47:52Z</time>
      </trkpt>
      <trkpt lat="43.87969" lon="6.68906">
        <ele>1156.788</ele>
        <time>2014-10-04T13:48:03Z</time>
      </trkpt>
      <trkpt lat="43.8797" lon="6.68906">
        <ele>1152.299</ele>
        <time>2014-10-04T13:48:21Z</time>
      </trkpt>
      <trkpt lat="43.87968" lon="6.68911">
        <ele>1148.998</ele>
        <time>2014-10-04T13:48:46Z</time>
      </trkpt>
      <trkpt lat="43.8797" lon="6.68912">
        <ele>1154.659</ele>
        <time>2014-10-04T13:49:23Z</time>
      </trkpt>
      <trkpt lat="43.8798" lon="6.68912">
        <ele>1158.144</ele>
        <time>2014-10-04T13:49:32Z</time>
      </trkpt>
      <trkpt lat="43.87985" lon="6.68915">
        <ele>1161.615</ele>
        <time>2014-10-04T13:49:40Z</time>
      </trkpt>
      <trkpt lat="43.87991" lon="6.68914">
        <ele>1163.142</ele>
        <time>2014-10-04T13:49:46Z</time>
      </trkpt>
      <trkpt lat="43.87997" lon="6.68916">
        <ele>1163.966</ele>
        <time>2014-10-04T13:49:51Z</time>
      </trkpt>
      <trkpt lat="43.88001" lon="6.68921">
        <ele>1163.079</ele>
        <time>2014-10-04T13:49:57Z</time>
      </trkpt>
      <trkpt lat="43.88005" lon="6.68924">
        <ele>1161.078</ele>
        <time>2014-10-04T13:50:03Z</time>
      </trkpt>
      <trkpt lat="43.8801" lon="6.68928">
        <ele>1160.355</ele>
        <time>2014-10-04T13:50:10Z</time>
      </trkpt>
      <trkpt lat="43.88016" lon="6.68929">
        <ele>1163.47</ele>
        <time>2014-10-04T13:50:17Z</time>
      </trkpt>
      <trkpt lat="43.8802" lon="6.6893">
        <ele>1166.924</ele>
        <time>2014-10-04T13:50:23Z</time>
      </trkpt>
      <trkpt lat="43.88025" lon="6.68932">
        <ele>1163.535</ele>
        <time>2014-10-04T13:50:30Z</time>
      </trkpt>
      <trkpt lat="43.88029" lon="6.68936">
        <ele>1160.798</ele>
        <time>2014-10-04T13:50:36Z</time>
      </trkpt>
      <trkpt lat="43.88034" lon="6.68938">
        <ele>1160.233</ele>
        <time>2014-10-04T13:50:42Z</time>
      </trkpt>
      <trkpt lat="43.88037" lon="6.68937">
        <ele>1163.59</ele>
        <time>2014-10-04T13:50:48Z</time>
      </trkpt>
      <trkpt lat="43.88041" lon="6.68938">
        <ele>1163.16</ele>
        <time>2014-10-04T13:50:54Z</time>
      </trkpt>
      <trkpt lat="43.88047" lon="6.68938">
        <ele>1167.842</ele>
        <time>2014-10-04T13:51:01Z</time>
      </trkpt>
      <trkpt lat="43.8805" lon="6.6894">
        <ele>1170.335</ele>
        <time>2014-10-04T13:51:07Z</time>
      </trkpt>
      <trkpt lat="43.88055" lon="6.6894">
        <ele>1171.872</ele>
        <time>2014-10-04T13:51:14Z</time>
      </trkpt>
      <trkpt lat="43.8806" lon="6.6894">
        <ele>1172.771</ele>
        <time>2014-10-04T13:51:20Z</time>
      </trkpt>
      <trkpt lat="43.88062" lon="6.68939">
        <ele>1173.449</ele>
        <time>2014-10-04T13:51:26Z</time>
      </trkpt>
      <trkpt lat="43.88066" lon="6.6894">
        <ele>1173.746</ele>
        <time>2014-10-04T13:51:31Z</time>
      </trkpt>
      <trkpt lat="43.88069" lon="6.68941">
        <ele>1172.897</ele>
        <time>2014-10-04T13:51:37Z</time>
      </trkpt>
      <trkpt lat="43.88073" lon="6.6894">
        <ele>1172.439</ele>
        <time>2014-10-04T13:51:44Z</time>
      </trkpt>
      <trkpt lat="43.88077" lon="6.68941">
        <ele>1174.878</ele>
        <time>2014-10-04T13:51:51Z</time>
      </trkpt>
      <trkpt lat="43.88079" lon="6.68943">
        <ele>1175.433</ele>
        <time>2014-10-04T13:51:59Z</time>
      </trkpt>
      <trkpt lat="43.88082" lon="6.68944">
        <ele>1177.441</ele>
        <time>2014-10-04T13:52:06Z</time>
      </trkpt>
      <trkpt lat="43.88086" lon="6.68945">
        <ele>1179.329</ele>
        <time>2014-10-04T13:52:13Z</time>
      </trkpt>
      <trkpt lat="43.88089" lon="6.68946">
        <ele>1180.508</ele>
        <time>2014-10-04T13:52:19Z</time>
      </trkpt>
      <trkpt lat="43.88094" lon="6.68947">
        <ele>1183.014</ele>
        <time>2014-10-04T13:52:27Z</time>
      </trkpt>
      <trkpt lat="43.88096" lon="6.68947">
        <ele>1181.268</ele>
        <time>2014-10-04T13:52:31Z</time>
      </trkpt>
      <trkpt lat="43.88102" lon="6.68949">
        <ele>1184.083</ele>
        <time>2014-10-04T13:52:38Z</time>
      </trkpt>
      <trkpt lat="43.8811" lon="6.6895">
        <ele>1182.839</ele>
        <time>2014-10-04T13:52:45Z</time>
      </trkpt>
      <trkpt lat="43.88116" lon="6.68955">
        <ele>1187.384</ele>
        <time>2014-10-04T13:52:54Z</time>
      </trkpt>
      <trkpt lat="43.88118" lon="6.68957">
        <ele>1189.301</ele>
        <time>2014-10-04T13:52:58Z</time>
      </trkpt>
      <trkpt lat="43.88117" lon="6.68961">
        <ele>1188.732</ele>
        <time>2014-10-04T13:53:02Z</time>
      </trkpt>
      <trkpt lat="43.88116" lon="6.68963">
        <ele>1188.661</ele>
        <time>2014-10-04T13:53:10Z</time>
      </trkpt>
      <trkpt lat="43.88115" lon="6.68965">
        <ele>1188.355</ele>
        <time>2014-10-04T13:53:16Z</time>
      </trkpt>
      <trkpt lat="43.88123" lon="6.68972">
        <ele>1187.295</ele>
        <time>2014-10-04T13:57:32Z</time>
      </trkpt>
      <trkpt lat="43.88119" lon="6.68975">
        <ele>1189.137</ele>
        <time>2014-10-04T13:57:56Z</time>
      </trkpt>
      <trkpt lat="43.88114" lon="6.68984">
        <ele>1191.758</ele>
        <time>2014-10-04T13:58:01Z</time>
      </trkpt>
      <trkpt lat="43.88113" lon="6.68987">
        <ele>1192.436</ele>
        <time>2014-10-04T13:58:02Z</time>
      </trkpt>
      <trkpt lat="43.88101" lon="6.69008">
        <ele>1194.066</ele>
        <time>2014-10-04T13:58:10Z</time>
      </trkpt>
      <trkpt lat="43.88097" lon="6.69014">
        <ele>1192.719</ele>
        <time>2014-10-04T13:58:12Z</time>
      </trkpt>
      <trkpt lat="43.88084" lon="6.69037">
        <ele>1192.977</ele>
        <time>2014-10-04T13:58:19Z</time>
      </trkpt>
      <trkpt lat="43.88074" lon="6.69056">
        <ele>1190.373</ele>
        <time>2014-10-04T13:58:24Z</time>
      </trkpt>
      <trkpt lat="43.88066" lon="6.6907">
        <ele>1190.577</ele>
        <time>2014-10-04T13:58:29Z</time>
      </trkpt>
      <trkpt lat="43.8806" lon="6.69083">
        <ele>1188.764</ele>
        <time>2014-10-04T13:58:34Z</time>
      </trkpt>
      <trkpt lat="43.8805" lon="6.6908">
        <ele>1190.264</ele>
        <time>2014-10-04T13:58:39Z</time>
      </trkpt>
      <trkpt lat="43.88045" lon="6.69083">
        <ele>1189.189</ele>
        <time>2014-10-04T13:58:41Z</time>
      </trkpt>
      <trkpt lat="43.8802" lon="6.69086">
        <ele>1187.301</ele>
        <time>2014-10-04T13:58:48Z</time>
      </trkpt>
      <trkpt lat="43.88009" lon="6.69083">
        <ele>1184.214</ele>
        <time>2014-10-04T13:58:53Z</time>
      </trkpt>
      <trkpt lat="43.87991" lon="6.69077">
        <ele>1178.929</ele>
        <time>2014-10-04T13:58:58Z</time>
      </trkpt>
      <trkpt lat="43.87977" lon="6.69077">
        <ele>1175.051</ele>
        <time>2014-10-04T13:59:02Z</time>
      </trkpt>
      <trkpt lat="43.87963" lon="6.69094">
        <ele>1168.954</ele>
        <time>2014-10-04T13:59:08Z</time>
      </trkpt>
      <trkpt lat="43.87961" lon="6.69098">
        <ele>1167.341</ele>
        <time>2014-10-04T13:59:12Z</time>
      </trkpt>
      <trkpt lat="43.87958" lon="6.69104">
        <ele>1165.061</ele>
        <time>2014-10-04T13:59:17Z</time>
      </trkpt>
      <trkpt lat="43.87956" lon="6.6911">
        <ele>1164.123</ele>
        <time>2014-10-04T13:59:19Z</time>
      </trkpt>
      <trkpt lat="43.87953" lon="6.69137">
        <ele>1158.383</ele>
        <time>2014-10-04T13:59:25Z</time>
      </trkpt>
      <trkpt lat="43.87948" lon="6.69147">
        <ele>1157.121</ele>
        <time>2014-10-04T13:59:27Z</time>
      </trkpt>
      <trkpt lat="43.87935" lon="6.69174">
        <ele>1151.779</ele>
        <time>2014-10-04T13:59:33Z</time>
      </trkpt>
      <trkpt lat="43.87935" lon="6.69179">
        <ele>1151.277</ele>
        <time>2014-10-04T13:59:34Z</time>
      </trkpt>
      <trkpt lat="43.87929" lon="6.69217">
        <ele>1151.228</ele>
        <time>2014-10-04T13:59:40Z</time>
      </trkpt>
      <trkpt lat="43.87927" lon="6.69226">
        <ele>1152.253</ele>
        <time>2014-10-04T13:59:42Z</time>
      </trkpt>
      <trkpt lat="43.87923" lon="6.69244">
        <ele>1152.901</ele>
        <time>2014-10-04T13:59:47Z</time>
      </trkpt>
      <trkpt lat="43.87924" lon="6.69263">
        <ele>1151.429</ele>
        <time>2014-10-04T13:59:51Z</time>
      </trkpt>
      <trkpt lat="43.87926" lon="6.69277">
        <ele>1148.269</ele>
        <time>2014-10-04T13:59:54Z</time>
      </trkpt>
      <trkpt lat="43.8792" lon="6.69291">
        <ele>1145.95</ele>
        <time>2014-10-04T13:59:59Z</time>
      </trkpt>
      <trkpt lat="43.87916" lon="6.69292">
        <ele>1145.779</ele>
        <time>2014-10-04T14:00:00Z</time>
      </trkpt>
      <trkpt lat="43.87893" lon="6.693">
        <ele>1141.6</ele>
        <time>2014-10-04T14:00:05Z</time>
      </trkpt>
      <trkpt lat="43.87869" lon="6.69315">
        <ele>1138.77</ele>
        <time>2014-10-04T14:00:10Z</time>
      </trkpt>
      <trkpt lat="43.8786" lon="6.69319">
        <ele>1137.382</ele>
        <time>2014-10-04T14:00:12Z</time>
      </trkpt>
      <trkpt lat="43.87853" lon="6.69336">
        <ele>1132.745</ele>
        <time>2014-10-04T14:00:17Z</time>
      </trkpt>
      <trkpt lat="43.87852" lon="6.69349">
        <ele>1130.637</ele>
        <time>2014-10-04T14:00:20Z</time>
      </trkpt>
      <trkpt lat="43.87842" lon="6.69359">
        <ele>1128.263</ele>
        <time>2014-10-04T14:00:24Z</time>
      </trkpt>
      <trkpt lat="43.87839" lon="6.6936">
        <ele>1128.256</ele>
        <time>2014-10-04T14:00:25Z</time>
      </trkpt>
      <trkpt lat="43.87818" lon="6.69371">
        <ele>1126.23</ele>
        <time>2014-10-04T14:00:30Z</time>
      </trkpt>
      <trkpt lat="43.87809" lon="6.69376">
        <ele>1125.901</ele>
        <time>2014-10-04T14:00:33Z</time>
      </trkpt>
      <trkpt lat="43.87799" lon="6.69397">
        <ele>1122.752</ele>
        <time>2014-10-04T14:00:37Z</time>
      </trkpt>
      <trkpt lat="43.87794" lon="6.69406">
        <ele>1121.262</ele>
        <time>2014-10-04T14:00:39Z</time>
      </trkpt>
      <trkpt lat="43.87784" lon="6.69411">
        <ele>1118.494</ele>
        <time>2014-10-04T14:00:42Z</time>
      </trkpt>
      <trkpt lat="43.87777" lon="6.69423">
        <ele>1116.796</ele>
        <time>2014-10-04T14:00:46Z</time>
      </trkpt>
      <trkpt lat="43.87774" lon="6.69432">
        <ele>1116.958</ele>
        <time>2014-10-04T14:00:48Z</time>
      </trkpt>
      <trkpt lat="43.87769" lon="6.69452">
        <ele>1115.582</ele>
        <time>2014-10-04T14:00:53Z</time>
      </trkpt>
      <trkpt lat="43.8777" lon="6.69454">
        <ele>1114.857</ele>
        <time>2014-10-04T14:01:03Z</time>
      </trkpt>
      <trkpt lat="43.8777" lon="6.69455">
        <ele>1110.666</ele>
        <time>2014-10-04T14:01:30Z</time>
      </trkpt>
      <trkpt lat="43.87767" lon="6.69466">
        <ele>1107.909</ele>
        <time>2014-10-04T14:01:34Z</time>
      </trkpt>
      <trkpt lat="43.87759" lon="6.69476">
        <ele>1103.932</ele>
        <time>2014-10-04T14:01:38Z</time>
      </trkpt>
      <trkpt lat="43.8775" lon="6.69485">
        <ele>1101.346</ele>
        <time>2014-10-04T14:01:41Z</time>
      </trkpt>
      <trkpt lat="43.87748" lon="6.69488">
        <ele>1100.606</ele>
        <time>2014-10-04T14:01:44Z</time>
      </trkpt>
      <trkpt lat="43.87748" lon="6.69492">
        <ele>1099.921</ele>
        <time>2014-10-04T14:01:48Z</time>
      </trkpt>
      <trkpt lat="43.87739" lon="6.695">
        <ele>1098.984</ele>
        <time>2014-10-04T14:01:53Z</time>
      </trkpt>
      <trkpt lat="43.87729" lon="6.69511">
        <ele>1097.474</ele>
        <time>2014-10-04T14:01:57Z</time>
      </trkpt>
      <trkpt lat="43.87713" lon="6.69526">
        <ele>1094.114</ele>
        <time>2014-10-04T14:02:02Z</time>
      </trkpt>
      <trkpt lat="43.87701" lon="6.69529">
        <ele>1091.307</ele>
        <time>2014-10-04T14:02:05Z</time>
      </trkpt>
      <trkpt lat="43.87682" lon="6.69532">
        <ele>1088.953</ele>
        <time>2014-10-04T14:02:09Z</time>
      </trkpt>
      <trkpt lat="43.87662" lon="6.69545">
        <ele>1084.307</ele>
        <time>2014-10-04T14:02:14Z</time>
      </trkpt>
      <trkpt lat="43.87656" lon="6.69552">
        <ele>1082.611</ele>
        <time>2014-10-04T14:02:16Z</time>
      </trkpt>
      <trkpt lat="43.87652" lon="6.6955">
        <ele>1079.823</ele>
        <time>2014-10-04T14:02:20Z</time>
      </trkpt>
      <trkpt lat="43.8765" lon="6.69542">
        <ele>1077.749</ele>
        <time>2014-10-04T14:02:23Z</time>
      </trkpt>
      <trkpt lat="43.87648" lon="6.69543">
        <ele>1076.469</ele>
        <time>2014-10-04T14:02:24Z</time>
      </trkpt>
      <trkpt lat="43.87644" lon="6.69548">
        <ele>1074.104</ele>
        <time>2014-10-04T14:02:26Z</time>
      </trkpt>
      <trkpt lat="43.87635" lon="6.69551">
        <ele>1071.675</ele>
        <time>2014-10-04T14:02:30Z</time>
      </trkpt>
      <trkpt lat="43.87629" lon="6.69559">
        <ele>1070.496</ele>
        <time>2014-10-04T14:02:33Z</time>
      </trkpt>
      <trkpt lat="43.87623" lon="6.6956">
        <ele>1069.53</ele>
        <time>2014-10-04T14:02:35Z</time>
      </trkpt>
      <trkpt lat="43.87613" lon="6.69564">
        <ele>1067.806</ele>
        <time>2014-10-04T14:02:38Z</time>
      </trkpt>
      <trkpt lat="43.87611" lon="6.69557">
        <ele>1066.263</ele>
        <time>2014-10-04T14:02:42Z</time>
      </trkpt>
      <trkpt lat="43.87607" lon="6.69548">
        <ele>1063.306</ele>
        <time>2014-10-04T14:02:45Z</time>
      </trkpt>
      <trkpt lat="43.876" lon="6.69556">
        <ele>1059.947</ele>
        <time>2014-10-04T14:02:48Z</time>
      </trkpt>
      <trkpt lat="43.87598" lon="6.69568">
        <ele>1057.213</ele>
        <time>2014-10-04T14:02:51Z</time>
      </trkpt>
      <trkpt lat="43.87598" lon="6.69572">
        <ele>1054.404</ele>
        <time>2014-10-04T14:02:55Z</time>
      </trkpt>
      <trkpt lat="43.87592" lon="6.6958">
        <ele>1053.96</ele>
        <time>2014-10-04T14:02:59Z</time>
      </trkpt>
      <trkpt lat="43.87583" lon="6.6958">
        <ele>1052.756</ele>
        <time>2014-10-04T14:03:03Z</time>
      </trkpt>
      <trkpt lat="43.87572" lon="6.69585">
        <ele>1051.12</ele>
        <time>2014-10-04T14:03:07Z</time>
      </trkpt>
      <trkpt lat="43.8757" lon="6.6959">
        <ele>1050.421</ele>
        <time>2014-10-04T14:03:09Z</time>
      </trkpt>
      <trkpt lat="43.87562" lon="6.69586">
        <ele>1051.627</ele>
        <time>2014-10-04T14:03:14Z</time>
      </trkpt>
      <trkpt lat="43.87558" lon="6.69583">
        <ele>1053.407</ele>
        <time>2014-10-04T14:03:20Z</time>
      </trkpt>
      <trkpt lat="43.87555" lon="6.69582">
        <ele>1055.5</ele>
        <time>2014-10-04T14:03:28Z</time>
      </trkpt>
      <trkpt lat="43.87553" lon="6.6958">
        <ele>1058.781</ele>
        <time>2014-10-04T14:03:36Z</time>
      </trkpt>
      <trkpt lat="43.8755" lon="6.69578">
        <ele>1064.698</ele>
        <time>2014-10-04T14:03:51Z</time>
      </trkpt>
      <trkpt lat="43.87547" lon="6.6958">
        <ele>1067.278</ele>
        <time>2014-10-04T14:03:57Z</time>
      </trkpt>
      <trkpt lat="43.87542" lon="6.69581">
        <ele>1065.47</ele>
        <time>2014-10-04T14:04:02Z</time>
      </trkpt>
      <trkpt lat="43.87533" lon="6.69581">
        <ele>1063.603</ele>
        <time>2014-10-04T14:04:08Z</time>
      </trkpt>
      <trkpt lat="43.87532" lon="6.69581">
        <ele>1064.087</ele>
        <time>2014-10-04T14:04:09Z</time>
      </trkpt>
      <trkpt lat="43.8753" lon="6.69581">
        <ele>1064.007</ele>
        <time>2014-10-04T14:04:12Z</time>
      </trkpt>
      <trkpt lat="43.87522" lon="6.69584">
        <ele>1065.737</ele>
        <time>2014-10-04T14:04:20Z</time>
      </trkpt>
      <trkpt lat="43.87511" lon="6.69586">
        <ele>1064.989</ele>
        <time>2014-10-04T14:04:26Z</time>
      </trkpt>
      <trkpt lat="43.87506" lon="6.69588">
        <ele>1065.913</ele>
        <time>2014-10-04T14:04:31Z</time>
      </trkpt>
      <trkpt lat="43.87497" lon="6.6959">
        <ele>1069.981</ele>
        <time>2014-10-04T14:04:36Z</time>
      </trkpt>
      <trkpt lat="43.87493" lon="6.69596">
        <ele>1071.935</ele>
        <time>2014-10-04T14:04:41Z</time>
      </trkpt>
      <trkpt lat="43.87491" lon="6.69598">
        <ele>1075.935</ele>
        <time>2014-10-04T14:04:45Z</time>
      </trkpt>
      <trkpt lat="43.87485" lon="6.69605">
        <ele>1079.16</ele>
        <time>2014-10-04T14:04:52Z</time>
      </trkpt>
      <trkpt lat="43.87478" lon="6.69615">
        <ele>1081.832</ele>
        <time>2014-10-04T14:05:01Z</time>
      </trkpt>
      <trkpt lat="43.87472" lon="6.69616">
        <ele>1077.875</ele>
        <time>2014-10-04T14:05:07Z</time>
      </trkpt>
      <trkpt lat="43.8747" lon="6.69618">
        <ele>1082.182</ele>
        <time>2014-10-04T14:05:13Z</time>
      </trkpt>
      <trkpt lat="43.87464" lon="6.69618">
        <ele>1080.785</ele>
        <time>2014-10-04T14:05:19Z</time>
      </trkpt>
      <trkpt lat="43.87457" lon="6.69621">
        <ele>1075.188</ele>
        <time>2014-10-04T14:05:29Z</time>
      </trkpt>
      <trkpt lat="43.87444" lon="6.69631">
        <ele>1074.825</ele>
        <time>2014-10-04T14:05:34Z</time>
      </trkpt>
      <trkpt lat="43.87432" lon="6.69634">
        <ele>1071.776</ele>
        <time>2014-10-04T14:05:38Z</time>
      </trkpt>
      <trkpt lat="43.87411" lon="6.69638">
        <ele>1068.775</ele>
        <time>2014-10-04T14:05:43Z</time>
      </trkpt>
      <trkpt lat="43.87407" lon="6.69637">
        <ele>1067.992</ele>
        <time>2014-10-04T14:05:44Z</time>
      </trkpt>
      <trkpt lat="43.8738" lon="6.69637">
        <ele>1065.923</ele>
        <time>2014-10-04T14:05:49Z</time>
      </trkpt>
      <trkpt lat="43.87374" lon="6.69637">
        <ele>1066.349</ele>
        <time>2014-10-04T14:05:52Z</time>
      </trkpt>
      <trkpt lat="43.87364" lon="6.69637">
        <ele>1071.272</ele>
        <time>2014-10-04T14:05:58Z</time>
      </trkpt>
      <trkpt lat="43.87357" lon="6.69637">
        <ele>1076.373</ele>
        <time>2014-10-04T14:06:04Z</time>
      </trkpt>
      <trkpt lat="43.87348" lon="6.69636">
        <ele>1078.547</ele>
        <time>2014-10-04T14:06:10Z</time>
      </trkpt>
      <trkpt lat="43.87339" lon="6.69632">
        <ele>1084.842</ele>
        <time>2014-10-04T14:06:18Z</time>
      </trkpt>
      <trkpt lat="43.8733" lon="6.69631">
        <ele>1085.677</ele>
        <time>2014-10-04T14:06:24Z</time>
      </trkpt>
      <trkpt lat="43.87322" lon="6.69629">
        <ele>1086.492</ele>
        <time>2014-10-04T14:06:28Z</time>
      </trkpt>
      <trkpt lat="43.87309" lon="6.69625">
        <ele>1088.039</ele>
        <time>2014-10-04T14:06:35Z</time>
      </trkpt>
      <trkpt lat="43.873" lon="6.69622">
        <ele>1089.066</ele>
        <time>2014-10-04T14:06:40Z</time>
      </trkpt>
      <trkpt lat="43.87287" lon="6.69622">
        <ele>1091.03</ele>
        <time>2014-10-04T14:06:46Z</time>
      </trkpt>
      <trkpt lat="43.87276" lon="6.6962">
        <ele>1091.187</ele>
        <time>2014-10-04T14:06:51Z</time>
      </trkpt>
      <trkpt lat="43.87262" lon="6.69623">
        <ele>1092.664</ele>
        <time>2014-10-04T14:06:57Z</time>
      </trkpt>
      <trkpt lat="43.87249" lon="6.69623">
        <ele>1094.59</ele>
        <time>2014-10-04T14:07:04Z</time>
      </trkpt>
      <trkpt lat="43.87239" lon="6.6962">
        <ele>1094.866</ele>
        <time>2014-10-04T14:07:09Z</time>
      </trkpt>
      <trkpt lat="43.87223" lon="6.69617">
        <ele>1094.562</ele>
        <time>2014-10-04T14:07:14Z</time>
      </trkpt>
      <trkpt lat="43.87211" lon="6.69619">
        <ele>1095.458</ele>
        <time>2014-10-04T14:07:18Z</time>
      </trkpt>
      <trkpt lat="43.87201" lon="6.69617">
        <ele>1095.22</ele>
        <time>2014-10-04T14:07:22Z</time>
      </trkpt>
      <trkpt lat="43.87187" lon="6.69612">
        <ele>1095.774</ele>
        <time>2014-10-04T14:07:29Z</time>
      </trkpt>
      <trkpt lat="43.87184" lon="6.6961">
        <ele>1092.875</ele>
        <time>2014-10-04T14:07:34Z</time>
      </trkpt>
      <trkpt lat="43.87177" lon="6.6961">
        <ele>1091.982</ele>
        <time>2014-10-04T14:07:38Z</time>
      </trkpt>
      <trkpt lat="43.87167" lon="6.69602">
        <ele>1089.629</ele>
        <time>2014-10-04T14:07:44Z</time>
      </trkpt>
      <trkpt lat="43.87164" lon="6.69604">
        <ele>1091.18</ele>
        <time>2014-10-04T14:07:46Z</time>
      </trkpt>
      <trkpt lat="43.87151" lon="6.69611">
        <ele>1096.094</ele>
        <time>2014-10-04T14:07:54Z</time>
      </trkpt>
      <trkpt lat="43.87147" lon="6.69616">
        <ele>1099.716</ele>
        <time>2014-10-04T14:07:59Z</time>
      </trkpt>
      <trkpt lat="43.87139" lon="6.69619">
        <ele>1101.526</ele>
        <time>2014-10-04T14:08:05Z</time>
      </trkpt>
      <trkpt lat="43.87132" lon="6.69621">
        <ele>1101.635</ele>
        <time>2014-10-04T14:08:10Z</time>
      </trkpt>
      <trkpt lat="43.8713" lon="6.69623">
        <ele>1106.256</ele>
        <time>2014-10-04T14:08:15Z</time>
      </trkpt>
      <trkpt lat="43.87128" lon="6.69623">
        <ele>1109.709</ele>
        <time>2014-10-04T14:08:21Z</time>
      </trkpt>
      <trkpt lat="43.8713" lon="6.69624">
        <ele>1118.802</ele>
        <time>2014-10-04T14:08:32Z</time>
      </trkpt>
      <trkpt lat="43.87128" lon="6.69622">
        <ele>1119.612</ele>
        <time>2014-10-04T14:08:34Z</time>
      </trkpt>
      <trkpt lat="43.87124" lon="6.6962">
        <ele>1118.154</ele>
        <time>2014-10-04T14:08:41Z</time>
      </trkpt>
      <trkpt lat="43.87124" lon="6.6962">
        <ele>1116.318</ele>
        <time>2014-10-04T14:08:45Z</time>
      </trkpt>
      <trkpt lat="43.87124" lon="6.69613">
        <ele>1108.1</ele>
        <time>2014-10-04T14:08:51Z</time>
      </trkpt>
      <trkpt lat="43.87126" lon="6.69609">
        <ele>1111.265</ele>
        <time>2014-10-04T14:08:57Z</time>
      </trkpt>
      <trkpt lat="43.87127" lon="6.69601">
        <ele>1112.484</ele>
        <time>2014-10-04T14:09:04Z</time>
      </trkpt>
      <trkpt lat="43.87127" lon="6.69595">
        <ele>1112.784</ele>
        <time>2014-10-04T14:09:10Z</time>
      </trkpt>
      <trkpt lat="43.87125" lon="6.69591">
        <ele>1113.542</ele>
        <time>2014-10-04T14:09:16Z</time>
      </trkpt>
      <trkpt lat="43.87125" lon="6.6959">
        <ele>1113.822</ele>
        <time>2014-10-04T14:09:17Z</time>
      </trkpt>
      <trkpt lat="43.87119" lon="6.69584">
        <ele>1116.042</ele>
        <time>2014-10-04T14:09:25Z</time>
      </trkpt>
      <trkpt lat="43.87109" lon="6.69573">
        <ele>1117.037</ele>
        <time>2014-10-04T14:09:31Z</time>
      </trkpt>
      <trkpt lat="43.871" lon="6.69568">
        <ele>1119.45</ele>
        <time>2014-10-04T14:09:36Z</time>
      </trkpt>
      <trkpt lat="43.87093" lon="6.69561">
        <ele>1121.453</ele>
        <time>2014-10-04T14:09:41Z</time>
      </trkpt>
      <trkpt lat="43.87086" lon="6.69559">
        <ele>1123.54</ele>
        <time>2014-10-04T14:09:47Z</time>
      </trkpt>
      <trkpt lat="43.87075" lon="6.69563">
        <ele>1125.966</ele>
        <time>2014-10-04T14:09:54Z</time>
      </trkpt>
      <trkpt lat="43.87073" lon="6.69565">
        <ele>1127.486</ele>
        <time>2014-10-04T14:09:56Z</time>
      </trkpt>
      <trkpt lat="43.87065" lon="6.69566">
        <ele>1128.808</ele>
        <time>2014-10-04T14:10:01Z</time>
      </trkpt>
      <trkpt lat="43.87051" lon="6.69566">
        <ele>1132.498</ele>
        <time>2014-10-04T14:10:11Z</time>
      </trkpt>
      <trkpt lat="43.87044" lon="6.69564">
        <ele>1136.047</ele>
        <time>2014-10-04T14:10:17Z</time>
      </trkpt>
      <trkpt lat="43.87037" lon="6.69562">
        <ele>1138.813</ele>
        <time>2014-10-04T14:10:23Z</time>
      </trkpt>
      <trkpt lat="43.87035" lon="6.6956">
        <ele>1141.109</ele>
        <time>2014-10-04T14:10:26Z</time>
      </trkpt>
      <trkpt lat="43.87033" lon="6.69558">
        <ele>1141.483</ele>
        <time>2014-10-04T14:10:28Z</time>
      </trkpt>
      <trkpt lat="43.87032" lon="6.69556">
        <ele>1142.336</ele>
        <time>2014-10-04T14:10:30Z</time>
      </trkpt>
      <trkpt lat="43.87026" lon="6.6955">
        <ele>1140.65</ele>
        <time>2014-10-04T14:10:37Z</time>
      </trkpt>
      <trkpt lat="43.87025" lon="6.69548">
        <ele>1139.991</ele>
        <time>2014-10-04T14:10:39Z</time>
      </trkpt>
      <trkpt lat="43.87021" lon="6.69539">
        <ele>1138.944</ele>
        <time>2014-10-04T14:10:47Z</time>
      </trkpt>
      <trkpt lat="43.87015" lon="6.69533">
        <ele>1136.268</ele>
        <time>2014-10-04T14:10:54Z</time>
      </trkpt>
      <trkpt lat="43.87009" lon="6.69518">
        <ele>1133.114</ele>
        <time>2014-10-04T14:10:58Z</time>
      </trkpt>
      <trkpt lat="43.87008" lon="6.69514">
        <ele>1132.844</ele>
        <time>2014-10-04T14:10:59Z</time>
      </trkpt>
      <trkpt lat="43.87005" lon="6.69505">
        <ele>1132.966</ele>
        <time>2014-10-04T14:11:04Z</time>
      </trkpt>
      <trkpt lat="43.87003" lon="6.69499">
        <ele>1133.249</ele>
        <time>2014-10-04T14:11:09Z</time>
      </trkpt>
      <trkpt lat="43.87001" lon="6.69496">
        <ele>1132.379</ele>
        <time>2014-10-04T14:11:14Z</time>
      </trkpt>
      <trkpt lat="43.86999" lon="6.69489">
        <ele>1128.973</ele>
        <time>2014-10-04T14:11:21Z</time>
      </trkpt>
      <trkpt lat="43.86998" lon="6.69484">
        <ele>1128.915</ele>
        <time>2014-10-04T14:11:26Z</time>
      </trkpt>
      <trkpt lat="43.86995" lon="6.69483">
        <ele>1131.112</ele>
        <time>2014-10-04T14:11:33Z</time>
      </trkpt>
      <trkpt lat="43.86992" lon="6.69483">
        <ele>1135.575</ele>
        <time>2014-10-04T14:11:41Z</time>
      </trkpt>
      <trkpt lat="43.86983" lon="6.69483">
        <ele>1141.504</ele>
        <time>2014-10-04T14:11:47Z</time>
      </trkpt>
      <trkpt lat="43.86973" lon="6.69484">
        <ele>1146.935</ele>
        <time>2014-10-04T14:11:53Z</time>
      </trkpt>
      <trkpt lat="43.86972" lon="6.69485">
        <ele>1147.876</ele>
        <time>2014-10-04T14:11:54Z</time>
      </trkpt>
      <trkpt lat="43.86966" lon="6.69484">
        <ele>1150.919</ele>
        <time>2014-10-04T14:11:58Z</time>
      </trkpt>
      <trkpt lat="43.86958" lon="6.69477">
        <ele>1152.705</ele>
        <time>2014-10-04T14:12:04Z</time>
      </trkpt>
      <trkpt lat="43.86954" lon="6.69474">
        <ele>1155.295</ele>
        <time>2014-10-04T14:12:10Z</time>
      </trkpt>
      <trkpt lat="43.8695" lon="6.6947">
        <ele>1152.446</ele>
        <time>2014-10-04T14:12:16Z</time>
      </trkpt>
      <trkpt lat="43.86941" lon="6.69463">
        <ele>1152.635</ele>
        <time>2014-10-04T14:12:25Z</time>
      </trkpt>
      <trkpt lat="43.86939" lon="6.69458">
        <ele>1153.185</ele>
        <time>2014-10-04T14:12:32Z</time>
      </trkpt>
      <trkpt lat="43.86938" lon="6.69452">
        <ele>1149.988</ele>
        <time>2014-10-04T14:12:38Z</time>
      </trkpt>
      <trkpt lat="43.86937" lon="6.69447">
        <ele>1150.75</ele>
        <time>2014-10-04T14:12:43Z</time>
      </trkpt>
      <trkpt lat="43.86934" lon="6.69441">
        <ele>1149.147</ele>
        <time>2014-10-04T14:12:50Z</time>
      </trkpt>
      <trkpt lat="43.8693" lon="6.69436">
        <ele>1146.894</ele>
        <time>2014-10-04T14:12:55Z</time>
      </trkpt>
      <trkpt lat="43.86923" lon="6.69431">
        <ele>1144.333</ele>
        <time>2014-10-04T14:13:03Z</time>
      </trkpt>
      <trkpt lat="43.86919" lon="6.69429">
        <ele>1143.873</ele>
        <time>2014-10-04T14:13:10Z</time>
      </trkpt>
      <trkpt lat="43.86914" lon="6.69427">
        <ele>1146.478</ele>
        <time>2014-10-04T14:13:15Z</time>
      </trkpt>
      <trkpt lat="43.8691" lon="6.69424">
        <ele>1149.623</ele>
        <time>2014-10-04T14:13:20Z</time>
      </trkpt>
      <trkpt lat="43.86909" lon="6.69423">
        <ele>1148.18</ele>
        <time>2014-10-04T14:13:21Z</time>
      </trkpt>
      <trkpt lat="43.86904" lon="6.6942">
        <ele>1151.272</ele>
        <time>2014-10-04T14:13:26Z</time>
      </trkpt>
      <trkpt lat="43.86899" lon="6.69418">
        <ele>1151.179</ele>
        <time>2014-10-04T14:13:31Z</time>
      </trkpt>
      <trkpt lat="43.86895" lon="6.69412">
        <ele>1148.446</ele>
        <time>2014-10-04T14:13:38Z</time>
      </trkpt>
      <trkpt lat="43.86893" lon="6.69409">
        <ele>1146.524</ele>
        <time>2014-10-04T14:13:41Z</time>
      </trkpt>
      <trkpt lat="43.86892" lon="6.69406">
        <ele>1146.583</ele>
        <time>2014-10-04T14:13:44Z</time>
      </trkpt>
      <trkpt lat="43.86888" lon="6.69406">
        <ele>1152.674</ele>
        <time>2014-10-04T14:13:51Z</time>
      </trkpt>
      <trkpt lat="43.8688" lon="6.69402">
        <ele>1156.791</ele>
        <time>2014-10-04T14:13:56Z</time>
      </trkpt>
      <trkpt lat="43.86867" lon="6.69395">
        <ele>1157.646</ele>
        <time>2014-10-04T14:14:01Z</time>
      </trkpt>
      <trkpt lat="43.86852" lon="6.69385">
        <ele>1160.52</ele>
        <time>2014-10-04T14:14:07Z</time>
      </trkpt>
      <trkpt lat="43.86835" lon="6.69375">
        <ele>1160.021</ele>
        <time>2014-10-04T14:14:13Z</time>
      </trkpt>
      <trkpt lat="43.86831" lon="6.69374">
        <ele>1160.449</ele>
        <time>2014-10-04T14:14:14Z</time>
      </trkpt>
      <trkpt lat="43.86813" lon="6.69358">
        <ele>1158.646</ele>
        <time>2014-10-04T14:14:19Z</time>
      </trkpt>
      <trkpt lat="43.868" lon="6.69344">
        <ele>1155.856</ele>
        <time>2014-10-04T14:14:23Z</time>
      </trkpt>
      <trkpt lat="43.86795" lon="6.69335">
        <ele>1154.775</ele>
        <time>2014-10-04T14:14:25Z</time>
      </trkpt>
      <trkpt lat="43.8678" lon="6.69297">
        <ele>1148.647</ele>
        <time>2014-10-04T14:14:31Z</time>
      </trkpt>
      <trkpt lat="43.86768" lon="6.69272">
        <ele>1146.986</ele>
        <time>2014-10-04T14:14:35Z</time>
      </trkpt>
      <trkpt lat="43.86765" lon="6.69267">
        <ele>1146.276</ele>
        <time>2014-10-04T14:14:36Z</time>
      </trkpt>
      <trkpt lat="43.86748" lon="6.69245">
        <ele>1145.644</ele>
        <time>2014-10-04T14:14:42Z</time>
      </trkpt>
      <trkpt lat="43.86738" lon="6.69232">
        <ele>1146.078</ele>
        <time>2014-10-04T14:14:49Z</time>
      </trkpt>
      <trkpt lat="43.86734" lon="6.69224">
        <ele>1150.764</ele>
        <time>2014-10-04T14:14:54Z</time>
      </trkpt>
      <trkpt lat="43.86731" lon="6.69216">
        <ele>1153.795</ele>
        <time>2014-10-04T14:14:58Z</time>
      </trkpt>
      <trkpt lat="43.86724" lon="6.69208">
        <ele>1156.697</ele>
        <time>2014-10-04T14:15:06Z</time>
      </trkpt>
      <trkpt lat="43.86721" lon="6.69204">
        <ele>1159.397</ele>
        <time>2014-10-04T14:15:13Z</time>
      </trkpt>
      <trkpt lat="43.8672" lon="6.69199">
        <ele>1155.227</ele>
        <time>2014-10-04T14:15:18Z</time>
      </trkpt>
      <trkpt lat="43.86718" lon="6.69194">
        <ele>1157.37</ele>
        <time>2014-10-04T14:15:24Z</time>
      </trkpt>
      <trkpt lat="43.86717" lon="6.69191">
        <ele>1158.241</ele>
        <time>2014-10-04T14:15:28Z</time>
      </trkpt>
      <trkpt lat="43.86709" lon="6.69189">
        <ele>1159.643</ele>
        <time>2014-10-04T14:15:34Z</time>
      </trkpt>
      <trkpt lat="43.86703" lon="6.69188">
        <ele>1158.22</ele>
        <time>2014-10-04T14:15:38Z</time>
      </trkpt>
      <trkpt lat="43.867" lon="6.69185">
        <ele>1154.916</ele>
        <time>2014-10-04T14:15:43Z</time>
      </trkpt>
      <trkpt lat="43.86695" lon="6.6918">
        <ele>1154.301</ele>
        <time>2014-10-04T14:15:50Z</time>
      </trkpt>
      <trkpt lat="43.86689" lon="6.69176">
        <ele>1153.558</ele>
        <time>2014-10-04T14:15:57Z</time>
      </trkpt>
      <trkpt lat="43.86683" lon="6.69175">
        <ele>1156.201</ele>
        <time>2014-10-04T14:16:03Z</time>
      </trkpt>
      <trkpt lat="43.86678" lon="6.69176">
        <ele>1154.786</ele>
        <time>2014-10-04T14:16:13Z</time>
      </trkpt>
      <trkpt lat="43.86668" lon="6.6918">
        <ele>1157.432</ele>
        <time>2014-10-04T14:16:17Z</time>
      </trkpt>
      <trkpt lat="43.86657" lon="6.69183">
        <ele>1158.629</ele>
        <time>2014-10-04T14:16:24Z</time>
      </trkpt>
      <trkpt lat="43.86649" lon="6.69185">
        <ele>1158.515</ele>
        <time>2014-10-04T14:16:30Z</time>
      </trkpt>
      <trkpt lat="43.86638" lon="6.69193">
        <ele>1165.047</ele>
        <time>2014-10-04T14:16:38Z</time>
      </trkpt>
      <trkpt lat="43.86627" lon="6.69201">
        <ele>1169.247</ele>
        <time>2014-10-04T14:16:43Z</time>
      </trkpt>
      <trkpt lat="43.86625" lon="6.69202">
        <ele>1169.146</ele>
        <time>2014-10-04T14:16:44Z</time>
      </trkpt>
      <trkpt lat="43.86611" lon="6.69212">
        <ele>1170.891</ele>
        <time>2014-10-04T14:16:50Z</time>
      </trkpt>
      <trkpt lat="43.86597" lon="6.69223">
        <ele>1173.564</ele>
        <time>2014-10-04T14:16:57Z</time>
      </trkpt>
      <trkpt lat="43.8659" lon="6.69232">
        <ele>1171.969</ele>
        <time>2014-10-04T14:17:02Z</time>
      </trkpt>
      <trkpt lat="43.86577" lon="6.69236">
        <ele>1169.558</ele>
        <time>2014-10-04T14:17:07Z</time>
      </trkpt>
      <trkpt lat="43.86561" lon="6.69229">
        <ele>1166.095</ele>
        <time>2014-10-04T14:17:12Z</time>
      </trkpt>
      <trkpt lat="43.86544" lon="6.69212">
        <ele>1163.378</ele>
        <time>2014-10-04T14:17:17Z</time>
      </trkpt>
      <trkpt lat="43.86533" lon="6.69196">
        <ele>1162.375</ele>
        <time>2014-10-04T14:17:21Z</time>
      </trkpt>
      <trkpt lat="43.86515" lon="6.69176">
        <ele>1161.262</ele>
        <time>2014-10-04T14:17:26Z</time>
      </trkpt>
      <trkpt lat="43.86502" lon="6.69167">
        <ele>1159.746</ele>
        <time>2014-10-04T14:17:29Z</time>
      </trkpt>
      <trkpt lat="43.86484" lon="6.69169">
        <ele>1158.188</ele>
        <time>2014-10-04T14:17:33Z</time>
      </trkpt>
      <trkpt lat="43.86469" lon="6.6917">
        <ele>1154.441</ele>
        <time>2014-10-04T14:17:36Z</time>
      </trkpt>
      <trkpt lat="43.86443" lon="6.69169">
        <ele>1146.724</ele>
        <time>2014-10-04T14:17:41Z</time>
      </trkpt>
      <trkpt lat="43.86439" lon="6.69168">
        <ele>1144.238</ele>
        <time>2014-10-04T14:17:44Z</time>
      </trkpt>
      <trkpt lat="43.86436" lon="6.69167">
        <ele>1133.944</ele>
        <time>2014-10-04T14:17:55Z</time>
      </trkpt>
      <trkpt lat="43.86438" lon="6.69164">
        <ele>1140.292</ele>
        <time>2014-10-04T14:18:36Z</time>
      </trkpt>
      <trkpt lat="43.86437" lon="6.69165">
        <ele>1143.969</ele>
        <time>2014-10-04T14:21:29Z</time>
      </trkpt>
      <trkpt lat="43.86427" lon="6.69155">
        <ele>1142.136</ele>
        <time>2014-10-04T14:21:34Z</time>
      </trkpt>
      <trkpt lat="43.86415" lon="6.69149">
        <ele>1142.89</ele>
        <time>2014-10-04T14:21:38Z</time>
      </trkpt>
      <trkpt lat="43.86408" lon="6.69142">
        <ele>1141.907</ele>
        <time>2014-10-04T14:21:40Z</time>
      </trkpt>
      <trkpt lat="43.86401" lon="6.69126">
        <ele>1136.126</ele>
        <time>2014-10-04T14:21:44Z</time>
      </trkpt>
      <trkpt lat="43.864" lon="6.69122">
        <ele>1133.114</ele>
        <time>2014-10-04T14:21:46Z</time>
      </trkpt>
      <trkpt lat="43.86392" lon="6.69114">
        <ele>1128.787</ele>
        <time>2014-10-04T14:21:52Z</time>
      </trkpt>
      <trkpt lat="43.86381" lon="6.69099">
        <ele>1126.106</ele>
        <time>2014-10-04T14:21:56Z</time>
      </trkpt>
      <trkpt lat="43.86365" lon="6.69088">
        <ele>1122.183</ele>
        <time>2014-10-04T14:22:00Z</time>
      </trkpt>
      <trkpt lat="43.86346" lon="6.69068">
        <ele>1119.924</ele>
        <time>2014-10-04T14:22:05Z</time>
      </trkpt>
      <trkpt lat="43.86342" lon="6.69064">
        <ele>1119.497</ele>
        <time>2014-10-04T14:22:08Z</time>
      </trkpt>
      <trkpt lat="43.8634" lon="6.69062">
        <ele>1116.879</ele>
        <time>2014-10-04T14:22:13Z</time>
      </trkpt>
      <trkpt lat="43.86336" lon="6.69057">
        <ele>1114.725</ele>
        <time>2014-10-04T14:22:19Z</time>
      </trkpt>
      <trkpt lat="43.86327" lon="6.69045">
        <ele>1114.709</ele>
        <time>2014-10-04T14:22:24Z</time>
      </trkpt>
      <trkpt lat="43.86325" lon="6.6904">
        <ele>1115.04</ele>
        <time>2014-10-04T14:22:25Z</time>
      </trkpt>
      <trkpt lat="43.86314" lon="6.6903">
        <ele>1108.946</ele>
        <time>2014-10-04T14:22:29Z</time>
      </trkpt>
      <trkpt lat="43.86302" lon="6.69028">
        <ele>1103.782</ele>
        <time>2014-10-04T14:22:33Z</time>
      </trkpt>
      <trkpt lat="43.86289" lon="6.69022">
        <ele>1098.646</ele>
        <time>2014-10-04T14:22:37Z</time>
      </trkpt>
      <trkpt lat="43.86283" lon="6.6902">
        <ele>1097.367</ele>
        <time>2014-10-04T14:22:39Z</time>
      </trkpt>
      <trkpt lat="43.86266" lon="6.69007">
        <ele>1091.635</ele>
        <time>2014-10-04T14:22:45Z</time>
      </trkpt>
      <trkpt lat="43.86261" lon="6.68998">
        <ele>1088.946</ele>
        <time>2014-10-04T14:22:48Z</time>
      </trkpt>
      <trkpt lat="43.86245" lon="6.68982">
        <ele>1086.241</ele>
        <time>2014-10-04T14:22:53Z</time>
      </trkpt>
      <trkpt lat="43.86238" lon="6.68972">
        <ele>1086.339</ele>
        <time>2014-10-04T14:22:56Z</time>
      </trkpt>
      <trkpt lat="43.86222" lon="6.68952">
        <ele>1083.747</ele>
        <time>2014-10-04T14:23:01Z</time>
      </trkpt>
      <trkpt lat="43.86207" lon="6.68941">
        <ele>1082.268</ele>
        <time>2014-10-04T14:23:05Z</time>
      </trkpt>
      <trkpt lat="43.86199" lon="6.6894">
        <ele>1082.153</ele>
        <time>2014-10-04T14:23:07Z</time>
      </trkpt>
      <trkpt lat="43.86192" lon="6.68937">
        <ele>1081.623</ele>
        <time>2014-10-04T14:23:09Z</time>
      </trkpt>
      <trkpt lat="43.86183" lon="6.68926">
        <ele>1080.332</ele>
        <time>2014-10-04T14:23:12Z</time>
      </trkpt>
      <trkpt lat="43.86175" lon="6.68904">
        <ele>1078.541</ele>
        <time>2014-10-04T14:23:17Z</time>
      </trkpt>
      <trkpt lat="43.86171" lon="6.68904">
        <ele>1076.77</ele>
        <time>2014-10-04T14:23:21Z</time>
      </trkpt>
      <trkpt lat="43.86172" lon="6.68908">
        <ele>1075.753</ele>
        <time>2014-10-04T14:23:25Z</time>
      </trkpt>
      <trkpt lat="43.86172" lon="6.68904">
        <ele>1064.619</ele>
        <time>2014-10-04T14:34:34Z</time>
      </trkpt>
      <trkpt lat="43.8617" lon="6.68921">
        <ele>1063.227</ele>
        <time>2014-10-04T14:34:39Z</time>
      </trkpt>
      <trkpt lat="43.86165" lon="6.6894">
        <ele>1060.958</ele>
        <time>2014-10-04T14:34:42Z</time>
      </trkpt>
      <trkpt lat="43.86164" lon="6.68962">
        <ele>1058.214</ele>
        <time>2014-10-04T14:34:46Z</time>
      </trkpt>
      <trkpt lat="43.86179" lon="6.68977">
        <ele>1055.28</ele>
        <time>2014-10-04T14:34:52Z</time>
      </trkpt>
      <trkpt lat="43.8618" lon="6.68989">
        <ele>1053.933</ele>
        <time>2014-10-04T14:34:55Z</time>
      </trkpt>
      <trkpt lat="43.86176" lon="6.69017">
        <ele>1052.288</ele>
        <time>2014-10-04T14:35:01Z</time>
      </trkpt>
      <trkpt lat="43.86172" lon="6.69043">
        <ele>1054.817</ele>
        <time>2014-10-04T14:35:07Z</time>
      </trkpt>
      <trkpt lat="43.86172" lon="6.6907">
        <ele>1055.349</ele>
        <time>2014-10-04T14:35:13Z</time>
      </trkpt>
      <trkpt lat="43.86173" lon="6.69104">
        <ele>1055.829</ele>
        <time>2014-10-04T14:35:20Z</time>
      </trkpt>
      <trkpt lat="43.86179" lon="6.69137">
        <ele>1057.149</ele>
        <time>2014-10-04T14:35:26Z</time>
      </trkpt>
      <trkpt lat="43.8618" lon="6.69142">
        <ele>1057.53</ele>
        <time>2014-10-04T14:35:27Z</time>
      </trkpt>
      <trkpt lat="43.86179" lon="6.69165">
        <ele>1058.172</ele>
        <time>2014-10-04T14:35:31Z</time>
      </trkpt>
      <trkpt lat="43.86179" lon="6.69186">
        <ele>1057.429</ele>
        <time>2014-10-04T14:35:35Z</time>
      </trkpt>
      <trkpt lat="43.86171" lon="6.69187">
        <ele>1057.819</ele>
        <time>2014-10-04T14:35:39Z</time>
      </trkpt>
      <trkpt lat="43.86169" lon="6.69187">
        <ele>1057.746</ele>
        <time>2014-10-04T14:35:44Z</time>
      </trkpt>
      <trkpt lat="43.86169" lon="6.69189">
        <ele>1057.886</ele>
        <time>2014-10-04T14:35:49Z</time>
      </trkpt>
      <trkpt lat="43.86173" lon="6.69193">
        <ele>1062.146</ele>
        <time>2014-10-04T14:38:42Z</time>
      </trkpt>
      <trkpt lat="43.86174" lon="6.69192">
        <ele>1065.627</ele>
        <time>2014-10-04T14:46:50Z</time>
      </trkpt>
      <trkpt lat="43.86169" lon="6.69194">
        <ele>1064.25</ele>
        <time>2014-10-04T14:46:56Z</time>
      </trkpt>
      <trkpt lat="43.86159" lon="6.692">
        <ele>1063.191</ele>
        <time>2014-10-04T14:47:02Z</time>
      </trkpt>
      <trkpt lat="43.86153" lon="6.69203">
        <ele>1062.62</ele>
        <time>2014-10-04T14:47:04Z</time>
      </trkpt>
      <trkpt lat="43.86145" lon="6.69209">
        <ele>1062.371</ele>
        <time>2014-10-04T14:47:07Z</time>
      </trkpt>
      <trkpt lat="43.86134" lon="6.69222">
        <ele>1060.951</ele>
        <time>2014-10-04T14:47:12Z</time>
      </trkpt>
      <trkpt lat="43.8613" lon="6.69245">
        <ele>1058.486</ele>
        <time>2014-10-04T14:47:16Z</time>
      </trkpt>
      <trkpt lat="43.86132" lon="6.69286">
        <ele>1058.547</ele>
        <time>2014-10-04T14:47:23Z</time>
      </trkpt>
      <trkpt lat="43.86131" lon="6.69297">
        <ele>1058.415</ele>
        <time>2014-10-04T14:47:25Z</time>
      </trkpt>
      <trkpt lat="43.86134" lon="6.69325">
        <ele>1058.668</ele>
        <time>2014-10-04T14:47:30Z</time>
      </trkpt>
      <trkpt lat="43.86135" lon="6.6933">
        <ele>1058.999</ele>
        <time>2014-10-04T14:47:31Z</time>
      </trkpt>
      <trkpt lat="43.86147" lon="6.69359">
        <ele>1059.026</ele>
        <time>2014-10-04T14:47:38Z</time>
      </trkpt>
      <trkpt lat="43.86149" lon="6.69364">
        <ele>1058.823</ele>
        <time>2014-10-04T14:47:39Z</time>
      </trkpt>
      <trkpt lat="43.86161" lon="6.69394">
        <ele>1058.641</ele>
        <time>2014-10-04T14:47:44Z</time>
      </trkpt>
      <trkpt lat="43.86163" lon="6.69409">
        <ele>1058.069</ele>
        <time>2014-10-04T14:47:46Z</time>
      </trkpt>
      <trkpt lat="43.86166" lon="6.69432">
        <ele>1056.795</ele>
        <time>2014-10-04T14:47:49Z</time>
      </trkpt>
      <trkpt lat="43.86163" lon="6.69461">
        <ele>1054.893</ele>
        <time>2014-10-04T14:47:54Z</time>
      </trkpt>
      <trkpt lat="43.86162" lon="6.69487">
        <ele>1051.989</ele>
        <time>2014-10-04T14:47:59Z</time>
      </trkpt>
      <trkpt lat="43.86167" lon="6.69493">
        <ele>1051.679</ele>
        <time>2014-10-04T14:48:01Z</time>
      </trkpt>
      <trkpt lat="43.86176" lon="6.69504">
        <ele>1050.352</ele>
        <time>2014-10-04T14:48:04Z</time>
      </trkpt>
      <trkpt lat="43.86192" lon="6.69525">
        <ele>1048.6</ele>
        <time>2014-10-04T14:48:08Z</time>
      </trkpt>
      <trkpt lat="43.86199" lon="6.69547">
        <ele>1046.758</ele>
        <time>2014-10-04T14:48:12Z</time>
      </trkpt>
      <trkpt lat="43.86199" lon="6.69587">
        <ele>1042.947</ele>
        <time>2014-10-04T14:48:18Z</time>
      </trkpt>
      <trkpt lat="43.86194" lon="6.69603">
        <ele>1040.282</ele>
        <time>2014-10-04T14:48:21Z</time>
      </trkpt>
      <trkpt lat="43.86186" lon="6.69617">
        <ele>1037.699</ele>
        <time>2014-10-04T14:48:26Z</time>
      </trkpt>
      <trkpt lat="43.86189" lon="6.69622">
        <ele>1034.436</ele>
        <time>2014-10-04T14:48:37Z</time>
      </trkpt>
      <trkpt lat="43.86189" lon="6.69623">
        <ele>1034.785</ele>
        <time>2014-10-04T14:48:41Z</time>
      </trkpt>
      <trkpt lat="43.86192" lon="6.69634">
        <ele>1034.723</ele>
        <time>2014-10-04T14:48:47Z</time>
      </trkpt>
      <trkpt lat="43.86196" lon="6.69638">
        <ele>1035.145</ele>
        <time>2014-10-04T14:48:52Z</time>
      </trkpt>
      <trkpt lat="43.86195" lon="6.69637">
        <ele>1034.737</ele>
        <time>2014-10-04T14:48:58Z</time>
      </trkpt>
      <trkpt lat="43.86199" lon="6.69638">
        <ele>1036.209</ele>
        <time>2014-10-04T14:49:03Z</time>
      </trkpt>
      <trkpt lat="43.86196" lon="6.69647">
        <ele>1035.324</ele>
        <time>2014-10-04T14:49:07Z</time>
      </trkpt>
      <trkpt lat="43.862" lon="6.69647">
        <ele>1034.415</ele>
        <time>2014-10-04T14:49:10Z</time>
      </trkpt>
      <trkpt lat="43.86205" lon="6.69642">
        <ele>1033.262</ele>
        <time>2014-10-04T14:49:12Z</time>
      </trkpt>
      <trkpt lat="43.86218" lon="6.69633">
        <ele>1029.727</ele>
        <time>2014-10-04T14:49:16Z</time>
      </trkpt>
      <trkpt lat="43.86231" lon="6.69648">
        <ele>1026.649</ele>
        <time>2014-10-04T14:49:20Z</time>
      </trkpt>
      <trkpt lat="43.86241" lon="6.6966">
        <ele>1024.911</ele>
        <time>2014-10-04T14:49:23Z</time>
      </trkpt>
      <trkpt lat="43.86255" lon="6.69689">
        <ele>1021.597</ele>
        <time>2014-10-04T14:49:28Z</time>
      </trkpt>
      <trkpt lat="43.86259" lon="6.69702">
        <ele>1019.009</ele>
        <time>2014-10-04T14:49:31Z</time>
      </trkpt>
      <trkpt lat="43.8626" lon="6.69721">
        <ele>1013.062</ele>
        <time>2014-10-04T14:49:35Z</time>
      </trkpt>
      <trkpt lat="43.86253" lon="6.69728">
        <ele>1010.36</ele>
        <time>2014-10-04T14:49:39Z</time>
      </trkpt>
      <trkpt lat="43.8625" lon="6.69726">
        <ele>1009.85</ele>
        <time>2014-10-04T14:49:40Z</time>
      </trkpt>
      <trkpt lat="43.86244" lon="6.69723">
        <ele>1008.972</ele>
        <time>2014-10-04T14:49:42Z</time>
      </trkpt>
      <trkpt lat="43.8624" lon="6.69727">
        <ele>1008.242</ele>
        <time>2014-10-04T14:49:46Z</time>
      </trkpt>
      <trkpt lat="43.8624" lon="6.69732">
        <ele>1007.65</ele>
        <time>2014-10-04T14:49:49Z</time>
      </trkpt>
      <trkpt lat="43.86233" lon="6.69729">
        <ele>1006.501</ele>
        <time>2014-10-04T14:49:52Z</time>
      </trkpt>
      <trkpt lat="43.86234" lon="6.69737">
        <ele>1004.727</ele>
        <time>2014-10-04T14:49:55Z</time>
      </trkpt>
      <trkpt lat="43.86235" lon="6.69756">
        <ele>1002.576</ele>
        <time>2014-10-04T14:49:59Z</time>
      </trkpt>
      <trkpt lat="43.86238" lon="6.69768">
        <ele>999.03</ele>
        <time>2014-10-04T14:50:03Z</time>
      </trkpt>
      <trkpt lat="43.86251" lon="6.69771">
        <ele>997.691</ele>
        <time>2014-10-04T14:50:06Z</time>
      </trkpt>
      <trkpt lat="43.86265" lon="6.69774">
        <ele>995.13</ele>
        <time>2014-10-04T14:50:10Z</time>
      </trkpt>
      <trkpt lat="43.86266" lon="6.69776">
        <ele>994.329</ele>
        <time>2014-10-04T14:50:13Z</time>
      </trkpt>
      <trkpt lat="43.86259" lon="6.69779">
        <ele>993.5</ele>
        <time>2014-10-04T14:50:17Z</time>
      </trkpt>
      <trkpt lat="43.86251" lon="6.69789">
        <ele>993.072</ele>
        <time>2014-10-04T14:50:21Z</time>
      </trkpt>
      <trkpt lat="43.86251" lon="6.6979">
        <ele>992.912</ele>
        <time>2014-10-04T14:50:22Z</time>
      </trkpt>
      <trkpt lat="43.86261" lon="6.6979">
        <ele>990.844</ele>
        <time>2014-10-04T14:50:27Z</time>
      </trkpt>
      <trkpt lat="43.86268" lon="6.69796">
        <ele>988.594</ele>
        <time>2014-10-04T14:50:31Z</time>
      </trkpt>
      <trkpt lat="43.86271" lon="6.69801">
        <ele>986.395</ele>
        <time>2014-10-04T14:50:35Z</time>
      </trkpt>
      <trkpt lat="43.86267" lon="6.69805">
        <ele>985.243</ele>
        <time>2014-10-04T14:50:37Z</time>
      </trkpt>
      <trkpt lat="43.86261" lon="6.69807">
        <ele>983.353</ele>
        <time>2014-10-04T14:50:40Z</time>
      </trkpt>
      <trkpt lat="43.86262" lon="6.69811">
        <ele>982.573</ele>
        <time>2014-10-04T14:50:46Z</time>
      </trkpt>
      <trkpt lat="43.86264" lon="6.69811">
        <ele>983.363</ele>
        <time>2014-10-04T14:50:49Z</time>
      </trkpt>
      <trkpt lat="43.86269" lon="6.69817">
        <ele>981.609</ele>
        <time>2014-10-04T14:50:53Z</time>
      </trkpt>
      <trkpt lat="43.86271" lon="6.69826">
        <ele>976.952</ele>
        <time>2014-10-04T14:50:59Z</time>
      </trkpt>
      <trkpt lat="43.86273" lon="6.69827">
        <ele>978.966</ele>
        <time>2014-10-04T14:51:09Z</time>
      </trkpt>
      <trkpt lat="43.86275" lon="6.6983">
        <ele>980.73</ele>
        <time>2014-10-04T14:51:19Z</time>
      </trkpt>
      <trkpt lat="43.86275" lon="6.69829">
        <ele>980.3</ele>
        <time>2014-10-04T14:51:21Z</time>
      </trkpt>
      <trkpt lat="43.86277" lon="6.69829">
        <ele>978.856</ele>
        <time>2014-10-04T14:51:23Z</time>
      </trkpt>
      <trkpt lat="43.86281" lon="6.69823">
        <ele>976.335</ele>
        <time>2014-10-04T14:51:29Z</time>
      </trkpt>
      <trkpt lat="43.86285" lon="6.69822">
        <ele>976.987</ele>
        <time>2014-10-04T14:51:34Z</time>
      </trkpt>
      <trkpt lat="43.86292" lon="6.69817">
        <ele>980.545</ele>
        <time>2014-10-04T14:51:40Z</time>
      </trkpt>
      <trkpt lat="43.86295" lon="6.69815">
        <ele>980.819</ele>
        <time>2014-10-04T14:51:46Z</time>
      </trkpt>
      <trkpt lat="43.86302" lon="6.69811">
        <ele>985.738</ele>
        <time>2014-10-04T14:51:57Z</time>
      </trkpt>
      <trkpt lat="43.86308" lon="6.6981">
        <ele>985.225</ele>
        <time>2014-10-04T14:52:02Z</time>
      </trkpt>
      <trkpt lat="43.86315" lon="6.69808">
        <ele>984.184</ele>
        <time>2014-10-04T14:52:09Z</time>
      </trkpt>
      <trkpt lat="43.86312" lon="6.69805">
        <ele>983.172</ele>
        <time>2014-10-04T14:52:15Z</time>
      </trkpt>
      <trkpt lat="43.86311" lon="6.69805">
        <ele>983.038</ele>
        <time>2014-10-04T14:52:21Z</time>
      </trkpt>
      <trkpt lat="43.86309" lon="6.69808">
        <ele>984.353</ele>
        <time>2014-10-04T14:52:27Z</time>
      </trkpt>
      <trkpt lat="43.8631" lon="6.69812">
        <ele>986.205</ele>
        <time>2014-10-04T14:52:36Z</time>
      </trkpt>
      <trkpt lat="43.8631" lon="6.69823">
        <ele>985.58</ele>
        <time>2014-10-04T14:52:43Z</time>
      </trkpt>
      <trkpt lat="43.86309" lon="6.6983">
        <ele>988.451</ele>
        <time>2014-10-04T14:52:50Z</time>
      </trkpt>
      <trkpt lat="43.86305" lon="6.69835">
        <ele>989.842</ele>
        <time>2014-10-04T14:52:57Z</time>
      </trkpt>
      <trkpt lat="43.86299" lon="6.69838">
        <ele>990.912</ele>
        <time>2014-10-04T14:53:04Z</time>
      </trkpt>
      <trkpt lat="43.86294" lon="6.69843">
        <ele>991.191</ele>
        <time>2014-10-04T14:53:11Z</time>
      </trkpt>
      <trkpt lat="43.86292" lon="6.69853">
        <ele>991.509</ele>
        <time>2014-10-04T14:53:21Z</time>
      </trkpt>
      <trkpt lat="43.86288" lon="6.6986">
        <ele>990.808</ele>
        <time>2014-10-04T14:53:27Z</time>
      </trkpt>
      <trkpt lat="43.86278" lon="6.69869">
        <ele>989.485</ele>
        <time>2014-10-04T14:53:31Z</time>
      </trkpt>
      <trkpt lat="43.86259" lon="6.69887">
        <ele>986.52</ele>
        <time>2014-10-04T14:53:36Z</time>
      </trkpt>
      <trkpt lat="43.86258" lon="6.69888">
        <ele>987.005</ele>
        <time>2014-10-04T14:53:37Z</time>
      </trkpt>
      <trkpt lat="43.86257" lon="6.69892">
        <ele>988.552</ele>
        <time>2014-10-04T14:53:44Z</time>
      </trkpt>
      <trkpt lat="43.86257" lon="6.69895">
        <ele>989.434</ele>
        <time>2014-10-04T14:53:49Z</time>
      </trkpt>
      <trkpt lat="43.86256" lon="6.69897">
        <ele>990.566</ele>
        <time>2014-10-04T14:53:52Z</time>
      </trkpt>
      <trkpt lat="43.86254" lon="6.69905">
        <ele>991.795</ele>
        <time>2014-10-04T14:54:00Z</time>
      </trkpt>
      <trkpt lat="43.86253" lon="6.69909">
        <ele>994.466</ele>
        <time>2014-10-04T14:54:05Z</time>
      </trkpt>
      <trkpt lat="43.86252" lon="6.69913">
        <ele>998.23</ele>
        <time>2014-10-04T14:54:09Z</time>
      </trkpt>
      <trkpt lat="43.8625" lon="6.6992">
        <ele>1002.818</ele>
        <time>2014-10-04T14:54:17Z</time>
      </trkpt>
      <trkpt lat="43.86247" lon="6.69932">
        <ele>1001.974</ele>
        <time>2014-10-04T14:54:24Z</time>
      </trkpt>
      <trkpt lat="43.86245" lon="6.69934">
        <ele>1001.99</ele>
        <time>2014-10-04T14:54:30Z</time>
      </trkpt>
      <trkpt lat="43.8624" lon="6.6994">
        <ele>1001.201</ele>
        <time>2014-10-04T14:54:39Z</time>
      </trkpt>
      <trkpt lat="43.86234" lon="6.69953">
        <ele>1001.324</ele>
        <time>2014-10-04T14:54:45Z</time>
      </trkpt>
      <trkpt lat="43.86223" lon="6.6997">
        <ele>1003.735</ele>
        <time>2014-10-04T14:54:52Z</time>
      </trkpt>
      <trkpt lat="43.86213" lon="6.69988">
        <ele>1006.656</ele>
        <time>2014-10-04T14:54:59Z</time>
      </trkpt>
      <trkpt lat="43.86211" lon="6.69994">
        <ele>1006.847</ele>
        <time>2014-10-04T14:55:01Z</time>
      </trkpt>
      <trkpt lat="43.86196" lon="6.70003">
        <ele>1005.431</ele>
        <time>2014-10-04T14:55:05Z</time>
      </trkpt>
      <trkpt lat="43.86186" lon="6.70008">
        <ele>1004.817</ele>
        <time>2014-10-04T14:55:11Z</time>
      </trkpt>
      <trkpt lat="43.86174" lon="6.70013">
        <ele>1004.1</ele>
        <time>2014-10-04T14:55:18Z</time>
      </trkpt>
      <trkpt lat="43.86158" lon="6.7002">
        <ele>1003.148</ele>
        <time>2014-10-04T14:55:26Z</time>
      </trkpt>
      <trkpt lat="43.86143" lon="6.70028">
        <ele>1003.059</ele>
        <time>2014-10-04T14:55:33Z</time>
      </trkpt>
      <trkpt lat="43.86123" lon="6.7003">
        <ele>1002.591</ele>
        <time>2014-10-04T14:55:39Z</time>
      </trkpt>
      <trkpt lat="43.86112" lon="6.70039">
        <ele>1003.924</ele>
        <time>2014-10-04T14:55:46Z</time>
      </trkpt>
      <trkpt lat="43.86107" lon="6.70044">
        <ele>1005.478</ele>
        <time>2014-10-04T14:55:50Z</time>
      </trkpt>
      <trkpt lat="43.86102" lon="6.70054">
        <ele>1008.758</ele>
        <time>2014-10-04T14:55:57Z</time>
      </trkpt>
      <trkpt lat="43.86097" lon="6.70065">
        <ele>1012.223</ele>
        <time>2014-10-04T14:56:03Z</time>
      </trkpt>
      <trkpt lat="43.86091" lon="6.7008">
        <ele>1015.82</ele>
        <time>2014-10-04T14:56:10Z</time>
      </trkpt>
      <trkpt lat="43.86087" lon="6.7009">
        <ele>1016.648</ele>
        <time>2014-10-04T14:56:14Z</time>
      </trkpt>
      <trkpt lat="43.86084" lon="6.70103">
        <ele>1016.996</ele>
        <time>2014-10-04T14:56:18Z</time>
      </trkpt>
      <trkpt lat="43.86083" lon="6.70126">
        <ele>1015.099</ele>
        <time>2014-10-04T14:56:26Z</time>
      </trkpt>
      <trkpt lat="43.86076" lon="6.70137">
        <ele>1014.669</ele>
        <time>2014-10-04T14:56:30Z</time>
      </trkpt>
      <trkpt lat="43.86069" lon="6.70157">
        <ele>1014.582</ele>
        <time>2014-10-04T14:56:36Z</time>
      </trkpt>
      <trkpt lat="43.86069" lon="6.70168">
        <ele>1015.313</ele>
        <time>2014-10-04T14:56:41Z</time>
      </trkpt>
      <trkpt lat="43.86068" lon="6.70181">
        <ele>1016.773</ele>
        <time>2014-10-04T14:56:47Z</time>
      </trkpt>
      <trkpt lat="43.86068" lon="6.70187">
        <ele>1012.538</ele>
        <time>2014-10-04T14:56:53Z</time>
      </trkpt>
      <trkpt lat="43.8607" lon="6.70186">
        <ele>1012.326</ele>
        <time>2014-10-04T14:57:06Z</time>
      </trkpt>
      <trkpt lat="43.86066" lon="6.70166">
        <ele>1010.736</ele>
        <time>2014-10-04T14:57:11Z</time>
      </trkpt>
      <trkpt lat="43.86065" lon="6.70144">
        <ele>1007.51</ele>
        <time>2014-10-04T14:57:15Z</time>
      </trkpt>
      <trkpt lat="43.86061" lon="6.70131">
        <ele>1006.54</ele>
        <time>2014-10-04T14:57:17Z</time>
      </trkpt>
      <trkpt lat="43.86058" lon="6.70105">
        <ele>1002.567</ele>
        <time>2014-10-04T14:57:22Z</time>
      </trkpt>
      <trkpt lat="43.86055" lon="6.7009">
        <ele>999.615</ele>
        <time>2014-10-04T14:57:25Z</time>
      </trkpt>
      <trkpt lat="43.86051" lon="6.70059">
        <ele>992.889</ele>
        <time>2014-10-04T14:57:29Z</time>
      </trkpt>
      <trkpt lat="43.8605" lon="6.70036">
        <ele>993.515</ele>
        <time>2014-10-04T14:57:32Z</time>
      </trkpt>
      <trkpt lat="43.86052" lon="6.70013">
        <ele>990.94</ele>
        <time>2014-10-04T14:57:36Z</time>
      </trkpt>
      <trkpt lat="43.86051" lon="6.69996">
        <ele>987.896</ele>
        <time>2014-10-04T14:57:40Z</time>
      </trkpt>
      <trkpt lat="43.86049" lon="6.69976">
        <ele>988.022</ele>
        <time>2014-10-04T14:57:44Z</time>
      </trkpt>
      <trkpt lat="43.86043" lon="6.69956">
        <ele>985.524</ele>
        <time>2014-10-04T14:57:48Z</time>
      </trkpt>
      <trkpt lat="43.8603" lon="6.69938">
        <ele>980.321</ele>
        <time>2014-10-04T14:57:52Z</time>
      </trkpt>
      <trkpt lat="43.86022" lon="6.6993">
        <ele>980.019</ele>
        <time>2014-10-04T14:57:54Z</time>
      </trkpt>
      <trkpt lat="43.85997" lon="6.699">
        <ele>975.831</ele>
        <time>2014-10-04T14:58:02Z</time>
      </trkpt>
      <trkpt lat="43.8599" lon="6.69892">
        <ele>974.654</ele>
        <time>2014-10-04T14:58:04Z</time>
      </trkpt>
      <trkpt lat="43.85974" lon="6.69877">
        <ele>970.104</ele>
        <time>2014-10-04T14:58:09Z</time>
      </trkpt>
      <trkpt lat="43.85959" lon="6.69858">
        <ele>964.905</ele>
        <time>2014-10-04T14:58:14Z</time>
      </trkpt>
      <trkpt lat="43.85957" lon="6.69854">
        <ele>963.674</ele>
        <time>2014-10-04T14:58:15Z</time>
      </trkpt>
      <trkpt lat="43.85938" lon="6.69834">
        <ele>959.139</ele>
        <time>2014-10-04T14:58:20Z</time>
      </trkpt>
      <trkpt lat="43.85914" lon="6.69823">
        <ele>956.549</ele>
        <time>2014-10-04T14:58:24Z</time>
      </trkpt>
      <trkpt lat="43.85898" lon="6.69816">
        <ele>953.108</ele>
        <time>2014-10-04T14:58:28Z</time>
      </trkpt>
      <trkpt lat="43.85886" lon="6.69819">
        <ele>949.749</ele>
        <time>2014-10-04T14:58:32Z</time>
      </trkpt>
      <trkpt lat="43.85874" lon="6.69822">
        <ele>950.122</ele>
        <time>2014-10-04T14:58:37Z</time>
      </trkpt>
      <trkpt lat="43.85868" lon="6.69823">
        <ele>950.855</ele>
        <time>2014-10-04T14:58:43Z</time>
      </trkpt>
      <trkpt lat="43.85866" lon="6.69822">
        <ele>950.446</ele>
        <time>2014-10-04T14:58:54Z</time>
      </trkpt>
      <trkpt lat="43.85866" lon="6.69821">
        <ele>950.636</ele>
        <time>2014-10-04T14:58:58Z</time>
      </trkpt>
      <trkpt lat="43.8586" lon="6.69814">
        <ele>951.156</ele>
        <time>2014-10-04T14:59:04Z</time>
      </trkpt>
      <trkpt lat="43.85853" lon="6.69809">
        <ele>952.349</ele>
        <time>2014-10-04T14:59:09Z</time>
      </trkpt>
      <trkpt lat="43.85842" lon="6.69807">
        <ele>952.309</ele>
        <time>2014-10-04T14:59:16Z</time>
      </trkpt>
      <trkpt lat="43.85833" lon="6.69806">
        <ele>954.001</ele>
        <time>2014-10-04T14:59:21Z</time>
      </trkpt>
      <trkpt lat="43.85815" lon="6.69805">
        <ele>954.047</ele>
        <time>2014-10-04T14:59:27Z</time>
      </trkpt>
      <trkpt lat="43.85808" lon="6.69817">
        <ele>953.886</ele>
        <time>2014-10-04T14:59:30Z</time>
      </trkpt>
      <trkpt lat="43.85804" lon="6.69835">
        <ele>952.683</ele>
        <time>2014-10-04T14:59:33Z</time>
      </trkpt>
      <trkpt lat="43.85792" lon="6.69876">
        <ele>951.713</ele>
        <time>2014-10-04T14:59:39Z</time>
      </trkpt>
      <trkpt lat="43.85778" lon="6.69903">
        <ele>950.205</ele>
        <time>2014-10-04T14:59:45Z</time>
      </trkpt>
      <trkpt lat="43.85767" lon="6.69915">
        <ele>949.827</ele>
        <time>2014-10-04T14:59:50Z</time>
      </trkpt>
      <trkpt lat="43.85762" lon="6.69933">
        <ele>948.807</ele>
        <time>2014-10-04T14:59:54Z</time>
      </trkpt>
      <trkpt lat="43.85762" lon="6.69939">
        <ele>948.335</ele>
        <time>2014-10-04T14:59:55Z</time>
      </trkpt>
      <trkpt lat="43.85761" lon="6.69973">
        <ele>947.301</ele>
        <time>2014-10-04T15:00:02Z</time>
      </trkpt>
      <trkpt lat="43.85759" lon="6.6999">
        <ele>945.991</ele>
        <time>2014-10-04T15:00:06Z</time>
      </trkpt>
      <trkpt lat="43.85755" lon="6.70008">
        <ele>945.836</ele>
        <time>2014-10-04T15:00:11Z</time>
      </trkpt>
      <trkpt lat="43.85755" lon="6.70028">
        <ele>944.291</ele>
        <time>2014-10-04T15:00:15Z</time>
      </trkpt>
      <trkpt lat="43.85746" lon="6.70047">
        <ele>944.518</ele>
        <time>2014-10-04T15:00:20Z</time>
      </trkpt>
      <trkpt lat="43.85735" lon="6.70068">
        <ele>945.08</ele>
        <time>2014-10-04T15:00:25Z</time>
      </trkpt>
      <trkpt lat="43.85723" lon="6.70083">
        <ele>944.388</ele>
        <time>2014-10-04T15:00:29Z</time>
      </trkpt>
      <trkpt lat="43.85715" lon="6.70089">
        <ele>943.644</ele>
        <time>2014-10-04T15:00:31Z</time>
      </trkpt>
      <trkpt lat="43.85702" lon="6.70103">
        <ele>942.781</ele>
        <time>2014-10-04T15:00:34Z</time>
      </trkpt>
      <trkpt lat="43.85691" lon="6.70131">
        <ele>941.553</ele>
        <time>2014-10-04T15:00:38Z</time>
      </trkpt>
      <trkpt lat="43.85689" lon="6.70147">
        <ele>940.751</ele>
        <time>2014-10-04T15:00:40Z</time>
      </trkpt>
      <trkpt lat="43.85688" lon="6.70177">
        <ele>937.557</ele>
        <time>2014-10-04T15:00:45Z</time>
      </trkpt>
      <trkpt lat="43.85684" lon="6.70202">
        <ele>935.579</ele>
        <time>2014-10-04T15:00:49Z</time>
      </trkpt>
      <trkpt lat="43.85678" lon="6.70229">
        <ele>934.162</ele>
        <time>2014-10-04T15:00:54Z</time>
      </trkpt>
      <trkpt lat="43.85667" lon="6.7025">
        <ele>935.22</ele>
        <time>2014-10-04T15:01:00Z</time>
      </trkpt>
      <trkpt lat="43.85654" lon="6.70268">
        <ele>935.661</ele>
        <time>2014-10-04T15:01:04Z</time>
      </trkpt>
      <trkpt lat="43.85645" lon="6.70286">
        <ele>936.643</ele>
        <time>2014-10-04T15:01:08Z</time>
      </trkpt>
      <trkpt lat="43.85644" lon="6.7029">
        <ele>937.242</ele>
        <time>2014-10-04T15:01:09Z</time>
      </trkpt>
      <trkpt lat="43.85644" lon="6.70307">
        <ele>938.884</ele>
        <time>2014-10-04T15:01:15Z</time>
      </trkpt>
      <trkpt lat="43.85644" lon="6.70312">
        <ele>940.184</ele>
        <time>2014-10-04T15:01:17Z</time>
      </trkpt>
      <trkpt lat="43.85645" lon="6.70316">
        <ele>941.414</ele>
        <time>2014-10-04T15:01:19Z</time>
      </trkpt>
      <trkpt lat="43.85645" lon="6.70328">
        <ele>943.614</ele>
        <time>2014-10-04T15:01:23Z</time>
      </trkpt>
      <trkpt lat="43.85648" lon="6.70348">
        <ele>941.5</ele>
        <time>2014-10-04T15:01:28Z</time>
      </trkpt>
      <trkpt lat="43.85655" lon="6.70377">
        <ele>938.586</ele>
        <time>2014-10-04T15:01:34Z</time>
      </trkpt>
      <trkpt lat="43.85665" lon="6.70396">
        <ele>937.105</ele>
        <time>2014-10-04T15:01:38Z</time>
      </trkpt>
      <trkpt lat="43.85681" lon="6.70415">
        <ele>937.377</ele>
        <time>2014-10-04T15:01:43Z</time>
      </trkpt>
      <trkpt lat="43.85686" lon="6.70422">
        <ele>935.281</ele>
        <time>2014-10-04T15:01:45Z</time>
      </trkpt>
      <trkpt lat="43.85701" lon="6.70443">
        <ele>932.027</ele>
        <time>2014-10-04T15:01:49Z</time>
      </trkpt>
      <trkpt lat="43.85709" lon="6.70454">
        <ele>930.143</ele>
        <time>2014-10-04T15:01:51Z</time>
      </trkpt>
      <trkpt lat="43.85716" lon="6.70479">
        <ele>928.142</ele>
        <time>2014-10-04T15:01:55Z</time>
      </trkpt>
      <trkpt lat="43.85718" lon="6.705">
        <ele>928.337</ele>
        <time>2014-10-04T15:01:59Z</time>
      </trkpt>
      <trkpt lat="43.85717" lon="6.70509">
        <ele>928.248</ele>
        <time>2014-10-04T15:02:01Z</time>
      </trkpt>
      <trkpt lat="43.85705" lon="6.70524">
        <ele>923.864</ele>
        <time>2014-10-04T15:02:07Z</time>
      </trkpt>
      <trkpt lat="43.85703" lon="6.70527">
        <ele>921.342</ele>
        <time>2014-10-04T15:02:11Z</time>
      </trkpt>
      <trkpt lat="43.85702" lon="6.70532">
        <ele>922.566</ele>
        <time>2014-10-04T15:02:25Z</time>
      </trkpt>
      <trkpt lat="43.85699" lon="6.70538">
        <ele>925.179</ele>
        <time>2014-10-04T15:02:32Z</time>
      </trkpt>
      <trkpt lat="43.85695" lon="6.70541">
        <ele>927.583</ele>
        <time>2014-10-04T15:02:37Z</time>
      </trkpt>
      <trkpt lat="43.85692" lon="6.70547">
        <ele>929.154</ele>
        <time>2014-10-04T15:02:45Z</time>
      </trkpt>
      <trkpt lat="43.85687" lon="6.70558">
        <ele>930.576</ele>
        <time>2014-10-04T15:02:51Z</time>
      </trkpt>
      <trkpt lat="43.85685" lon="6.70577">
        <ele>931.066</ele>
        <time>2014-10-04T15:02:56Z</time>
      </trkpt>
      <trkpt lat="43.85686" lon="6.70599">
        <ele>932.103</ele>
        <time>2014-10-04T15:03:02Z</time>
      </trkpt>
      <trkpt lat="43.85692" lon="6.70623">
        <ele>932.762</ele>
        <time>2014-10-04T15:03:08Z</time>
      </trkpt>
      <trkpt lat="43.857" lon="6.7065">
        <ele>934.471</ele>
        <time>2014-10-04T15:03:14Z</time>
      </trkpt>
      <trkpt lat="43.85703" lon="6.70679">
        <ele>935.586</ele>
        <time>2014-10-04T15:03:20Z</time>
      </trkpt>
      <trkpt lat="43.85703" lon="6.707">
        <ele>935.551</ele>
        <time>2014-10-04T15:03:24Z</time>
      </trkpt>
      <trkpt lat="43.85702" lon="6.70712">
        <ele>936.043</ele>
        <time>2014-10-04T15:03:26Z</time>
      </trkpt>
      <trkpt lat="43.85703" lon="6.70739">
        <ele>935.292</ele>
        <time>2014-10-04T15:03:30Z</time>
      </trkpt>
      <trkpt lat="43.85706" lon="6.70768">
        <ele>933.153</ele>
        <time>2014-10-04T15:03:34Z</time>
      </trkpt>
      <trkpt lat="43.85717" lon="6.70804">
        <ele>931.289</ele>
        <time>2014-10-04T15:03:39Z</time>
      </trkpt>
      <trkpt lat="43.85721" lon="6.70835">
        <ele>930.675</ele>
        <time>2014-10-04T15:03:43Z</time>
      </trkpt>
      <trkpt lat="43.85723" lon="6.70877">
        <ele>930.465</ele>
        <time>2014-10-04T15:03:49Z</time>
      </trkpt>
      <trkpt lat="43.85721" lon="6.70896">
        <ele>930.102</ele>
        <time>2014-10-04T15:03:52Z</time>
      </trkpt>
      <trkpt lat="43.85723" lon="6.70923">
        <ele>925.321</ele>
        <time>2014-10-04T15:03:55Z</time>
      </trkpt>
      <trkpt lat="43.85717" lon="6.70956">
        <ele>921.907</ele>
        <time>2014-10-04T15:03:59Z</time>
      </trkpt>
      <trkpt lat="43.8572" lon="6.70977">
        <ele>920.866</ele>
        <time>2014-10-04T15:04:02Z</time>
      </trkpt>
      <trkpt lat="43.8573" lon="6.7099">
        <ele>922.376</ele>
        <time>2014-10-04T15:04:05Z</time>
      </trkpt>
      <trkpt lat="43.85734" lon="6.70997">
        <ele>924.949</ele>
        <time>2014-10-04T15:04:07Z</time>
      </trkpt>
      <trkpt lat="43.85739" lon="6.71019">
        <ele>926.044</ele>
        <time>2014-10-04T15:04:13Z</time>
      </trkpt>
      <trkpt lat="43.85731" lon="6.71043">
        <ele>928.106</ele>
        <time>2014-10-04T15:04:19Z</time>
      </trkpt>
      <trkpt lat="43.85724" lon="6.71068">
        <ele>933.047</ele>
        <time>2014-10-04T15:04:24Z</time>
      </trkpt>
      <trkpt lat="43.85718" lon="6.71089">
        <ele>935.766</ele>
        <time>2014-10-04T15:04:28Z</time>
      </trkpt>
      <trkpt lat="43.85715" lon="6.71119">
        <ele>937.77</ele>
        <time>2014-10-04T15:04:33Z</time>
      </trkpt>
      <trkpt lat="43.85718" lon="6.71145">
        <ele>937.452</ele>
        <time>2014-10-04T15:04:38Z</time>
      </trkpt>
      <trkpt lat="43.85723" lon="6.7118">
        <ele>930.41</ele>
        <time>2014-10-04T15:04:43Z</time>
      </trkpt>
      <trkpt lat="43.85727" lon="6.71193">
        <ele>933.342</ele>
        <time>2014-10-04T15:04:47Z</time>
      </trkpt>
      <trkpt lat="43.85726" lon="6.71207">
        <ele>935.404</ele>
        <time>2014-10-04T15:04:51Z</time>
      </trkpt>
      <trkpt lat="43.85735" lon="6.7124">
        <ele>930.412</ele>
        <time>2014-10-04T15:04:56Z</time>
      </trkpt>
      <trkpt lat="43.8574" lon="6.71255">
        <ele>931.991</ele>
        <time>2014-10-04T15:05:01Z</time>
      </trkpt>
      <trkpt lat="43.85746" lon="6.71272">
        <ele>936.332</ele>
        <time>2014-10-04T15:05:06Z</time>
      </trkpt>
      <trkpt lat="43.85755" lon="6.71296">
        <ele>931.939</ele>
        <time>2014-10-04T15:05:11Z</time>
      </trkpt>
      <trkpt lat="43.85758" lon="6.71314">
        <ele>929.539</ele>
        <time>2014-10-04T15:05:16Z</time>
      </trkpt>
      <trkpt lat="43.85759" lon="6.71335">
        <ele>932.544</ele>
        <time>2014-10-04T15:05:21Z</time>
      </trkpt>
      <trkpt lat="43.85754" lon="6.71354">
        <ele>933.607</ele>
        <time>2014-10-04T15:05:25Z</time>
      </trkpt>
      <trkpt lat="43.85751" lon="6.71365">
        <ele>933.848</ele>
        <time>2014-10-04T15:05:27Z</time>
      </trkpt>
      <trkpt lat="43.85747" lon="6.71379">
        <ele>933.975</ele>
        <time>2014-10-04T15:05:29Z</time>
      </trkpt>
      <trkpt lat="43.85746" lon="6.71419">
        <ele>935.152</ele>
        <time>2014-10-04T15:05:35Z</time>
      </trkpt>
      <trkpt lat="43.85744" lon="6.71455">
        <ele>933.666</ele>
        <time>2014-10-04T15:05:41Z</time>
      </trkpt>
      <trkpt lat="43.85744" lon="6.71496">
        <ele>932.895</ele>
        <time>2014-10-04T15:05:46Z</time>
      </trkpt>
      <trkpt lat="43.85749" lon="6.71547">
        <ele>927.429</ele>
        <time>2014-10-04T15:05:52Z</time>
      </trkpt>
      <trkpt lat="43.85753" lon="6.7157">
        <ele>923.464</ele>
        <time>2014-10-04T15:05:55Z</time>
      </trkpt>
      <trkpt lat="43.85758" lon="6.71593">
        <ele>923.241</ele>
        <time>2014-10-04T15:05:58Z</time>
      </trkpt>
      <trkpt lat="43.85768" lon="6.71629">
        <ele>922.035</ele>
        <time>2014-10-04T15:06:03Z</time>
      </trkpt>
      <trkpt lat="43.85769" lon="6.71636">
        <ele>921.542</ele>
        <time>2014-10-04T15:06:04Z</time>
      </trkpt>
      <trkpt lat="43.85776" lon="6.71655">
        <ele>920.118</ele>
        <time>2014-10-04T15:06:07Z</time>
      </trkpt>
      <trkpt lat="43.85782" lon="6.71668">
        <ele>919.636</ele>
        <time>2014-10-04T15:06:09Z</time>
      </trkpt>
      <trkpt lat="43.85788" lon="6.71681">
        <ele>918.5</ele>
        <time>2014-10-04T15:06:11Z</time>
      </trkpt>
      <trkpt lat="43.8579" lon="6.71703">
        <ele>918.774</ele>
        <time>2014-10-04T15:06:15Z</time>
      </trkpt>
      <trkpt lat="43.85785" lon="6.71724">
        <ele>914.066</ele>
        <time>2014-10-04T15:06:21Z</time>
      </trkpt>
      <trkpt lat="43.85778" lon="6.71739">
        <ele>913.823</ele>
        <time>2014-10-04T15:06:26Z</time>
      </trkpt>
      <trkpt lat="43.85769" lon="6.71755">
        <ele>912.8</ele>
        <time>2014-10-04T15:06:31Z</time>
      </trkpt>
      <trkpt lat="43.8576" lon="6.71769">
        <ele>912.988</ele>
        <time>2014-10-04T15:06:36Z</time>
      </trkpt>
      <trkpt lat="43.85754" lon="6.71788">
        <ele>910.635</ele>
        <time>2014-10-04T15:06:42Z</time>
      </trkpt>
      <trkpt lat="43.85749" lon="6.71807">
        <ele>911.832</ele>
        <time>2014-10-04T15:06:48Z</time>
      </trkpt>
      <trkpt lat="43.85753" lon="6.71822">
        <ele>913.789</ele>
        <time>2014-10-04T15:06:53Z</time>
      </trkpt>
      <trkpt lat="43.85754" lon="6.71824">
        <ele>914.256</ele>
        <time>2014-10-04T15:06:54Z</time>
      </trkpt>
      <trkpt lat="43.85766" lon="6.71832">
        <ele>913.27</ele>
        <time>2014-10-04T15:06:59Z</time>
      </trkpt>
      <trkpt lat="43.85784" lon="6.71841">
        <ele>916.481</ele>
        <time>2014-10-04T15:07:07Z</time>
      </trkpt>
      <trkpt lat="43.85785" lon="6.71843">
        <ele>917.037</ele>
        <time>2014-10-04T15:07:08Z</time>
      </trkpt>
      <trkpt lat="43.85783" lon="6.71857">
        <ele>917.827</ele>
        <time>2014-10-04T15:07:13Z</time>
      </trkpt>
      <trkpt lat="43.85782" lon="6.7186">
        <ele>917.702</ele>
        <time>2014-10-04T15:07:14Z</time>
      </trkpt>
      <trkpt lat="43.85772" lon="6.71882">
        <ele>916.099</ele>
        <time>2014-10-04T15:07:21Z</time>
      </trkpt>
      <trkpt lat="43.85761" lon="6.71901">
        <ele>914.123</ele>
        <time>2014-10-04T15:07:26Z</time>
      </trkpt>
      <trkpt lat="43.85746" lon="6.71916">
        <ele>912.178</ele>
        <time>2014-10-04T15:07:31Z</time>
      </trkpt>
      <trkpt lat="43.85729" lon="6.7193">
        <ele>911.342</ele>
        <time>2014-10-04T15:07:37Z</time>
      </trkpt>
      <trkpt lat="43.85725" lon="6.71953">
        <ele>911.506</ele>
        <time>2014-10-04T15:07:42Z</time>
      </trkpt>
      <trkpt lat="43.85726" lon="6.71986">
        <ele>912.088</ele>
        <time>2014-10-04T15:07:49Z</time>
      </trkpt>
      <trkpt lat="43.85729" lon="6.72014">
        <ele>913.568</ele>
        <time>2014-10-04T15:07:55Z</time>
      </trkpt>
      <trkpt lat="43.85732" lon="6.72057">
        <ele>913.895</ele>
        <time>2014-10-04T15:08:04Z</time>
      </trkpt>
      <trkpt lat="43.85733" lon="6.72064">
        <ele>914.381</ele>
        <time>2014-10-04T15:08:06Z</time>
      </trkpt>
      <trkpt lat="43.85727" lon="6.7207">
        <ele>914.732</ele>
        <time>2014-10-04T15:08:10Z</time>
      </trkpt>
      <trkpt lat="43.85725" lon="6.72057">
        <ele>915.869</ele>
        <time>2014-10-04T15:08:14Z</time>
      </trkpt>
      <trkpt lat="43.85723" lon="6.72025">
        <ele>918.666</ele>
        <time>2014-10-04T15:08:23Z</time>
      </trkpt>
      <trkpt lat="43.85721" lon="6.71998">
        <ele>920.655</ele>
        <time>2014-10-04T15:08:31Z</time>
      </trkpt>
      <trkpt lat="43.85718" lon="6.71989">
        <ele>921.58</ele>
        <time>2014-10-04T15:08:34Z</time>
      </trkpt>
      <trkpt lat="43.85709" lon="6.71992">
        <ele>922.288</ele>
        <time>2014-10-04T15:08:39Z</time>
      </trkpt>
      <trkpt lat="43.85708" lon="6.72002">
        <ele>921.498</ele>
        <time>2014-10-04T15:08:42Z</time>
      </trkpt>
      <trkpt lat="43.85711" lon="6.72027">
        <ele>920.953</ele>
        <time>2014-10-04T15:08:49Z</time>
      </trkpt>
      <trkpt lat="43.85712" lon="6.72056">
        <ele>922.018</ele>
        <time>2014-10-04T15:08:57Z</time>
      </trkpt>
      <trkpt lat="43.85711" lon="6.72073">
        <ele>921.505</ele>
        <time>2014-10-04T15:09:02Z</time>
      </trkpt>
      <trkpt lat="43.85709" lon="6.72093">
        <ele>922.314</ele>
        <time>2014-10-04T15:09:08Z</time>
      </trkpt>
      <trkpt lat="43.85706" lon="6.72115">
        <ele>923.169</ele>
        <time>2014-10-04T15:09:14Z</time>
      </trkpt>
      <trkpt lat="43.85699" lon="6.72134">
        <ele>925.401</ele>
        <time>2014-10-04T15:09:20Z</time>
      </trkpt>
      <trkpt lat="43.85695" lon="6.72158">
        <ele>927.956</ele>
        <time>2014-10-04T15:09:27Z</time>
      </trkpt>
      <trkpt lat="43.85691" lon="6.72178">
        <ele>929.234</ele>
        <time>2014-10-04T15:09:33Z</time>
      </trkpt>
      <trkpt lat="43.85686" lon="6.72195">
        <ele>934.341</ele>
        <time>2014-10-04T15:09:39Z</time>
      </trkpt>
      <trkpt lat="43.85683" lon="6.7222">
        <ele>932.412</ele>
        <time>2014-10-04T15:09:45Z</time>
      </trkpt>
      <trkpt lat="43.85677" lon="6.72227">
        <ele>930.736</ele>
        <time>2014-10-04T15:09:49Z</time>
      </trkpt>
      <trkpt lat="43.85676" lon="6.72217">
        <ele>930.533</ele>
        <time>2014-10-04T15:09:53Z</time>
      </trkpt>
      <trkpt lat="43.85685" lon="6.72186">
        <ele>932.294</ele>
        <time>2014-10-04T15:10:03Z</time>
      </trkpt>
      <trkpt lat="43.85688" lon="6.72162">
        <ele>936.455</ele>
        <time>2014-10-04T15:10:11Z</time>
      </trkpt>
      <trkpt lat="43.8569" lon="6.72138">
        <ele>940.36</ele>
        <time>2014-10-04T15:10:19Z</time>
      </trkpt>
      <trkpt lat="43.85692" lon="6.72114">
        <ele>942.17</ele>
        <time>2014-10-04T15:10:27Z</time>
      </trkpt>
      <trkpt lat="43.85693" lon="6.72092">
        <ele>940.561</ele>
        <time>2014-10-04T15:10:33Z</time>
      </trkpt>
      <trkpt lat="43.85694" lon="6.72061">
        <ele>939.471</ele>
        <time>2014-10-04T15:10:42Z</time>
      </trkpt>
      <trkpt lat="43.85693" lon="6.72045">
        <ele>940.979</ele>
        <time>2014-10-04T15:10:47Z</time>
      </trkpt>
      <trkpt lat="43.85684" lon="6.7204">
        <ele>940.141</ele>
        <time>2014-10-04T15:10:52Z</time>
      </trkpt>
      <trkpt lat="43.8568" lon="6.72051">
        <ele>941.622</ele>
        <time>2014-10-04T15:10:56Z</time>
      </trkpt>
      <trkpt lat="43.8568" lon="6.72057">
        <ele>942.397</ele>
        <time>2014-10-04T15:10:58Z</time>
      </trkpt>
      <trkpt lat="43.85678" lon="6.7208">
        <ele>943.011</ele>
        <time>2014-10-04T15:11:05Z</time>
      </trkpt>
      <trkpt lat="43.85671" lon="6.72099">
        <ele>944.851</ele>
        <time>2014-10-04T15:11:12Z</time>
      </trkpt>
      <trkpt lat="43.85664" lon="6.72119">
        <ele>944.817</ele>
        <time>2014-10-04T15:11:18Z</time>
      </trkpt>
      <trkpt lat="43.8566" lon="6.72132">
        <ele>947.16</ele>
        <time>2014-10-04T15:11:23Z</time>
      </trkpt>
      <trkpt lat="43.85657" lon="6.72152">
        <ele>950.889</ele>
        <time>2014-10-04T15:11:30Z</time>
      </trkpt>
      <trkpt lat="43.85655" lon="6.72158">
        <ele>951.907</ele>
        <time>2014-10-04T15:11:32Z</time>
      </trkpt>
      <trkpt lat="43.85652" lon="6.72189">
        <ele>948.433</ele>
        <time>2014-10-04T15:11:40Z</time>
      </trkpt>
      <trkpt lat="43.85644" lon="6.72217">
        <ele>947.308</ele>
        <time>2014-10-04T15:11:48Z</time>
      </trkpt>
      <trkpt lat="43.85635" lon="6.72244">
        <ele>947.562</ele>
        <time>2014-10-04T15:11:56Z</time>
      </trkpt>
      <trkpt lat="43.8563" lon="6.72244">
        <ele>947.369</ele>
        <time>2014-10-04T15:12:00Z</time>
      </trkpt>
      <trkpt lat="43.85634" lon="6.72232">
        <ele>948.167</ele>
        <time>2014-10-04T15:12:04Z</time>
      </trkpt>
      <trkpt lat="43.85643" lon="6.72204">
        <ele>950.701</ele>
        <time>2014-10-04T15:12:13Z</time>
      </trkpt>
      <trkpt lat="43.85648" lon="6.72179">
        <ele>953.684</ele>
        <time>2014-10-04T15:12:21Z</time>
      </trkpt>
      <trkpt lat="43.85651" lon="6.72158">
        <ele>956.31</ele>
        <time>2014-10-04T15:12:28Z</time>
      </trkpt>
      <trkpt lat="43.85654" lon="6.72128">
        <ele>958.734</ele>
        <time>2014-10-04T15:12:37Z</time>
      </trkpt>
      <trkpt lat="43.85656" lon="6.72102">
        <ele>961.432</ele>
        <time>2014-10-04T15:12:45Z</time>
      </trkpt>
      <trkpt lat="43.85659" lon="6.72082">
        <ele>962.102</ele>
        <time>2014-10-04T15:12:51Z</time>
      </trkpt>
      <trkpt lat="43.85661" lon="6.72063">
        <ele>963.859</ele>
        <time>2014-10-04T15:12:57Z</time>
      </trkpt>
      <trkpt lat="43.8566" lon="6.72037">
        <ele>961.904</ele>
        <time>2014-10-04T15:13:04Z</time>
      </trkpt>
      <trkpt lat="43.85659" lon="6.72018">
        <ele>962.065</ele>
        <time>2014-10-04T15:13:10Z</time>
      </trkpt>
      <trkpt lat="43.85656" lon="6.71994">
        <ele>961.165</ele>
        <time>2014-10-04T15:13:17Z</time>
      </trkpt>
      <trkpt lat="43.85656" lon="6.71964">
        <ele>962.575</ele>
        <time>2014-10-04T15:13:26Z</time>
      </trkpt>
      <trkpt lat="43.85651" lon="6.71953">
        <ele>963.112</ele>
        <time>2014-10-04T15:13:31Z</time>
      </trkpt>
      <trkpt lat="43.85644" lon="6.71963">
        <ele>963.069</ele>
        <time>2014-10-04T15:13:36Z</time>
      </trkpt>
      <trkpt lat="43.85643" lon="6.71978">
        <ele>963.145</ele>
        <time>2014-10-04T15:13:40Z</time>
      </trkpt>
      <trkpt lat="43.85644" lon="6.72005">
        <ele>965.06</ele>
        <time>2014-10-04T15:13:48Z</time>
      </trkpt>
      <trkpt lat="43.85641" lon="6.72027">
        <ele>968.631</ele>
        <time>2014-10-04T15:13:55Z</time>
      </trkpt>
      <trkpt lat="43.85636" lon="6.72049">
        <ele>968.424</ele>
        <time>2014-10-04T15:14:01Z</time>
      </trkpt>
      <trkpt lat="43.85631" lon="6.72071">
        <ele>968.148</ele>
        <time>2014-10-04T15:14:07Z</time>
      </trkpt>
      <trkpt lat="43.85626" lon="6.72095">
        <ele>971.051</ele>
        <time>2014-10-04T15:14:15Z</time>
      </trkpt>
      <trkpt lat="43.85619" lon="6.72123">
        <ele>970.249</ele>
        <time>2014-10-04T15:14:23Z</time>
      </trkpt>
      <trkpt lat="43.85612" lon="6.72152">
        <ele>971.343</ele>
        <time>2014-10-04T15:14:31Z</time>
      </trkpt>
      <trkpt lat="43.85604" lon="6.72175">
        <ele>973.994</ele>
        <time>2014-10-04T15:14:39Z</time>
      </trkpt>
      <trkpt lat="43.85598" lon="6.72196">
        <ele>972.407</ele>
        <time>2014-10-04T15:14:45Z</time>
      </trkpt>
      <trkpt lat="43.85595" lon="6.72218">
        <ele>972.381</ele>
        <time>2014-10-04T15:14:51Z</time>
      </trkpt>
      <trkpt lat="43.8559" lon="6.7224">
        <ele>975.45</ele>
        <time>2014-10-04T15:14:58Z</time>
      </trkpt>
      <trkpt lat="43.8558" lon="6.72264">
        <ele>976.796</ele>
        <time>2014-10-04T15:15:05Z</time>
      </trkpt>
      <trkpt lat="43.85563" lon="6.7228">
        <ele>977.673</ele>
        <time>2014-10-04T15:15:13Z</time>
      </trkpt>
      <trkpt lat="43.85522" lon="6.72395">
        <ele>973.634</ele>
        <time>2014-10-04T15:15:43Z</time>
      </trkpt>
      <trkpt lat="43.85508" lon="6.72413">
        <ele>975.908</ele>
        <time>2014-10-04T15:15:50Z</time>
      </trkpt>
      <trkpt lat="43.85503" lon="6.72441">
        <ele>968.364</ele>
        <time>2014-10-04T15:15:55Z</time>
      </trkpt>
      <trkpt lat="43.8549" lon="6.7245">
        <ele>969.222</ele>
        <time>2014-10-04T15:16:00Z</time>
      </trkpt>
      <trkpt lat="43.8547" lon="6.72466">
        <ele>976.312</ele>
        <time>2014-10-04T15:16:07Z</time>
      </trkpt>
      <trkpt lat="43.85454" lon="6.72486">
        <ele>978.212</ele>
        <time>2014-10-04T15:16:14Z</time>
      </trkpt>
      <trkpt lat="43.8544" lon="6.72506">
        <ele>979.624</ele>
        <time>2014-10-04T15:16:21Z</time>
      </trkpt>
      <trkpt lat="43.85417" lon="6.72509">
        <ele>987.698</ele>
        <time>2014-10-04T15:16:28Z</time>
      </trkpt>
      <trkpt lat="43.85407" lon="6.72523">
        <ele>988.984</ele>
        <time>2014-10-04T15:16:33Z</time>
      </trkpt>
      <trkpt lat="43.85399" lon="6.72546">
        <ele>988.388</ele>
        <time>2014-10-04T15:16:40Z</time>
      </trkpt>
      <trkpt lat="43.85394" lon="6.72562">
        <ele>987.358</ele>
        <time>2014-10-04T15:16:45Z</time>
      </trkpt>
      <trkpt lat="43.85383" lon="6.72575">
        <ele>986.788</ele>
        <time>2014-10-04T15:16:51Z</time>
      </trkpt>
      <trkpt lat="43.85367" lon="6.7259">
        <ele>988.98</ele>
        <time>2014-10-04T15:16:59Z</time>
      </trkpt>
      <trkpt lat="43.85354" lon="6.72601">
        <ele>984.094</ele>
        <time>2014-10-04T15:17:04Z</time>
      </trkpt>
      <trkpt lat="43.85343" lon="6.72612">
        <ele>984.163</ele>
        <time>2014-10-04T15:17:10Z</time>
      </trkpt>
      <trkpt lat="43.85334" lon="6.72623">
        <ele>986.64</ele>
        <time>2014-10-04T15:17:17Z</time>
      </trkpt>
      <trkpt lat="43.85328" lon="6.72626">
        <ele>982.527</ele>
        <time>2014-10-04T15:17:22Z</time>
      </trkpt>
      <trkpt lat="43.85306" lon="6.72642">
        <ele>972.685</ele>
        <time>2014-10-04T15:17:26Z</time>
      </trkpt>
      <trkpt lat="43.85303" lon="6.72646">
        <ele>972.177</ele>
        <time>2014-10-04T15:17:27Z</time>
      </trkpt>
      <trkpt lat="43.8529" lon="6.72656">
        <ele>973.277</ele>
        <time>2014-10-04T15:17:32Z</time>
      </trkpt>
      <trkpt lat="43.853" lon="6.72658">
        <ele>988.587</ele>
        <time>2014-10-04T15:17:34Z</time>
      </trkpt>
      <trkpt lat="43.85296" lon="6.72663">
        <ele>991.719</ele>
        <time>2014-10-04T15:17:38Z</time>
      </trkpt>
      <trkpt lat="43.85291" lon="6.72672">
        <ele>998.804</ele>
        <time>2014-10-04T15:17:44Z</time>
      </trkpt>
      <trkpt lat="43.8529" lon="6.72673">
        <ele>1000.776</ele>
        <time>2014-10-04T15:17:53Z</time>
      </trkpt>
      <trkpt lat="43.8529" lon="6.72673">
        <ele>1002.346</ele>
        <time>2014-10-04T15:18:01Z</time>
      </trkpt>
      <trkpt lat="43.8528" lon="6.72677">
        <ele>1005.297</ele>
        <time>2014-10-04T15:18:06Z</time>
      </trkpt>
      <trkpt lat="43.8528" lon="6.72682">
        <ele>1012.728</ele>
        <time>2014-10-04T15:18:11Z</time>
      </trkpt>
      <trkpt lat="43.85279" lon="6.72738">
        <ele>1046.468</ele>
        <time>2014-10-04T15:18:26Z</time>
      </trkpt>
      <trkpt lat="43.85277" lon="6.72746">
        <ele>1047.9</ele>
        <time>2014-10-04T15:18:28Z</time>
      </trkpt>
      <trkpt lat="43.85261" lon="6.72771">
        <ele>1033.605</ele>
        <time>2014-10-04T15:18:32Z</time>
      </trkpt>
      <trkpt lat="43.85242" lon="6.72804">
        <ele>1013.598</ele>
        <time>2014-10-04T15:18:40Z</time>
      </trkpt>
      <trkpt lat="43.85232" lon="6.72818">
        <ele>1012.09</ele>
        <time>2014-10-04T15:18:47Z</time>
      </trkpt>
      <trkpt lat="43.85215" lon="6.72842">
        <ele>1001.273</ele>
        <time>2014-10-04T15:18:52Z</time>
      </trkpt>
      <trkpt lat="43.85212" lon="6.72858">
        <ele>1004.5</ele>
        <time>2014-10-04T15:18:57Z</time>
      </trkpt>
      <trkpt lat="43.85212" lon="6.72864">
        <ele>1007.42</ele>
        <time>2014-10-04T15:18:59Z</time>
      </trkpt>
      <trkpt lat="43.85221" lon="6.72878">
        <ele>1035.409</ele>
        <time>2014-10-04T15:19:05Z</time>
      </trkpt>
      <trkpt lat="43.85214" lon="6.72884">
        <ele>1057.963</ele>
        <time>2014-10-04T15:19:11Z</time>
      </trkpt>
      <trkpt lat="43.852" lon="6.72883">
        <ele>1086.319</ele>
        <time>2014-10-04T15:19:17Z</time>
      </trkpt>
      <trkpt lat="43.8519" lon="6.72887">
        <ele>1099.349</ele>
        <time>2014-10-04T15:19:22Z</time>
      </trkpt>
      <trkpt lat="43.85177" lon="6.72894">
        <ele>1124.749</ele>
        <time>2014-10-04T15:19:30Z</time>
      </trkpt>
      <trkpt lat="43.85166" lon="6.72903">
        <ele>1114.234</ele>
        <time>2014-10-04T15:19:37Z</time>
      </trkpt>
      <trkpt lat="43.8516" lon="6.72909">
        <ele>1098.203</ele>
        <time>2014-10-04T15:19:42Z</time>
      </trkpt>
      <trkpt lat="43.85156" lon="6.72922">
        <ele>1092.777</ele>
        <time>2014-10-04T15:19:46Z</time>
      </trkpt>
      <trkpt lat="43.85149" lon="6.72943">
        <ele>1089.916</ele>
        <time>2014-10-04T15:19:53Z</time>
      </trkpt>
      <trkpt lat="43.85148" lon="6.72963">
        <ele>1092.042</ele>
        <time>2014-10-04T15:19:58Z</time>
      </trkpt>
      <trkpt lat="43.85141" lon="6.7297">
        <ele>1091.738</ele>
        <time>2014-10-04T15:20:04Z</time>
      </trkpt>
      <trkpt lat="43.85135" lon="6.72974">
        <ele>1091.029</ele>
        <time>2014-10-04T15:20:07Z</time>
      </trkpt>
      <trkpt lat="43.85122" lon="6.72986">
        <ele>1087.034</ele>
        <time>2014-10-04T15:20:13Z</time>
      </trkpt>
      <trkpt lat="43.85119" lon="6.73005">
        <ele>1079.688</ele>
        <time>2014-10-04T15:20:18Z</time>
      </trkpt>
      <trkpt lat="43.85117" lon="6.73046">
        <ele>1069.602</ele>
        <time>2014-10-04T15:20:23Z</time>
      </trkpt>
      <trkpt lat="43.85105" lon="6.73087">
        <ele>1035.429</ele>
        <time>2014-10-04T15:20:28Z</time>
      </trkpt>
      <trkpt lat="43.85094" lon="6.7312">
        <ele>1010.01</ele>
        <time>2014-10-04T15:20:34Z</time>
      </trkpt>
      <trkpt lat="43.85081" lon="6.73134">
        <ele>1002.852</ele>
        <time>2014-10-04T15:20:39Z</time>
      </trkpt>
      <trkpt lat="43.85062" lon="6.73162">
        <ele>995.58</ele>
        <time>2014-10-04T15:20:46Z</time>
      </trkpt>
      <trkpt lat="43.85055" lon="6.73185">
        <ele>973.953</ele>
        <time>2014-10-04T15:20:51Z</time>
      </trkpt>
      <trkpt lat="43.85045" lon="6.73188">
        <ele>970.673</ele>
        <time>2014-10-04T15:20:55Z</time>
      </trkpt>
      <trkpt lat="43.85025" lon="6.73192">
        <ele>969.615</ele>
        <time>2014-10-04T15:21:00Z</time>
      </trkpt>
      <trkpt lat="43.84986" lon="6.73188">
        <ele>979.643</ele>
        <time>2014-10-04T15:21:08Z</time>
      </trkpt>
      <trkpt lat="43.84964" lon="6.73189">
        <ele>1002.392</ele>
        <time>2014-10-04T15:21:14Z</time>
      </trkpt>
      <trkpt lat="43.84948" lon="6.73169">
        <ele>1010.734</ele>
        <time>2014-10-04T15:21:19Z</time>
      </trkpt>
      <trkpt lat="43.84913" lon="6.73126">
        <ele>1038.725</ele>
        <time>2014-10-04T15:21:26Z</time>
      </trkpt>
      <trkpt lat="43.84883" lon="6.73102">
        <ele>1051.15</ele>
        <time>2014-10-04T15:21:33Z</time>
      </trkpt>
      <trkpt lat="43.84866" lon="6.73096">
        <ele>1050.034</ele>
        <time>2014-10-04T15:21:40Z</time>
      </trkpt>
      <trkpt lat="43.84861" lon="6.73094">
        <ele>1051.155</ele>
        <time>2014-10-04T15:21:44Z</time>
      </trkpt>
      <trkpt lat="43.84846" lon="6.73077">
        <ele>1059.182</ele>
        <time>2014-10-04T15:21:50Z</time>
      </trkpt>
      <trkpt lat="43.84837" lon="6.73064">
        <ele>1062.358</ele>
        <time>2014-10-04T15:21:56Z</time>
      </trkpt>
      <trkpt lat="43.84836" lon="6.73063">
        <ele>1062.476</ele>
        <time>2014-10-04T15:21:57Z</time>
      </trkpt>
      <trkpt lat="43.84831" lon="6.73066">
        <ele>1061.879</ele>
        <time>2014-10-04T15:22:01Z</time>
      </trkpt>
      <trkpt lat="43.84831" lon="6.73072">
        <ele>1056.37</ele>
        <time>2014-10-04T15:22:06Z</time>
      </trkpt>
      <trkpt lat="43.84831" lon="6.73074">
        <ele>1054.139</ele>
        <time>2014-10-04T15:22:09Z</time>
      </trkpt>
    </trkseg>
  </trk>
</gpx>